<?xml version='1.0' encoding='UTF-8'?><gpx version="1.1" creator="JPX - https://github.com/jenetics/jpx" xmlns="http://www.topografix.com/GPX/1/1"><trk><trkseg><trkpt lat="38.159497186872606" lon="13.31623601575449"><ele>69.0</ele><time>2026-04-12T07:07:52Z</time></trkpt><trkpt lat="38.15939481476345" lon="13.316335949118898"><ele>69.0</ele><time>2026-04-12T07:07:54Z</time></trkpt><trkpt lat="38.159328292517195" lon="13.31639790306641"><ele>69.0</ele><time>2026-04-12T07:07:55Z</time></trkpt><trkpt lat="38.15925403229367" lon="13.316471061716692"><ele>69.0</ele><time>2026-04-12T07:07:56Z</time></trkpt><trkpt lat="38.159180631453914" lon="13.316550378697963"><ele>69.0</ele><time>2026-04-12T07:07:57Z</time></trkpt><trkpt lat="38.15909791858664" lon="13.316616803840272"><ele>70.5</ele><time>2026-04-12T07:07:58Z</time></trkpt><trkpt lat="38.15901124355085" lon="13.316681948570585"><ele>72.0</ele><time>2026-04-12T07:07:59Z</time></trkpt><trkpt lat="38.15891477644629" lon="13.31675790901657"><ele>73.5</ele><time>2026-04-12T07:08:00Z</time></trkpt><trkpt lat="38.158810673879834" lon="13.316836930460566"><ele>75.0</ele><time>2026-04-12T07:08:01Z</time></trkpt><trkpt lat="38.158704653231" lon="13.316931857737167"><ele>75.0</ele><time>2026-04-12T07:08:02Z</time></trkpt><trkpt lat="38.15859637259501" lon="13.317021858790865"><ele>75.0</ele><time>2026-04-12T07:08:03Z</time></trkpt><trkpt lat="38.15848040281913" lon="13.317115916590852"><ele>75.0</ele><time>2026-04-12T07:08:04Z</time></trkpt><trkpt lat="38.15836952566218" lon="13.317206520786778"><ele>75.0</ele><time>2026-04-12T07:08:05Z</time></trkpt><trkpt lat="38.15826475686393" lon="13.317281275242927"><ele>72.25</ele><time>2026-04-12T07:08:06Z</time></trkpt><trkpt lat="38.15815132221168" lon="13.317350290443523"><ele>69.5</ele><time>2026-04-12T07:08:07Z</time></trkpt><trkpt lat="38.15804824844752" lon="13.317426220994612"><ele>66.75</ele><time>2026-04-12T07:08:08Z</time></trkpt><trkpt lat="38.15794607208556" lon="13.317499062417012"><ele>64.0</ele><time>2026-04-12T07:08:09Z</time></trkpt><trkpt lat="38.15784346728278" lon="13.31758282038708"><ele>64.0</ele><time>2026-04-12T07:08:10Z</time></trkpt><trkpt lat="38.157752536603454" lon="13.317678721182594"><ele>64.0</ele><time>2026-04-12T07:08:11Z</time></trkpt><trkpt lat="38.157657705684116" lon="13.317758535533512"><ele>64.0</ele><time>2026-04-12T07:08:12Z</time></trkpt><trkpt lat="38.15756939863262" lon="13.317847245710912"><ele>64.0</ele><time>2026-04-12T07:08:13Z</time></trkpt><trkpt lat="38.15747091358924" lon="13.317929555914413"><ele>64.25</ele><time>2026-04-12T07:08:14Z</time></trkpt><trkpt lat="38.157362147950934" lon="13.31801150345037"><ele>64.5</ele><time>2026-04-12T07:08:15Z</time></trkpt><trkpt lat="38.15726285963139" lon="13.318098423350275"><ele>64.75</ele><time>2026-04-12T07:08:16Z</time></trkpt><trkpt lat="38.157151163476726" lon="13.318185984014251"><ele>65.0</ele><time>2026-04-12T07:08:17Z</time></trkpt><trkpt lat="38.1570330622319" lon="13.31827932959338"><ele>65.25</ele><time>2026-04-12T07:08:18Z</time></trkpt><trkpt lat="38.156917261135156" lon="13.318367620649894"><ele>65.5</ele><time>2026-04-12T07:08:19Z</time></trkpt><trkpt lat="38.15679907767001" lon="13.318463129873953"><ele>65.75</ele><time>2026-04-12T07:08:20Z</time></trkpt><trkpt lat="38.15668523684308" lon="13.318547950659664"><ele>66.0</ele><time>2026-04-12T07:08:21Z</time></trkpt><trkpt lat="38.156565361553625" lon="13.318649349267565"><ele>65.5</ele><time>2026-04-12T07:08:22Z</time></trkpt><trkpt lat="38.15644720119724" lon="13.318739487242343"><ele>65.0</ele><time>2026-04-12T07:08:23Z</time></trkpt><trkpt lat="38.156337820583595" lon="13.318820838335567"><ele>64.5</ele><time>2026-04-12T07:08:24Z</time></trkpt><trkpt lat="38.15623616869867" lon="13.318909318882964"><ele>64.0</ele><time>2026-04-12T07:08:25Z</time></trkpt><trkpt lat="38.15612342608687" lon="13.318999474206743"><ele>63.75</ele><time>2026-04-12T07:08:26Z</time></trkpt><trkpt lat="38.1560113164217" lon="13.319096684097001"><ele>63.5</ele><time>2026-04-12T07:08:27Z</time></trkpt><trkpt lat="38.155906709397335" lon="13.319199113217211"><ele>63.25</ele><time>2026-04-12T07:08:28Z</time></trkpt><trkpt lat="38.15579312128014" lon="13.31930937916028"><ele>63.0</ele><time>2026-04-12T07:08:29Z</time></trkpt><trkpt lat="38.15567867012051" lon="13.319422670146981"><ele>63.33333333333333</ele><time>2026-04-12T07:08:30Z</time></trkpt><trkpt lat="38.15555966589777" lon="13.31953576120534"><ele>63.666666666666664</ele><time>2026-04-12T07:08:31Z</time></trkpt><trkpt lat="38.155426474332266" lon="13.319668746690736"><ele>64.0</ele><time>2026-04-12T07:08:32Z</time></trkpt><trkpt lat="38.15529421505045" lon="13.319784834154113"><ele>64.0</ele><time>2026-04-12T07:08:33Z</time></trkpt><trkpt lat="38.15516695217723" lon="13.319892210029037"><ele>64.0</ele><time>2026-04-12T07:08:34Z</time></trkpt><trkpt lat="38.155045880745554" lon="13.320009327860985"><ele>64.0</ele><time>2026-04-12T07:08:35Z</time></trkpt><trkpt lat="38.154932793409316" lon="13.320111457145625"><ele>64.0</ele><time>2026-04-12T07:08:36.001Z</time></trkpt><trkpt lat="38.154817567856014" lon="13.320219064235584"><ele>62.666666666666664</ele><time>2026-04-12T07:08:37.001Z</time></trkpt><trkpt lat="38.15470134901601" lon="13.320327006321163"><ele>61.33333333333333</ele><time>2026-04-12T07:08:38.001Z</time></trkpt><trkpt lat="38.15457704265615" lon="13.320450232969934"><ele>60.0</ele><time>2026-04-12T07:08:39.001Z</time></trkpt><trkpt lat="38.154457991332436" lon="13.320570835697254"><ele>59.0</ele><time>2026-04-12T07:08:40.001Z</time></trkpt><trkpt lat="38.154337907485036" lon="13.320687224541935"><ele>58.0</ele><time>2026-04-12T07:08:41.001Z</time></trkpt><trkpt lat="38.154224219481534" lon="13.320803113690854"><ele>57.0</ele><time>2026-04-12T07:08:42.001Z</time></trkpt><trkpt lat="38.15412417464944" lon="13.320896013049751"><ele>56.0</ele><time>2026-04-12T07:08:43.001Z</time></trkpt><trkpt lat="38.15402934536387" lon="13.320981213870805"><ele>56.0</ele><time>2026-04-12T07:08:44.001Z</time></trkpt><trkpt lat="38.15393851180031" lon="13.321074059327799"><ele>55.99999999999999</ele><time>2026-04-12T07:08:45.001Z</time></trkpt><trkpt lat="38.15385484663125" lon="13.321146925157123"><ele>55.99999999999999</ele><time>2026-04-12T07:08:46.001Z</time></trkpt><trkpt lat="38.15377774121282" lon="13.321221890346886"><ele>56.0</ele><time>2026-04-12T07:08:47.001Z</time></trkpt><trkpt lat="38.15371419440036" lon="13.321278587976115"><ele>56.0</ele><time>2026-04-12T07:08:48.001Z</time></trkpt><trkpt lat="38.153640123761335" lon="13.321347291834728"><ele>56.00000000000001</ele><time>2026-04-12T07:08:50.001Z</time></trkpt><trkpt lat="38.15358807209127" lon="13.321414147737723"><ele>56.0</ele><time>2026-04-12T07:08:52.001Z</time></trkpt><trkpt lat="38.15350114953641" lon="13.321383005150052"><ele>56.0</ele><time>2026-04-12T07:08:53.001Z</time></trkpt><trkpt lat="38.15344121424045" lon="13.321413259953856"><ele>56.0</ele><time>2026-04-12T07:08:54.001Z</time></trkpt><trkpt lat="38.15338561361193" lon="13.321455442215742"><ele>56.00000000000001</ele><time>2026-04-12T07:08:55.001Z</time></trkpt><trkpt lat="38.153279270268314" lon="13.321548009130057"><ele>56.0</ele><time>2026-04-12T07:08:57.001Z</time></trkpt><trkpt lat="38.15329890398253" lon="13.321688731730289"><ele>56.0</ele><time>2026-04-12T07:08:58.001Z</time></trkpt><trkpt lat="38.15320203960003" lon="13.321442633832488"><ele>56.0</ele><time>2026-04-12T07:09:00.001Z</time></trkpt><trkpt lat="38.153141282206015" lon="13.321376925712059"><ele>56.0</ele><time>2026-04-12T07:09:02.001Z</time></trkpt><trkpt lat="38.153151937570556" lon="13.321259627103668"><ele>56.0</ele><time>2026-04-12T07:09:03.001Z</time></trkpt><trkpt lat="38.15328017564031" lon="13.321174364788003"><ele>56.0</ele><time>2026-04-12T07:09:05.001Z</time></trkpt><trkpt lat="38.15336159126632" lon="13.321074019090455"><ele>56.0</ele><time>2026-04-12T07:09:06.001Z</time></trkpt><trkpt lat="38.15346567167789" lon="13.320938232018747"><ele>56.0</ele><time>2026-04-12T07:09:07.001Z</time></trkpt><trkpt lat="38.15355676807448" lon="13.320763182083686"><ele>56.0</ele><time>2026-04-12T07:09:08.001Z</time></trkpt><trkpt lat="38.15367900775078" lon="13.32060932672279"><ele>56.0</ele><time>2026-04-12T07:09:09.001Z</time></trkpt><trkpt lat="38.153810817398636" lon="13.320448121412992"><ele>56.0</ele><time>2026-04-12T07:09:10.001Z</time></trkpt><trkpt lat="38.15394050708005" lon="13.320291415392791"><ele>56.0</ele><time>2026-04-12T07:09:11.001Z</time></trkpt><trkpt lat="38.154060870367026" lon="13.320139821690914"><ele>57.333333333333336</ele><time>2026-04-12T07:09:12.001Z</time></trkpt><trkpt lat="38.15418676001766" lon="13.32001045318754"><ele>58.66666666666667</ele><time>2026-04-12T07:09:12.999Z</time></trkpt><trkpt lat="38.15428453239617" lon="13.31986142098647"><ele>60.0</ele><time>2026-04-12T07:09:13.999Z</time></trkpt><trkpt lat="38.15438635558531" lon="13.319735388486741"><ele>60.25</ele><time>2026-04-12T07:09:14.999Z</time></trkpt><trkpt lat="38.154492232880436" lon="13.31960429695427"><ele>60.5</ele><time>2026-04-12T07:09:15.999Z</time></trkpt><trkpt lat="38.154587633229774" lon="13.319485975744708"><ele>60.75</ele><time>2026-04-12T07:09:16.999Z</time></trkpt><trkpt lat="38.15469466237785" lon="13.319353231794661"><ele>61.0</ele><time>2026-04-12T07:09:17.999Z</time></trkpt><trkpt lat="38.15480211366178" lon="13.319219964293293"><ele>61.666666666666664</ele><time>2026-04-12T07:09:18.999Z</time></trkpt><trkpt lat="38.15491280157894" lon="13.319084442816832"><ele>62.33333333333333</ele><time>2026-04-12T07:09:19.999Z</time></trkpt><trkpt lat="38.155027777293114" lon="13.318945734316353"><ele>63.0</ele><time>2026-04-12T07:09:20.999Z</time></trkpt><trkpt lat="38.15513820081327" lon="13.318812517660518"><ele>63.0</ele><time>2026-04-12T07:09:21.999Z</time></trkpt><trkpt lat="38.15525181727854" lon="13.318671364460899"><ele>63.0</ele><time>2026-04-12T07:09:22.999Z</time></trkpt><trkpt lat="38.15536626595429" lon="13.31852880645635"><ele>63.0</ele><time>2026-04-12T07:09:23.999Z</time></trkpt><trkpt lat="38.1554781775458" lon="13.318389408663013"><ele>63.0</ele><time>2026-04-12T07:09:24.999Z</time></trkpt><trkpt lat="38.155591141125406" lon="13.31824870050377"><ele>63.0</ele><time>2026-04-12T07:09:25.999Z</time></trkpt><trkpt lat="38.15570844606294" lon="13.318103285033354"><ele>63.0</ele><time>2026-04-12T07:09:26.999Z</time></trkpt><trkpt lat="38.155846600123034" lon="13.317986539101025"><ele>64.0</ele><time>2026-04-12T07:09:27.999Z</time></trkpt><trkpt lat="38.15596238059182" lon="13.317841200934186"><ele>65.0</ele><time>2026-04-12T07:09:28.999Z</time></trkpt><trkpt lat="38.156087841410404" lon="13.317680310141983"><ele>66.0</ele><time>2026-04-12T07:09:29.999Z</time></trkpt><trkpt lat="38.15623032406124" lon="13.31751539115426"><ele>66.0</ele><time>2026-04-12T07:09:30.999Z</time></trkpt><trkpt lat="38.15634937483233" lon="13.317314548556173"><ele>66.0</ele><time>2026-04-12T07:09:31.999Z</time></trkpt><trkpt lat="38.15648951784397" lon="13.317140080497461"><ele>66.0</ele><time>2026-04-12T07:09:32.999Z</time></trkpt><trkpt lat="38.15666442503235" lon="13.317003833970704"><ele>66.66666666666667</ele><time>2026-04-12T07:09:33.999Z</time></trkpt><trkpt lat="38.15679695668033" lon="13.31683410445935"><ele>67.33333333333334</ele><time>2026-04-12T07:09:34.999Z</time></trkpt><trkpt lat="38.15693415307976" lon="13.316664316313195"><ele>68.0</ele><time>2026-04-12T07:09:35.999Z</time></trkpt><trkpt lat="38.15707067701488" lon="13.316485609637779"><ele>68.0</ele><time>2026-04-12T07:09:36.999Z</time></trkpt><trkpt lat="38.15717980110932" lon="13.316278442504474"><ele>68.0</ele><time>2026-04-12T07:09:37.999Z</time></trkpt><trkpt lat="38.15731884223602" lon="13.316105514734465"><ele>68.0</ele><time>2026-04-12T07:09:38.999Z</time></trkpt><trkpt lat="38.15746226406711" lon="13.31592839306443"><ele>68.66666666666667</ele><time>2026-04-12T07:09:39.999Z</time></trkpt><trkpt lat="38.157638577015014" lon="13.315791501430699"><ele>69.33333333333333</ele><time>2026-04-12T07:09:40.999Z</time></trkpt><trkpt lat="38.15778165673656" lon="13.315612989480343"><ele>70.0</ele><time>2026-04-12T07:09:42Z</time></trkpt><trkpt lat="38.15792399682622" lon="13.31543160249247"><ele>70.0</ele><time>2026-04-12T07:09:43Z</time></trkpt><trkpt lat="38.15807335527248" lon="13.31524703303879"><ele>70.0</ele><time>2026-04-12T07:09:44Z</time></trkpt><trkpt lat="38.15819258909462" lon="13.31502896012764"><ele>70.0</ele><time>2026-04-12T07:09:45Z</time></trkpt><trkpt lat="38.15833734058093" lon="13.314850355330176"><ele>70.33333333333333</ele><time>2026-04-12T07:09:46Z</time></trkpt><trkpt lat="38.1584834127804" lon="13.314673086328227"><ele>70.66666666666667</ele><time>2026-04-12T07:09:47Z</time></trkpt><trkpt lat="38.15863424463612" lon="13.31448726528373"><ele>71.0</ele><time>2026-04-12T07:09:48Z</time></trkpt><trkpt lat="38.1588083352374" lon="13.314341977648688"><ele>71.0</ele><time>2026-04-12T07:09:49Z</time></trkpt><trkpt lat="38.15894608916475" lon="13.31416021636675"><ele>71.0</ele><time>2026-04-12T07:09:50Z</time></trkpt><trkpt lat="38.159085047638314" lon="13.313980811046822"><ele>71.0</ele><time>2026-04-12T07:09:51Z</time></trkpt><trkpt lat="38.15922711128865" lon="13.313801126609887"><ele>71.33333333333334</ele><time>2026-04-12T07:09:52Z</time></trkpt><trkpt lat="38.15934107712817" lon="13.313606992277084"><ele>71.66666666666667</ele><time>2026-04-12T07:09:53Z</time></trkpt><trkpt lat="38.15947923020243" lon="13.313435538932717"><ele>72.0</ele><time>2026-04-12T07:09:54Z</time></trkpt><trkpt lat="38.15961343465987" lon="13.313268898419565"><ele>72.0</ele><time>2026-04-12T07:09:55Z</time></trkpt><trkpt lat="38.159752814410865" lon="13.313095831805393"><ele>72.0</ele><time>2026-04-12T07:09:56Z</time></trkpt><trkpt lat="38.15988617033561" lon="13.312930244903843"><ele>72.0</ele><time>2026-04-12T07:09:57Z</time></trkpt><trkpt lat="38.16002251716307" lon="13.312762017579693"><ele>72.33333333333333</ele><time>2026-04-12T07:09:58Z</time></trkpt><trkpt lat="38.16016314934571" lon="13.312589232816105"><ele>72.66666666666666</ele><time>2026-04-12T07:09:59Z</time></trkpt><trkpt lat="38.16030497972445" lon="13.31241468250151"><ele>73.0</ele><time>2026-04-12T07:10:00Z</time></trkpt><trkpt lat="38.160448280147016" lon="13.312236201376566"><ele>73.66666666666666</ele><time>2026-04-12T07:10:01Z</time></trkpt><trkpt lat="38.1605936206757" lon="13.31205440693645"><ele>74.33333333333333</ele><time>2026-04-12T07:10:02Z</time></trkpt><trkpt lat="38.160737131774425" lon="13.311874669276552"><ele>75.0</ele><time>2026-04-12T07:10:03Z</time></trkpt><trkpt lat="38.160899232257556" lon="13.31171599317254"><ele>75.0</ele><time>2026-04-12T07:10:04Z</time></trkpt><trkpt lat="38.161040939936804" lon="13.311537863381627"><ele>75.0</ele><time>2026-04-12T07:10:05Z</time></trkpt><trkpt lat="38.161177612521634" lon="13.311360546191597"><ele>75.0</ele><time>2026-04-12T07:10:06Z</time></trkpt><trkpt lat="38.16132313585341" lon="13.311176189990196"><ele>75.0</ele><time>2026-04-12T07:10:07Z</time></trkpt><trkpt lat="38.161463240394866" lon="13.31096089694368"><ele>75.0</ele><time>2026-04-12T07:10:08Z</time></trkpt><trkpt lat="38.16160473689486" lon="13.310789753256739"><ele>75.0</ele><time>2026-04-12T07:10:09Z</time></trkpt><trkpt lat="38.16175221732696" lon="13.310635327634584"><ele>75.33333333333333</ele><time>2026-04-12T07:10:10Z</time></trkpt><trkpt lat="38.1618835140815" lon="13.310460364661322"><ele>75.66666666666666</ele><time>2026-04-12T07:10:11Z</time></trkpt><trkpt lat="38.162029568862955" lon="13.310290034476282"><ele>76.0</ele><time>2026-04-12T07:10:12Z</time></trkpt><trkpt lat="38.16217482079887" lon="13.310114346324005"><ele>76.0</ele><time>2026-04-12T07:10:13Z</time></trkpt><trkpt lat="38.16231327107911" lon="13.309940585802533"><ele>76.0</ele><time>2026-04-12T07:10:14Z</time></trkpt><trkpt lat="38.1624533917611" lon="13.309767924723879"><ele>76.0</ele><time>2026-04-12T07:10:15Z</time></trkpt><trkpt lat="38.16259905217244" lon="13.309592230733308"><ele>77.66666666666666</ele><time>2026-04-12T07:10:16Z</time></trkpt><trkpt lat="38.16274969405528" lon="13.30941327203205"><ele>79.33333333333333</ele><time>2026-04-12T07:10:17Z</time></trkpt><trkpt lat="38.16289475033142" lon="13.309239084310887"><ele>81.0</ele><time>2026-04-12T07:10:18Z</time></trkpt><trkpt lat="38.16305368817166" lon="13.309069810570692"><ele>80.66666666666667</ele><time>2026-04-12T07:10:19Z</time></trkpt><trkpt lat="38.163206888893086" lon="13.308887858755922"><ele>80.33333333333334</ele><time>2026-04-12T07:10:20Z</time></trkpt><trkpt lat="38.16336414286309" lon="13.3087098397479"><ele>80.0</ele><time>2026-04-12T07:10:21Z</time></trkpt><trkpt lat="38.16350958424724" lon="13.308530365012093"><ele>80.0</ele><time>2026-04-12T07:10:22Z</time></trkpt><trkpt lat="38.163643489084734" lon="13.308365776413089"><ele>80.0</ele><time>2026-04-12T07:10:23Z</time></trkpt><trkpt lat="38.16378260443276" lon="13.308191806651719"><ele>80.0</ele><time>2026-04-12T07:10:24Z</time></trkpt><trkpt lat="38.16392833642185" lon="13.30801102585367"><ele>79.0</ele><time>2026-04-12T07:10:25Z</time></trkpt><trkpt lat="38.16406903443627" lon="13.307829399723847"><ele>78.0</ele><time>2026-04-12T07:10:26Z</time></trkpt><trkpt lat="38.164192927500395" lon="13.307625732218774"><ele>77.0</ele><time>2026-04-12T07:10:27Z</time></trkpt><trkpt lat="38.16433727828392" lon="13.307448842030745"><ele>77.0</ele><time>2026-04-12T07:10:28Z</time></trkpt><trkpt lat="38.16447434417523" lon="13.307281559872534"><ele>77.0</ele><time>2026-04-12T07:10:29Z</time></trkpt><trkpt lat="38.16461346746284" lon="13.307112365217458"><ele>77.0</ele><time>2026-04-12T07:10:30Z</time></trkpt><trkpt lat="38.164762897072855" lon="13.306961268431879"><ele>76.0</ele><time>2026-04-12T07:10:31Z</time></trkpt><trkpt lat="38.164897603345544" lon="13.30679426949005"><ele>75.0</ele><time>2026-04-12T07:10:32Z</time></trkpt><trkpt lat="38.165032354860884" lon="13.306628598841531"><ele>74.0</ele><time>2026-04-12T07:10:33Z</time></trkpt><trkpt lat="38.16516016451517" lon="13.306469745232445"><ele>74.25</ele><time>2026-04-12T07:10:34Z</time></trkpt><trkpt lat="38.165264254097046" lon="13.306350113240766"><ele>74.5</ele><time>2026-04-12T07:10:35Z</time></trkpt><trkpt lat="38.16535995257532" lon="13.306233849600963"><ele>74.75</ele><time>2026-04-12T07:10:36Z</time></trkpt><trkpt lat="38.16544178483297" lon="13.306131941036119"><ele>75.0</ele><time>2026-04-12T07:10:37Z</time></trkpt><trkpt lat="38.16550885433719" lon="13.306047299288187"><ele>75.0</ele><time>2026-04-12T07:10:38Z</time></trkpt><trkpt lat="38.16556002849422" lon="13.305981469961809"><ele>75.0</ele><time>2026-04-12T07:10:39Z</time></trkpt><trkpt lat="38.16560273456413" lon="13.305892083118387"><ele>75.0</ele><time>2026-04-12T07:10:41Z</time></trkpt><trkpt lat="38.16551372259976" lon="13.305761120046311"><ele>75.0</ele><time>2026-04-12T07:10:44Z</time></trkpt><trkpt lat="38.16541966053347" lon="13.30563341965528"><ele>75.0</ele><time>2026-04-12T07:10:46Z</time></trkpt><trkpt lat="38.16524106539721" lon="13.305660234043337"><ele>75.0</ele><time>2026-04-12T07:10:49Z</time></trkpt><trkpt lat="38.16516145028394" lon="13.305733505866208"><ele>75.0</ele><time>2026-04-12T07:10:50Z</time></trkpt><trkpt lat="38.165084694867126" lon="13.305850526308317"><ele>75.0</ele><time>2026-04-12T07:10:51Z</time></trkpt><trkpt lat="38.16497142767724" lon="13.30598225295732"><ele>75.0</ele><time>2026-04-12T07:10:52Z</time></trkpt><trkpt lat="38.164831590828534" lon="13.306142061857459"><ele>75.66666666666667</ele><time>2026-04-12T07:10:53Z</time></trkpt><trkpt lat="38.16467695847284" lon="13.306320075283699"><ele>76.33333333333334</ele><time>2026-04-12T07:10:54Z</time></trkpt><trkpt lat="38.164521044730265" lon="13.306510402314762"><ele>77.0</ele><time>2026-04-12T07:10:55Z</time></trkpt><trkpt lat="38.164372902323656" lon="13.306676422791469"><ele>77.0</ele><time>2026-04-12T07:10:56Z</time></trkpt><trkpt lat="38.164260861538985" lon="13.306807993260685"><ele>77.0</ele><time>2026-04-12T07:10:57Z</time></trkpt><trkpt lat="38.16415851199851" lon="13.306926936386352"><ele>77.0</ele><time>2026-04-12T07:10:58Z</time></trkpt><trkpt lat="38.164082655333814" lon="13.307015518062514"><ele>77.0</ele><time>2026-04-12T07:10:59Z</time></trkpt><trkpt lat="38.16402077493281" lon="13.307085937556385"><ele>78.0</ele><time>2026-04-12T07:11:00.001Z</time></trkpt><trkpt lat="38.16394870024992" lon="13.30716601950082"><ele>79.0</ele><time>2026-04-12T07:11:02.001Z</time></trkpt><trkpt lat="38.16391176377553" lon="13.307235033738154"><ele>80.0</ele><time>2026-04-12T07:11:05.001Z</time></trkpt><trkpt lat="38.16380428659064" lon="13.307043602274078"><ele>81.0</ele><time>2026-04-12T07:11:07.001Z</time></trkpt><trkpt lat="38.16372505248244" lon="13.3069500670631"><ele>81.0</ele><time>2026-04-12T07:11:08.001Z</time></trkpt><trkpt lat="38.163647735650564" lon="13.306818087765157"><ele>81.0</ele><time>2026-04-12T07:11:09.001Z</time></trkpt><trkpt lat="38.16353366202039" lon="13.306637174993194"><ele>81.0</ele><time>2026-04-12T07:11:10.001Z</time></trkpt><trkpt lat="38.16340191719093" lon="13.306433626795933"><ele>82.0</ele><time>2026-04-12T07:11:11.001Z</time></trkpt><trkpt lat="38.163282277604395" lon="13.306244445271526"><ele>83.0</ele><time>2026-04-12T07:11:12.001Z</time></trkpt><trkpt lat="38.16319161939835" lon="13.306083764108365"><ele>84.0</ele><time>2026-04-12T07:11:13.001Z</time></trkpt><trkpt lat="38.16309849262755" lon="13.305933101522582"><ele>86.0</ele><time>2026-04-12T07:11:14.001Z</time></trkpt><trkpt lat="38.162997952784856" lon="13.305770375513132"><ele>88.0</ele><time>2026-04-12T07:11:15.001Z</time></trkpt><trkpt lat="38.16289660565941" lon="13.30561293912508"><ele>90.0</ele><time>2026-04-12T07:11:16.001Z</time></trkpt><trkpt lat="38.162791760511" lon="13.305454115789576"><ele>90.33333333333333</ele><time>2026-04-12T07:11:17.001Z</time></trkpt><trkpt lat="38.16269246816652" lon="13.305285613354775"><ele>90.66666666666666</ele><time>2026-04-12T07:11:18.001Z</time></trkpt><trkpt lat="38.162605173111295" lon="13.305101477409018"><ele>91.0</ele><time>2026-04-12T07:11:18.998Z</time></trkpt><trkpt lat="38.16252396984472" lon="13.30490992538163"><ele>91.33333333333333</ele><time>2026-04-12T07:11:19.998Z</time></trkpt><trkpt lat="38.16246133118484" lon="13.304690746129099"><ele>91.66666666666667</ele><time>2026-04-12T07:11:20.999Z</time></trkpt><trkpt lat="38.16237982667673" lon="13.30451196651465"><ele>92.0</ele><time>2026-04-12T07:11:21.999Z</time></trkpt><trkpt lat="38.162313718641315" lon="13.304323791328851"><ele>95.33333333333334</ele><time>2026-04-12T07:11:22.999Z</time></trkpt><trkpt lat="38.16222590939736" lon="13.304156561342882"><ele>98.66666666666667</ele><time>2026-04-12T07:11:23.999Z</time></trkpt><trkpt lat="38.162127581433346" lon="13.304027208346518"><ele>102.0</ele><time>2026-04-12T07:11:24.999Z</time></trkpt><trkpt lat="38.16202619325094" lon="13.303879320282372"><ele>104.25</ele><time>2026-04-12T07:11:25.999Z</time></trkpt><trkpt lat="38.1619722151485" lon="13.303722834230843"><ele>106.5</ele><time>2026-04-12T07:11:26.999Z</time></trkpt><trkpt lat="38.16194730157012" lon="13.303571886670264"><ele>108.75</ele><time>2026-04-12T07:11:27.999Z</time></trkpt><trkpt lat="38.161926356511906" lon="13.30341470277095"><ele>111.0</ele><time>2026-04-12T07:11:28.999Z</time></trkpt><trkpt lat="38.161891288120934" lon="13.303251295850707"><ele>111.75</ele><time>2026-04-12T07:11:29.999Z</time></trkpt><trkpt lat="38.16187160651364" lon="13.303074018601116"><ele>112.5</ele><time>2026-04-12T07:11:30.999Z</time></trkpt><trkpt lat="38.16182700876283" lon="13.302907934340356"><ele>113.25</ele><time>2026-04-12T07:11:31.999Z</time></trkpt><trkpt lat="38.161743551406516" lon="13.302760854412957"><ele>114.0</ele><time>2026-04-12T07:11:32.999Z</time></trkpt><trkpt lat="38.161637704019" lon="13.302618483258652"><ele>124.0</ele><time>2026-04-12T07:11:33.999Z</time></trkpt><trkpt lat="38.161526804564474" lon="13.302477368932701"><ele>134.0</ele><time>2026-04-12T07:11:34.999Z</time></trkpt><trkpt lat="38.16140692847495" lon="13.302341062815126"><ele>144.0</ele><time>2026-04-12T07:11:35.999Z</time></trkpt><trkpt lat="38.16128166761933" lon="13.30222035751575"><ele>144.0</ele><time>2026-04-12T07:11:36.999Z</time></trkpt><trkpt lat="38.16115146581155" lon="13.302108345982965"><ele>144.0</ele><time>2026-04-12T07:11:37.999Z</time></trkpt><trkpt lat="38.16103626539765" lon="13.301983975365129"><ele>144.0</ele><time>2026-04-12T07:11:38.999Z</time></trkpt><trkpt lat="38.16092817689717" lon="13.301851349701552"><ele>144.0</ele><time>2026-04-12T07:11:39.999Z</time></trkpt><trkpt lat="38.160818261130764" lon="13.301729298278413"><ele>144.0</ele><time>2026-04-12T07:11:40.999Z</time></trkpt><trkpt lat="38.16070609913452" lon="13.301611240441835"><ele>144.0</ele><time>2026-04-12T07:11:41.999Z</time></trkpt><trkpt lat="38.16058132918976" lon="13.301498288126101"><ele>144.0</ele><time>2026-04-12T07:11:42.999Z</time></trkpt><trkpt lat="38.160447101823145" lon="13.301378347159643"><ele>149.75</ele><time>2026-04-12T07:11:43.999Z</time></trkpt><trkpt lat="38.16033095225038" lon="13.30126847355735"><ele>155.5</ele><time>2026-04-12T07:11:44.999Z</time></trkpt><trkpt lat="38.16024186252897" lon="13.301119333998056"><ele>161.25</ele><time>2026-04-12T07:11:45.999Z</time></trkpt><trkpt lat="38.16015402621909" lon="13.300958349119632"><ele>167.0</ele><time>2026-04-12T07:11:46.999Z</time></trkpt><trkpt lat="38.160061542528275" lon="13.30077799301102"><ele>167.0</ele><time>2026-04-12T07:11:47.999Z</time></trkpt><trkpt lat="38.15998195668827" lon="13.300606654977948"><ele>167.0</ele><time>2026-04-12T07:11:48.999Z</time></trkpt><trkpt lat="38.15997122641885" lon="13.30043386873737"><ele>167.0</ele><time>2026-04-12T07:11:49.999Z</time></trkpt><trkpt lat="38.159940830435204" lon="13.300296291510598"><ele>167.0</ele><time>2026-04-12T07:11:50.999Z</time></trkpt><trkpt lat="38.15992197870118" lon="13.300204054008598"><ele>173.25</ele><time>2026-04-12T07:11:51.999Z</time></trkpt><trkpt lat="38.15982891540255" lon="13.300163781994794"><ele>179.5</ele><time>2026-04-12T07:11:54Z</time></trkpt><trkpt lat="38.15970602147626" lon="13.300248335427955"><ele>185.75</ele><time>2026-04-12T07:11:56Z</time></trkpt><trkpt lat="38.15963738853349" lon="13.300352792888225"><ele>192.0</ele><time>2026-04-12T07:11:57Z</time></trkpt><trkpt lat="38.159588708270505" lon="13.300483567009964"><ele>190.39999999999998</ele><time>2026-04-12T07:11:58Z</time></trkpt><trkpt lat="38.15955759096775" lon="13.300637106158726"><ele>188.79999999999998</ele><time>2026-04-12T07:11:59Z</time></trkpt><trkpt lat="38.15952312455062" lon="13.300781873748882"><ele>187.2</ele><time>2026-04-12T07:12:00Z</time></trkpt><trkpt lat="38.15948443584609" lon="13.300868111750082"><ele>185.6</ele><time>2026-04-12T07:12:01Z</time></trkpt><trkpt lat="38.15937119045516" lon="13.300898875476571"><ele>184.0</ele><time>2026-04-12T07:12:03Z</time></trkpt><trkpt lat="38.15930658394313" lon="13.3008345521097"><ele>184.0</ele><time>2026-04-12T07:12:04Z</time></trkpt><trkpt lat="38.15923325994481" lon="13.30071537202971"><ele>184.0</ele><time>2026-04-12T07:12:05Z</time></trkpt><trkpt lat="38.15915485718497" lon="13.300564573169744"><ele>184.0</ele><time>2026-04-12T07:12:06Z</time></trkpt><trkpt lat="38.159082422594025" lon="13.300439807621014"><ele>184.0</ele><time>2026-04-12T07:12:07Z</time></trkpt><trkpt lat="38.159028786176435" lon="13.30034862972261"><ele>185.79999999999998</ele><time>2026-04-12T07:12:08Z</time></trkpt><trkpt lat="38.15894351220559" lon="13.300299826978042"><ele>187.6</ele><time>2026-04-12T07:12:10Z</time></trkpt><trkpt lat="38.15887041515754" lon="13.300344362236793"><ele>189.4</ele><time>2026-04-12T07:12:11Z</time></trkpt><trkpt lat="38.15877594370744" lon="13.300426820894598"><ele>191.2</ele><time>2026-04-12T07:12:12Z</time></trkpt><trkpt lat="38.158655579366446" lon="13.300523900404961"><ele>193.0</ele><time>2026-04-12T07:12:13Z</time></trkpt><trkpt lat="38.1585343960897" lon="13.300606389173858"><ele>193.0</ele><time>2026-04-12T07:12:14Z</time></trkpt><trkpt lat="38.15838712839321" lon="13.300720033138992"><ele>193.0</ele><time>2026-04-12T07:12:15Z</time></trkpt><trkpt lat="38.15822346298719" lon="13.300831920243002"><ele>193.0</ele><time>2026-04-12T07:12:16Z</time></trkpt><trkpt lat="38.15808358436264" lon="13.300926368696166"><ele>196.0</ele><time>2026-04-12T07:12:17Z</time></trkpt><trkpt lat="38.157951247434816" lon="13.3010205223876"><ele>199.0</ele><time>2026-04-12T07:12:18Z</time></trkpt><trkpt lat="38.15784952995971" lon="13.30109190736799"><ele>202.0</ele><time>2026-04-12T07:12:19Z</time></trkpt><trkpt lat="38.15777742970896" lon="13.301144539690322"><ele>205.0</ele><time>2026-04-12T07:12:20Z</time></trkpt><trkpt lat="38.15766910861167" lon="13.30114105612359"><ele>205.0</ele><time>2026-04-12T07:12:22Z</time></trkpt><trkpt lat="38.157615612127756" lon="13.301065649780618"><ele>205.0</ele><time>2026-04-12T07:12:23Z</time></trkpt><trkpt lat="38.15756503642357" lon="13.300957767019609"><ele>205.0</ele><time>2026-04-12T07:12:24Z</time></trkpt><trkpt lat="38.157521629946245" lon="13.300857089245001"><ele>205.0</ele><time>2026-04-12T07:12:25Z</time></trkpt><trkpt lat="38.15746230916905" lon="13.300750283474212"><ele>205.0</ele><time>2026-04-12T07:12:26Z</time></trkpt><trkpt lat="38.15738789304669" lon="13.300629173707724"><ele>206.8</ele><time>2026-04-12T07:12:27Z</time></trkpt><trkpt lat="38.1573316107478" lon="13.300529073967555"><ele>208.6</ele><time>2026-04-12T07:12:28Z</time></trkpt><trkpt lat="38.157310335432044" lon="13.300437672006291"><ele>210.39999999999998</ele><time>2026-04-12T07:12:29Z</time></trkpt><trkpt lat="38.15732636789786" lon="13.300335471843352"><ele>212.2</ele><time>2026-04-12T07:12:30Z</time></trkpt><trkpt lat="38.15739866138817" lon="13.300232321458925"><ele>214.0</ele><time>2026-04-12T07:12:31Z</time></trkpt><trkpt lat="38.15746603636736" lon="13.300083011683911"><ele>214.0</ele><time>2026-04-12T07:12:32Z</time></trkpt><trkpt lat="38.157562739872816" lon="13.299923916564927"><ele>214.0</ele><time>2026-04-12T07:12:33Z</time></trkpt><trkpt lat="38.15764466648884" lon="13.299775133403607"><ele>214.0</ele><time>2026-04-12T07:12:34Z</time></trkpt><trkpt lat="38.157728379523284" lon="13.299625197191675"><ele>214.0</ele><time>2026-04-12T07:12:35Z</time></trkpt><trkpt lat="38.15780409057999" lon="13.299465837108523"><ele>216.39999999999998</ele><time>2026-04-12T07:12:36Z</time></trkpt><trkpt lat="38.15788522085273" lon="13.299311842011676"><ele>218.79999999999998</ele><time>2026-04-12T07:12:37Z</time></trkpt><trkpt lat="38.15795544184823" lon="13.299179894036628"><ele>221.20000000000002</ele><time>2026-04-12T07:12:38Z</time></trkpt><trkpt lat="38.15800113878192" lon="13.299075384431655"><ele>223.60000000000002</ele><time>2026-04-12T07:12:39Z</time></trkpt><trkpt lat="38.1580144775196" lon="13.298973643330916"><ele>226.0</ele><time>2026-04-12T07:12:40Z</time></trkpt><trkpt lat="38.15797669894009" lon="13.298870954040005"><ele>228.5</ele><time>2026-04-12T07:12:41Z</time></trkpt><trkpt lat="38.157892748044084" lon="13.298763146052153"><ele>231.0</ele><time>2026-04-12T07:12:42Z</time></trkpt><trkpt lat="38.15780749111572" lon="13.298646981778514"><ele>233.5</ele><time>2026-04-12T07:12:43Z</time></trkpt><trkpt lat="38.1577366289323" lon="13.29851691136811"><ele>236.0</ele><time>2026-04-12T07:12:44Z</time></trkpt><trkpt lat="38.15766693512265" lon="13.298371097296041"><ele>236.0</ele><time>2026-04-12T07:12:45Z</time></trkpt><trkpt lat="38.157576152974734" lon="13.298218501907812"><ele>236.0</ele><time>2026-04-12T07:12:46Z</time></trkpt><trkpt lat="38.157477195738245" lon="13.29805048237063"><ele>236.0</ele><time>2026-04-12T07:12:47Z</time></trkpt><trkpt lat="38.157379067556334" lon="13.29786325057629"><ele>243.33333333333334</ele><time>2026-04-12T07:12:48Z</time></trkpt><trkpt lat="38.15726741364651" lon="13.29766323582408"><ele>250.66666666666669</ele><time>2026-04-12T07:12:49Z</time></trkpt><trkpt lat="38.15716910547727" lon="13.297511884323004"><ele>258.0</ele><time>2026-04-12T07:12:50Z</time></trkpt><trkpt lat="38.157094165721084" lon="13.297373852039048"><ele>258.0</ele><time>2026-04-12T07:12:51Z</time></trkpt><trkpt lat="38.15704573041317" lon="13.29726533545677"><ele>258.0</ele><time>2026-04-12T07:12:52Z</time></trkpt><trkpt lat="38.1569942956855" lon="13.297168857255258"><ele>258.0</ele><time>2026-04-12T07:12:53.001Z</time></trkpt><trkpt lat="38.15689932007532" lon="13.297080137165185"><ele>258.0</ele><time>2026-04-12T07:12:55.001Z</time></trkpt><trkpt lat="38.1569058843347" lon="13.2969743064829"><ele>258.0</ele><time>2026-04-12T07:12:56.001Z</time></trkpt><trkpt lat="38.15694890237902" lon="13.296862382961013"><ele>259.6666666666667</ele><time>2026-04-12T07:12:58.001Z</time></trkpt><trkpt lat="38.15697492922111" lon="13.296766446066812"><ele>261.3333333333333</ele><time>2026-04-12T07:13:01.001Z</time></trkpt><trkpt lat="38.15702180222277" lon="13.296704573077152"><ele>263.0</ele><time>2026-04-12T07:13:03.001Z</time></trkpt><trkpt lat="38.15707058085819" lon="13.29664829573273"><ele>264.66666666666663</ele><time>2026-04-12T07:13:18.001Z</time></trkpt><trkpt lat="38.157139774274725" lon="13.296570256640031"><ele>266.3333333333333</ele><time>2026-04-12T07:13:21.001Z</time></trkpt><trkpt lat="38.157199771992914" lon="13.296531105744483"><ele>268.0</ele><time>2026-04-12T07:13:22.001Z</time></trkpt><trkpt lat="38.15726666941774" lon="13.296477190554297"><ele>267.8</ele><time>2026-04-12T07:13:24.001Z</time></trkpt><trkpt lat="38.1573801775706" lon="13.296635537275217"><ele>267.6</ele><time>2026-04-12T07:13:26.999Z</time></trkpt><trkpt lat="38.15742938477721" lon="13.296700677237268"><ele>267.4</ele><time>2026-04-12T07:13:28.999Z</time></trkpt><trkpt lat="38.15748489988927" lon="13.296778921900433"><ele>267.2</ele><time>2026-04-12T07:14:01Z</time></trkpt><trkpt lat="38.15754042172154" lon="13.296820582677332"><ele>267.0</ele><time>2026-04-12T07:14:02Z</time></trkpt><trkpt lat="38.15761299848889" lon="13.296849371536698"><ele>267.0</ele><time>2026-04-12T07:14:03Z</time></trkpt><trkpt lat="38.15770121788131" lon="13.29681936406238"><ele>267.0</ele><time>2026-04-12T07:14:04Z</time></trkpt><trkpt lat="38.157789124410776" lon="13.29681659487662"><ele>267.0</ele><time>2026-04-12T07:14:05Z</time></trkpt><trkpt lat="38.15786399632936" lon="13.296794811067763"><ele>267.0</ele><time>2026-04-12T07:14:06Z</time></trkpt><trkpt lat="38.15793979847479" lon="13.296760863799818"><ele>267.0</ele><time>2026-04-12T07:14:07Z</time></trkpt><trkpt lat="38.158001106054954" lon="13.296692779896963"><ele>267.0</ele><time>2026-04-12T07:14:08Z</time></trkpt><trkpt lat="38.158077476993235" lon="13.296626585845363"><ele>267.0</ele><time>2026-04-12T07:14:09Z</time></trkpt><trkpt lat="38.15813919160785" lon="13.296545061528521"><ele>267.0</ele><time>2026-04-12T07:14:10Z</time></trkpt><trkpt lat="38.15821677378678" lon="13.29645903052541"><ele>267.0</ele><time>2026-04-12T07:14:11Z</time></trkpt><trkpt lat="38.15827795732464" lon="13.296405856442796"><ele>267.0</ele><time>2026-04-12T07:14:12Z</time></trkpt><trkpt lat="38.158418474834384" lon="13.29642092131906"><ele>267.0</ele><time>2026-04-12T07:14:14Z</time></trkpt><trkpt lat="38.15851876839288" lon="13.296386155675329"><ele>272.8</ele><time>2026-04-12T07:14:15Z</time></trkpt><trkpt lat="38.158618903112895" lon="13.296366604714486"><ele>278.6</ele><time>2026-04-12T07:14:16Z</time></trkpt><trkpt lat="38.15871445291206" lon="13.296323509878507"><ele>284.40000000000003</ele><time>2026-04-12T07:14:17Z</time></trkpt><trkpt lat="38.15881344719493" lon="13.296262029274137"><ele>290.2</ele><time>2026-04-12T07:14:18Z</time></trkpt><trkpt lat="38.15892106389373" lon="13.296209459659645"><ele>296.0</ele><time>2026-04-12T07:14:19Z</time></trkpt><trkpt lat="38.159036815625356" lon="13.296159865171633"><ele>296.75</ele><time>2026-04-12T07:14:20Z</time></trkpt><trkpt lat="38.159164828884215" lon="13.296123934648215"><ele>297.5</ele><time>2026-04-12T07:14:21Z</time></trkpt><trkpt lat="38.15927758570894" lon="13.296093243941494"><ele>298.25</ele><time>2026-04-12T07:14:22Z</time></trkpt><trkpt lat="38.15939072692819" lon="13.296054210626382"><ele>299.0</ele><time>2026-04-12T07:14:23Z</time></trkpt><trkpt lat="38.1595113412821" lon="13.29605129627166"><ele>299.0</ele><time>2026-04-12T07:14:24Z</time></trkpt><trkpt lat="38.159631542963304" lon="13.29601805314572"><ele>299.0</ele><time>2026-04-12T07:14:25Z</time></trkpt><trkpt lat="38.15975847702892" lon="13.296004101300985"><ele>299.0</ele><time>2026-04-12T07:14:26Z</time></trkpt><trkpt lat="38.15988376710449" lon="13.295984948934834"><ele>299.0</ele><time>2026-04-12T07:14:27Z</time></trkpt><trkpt lat="38.16001186088531" lon="13.295967669031585"><ele>298.75</ele><time>2026-04-12T07:14:28Z</time></trkpt><trkpt lat="38.16013037727071" lon="13.295934381908049"><ele>298.5</ele><time>2026-04-12T07:14:29Z</time></trkpt><trkpt lat="38.16026758592272" lon="13.295900009677174"><ele>298.25</ele><time>2026-04-12T07:14:30Z</time></trkpt><trkpt lat="38.16038275476992" lon="13.295811455217391"><ele>298.0</ele><time>2026-04-12T07:14:31Z</time></trkpt><trkpt lat="38.16049742818876" lon="13.29572380335564"><ele>298.0</ele><time>2026-04-12T07:14:32Z</time></trkpt><trkpt lat="38.16055159469886" lon="13.29563898309277"><ele>298.0</ele><time>2026-04-12T07:14:33Z</time></trkpt><trkpt lat="38.1606061034708" lon="13.295563953748859"><ele>298.0</ele><time>2026-04-12T07:14:34Z</time></trkpt><trkpt lat="38.16066008409069" lon="13.295485476022993"><ele>298.0</ele><time>2026-04-12T07:14:35Z</time></trkpt><trkpt lat="38.160702404208195" lon="13.295408132378189"><ele>298.0</ele><time>2026-04-12T07:14:36Z</time></trkpt><trkpt lat="38.16074426063043" lon="13.295335761048847"><ele>298.0</ele><time>2026-04-12T07:14:37Z</time></trkpt><trkpt lat="38.16079679431385" lon="13.295272135640479"><ele>302.0</ele><time>2026-04-12T07:14:38.001Z</time></trkpt><trkpt lat="38.16087094371004" lon="13.29522742289328"><ele>306.0</ele><time>2026-04-12T07:14:39.001Z</time></trkpt><trkpt lat="38.16095573825654" lon="13.29520336401591"><ele>310.0</ele><time>2026-04-12T07:14:40.001Z</time></trkpt><trkpt lat="38.1610405451104" lon="13.2951779285082"><ele>314.0</ele><time>2026-04-12T07:14:41.001Z</time></trkpt><trkpt lat="38.16113954123596" lon="13.295167156753731"><ele>318.0</ele><time>2026-04-12T07:14:42.001Z</time></trkpt><trkpt lat="38.16123533842606" lon="13.295138079700191"><ele>318.0</ele><time>2026-04-12T07:14:43.001Z</time></trkpt><trkpt lat="38.161296319183826" lon="13.295097245034194"><ele>318.0</ele><time>2026-04-12T07:14:44.001Z</time></trkpt><trkpt lat="38.16135708004499" lon="13.294938629450325"><ele>318.0</ele><time>2026-04-12T07:14:46.001Z</time></trkpt><trkpt lat="38.16139528757664" lon="13.294855789697243"><ele>318.0</ele><time>2026-04-12T07:14:47.001Z</time></trkpt><trkpt lat="38.16143872437399" lon="13.294725970899497"><ele>318.0</ele><time>2026-04-12T07:14:48.001Z</time></trkpt><trkpt lat="38.161500784863804" lon="13.29463980958366"><ele>320.4</ele><time>2026-04-12T07:14:49.001Z</time></trkpt><trkpt lat="38.16154063856774" lon="13.29452779651826"><ele>322.8</ele><time>2026-04-12T07:14:50.001Z</time></trkpt><trkpt lat="38.16160869307311" lon="13.294419410644009"><ele>325.2</ele><time>2026-04-12T07:14:51.001Z</time></trkpt><trkpt lat="38.16166130346431" lon="13.294324017742419"><ele>327.6</ele><time>2026-04-12T07:14:52.001Z</time></trkpt><trkpt lat="38.16170347340311" lon="13.294205099611725"><ele>330.0</ele><time>2026-04-12T07:14:53.001Z</time></trkpt><trkpt lat="38.16174110482318" lon="13.294083894699426"><ele>330.0</ele><time>2026-04-12T07:14:54.001Z</time></trkpt><trkpt lat="38.161777975815944" lon="13.293976309465458"><ele>330.0</ele><time>2026-04-12T07:14:55.001Z</time></trkpt><trkpt lat="38.161834292081956" lon="13.293860406066655"><ele>330.0</ele><time>2026-04-12T07:14:56.001Z</time></trkpt><trkpt lat="38.16188514011697" lon="13.2937280175648"><ele>330.0</ele><time>2026-04-12T07:14:57.001Z</time></trkpt><trkpt lat="38.16193830482675" lon="13.293589597335279"><ele>330.0</ele><time>2026-04-12T07:14:58.001Z</time></trkpt><trkpt lat="38.161989865435096" lon="13.293455353618329"><ele>333.2</ele><time>2026-04-12T07:14:59.001Z</time></trkpt><trkpt lat="38.16203045556899" lon="13.293326825549348"><ele>336.4</ele><time>2026-04-12T07:15:00.001Z</time></trkpt><trkpt lat="38.16207337133596" lon="13.293209518403106"><ele>339.6</ele><time>2026-04-12T07:15:01.001Z</time></trkpt><trkpt lat="38.162132217456254" lon="13.29310168042663"><ele>342.8</ele><time>2026-04-12T07:15:02.001Z</time></trkpt><trkpt lat="38.1622099286809" lon="13.293003534698673"><ele>346.0</ele><time>2026-04-12T07:15:03.001Z</time></trkpt><trkpt lat="38.162295219447174" lon="13.292912584820098"><ele>345.5</ele><time>2026-04-12T07:15:04.001Z</time></trkpt><trkpt lat="38.1623900273622" lon="13.292835482971887"><ele>345.0</ele><time>2026-04-12T07:15:05.001Z</time></trkpt><trkpt lat="38.162495728421" lon="13.292780907393924"><ele>344.5</ele><time>2026-04-12T07:15:06.001Z</time></trkpt><trkpt lat="38.16260172194398" lon="13.292702677768059"><ele>344.0</ele><time>2026-04-12T07:15:07.001Z</time></trkpt><trkpt lat="38.16270271349305" lon="13.292656825736458"><ele>344.0</ele><time>2026-04-12T07:15:08.001Z</time></trkpt><trkpt lat="38.162807095054056" lon="13.292594830099697"><ele>344.0</ele><time>2026-04-12T07:15:09.001Z</time></trkpt><trkpt lat="38.162886816074746" lon="13.292544083337397"><ele>344.0</ele><time>2026-04-12T07:15:10.001Z</time></trkpt><trkpt lat="38.1629865090313" lon="13.29247667740905"><ele>344.0</ele><time>2026-04-12T07:15:11.001Z</time></trkpt><trkpt lat="38.163081594969874" lon="13.292419001808208"><ele>344.0</ele><time>2026-04-12T07:15:12.001Z</time></trkpt><trkpt lat="38.16317126118281" lon="13.292367826383451"><ele>345.4</ele><time>2026-04-12T07:15:13.001Z</time></trkpt><trkpt lat="38.16326564543097" lon="13.292332103526459"><ele>346.79999999999995</ele><time>2026-04-12T07:15:14.001Z</time></trkpt><trkpt lat="38.16335502758139" lon="13.292283019830386"><ele>348.20000000000005</ele><time>2026-04-12T07:15:15.001Z</time></trkpt><trkpt lat="38.16344947252395" lon="13.292241197130132"><ele>349.6</ele><time>2026-04-12T07:15:16.001Z</time></trkpt><trkpt lat="38.16352649356599" lon="13.292210635352113"><ele>351.0</ele><time>2026-04-12T07:15:17.001Z</time></trkpt><trkpt lat="38.16365864305604" lon="13.292185271273546"><ele>352.8333333333333</ele><time>2026-04-12T07:15:19.001Z</time></trkpt><trkpt lat="38.16373154074965" lon="13.292186700125349"><ele>354.6666666666667</ele><time>2026-04-12T07:15:20.001Z</time></trkpt><trkpt lat="38.16381415675051" lon="13.29216316935732"><ele>356.5</ele><time>2026-04-12T07:15:21.001Z</time></trkpt><trkpt lat="38.16386304243011" lon="13.29208334561383"><ele>358.33333333333337</ele><time>2026-04-12T07:15:22.001Z</time></trkpt><trkpt lat="38.163929152090574" lon="13.292023401793925"><ele>360.1666666666667</ele><time>2026-04-12T07:15:23.001Z</time></trkpt><trkpt lat="38.16400528267352" lon="13.291972153504659"><ele>362.0</ele><time>2026-04-12T07:15:24.001Z</time></trkpt><trkpt lat="38.164084974920144" lon="13.291998666252693"><ele>363.40000000000003</ele><time>2026-04-12T07:15:25.001Z</time></trkpt><trkpt lat="38.16417695133405" lon="13.29199323883395"><ele>364.8</ele><time>2026-04-12T07:15:26.001Z</time></trkpt><trkpt lat="38.16427017027777" lon="13.291972451095733"><ele>366.2</ele><time>2026-04-12T07:15:27.001Z</time></trkpt><trkpt lat="38.164371894813534" lon="13.291950368858036"><ele>367.6</ele><time>2026-04-12T07:15:28.001Z</time></trkpt><trkpt lat="38.16446301336112" lon="13.291918152016862"><ele>369.0</ele><time>2026-04-12T07:15:29.001Z</time></trkpt><trkpt lat="38.16455504909548" lon="13.291889164219864"><ele>369.0</ele><time>2026-04-12T07:15:30.001Z</time></trkpt><trkpt lat="38.16462630235767" lon="13.291856151228808"><ele>369.0</ele><time>2026-04-12T07:15:30.999Z</time></trkpt><trkpt lat="38.16468538409136" lon="13.291803208349661"><ele>369.0</ele><time>2026-04-12T07:15:31.999Z</time></trkpt><trkpt lat="38.16475820123816" lon="13.291744125415518"><ele>369.0</ele><time>2026-04-12T07:15:33.999Z</time></trkpt><trkpt lat="38.16481129047079" lon="13.291700932577045"><ele>369.0</ele><time>2026-04-12T07:15:37.999Z</time></trkpt><trkpt lat="38.164893925619175" lon="13.291655327050044"><ele>369.0</ele><time>2026-04-12T07:15:51Z</time></trkpt><trkpt lat="38.16495032128975" lon="13.291592220157458"><ele>368.7142857142857</ele><time>2026-04-12T07:17:34.002Z</time></trkpt><trkpt lat="38.165013687005654" lon="13.29155339331639"><ele>368.42857142857144</ele><time>2026-04-12T07:17:38Z</time></trkpt><trkpt lat="38.165087051274945" lon="13.29149667673178"><ele>368.1428571428571</ele><time>2026-04-12T07:17:40Z</time></trkpt><trkpt lat="38.165146974656665" lon="13.291448661241411"><ele>367.8571428571429</ele><time>2026-04-12T07:17:41Z</time></trkpt><trkpt lat="38.16520760788601" lon="13.291403478659857"><ele>367.5714285714286</ele><time>2026-04-12T07:17:42Z</time></trkpt><trkpt lat="38.16526876766422" lon="13.291355883630645"><ele>367.2857142857143</ele><time>2026-04-12T07:17:43Z</time></trkpt><trkpt lat="38.165330699155525" lon="13.291306114707385"><ele>367.0</ele><time>2026-04-12T07:17:44Z</time></trkpt><trkpt lat="38.16539464786992" lon="13.291252057804849"><ele>366.57142857142856</ele><time>2026-04-12T07:17:45Z</time></trkpt><trkpt lat="38.16544868213218" lon="13.291199925388174"><ele>366.14285714285717</ele><time>2026-04-12T07:17:46Z</time></trkpt><trkpt lat="38.16551562484007" lon="13.29114328376138"><ele>365.7142857142857</ele><time>2026-04-12T07:17:47Z</time></trkpt><trkpt lat="38.16556900293049" lon="13.291094303061326"><ele>365.2857142857143</ele><time>2026-04-12T07:17:48Z</time></trkpt><trkpt lat="38.165624840117374" lon="13.291040231505361"><ele>364.8571428571429</ele><time>2026-04-12T07:17:49Z</time></trkpt><trkpt lat="38.1656825791825" lon="13.290978134913331"><ele>364.42857142857144</ele><time>2026-04-12T07:17:50Z</time></trkpt><trkpt lat="38.1657309540828" lon="13.29091295208325"><ele>364.0</ele><time>2026-04-12T07:17:51Z</time></trkpt><trkpt lat="38.16577844259901" lon="13.290828809838949"><ele>364.0</ele><time>2026-04-12T07:17:52Z</time></trkpt><trkpt lat="38.165835473381875" lon="13.29072457058967"><ele>364.0</ele><time>2026-04-12T07:17:53Z</time></trkpt><trkpt lat="38.16589627359742" lon="13.290614786668808"><ele>364.0</ele><time>2026-04-12T07:17:54Z</time></trkpt><trkpt lat="38.16596962182105" lon="13.29047490736784"><ele>364.0</ele><time>2026-04-12T07:17:55Z</time></trkpt><trkpt lat="38.16604138367179" lon="13.290342529381807"><ele>368.5</ele><time>2026-04-12T07:17:56Z</time></trkpt><trkpt lat="38.166116845261406" lon="13.290210587407012"><ele>373.0</ele><time>2026-04-12T07:17:57Z</time></trkpt><trkpt lat="38.16618387538036" lon="13.29007790192807"><ele>377.5</ele><time>2026-04-12T07:17:58Z</time></trkpt><trkpt lat="38.16625169050936" lon="13.289949816037357"><ele>382.0</ele><time>2026-04-12T07:17:59Z</time></trkpt><trkpt lat="38.1663137354022" lon="13.289828969870927"><ele>384.6</ele><time>2026-04-12T07:18:00Z</time></trkpt><trkpt lat="38.16636719604977" lon="13.289712886208982"><ele>387.20000000000005</ele><time>2026-04-12T07:18:01Z</time></trkpt><trkpt lat="38.16642092020736" lon="13.28960128833492"><ele>389.8</ele><time>2026-04-12T07:18:02Z</time></trkpt><trkpt lat="38.166474252379025" lon="13.289490889584705"><ele>392.4</ele><time>2026-04-12T07:18:03Z</time></trkpt><trkpt lat="38.16653631007975" lon="13.289365340055289"><ele>395.0</ele><time>2026-04-12T07:18:04Z</time></trkpt><trkpt lat="38.16659306233392" lon="13.28922387282173"><ele>389.0</ele><time>2026-04-12T07:18:05Z</time></trkpt><trkpt lat="38.166651801661025" lon="13.289075337986946"><ele>383.0</ele><time>2026-04-12T07:18:06Z</time></trkpt><trkpt lat="38.16671744650629" lon="13.288925294574065"><ele>377.0</ele><time>2026-04-12T07:18:07Z</time></trkpt><trkpt lat="38.16677948247283" lon="13.288773142178147"><ele>371.0</ele><time>2026-04-12T07:18:08Z</time></trkpt><trkpt lat="38.16684155953864" lon="13.28862583724058"><ele>371.0</ele><time>2026-04-12T07:18:09Z</time></trkpt><trkpt lat="38.166908937697386" lon="13.28847431004669"><ele>371.0</ele><time>2026-04-12T07:18:10Z</time></trkpt><trkpt lat="38.16697865100391" lon="13.288315393249919"><ele>371.0</ele><time>2026-04-12T07:18:11Z</time></trkpt><trkpt lat="38.16703729162624" lon="13.288165191091295"><ele>371.0</ele><time>2026-04-12T07:18:12Z</time></trkpt><trkpt lat="38.1671006632344" lon="13.288005727521309"><ele>373.20000000000005</ele><time>2026-04-12T07:18:13Z</time></trkpt><trkpt lat="38.16715282392614" lon="13.287860144156888"><ele>375.40000000000003</ele><time>2026-04-12T07:18:14Z</time></trkpt><trkpt lat="38.167197428467034" lon="13.287723832920443"><ele>377.6</ele><time>2026-04-12T07:18:15Z</time></trkpt><trkpt lat="38.167229450819924" lon="13.287612157618534"><ele>379.8</ele><time>2026-04-12T07:18:16Z</time></trkpt><trkpt lat="38.1672560462882" lon="13.28749915678405"><ele>382.0</ele><time>2026-04-12T07:18:17.001Z</time></trkpt><trkpt lat="38.16729354273727" lon="13.287401434705805"><ele>382.0</ele><time>2026-04-12T07:18:18.001Z</time></trkpt><trkpt lat="38.16733631480819" lon="13.287327276685712"><ele>382.0</ele><time>2026-04-12T07:18:19.001Z</time></trkpt><trkpt lat="38.167393653699094" lon="13.287212645739068"><ele>382.0</ele><time>2026-04-12T07:18:21.001Z</time></trkpt><trkpt lat="38.16743852720317" lon="13.28712758656541"><ele>382.0</ele><time>2026-04-12T07:18:25.001Z</time></trkpt><trkpt lat="38.16752565572416" lon="13.287180899870178"><ele>382.0</ele><time>2026-04-12T07:18:29.001Z</time></trkpt><trkpt lat="38.16759178939948" lon="13.287268544824903"><ele>378.16666666666663</ele><time>2026-04-12T07:18:31.001Z</time></trkpt><trkpt lat="38.16757937192373" lon="13.287350245104793"><ele>374.3333333333333</ele><time>2026-04-12T07:18:52.001Z</time></trkpt><trkpt lat="38.16769193275973" lon="13.287328243221534"><ele>370.5</ele><time>2026-04-12T07:18:59.001Z</time></trkpt><trkpt lat="38.16775128972643" lon="13.287284845889092"><ele>366.6666666666667</ele><time>2026-04-12T07:19:01.001Z</time></trkpt><trkpt lat="38.16783347772296" lon="13.287210432114716"><ele>362.83333333333337</ele><time>2026-04-12T07:19:04.001Z</time></trkpt><trkpt lat="38.167892793114795" lon="13.287161987783472"><ele>359.0</ele><time>2026-04-12T07:19:06.002Z</time></trkpt><trkpt lat="38.167993566176065" lon="13.28708478394654"><ele>359.0</ele><time>2026-04-12T07:19:08.002Z</time></trkpt><trkpt lat="38.1680457120583" lon="13.287030289561722"><ele>359.0</ele><time>2026-04-12T07:19:09.002Z</time></trkpt><trkpt lat="38.1681467358585" lon="13.28693203963975"><ele>359.0</ele><time>2026-04-12T07:19:11.002Z</time></trkpt><trkpt lat="38.16825198446206" lon="13.286852777730116"><ele>359.0</ele><time>2026-04-12T07:19:13.002Z</time></trkpt><trkpt lat="38.16833920604027" lon="13.286721348556894"><ele>360.83333333333337</ele><time>2026-04-12T07:19:15.002Z</time></trkpt><trkpt lat="38.168430966309735" lon="13.286643764780566"><ele>362.6666666666667</ele><time>2026-04-12T07:19:17.002Z</time></trkpt><trkpt lat="38.16848338279482" lon="13.286592295912577"><ele>364.5</ele><time>2026-04-12T07:19:18.002Z</time></trkpt><trkpt lat="38.16854492560841" lon="13.286549239156216"><ele>366.3333333333333</ele><time>2026-04-12T07:19:19.002Z</time></trkpt><trkpt lat="38.1686080947004" lon="13.28649891345333"><ele>368.16666666666663</ele><time>2026-04-12T07:19:20.002Z</time></trkpt><trkpt lat="38.16866998895052" lon="13.28645210363908"><ele>370.0</ele><time>2026-04-12T07:19:21.002Z</time></trkpt><trkpt lat="38.16872998528046" lon="13.28641892704706"><ele>370.2</ele><time>2026-04-12T07:19:22.002Z</time></trkpt><trkpt lat="38.16882792894522" lon="13.286345717071638"><ele>370.4</ele><time>2026-04-12T07:19:24.002Z</time></trkpt><trkpt lat="38.16890819322412" lon="13.286334797142745"><ele>370.6</ele><time>2026-04-12T07:19:26.002Z</time></trkpt><trkpt lat="38.168982839024174" lon="13.28631480693192"><ele>370.8</ele><time>2026-04-12T07:19:28.002Z</time></trkpt><trkpt lat="38.16908032242079" lon="13.286308356912915"><ele>371.0</ele><time>2026-04-12T07:19:30.002Z</time></trkpt><trkpt lat="38.16917055062576" lon="13.286291044465525"><ele>373.33333333333337</ele><time>2026-04-12T07:19:33.002Z</time></trkpt><trkpt lat="38.16921019011788" lon="13.286213906444585"><ele>375.6666666666667</ele><time>2026-04-12T07:19:38.002Z</time></trkpt><trkpt lat="38.169201564179545" lon="13.286125200146003"><ele>378.0</ele><time>2026-04-12T07:19:40.002Z</time></trkpt><trkpt lat="38.16919273835311" lon="13.286023408413996"><ele>380.33333333333337</ele><time>2026-04-12T07:19:43Z</time></trkpt><trkpt lat="38.16918104333644" lon="13.285910454645297"><ele>382.6666666666667</ele><time>2026-04-12T07:19:46Z</time></trkpt><trkpt lat="38.16917178337677" lon="13.285807054707497"><ele>385.0</ele><time>2026-04-12T07:19:49Z</time></trkpt><trkpt lat="38.16914070795267" lon="13.285705339328675"><ele>385.0</ele><time>2026-04-12T07:19:57Z</time></trkpt><trkpt lat="38.16917534161331" lon="13.285616665687753"><ele>385.0</ele><time>2026-04-12T07:20:01Z</time></trkpt><trkpt lat="38.16927820364769" lon="13.285540057279794"><ele>385.0</ele><time>2026-04-12T07:20:03Z</time></trkpt><trkpt lat="38.16935789069465" lon="13.28548653439953"><ele>385.0</ele><time>2026-04-12T07:20:05Z</time></trkpt><trkpt lat="38.169460111705426" lon="13.285456651092291"><ele>385.0</ele><time>2026-04-12T07:20:07Z</time></trkpt><trkpt lat="38.16954009846499" lon="13.285399066531896"><ele>386.8</ele><time>2026-04-12T07:20:09Z</time></trkpt><trkpt lat="38.169615052069375" lon="13.285332692015874"><ele>388.6</ele><time>2026-04-12T07:20:11Z</time></trkpt><trkpt lat="38.16971557294696" lon="13.285285758442585"><ele>390.4</ele><time>2026-04-12T07:20:13Z</time></trkpt><trkpt lat="38.169808978074" lon="13.285244881804966"><ele>392.2</ele><time>2026-04-12T07:20:15Z</time></trkpt><trkpt lat="38.16988865118685" lon="13.285186153928617"><ele>394.0</ele><time>2026-04-12T07:20:17Z</time></trkpt><trkpt lat="38.169963362331515" lon="13.285114049764106"><ele>394.0</ele><time>2026-04-12T07:20:19Z</time></trkpt><trkpt lat="38.17001220118214" lon="13.285043065294465"><ele>394.0</ele><time>2026-04-12T07:20:25.001Z</time></trkpt><trkpt lat="38.170010824784356" lon="13.284961866993779"><ele>394.0</ele><time>2026-04-12T07:21:00.001Z</time></trkpt><trkpt lat="38.17001761766958" lon="13.284867278392904"><ele>394.0</ele><time>2026-04-12T07:21:19.002Z</time></trkpt><trkpt lat="38.17006061089118" lon="13.284799275810263"><ele>394.0</ele><time>2026-04-12T07:21:23.002Z</time></trkpt><trkpt lat="38.17010872365721" lon="13.284703259484377"><ele>394.0</ele><time>2026-04-12T07:21:26.002Z</time></trkpt><trkpt lat="38.17014862454978" lon="13.284631737407055"><ele>394.0</ele><time>2026-04-12T07:21:29.002Z</time></trkpt><trkpt lat="38.17017104822794" lon="13.284554852756163"><ele>398.1666666666667</ele><time>2026-04-12T07:21:32.002Z</time></trkpt><trkpt lat="38.17023554193468" lon="13.284484987402838"><ele>402.33333333333337</ele><time>2026-04-12T07:21:35.002Z</time></trkpt><trkpt lat="38.17027628458075" lon="13.284411988583454"><ele>406.5</ele><time>2026-04-12T07:21:44.002Z</time></trkpt><trkpt lat="38.17032303785653" lon="13.284348467664735"><ele>410.66666666666663</ele><time>2026-04-12T07:21:47.002Z</time></trkpt><trkpt lat="38.17033218872915" lon="13.284266670625478"><ele>414.8333333333333</ele><time>2026-04-12T07:21:59Z</time></trkpt><trkpt lat="38.170286382598164" lon="13.284201586306672"><ele>419.0</ele><time>2026-04-12T07:22:10Z</time></trkpt><trkpt lat="38.170380211275074" lon="13.28417533417755"><ele>418.99999999999994</ele><time>2026-04-12T07:22:19Z</time></trkpt><trkpt lat="38.17046686061002" lon="13.284146674968127"><ele>419.0</ele><time>2026-04-12T07:22:22Z</time></trkpt><trkpt lat="38.17054753728193" lon="13.284145511156936"><ele>419.0</ele><time>2026-04-12T07:22:24Z</time></trkpt><trkpt lat="38.170610540288855" lon="13.284116249046416"><ele>419.0</ele><time>2026-04-12T07:22:26Z</time></trkpt><trkpt lat="38.17067746118693" lon="13.284082518303434"><ele>418.99999999999994</ele><time>2026-04-12T07:22:29Z</time></trkpt><trkpt lat="38.17074695161213" lon="13.284030518511843"><ele>419.0</ele><time>2026-04-12T07:22:35.001Z</time></trkpt><trkpt lat="38.170815947745325" lon="13.284020349609463"><ele>418.16666666666663</ele><time>2026-04-12T07:22:37.001Z</time></trkpt><trkpt lat="38.17089941583084" lon="13.284009383451894"><ele>417.3333333333333</ele><time>2026-04-12T07:22:39.001Z</time></trkpt><trkpt lat="38.17098600820994" lon="13.283967728302763"><ele>416.5</ele><time>2026-04-12T07:22:41.001Z</time></trkpt><trkpt lat="38.17104547438524" lon="13.283933436159938"><ele>415.66666666666663</ele><time>2026-04-12T07:22:43.001Z</time></trkpt><trkpt lat="38.17112215282626" lon="13.28390334828742"><ele>414.8333333333333</ele><time>2026-04-12T07:22:45.001Z</time></trkpt><trkpt lat="38.17120291613064" lon="13.283861684971372"><ele>414.0</ele><time>2026-04-12T07:22:48.001Z</time></trkpt><trkpt lat="38.17125715767183" lon="13.283808981351521"><ele>416.6666666666667</ele><time>2026-04-12T07:22:50.001Z</time></trkpt><trkpt lat="38.17131995304982" lon="13.283759914069977"><ele>419.33333333333337</ele><time>2026-04-12T07:22:54.001Z</time></trkpt><trkpt lat="38.17138605873774" lon="13.28371939992777"><ele>422.0</ele><time>2026-04-12T07:22:56.001Z</time></trkpt><trkpt lat="38.17146115503025" lon="13.28369096555212"><ele>424.6666666666667</ele><time>2026-04-12T07:22:58.001Z</time></trkpt><trkpt lat="38.17153343186639" lon="13.28363835940694"><ele>427.33333333333337</ele><time>2026-04-12T07:23:03.001Z</time></trkpt><trkpt lat="38.17160106273874" lon="13.28356537208145"><ele>430.0</ele><time>2026-04-12T07:23:06.001Z</time></trkpt><trkpt lat="38.17163941388979" lon="13.28349620473614"><ele>430.2857142857143</ele><time>2026-04-12T07:23:09.001Z</time></trkpt><trkpt lat="38.17168822867457" lon="13.283434516876348"><ele>430.5714285714286</ele><time>2026-04-12T07:23:11.001Z</time></trkpt><trkpt lat="38.17174419247269" lon="13.283396925804302"><ele>430.8571428571429</ele><time>2026-04-12T07:23:13.001Z</time></trkpt><trkpt lat="38.17181556454002" lon="13.283383380500402"><ele>431.1428571428571</ele><time>2026-04-12T07:23:17.001Z</time></trkpt><trkpt lat="38.171896599994625" lon="13.283369179142646"><ele>431.42857142857144</ele><time>2026-04-12T07:23:20.001Z</time></trkpt><trkpt lat="38.17196919661235" lon="13.283341363685814"><ele>431.7142857142857</ele><time>2026-04-12T07:23:22.002Z</time></trkpt><trkpt lat="38.17202623344536" lon="13.28329550271035"><ele>432.0</ele><time>2026-04-12T07:23:24.002Z</time></trkpt><trkpt lat="38.17203517382469" lon="13.283179219314606"><ele>432.8333333333333</ele><time>2026-04-12T07:23:27.002Z</time></trkpt><trkpt lat="38.17205306709596" lon="13.283073316620902"><ele>433.66666666666663</ele><time>2026-04-12T07:23:29.002Z</time></trkpt><trkpt lat="38.17206823281552" lon="13.282984832446322"><ele>434.5</ele><time>2026-04-12T07:23:31.002Z</time></trkpt><trkpt lat="38.17213123791002" lon="13.283000695469388"><ele>435.3333333333333</ele><time>2026-04-12T07:23:35.002Z</time></trkpt><trkpt lat="38.17220231235859" lon="13.282921717303875"><ele>436.16666666666663</ele><time>2026-04-12T07:26:35.001Z</time></trkpt><trkpt lat="38.17227380413744" lon="13.282846360636286"><ele>437.0</ele><time>2026-04-12T07:26:37.001Z</time></trkpt><trkpt lat="38.17235723493541" lon="13.282751724916835"><ele>437.0</ele><time>2026-04-12T07:26:39.001Z</time></trkpt><trkpt lat="38.17239903277186" lon="13.282679923001528"><ele>437.00000000000006</ele><time>2026-04-12T07:26:40.001Z</time></trkpt><trkpt lat="38.17247819009192" lon="13.282586581400542"><ele>437.00000000000006</ele><time>2026-04-12T07:26:42.001Z</time></trkpt><trkpt lat="38.17255173155482" lon="13.282463764287366"><ele>437.0</ele><time>2026-04-12T07:26:44.001Z</time></trkpt><trkpt lat="38.172597518465615" lon="13.282403921500947"><ele>437.0</ele><time>2026-04-12T07:26:45.001Z</time></trkpt><trkpt lat="38.17268366345167" lon="13.282293988284346"><ele>439.8333333333333</ele><time>2026-04-12T07:26:47.001Z</time></trkpt><trkpt lat="38.172720264695926" lon="13.282223840306237"><ele>442.66666666666663</ele><time>2026-04-12T07:26:48.001Z</time></trkpt><trkpt lat="38.17279514144105" lon="13.28210162537813"><ele>445.5</ele><time>2026-04-12T07:26:50.001Z</time></trkpt><trkpt lat="38.172837326793164" lon="13.282037979259032"><ele>448.33333333333337</ele><time>2026-04-12T07:26:51.001Z</time></trkpt><trkpt lat="38.17287508939391" lon="13.28197246869378"><ele>451.1666666666667</ele><time>2026-04-12T07:26:52.001Z</time></trkpt><trkpt lat="38.172930255432696" lon="13.281870905794335"><ele>454.0</ele><time>2026-04-12T07:26:54.001Z</time></trkpt><trkpt lat="38.17297001225242" lon="13.281799815996385"><ele>454.0</ele><time>2026-04-12T07:26:55.001Z</time></trkpt><trkpt lat="38.173029202488216" lon="13.281738697151145"><ele>454.0</ele><time>2026-04-12T07:26:56.001Z</time></trkpt><trkpt lat="38.17309628329922" lon="13.281639853802375"><ele>454.0</ele><time>2026-04-12T07:26:57.001Z</time></trkpt><trkpt lat="38.17316178599655" lon="13.281543920116334"><ele>454.0</ele><time>2026-04-12T07:26:58.001Z</time></trkpt><trkpt lat="38.173210342769714" lon="13.28144212185716"><ele>454.0</ele><time>2026-04-12T07:26:59.001Z</time></trkpt><trkpt lat="38.17326065289062" lon="13.281339525751791"><ele>453.6</ele><time>2026-04-12T07:27:00.001Z</time></trkpt><trkpt lat="38.17330916247078" lon="13.281226269581898"><ele>453.2</ele><time>2026-04-12T07:27:01.001Z</time></trkpt><trkpt lat="38.173332580494524" lon="13.281109063452218"><ele>452.80000000000007</ele><time>2026-04-12T07:27:02.001Z</time></trkpt><trkpt lat="38.173356079843245" lon="13.280999670910104"><ele>452.40000000000003</ele><time>2026-04-12T07:27:03.001Z</time></trkpt><trkpt lat="38.173393085729856" lon="13.280856811457978"><ele>452.0</ele><time>2026-04-12T07:27:04.001Z</time></trkpt><trkpt lat="38.17343877664302" lon="13.28072187103466"><ele>454.0</ele><time>2026-04-12T07:27:05.001Z</time></trkpt><trkpt lat="38.17348421543631" lon="13.280575257636109"><ele>456.0</ele><time>2026-04-12T07:27:06.001Z</time></trkpt><trkpt lat="38.173520684539504" lon="13.28043649147676"><ele>458.0</ele><time>2026-04-12T07:27:07.001Z</time></trkpt><trkpt lat="38.17356418551369" lon="13.280294370497005"><ele>460.0</ele><time>2026-04-12T07:27:08.001Z</time></trkpt><trkpt lat="38.17360636720267" lon="13.280180490019406"><ele>460.0</ele><time>2026-04-12T07:27:09.001Z</time></trkpt><trkpt lat="38.17362922784104" lon="13.280066864668116"><ele>460.0</ele><time>2026-04-12T07:27:10.001Z</time></trkpt><trkpt lat="38.17364752590271" lon="13.279951775702667"><ele>460.0</ele><time>2026-04-12T07:27:11.001Z</time></trkpt><trkpt lat="38.173670622120284" lon="13.279835025999539"><ele>460.0</ele><time>2026-04-12T07:27:12.002Z</time></trkpt><trkpt lat="38.17368056558932" lon="13.279746699352817"><ele>460.0</ele><time>2026-04-12T07:27:13.002Z</time></trkpt><trkpt lat="38.173725188993636" lon="13.279627266918991"><ele>460.4</ele><time>2026-04-12T07:27:14.002Z</time></trkpt><trkpt lat="38.17377113801802" lon="13.279497847662698"><ele>460.8</ele><time>2026-04-12T07:27:15.002Z</time></trkpt><trkpt lat="38.173799162833454" lon="13.279362524059977"><ele>461.20000000000005</ele><time>2026-04-12T07:27:16.002Z</time></trkpt><trkpt lat="38.17383573162921" lon="13.2792437084347"><ele>461.6</ele><time>2026-04-12T07:27:17.002Z</time></trkpt><trkpt lat="38.17387735647416" lon="13.279113215263088"><ele>462.0</ele><time>2026-04-12T07:27:18.002Z</time></trkpt><trkpt lat="38.17390689260193" lon="13.278989775955935"><ele>463.1666666666667</ele><time>2026-04-12T07:27:19.002Z</time></trkpt><trkpt lat="38.17394002855744" lon="13.27887285738178"><ele>464.33333333333337</ele><time>2026-04-12T07:27:20.002Z</time></trkpt><trkpt lat="38.17394539672524" lon="13.27877696977315"><ele>465.5</ele><time>2026-04-12T07:27:21.002Z</time></trkpt><trkpt lat="38.17397404005223" lon="13.278693333425656"><ele>466.6666666666667</ele><time>2026-04-12T07:27:22.002Z</time></trkpt><trkpt lat="38.174014629034495" lon="13.278617272022135"><ele>467.83333333333337</ele><time>2026-04-12T07:27:23.002Z</time></trkpt><trkpt lat="38.1739457258704" lon="13.278481848629516"><ele>469.0</ele><time>2026-04-12T07:27:25.002Z</time></trkpt><trkpt lat="38.173868201030096" lon="13.278428752208304"><ele>469.00000000000006</ele><time>2026-04-12T07:27:26.002Z</time></trkpt><trkpt lat="38.17376454000884" lon="13.27841880795317"><ele>469.0</ele><time>2026-04-12T07:27:27.002Z</time></trkpt><trkpt lat="38.173667889802275" lon="13.278381893514485"><ele>469.0</ele><time>2026-04-12T07:27:28.002Z</time></trkpt><trkpt lat="38.173590025198266" lon="13.278333231454852"><ele>469.0</ele><time>2026-04-12T07:27:29.002Z</time></trkpt><trkpt lat="38.173530845230346" lon="13.278271410344205"><ele>469.00000000000006</ele><time>2026-04-12T07:27:30.002Z</time></trkpt><trkpt lat="38.17350758873675" lon="13.278185447174135"><ele>469.0</ele><time>2026-04-12T07:27:31.002Z</time></trkpt><trkpt lat="38.173497880553185" lon="13.278095567491988"><ele>471.33333333333337</ele><time>2026-04-12T07:27:32.002Z</time></trkpt><trkpt lat="38.17350122320032" lon="13.27800105958923"><ele>473.6666666666667</ele><time>2026-04-12T07:27:33.002Z</time></trkpt><trkpt lat="38.173525613302" lon="13.277907195212586"><ele>476.0</ele><time>2026-04-12T07:27:34.002Z</time></trkpt><trkpt lat="38.173516173836234" lon="13.277810516936322"><ele>478.33333333333337</ele><time>2026-04-12T07:27:36.002Z</time></trkpt><trkpt lat="38.173448106465756" lon="13.277733457849411"><ele>480.6666666666667</ele><time>2026-04-12T07:27:38.002Z</time></trkpt><trkpt lat="38.17339047378078" lon="13.277618748234579"><ele>483.0</ele><time>2026-04-12T07:27:40.002Z</time></trkpt><trkpt lat="38.1733778348911" lon="13.277519026125688"><ele>483.0</ele><time>2026-04-12T07:27:43.002Z</time></trkpt><trkpt lat="38.17332865051752" lon="13.277459623268035"><ele>483.0</ele><time>2026-04-12T07:27:45.002Z</time></trkpt><trkpt lat="38.17328255227745" lon="13.277369923928491"><ele>483.0</ele><time>2026-04-12T07:27:47.002Z</time></trkpt><trkpt lat="38.173244128941946" lon="13.277282511771896"><ele>483.0</ele><time>2026-04-12T07:27:49.002Z</time></trkpt><trkpt lat="38.17321614280775" lon="13.27720670381633"><ele>483.0</ele><time>2026-04-12T07:27:50.002Z</time></trkpt><trkpt lat="38.17319568161858" lon="13.277101074910195"><ele>483.0</ele><time>2026-04-12T07:27:52.002Z</time></trkpt><trkpt lat="38.1731171385818" lon="13.277064950761902"><ele>486.8333333333333</ele><time>2026-04-12T07:27:55.002Z</time></trkpt><trkpt lat="38.17312970950654" lon="13.276984989129572"><ele>490.66666666666663</ele><time>2026-04-12T07:28:00.003Z</time></trkpt><trkpt lat="38.17316621207298" lon="13.27691315954371"><ele>494.5</ele><time>2026-04-12T07:28:03.003Z</time></trkpt><trkpt lat="38.17317549155406" lon="13.276790234127745"><ele>498.3333333333333</ele><time>2026-04-12T07:28:05.003Z</time></trkpt><trkpt lat="38.173173267661106" lon="13.276657402382543"><ele>502.16666666666663</ele><time>2026-04-12T07:28:07.001Z</time></trkpt><trkpt lat="38.17316052935439" lon="13.276577361714525"><ele>506.0</ele><time>2026-04-12T07:28:09.001Z</time></trkpt><trkpt lat="38.17310692048079" lon="13.276473775316305"><ele>506.0</ele><time>2026-04-12T07:28:12.001Z</time></trkpt><trkpt lat="38.17303859894578" lon="13.27644881743349"><ele>506.0</ele><time>2026-04-12T07:28:14.001Z</time></trkpt><trkpt lat="38.17289805171288" lon="13.276581348137649"><ele>506.0</ele><time>2026-04-12T07:29:40.002Z</time></trkpt><trkpt lat="38.172809395418284" lon="13.276630456916068"><ele>506.0</ele><time>2026-04-12T07:29:41.002Z</time></trkpt><trkpt lat="38.17272417273444" lon="13.276685686144873"><ele>506.0</ele><time>2026-04-12T07:29:42.002Z</time></trkpt><trkpt lat="38.17263115770915" lon="13.276766272796799"><ele>506.0</ele><time>2026-04-12T07:29:43.002Z</time></trkpt><trkpt lat="38.17254396299358" lon="13.276861578328417"><ele>506.0</ele><time>2026-04-12T07:29:44.002Z</time></trkpt><trkpt lat="38.172448804847974" lon="13.276971976352478"><ele>506.0</ele><time>2026-04-12T07:29:45.002Z</time></trkpt><trkpt lat="38.17235203174934" lon="13.277055069499644"><ele>506.0</ele><time>2026-04-12T07:29:46.002Z</time></trkpt><trkpt lat="38.17225469260621" lon="13.277171368863444"><ele>506.6</ele><time>2026-04-12T07:29:47.002Z</time></trkpt><trkpt lat="38.17217690068038" lon="13.277279877613593"><ele>507.20000000000005</ele><time>2026-04-12T07:29:48.002Z</time></trkpt><trkpt lat="38.17210351061405" lon="13.277389728572052"><ele>507.79999999999995</ele><time>2026-04-12T07:29:49.002Z</time></trkpt><trkpt lat="38.17203971548868" lon="13.27748047624868"><ele>508.4</ele><time>2026-04-12T07:29:50.002Z</time></trkpt><trkpt lat="38.17196879893365" lon="13.27757210246676"><ele>509.0</ele><time>2026-04-12T07:29:51.002Z</time></trkpt><trkpt lat="38.17186628956076" lon="13.277703206230246"><ele>509.0</ele><time>2026-04-12T07:29:52.002Z</time></trkpt><trkpt lat="38.17175339912681" lon="13.27778444922802"><ele>509.0</ele><time>2026-04-12T07:29:53.002Z</time></trkpt><trkpt lat="38.171657180486086" lon="13.277869466158764"><ele>509.0</ele><time>2026-04-12T07:29:54.002Z</time></trkpt><trkpt lat="38.171553489319315" lon="13.27797557760728"><ele>509.0</ele><time>2026-04-12T07:29:55.002Z</time></trkpt><trkpt lat="38.17142798013118" lon="13.278068725741003"><ele>508.5</ele><time>2026-04-12T07:29:56.002Z</time></trkpt><trkpt lat="38.17131253187149" lon="13.278159904047188"><ele>508.0</ele><time>2026-04-12T07:29:57.002Z</time></trkpt><trkpt lat="38.17122502449155" lon="13.278282876720265"><ele>507.5</ele><time>2026-04-12T07:29:58.002Z</time></trkpt><trkpt lat="38.171120611574516" lon="13.278357313629481"><ele>507.0</ele><time>2026-04-12T07:29:59.002Z</time></trkpt><trkpt lat="38.171061307077835" lon="13.278411244621061"><ele>507.0</ele><time>2026-04-12T07:30:00.002Z</time></trkpt><trkpt lat="38.17098905088125" lon="13.278472907636646"><ele>507.00000000000006</ele><time>2026-04-12T07:30:01.002Z</time></trkpt><trkpt lat="38.170910595502626" lon="13.278528503903244"><ele>507.00000000000006</ele><time>2026-04-12T07:30:02.002Z</time></trkpt><trkpt lat="38.170803484441954" lon="13.27861046522063"><ele>507.0</ele><time>2026-04-12T07:30:03.002Z</time></trkpt><trkpt lat="38.17067868374935" lon="13.278692006456192"><ele>507.0</ele><time>2026-04-12T07:30:04.002Z</time></trkpt><trkpt lat="38.17057727280925" lon="13.278833498979493"><ele>504.0</ele><time>2026-04-12T07:30:05.002Z</time></trkpt><trkpt lat="38.17047089257659" lon="13.278965675087381"><ele>501.0</ele><time>2026-04-12T07:30:06.002Z</time></trkpt><trkpt lat="38.17034027667028" lon="13.279058199440504"><ele>498.0</ele><time>2026-04-12T07:30:07.002Z</time></trkpt><trkpt lat="38.17020647810171" lon="13.279077879377782"><ele>495.0</ele><time>2026-04-12T07:30:08.002Z</time></trkpt><trkpt lat="38.17010787123636" lon="13.27911916511758"><ele>495.0</ele><time>2026-04-12T07:30:09.002Z</time></trkpt><trkpt lat="38.17000427491118" lon="13.27911484625601"><ele>495.0</ele><time>2026-04-12T07:30:10.002Z</time></trkpt><trkpt lat="38.169900400759886" lon="13.279119370050683"><ele>495.0</ele><time>2026-04-12T07:30:11.002Z</time></trkpt><trkpt lat="38.169813929374804" lon="13.279088975183102"><ele>495.0</ele><time>2026-04-12T07:30:12.002Z</time></trkpt><trkpt lat="38.16973414500699" lon="13.279039961073833"><ele>495.0</ele><time>2026-04-12T07:30:13.001Z</time></trkpt><trkpt lat="38.16966633101583" lon="13.278965903735683"><ele>492.6</ele><time>2026-04-12T07:30:14.001Z</time></trkpt><trkpt lat="38.16961412641318" lon="13.278875286971152"><ele>490.2</ele><time>2026-04-12T07:30:15.001Z</time></trkpt><trkpt lat="38.16956140596627" lon="13.278763145033626"><ele>487.79999999999995</ele><time>2026-04-12T07:30:16.001Z</time></trkpt><trkpt lat="38.16951185029667" lon="13.278610345906"><ele>485.4</ele><time>2026-04-12T07:30:17.001Z</time></trkpt><trkpt lat="38.169476775834354" lon="13.278470657876385"><ele>483.0</ele><time>2026-04-12T07:30:18.001Z</time></trkpt><trkpt lat="38.16945566710222" lon="13.278346801611573"><ele>483.0</ele><time>2026-04-12T07:30:19.001Z</time></trkpt><trkpt lat="38.1694646718463" lon="13.278205664107656"><ele>483.0</ele><time>2026-04-12T07:30:20.001Z</time></trkpt><trkpt lat="38.16944820785388" lon="13.278023259886194"><ele>483.0</ele><time>2026-04-12T07:30:21.001Z</time></trkpt><trkpt lat="38.169454308122724" lon="13.277852057182168"><ele>483.0</ele><time>2026-04-12T07:30:22.001Z</time></trkpt><trkpt lat="38.169443901529434" lon="13.27770807344456"><ele>485.0</ele><time>2026-04-12T07:30:23.001Z</time></trkpt><trkpt lat="38.169445600195935" lon="13.277540929742784"><ele>487.0</ele><time>2026-04-12T07:30:24.001Z</time></trkpt><trkpt lat="38.169430011745" lon="13.277370214977976"><ele>489.0</ele><time>2026-04-12T07:30:25.001Z</time></trkpt><trkpt lat="38.16940021120597" lon="13.277213779226434"><ele>491.0</ele><time>2026-04-12T07:30:26.001Z</time></trkpt><trkpt lat="38.16933894147347" lon="13.277072273052553"><ele>491.20000000000005</ele><time>2026-04-12T07:30:27.001Z</time></trkpt><trkpt lat="38.16928973347055" lon="13.27694989078639"><ele>491.40000000000003</ele><time>2026-04-12T07:30:28.001Z</time></trkpt><trkpt lat="38.169209457788774" lon="13.276863909699992"><ele>491.6</ele><time>2026-04-12T07:30:29.001Z</time></trkpt><trkpt lat="38.16914545516366" lon="13.276775044870954"><ele>491.8</ele><time>2026-04-12T07:30:30.001Z</time></trkpt><trkpt lat="38.16904963232087" lon="13.276700688654545"><ele>492.0</ele><time>2026-04-12T07:30:31.001Z</time></trkpt><trkpt lat="38.16896674718991" lon="13.276607105487434"><ele>492.0</ele><time>2026-04-12T07:30:32.001Z</time></trkpt><trkpt lat="38.16887310485668" lon="13.276536877977787"><ele>492.0</ele><time>2026-04-12T07:30:33.001Z</time></trkpt><trkpt lat="38.168767123083846" lon="13.276464822220506"><ele>492.0</ele><time>2026-04-12T07:30:34.001Z</time></trkpt><trkpt lat="38.16864153879644" lon="13.276411740062"><ele>492.0</ele><time>2026-04-12T07:30:35.001Z</time></trkpt><trkpt lat="38.168515383304246" lon="13.276363453195748"><ele>496.0</ele><time>2026-04-12T07:30:36.001Z</time></trkpt><trkpt lat="38.168406920797885" lon="13.276324557773993"><ele>500.00000000000006</ele><time>2026-04-12T07:30:37.001Z</time></trkpt><trkpt lat="38.16831136067482" lon="13.276279180791867"><ele>504.00000000000006</ele><time>2026-04-12T07:30:38.001Z</time></trkpt><trkpt lat="38.16820168085363" lon="13.276243660497318"><ele>508.0</ele><time>2026-04-12T07:30:39.001Z</time></trkpt><trkpt lat="38.16808613989083" lon="13.27620001517091"><ele>512.0</ele><time>2026-04-12T07:30:40.001Z</time></trkpt><trkpt lat="38.167975976161806" lon="13.276154418298555"><ele>512.0</ele><time>2026-04-12T07:30:41.001Z</time></trkpt><trkpt lat="38.167857021928405" lon="13.276104456930044"><ele>512.0</ele><time>2026-04-12T07:30:42.001Z</time></trkpt><trkpt lat="38.16772700476028" lon="13.276047900611538"><ele>512.0</ele><time>2026-04-12T07:30:43.001Z</time></trkpt><trkpt lat="38.16759613409986" lon="13.276004687584905"><ele>512.0</ele><time>2026-04-12T07:30:44.001Z</time></trkpt><trkpt lat="38.16747500712348" lon="13.275951106131426"><ele>509.5</ele><time>2026-04-12T07:30:45.001Z</time></trkpt><trkpt lat="38.167357031504054" lon="13.27590089998569"><ele>507.0</ele><time>2026-04-12T07:30:46.001Z</time></trkpt><trkpt lat="38.167231066872866" lon="13.275849570474092"><ele>504.5</ele><time>2026-04-12T07:30:47.001Z</time></trkpt><trkpt lat="38.16711422462638" lon="13.275779728520273"><ele>502.0</ele><time>2026-04-12T07:30:48.001Z</time></trkpt><trkpt lat="38.16699483170656" lon="13.275747402940224"><ele>502.0</ele><time>2026-04-12T07:30:49.001Z</time></trkpt><trkpt lat="38.166870064217" lon="13.275683214335944"><ele>502.0</ele><time>2026-04-12T07:30:50.001Z</time></trkpt><trkpt lat="38.166759553898835" lon="13.275611851138253"><ele>502.0</ele><time>2026-04-12T07:30:51.001Z</time></trkpt><trkpt lat="38.16662626653745" lon="13.27554573197271"><ele>502.0</ele><time>2026-04-12T07:30:52.001Z</time></trkpt><trkpt lat="38.16648669113661" lon="13.275471358024019"><ele>505.5</ele><time>2026-04-12T07:30:53.001Z</time></trkpt><trkpt lat="38.16635590856649" lon="13.275401559614423"><ele>509.0</ele><time>2026-04-12T07:30:54.001Z</time></trkpt><trkpt lat="38.16624359797498" lon="13.275335277390313"><ele>512.5</ele><time>2026-04-12T07:30:55.001Z</time></trkpt><trkpt lat="38.166123541428085" lon="13.275267238213507"><ele>516.0</ele><time>2026-04-12T07:30:56.001Z</time></trkpt><trkpt lat="38.16600855801369" lon="13.27519864837537"><ele>516.0</ele><time>2026-04-12T07:30:57.001Z</time></trkpt><trkpt lat="38.16589519711547" lon="13.275109700120105"><ele>516.0</ele><time>2026-04-12T07:30:58.001Z</time></trkpt><trkpt lat="38.16577830733265" lon="13.275039134602444"><ele>516.0</ele><time>2026-04-12T07:30:59.001Z</time></trkpt><trkpt lat="38.16567984717969" lon="13.274982660015896"><ele>516.0</ele><time>2026-04-12T07:31:00.001Z</time></trkpt><trkpt lat="38.165577833733444" lon="13.274925937716082"><ele>515.0</ele><time>2026-04-12T07:31:01.001Z</time></trkpt><trkpt lat="38.1654723472558" lon="13.274870694183331"><ele>514.0</ele><time>2026-04-12T07:31:02.001Z</time></trkpt><trkpt lat="38.16536672227305" lon="13.2748160490411"><ele>513.0</ele><time>2026-04-12T07:31:03.001Z</time></trkpt><trkpt lat="38.165257070015016" lon="13.274760385601644"><ele>512.0</ele><time>2026-04-12T07:31:04.001Z</time></trkpt><trkpt lat="38.16515722665892" lon="13.274710233023812"><ele>518.5</ele><time>2026-04-12T07:31:05.001Z</time></trkpt><trkpt lat="38.1650574808945" lon="13.274660235610039"><ele>525.0</ele><time>2026-04-12T07:31:06.001Z</time></trkpt><trkpt lat="38.16494854078772" lon="13.274609071872877"><ele>531.5</ele><time>2026-04-12T07:31:07.001Z</time></trkpt><trkpt lat="38.1648348122019" lon="13.274564329658844"><ele>538.0</ele><time>2026-04-12T07:31:08.001Z</time></trkpt><trkpt lat="38.16472170271772" lon="13.274529777971688"><ele>538.0</ele><time>2026-04-12T07:31:09.001Z</time></trkpt><trkpt lat="38.1646060064535" lon="13.274500187056576"><ele>538.0</ele><time>2026-04-12T07:31:10.001Z</time></trkpt><trkpt lat="38.16449921120672" lon="13.274481536035491"><ele>538.0</ele><time>2026-04-12T07:31:11.001Z</time></trkpt><trkpt lat="38.164411279250025" lon="13.274471247457148"><ele>538.0</ele><time>2026-04-12T07:31:12.001Z</time></trkpt><trkpt lat="38.16428951867892" lon="13.274478644259403"><ele>538.0</ele><time>2026-04-12T07:31:14.001Z</time></trkpt><trkpt lat="38.16415622565648" lon="13.274515073453433"><ele>538.0</ele><time>2026-04-12T07:31:16.001Z</time></trkpt><trkpt lat="38.16406069905837" lon="13.274555630972191"><ele>538.0</ele><time>2026-04-12T07:31:17.001Z</time></trkpt><trkpt lat="38.16398600758105" lon="13.274584359289902"><ele>538.0</ele><time>2026-04-12T07:31:18.001Z</time></trkpt><trkpt lat="38.16390210775039" lon="13.274608584919276"><ele>538.0</ele><time>2026-04-12T07:31:19.001Z</time></trkpt><trkpt lat="38.163822215965645" lon="13.274623957875086"><ele>538.0</ele><time>2026-04-12T07:31:20.001Z</time></trkpt><trkpt lat="38.16372630185899" lon="13.274637972492268"><ele>538.0</ele><time>2026-04-12T07:31:21.001Z</time></trkpt><trkpt lat="38.16362840198954" lon="13.274649743749452"><ele>539.6666666666667</ele><time>2026-04-12T07:31:22.001Z</time></trkpt><trkpt lat="38.16353128004431" lon="13.274675222057985"><ele>541.3333333333334</ele><time>2026-04-12T07:31:23.001Z</time></trkpt><trkpt lat="38.16344769030096" lon="13.27466089184509"><ele>543.0</ele><time>2026-04-12T07:31:24.001Z</time></trkpt><trkpt lat="38.16336562808602" lon="13.274656646019096"><ele>544.6666666666666</ele><time>2026-04-12T07:31:25.001Z</time></trkpt><trkpt lat="38.16329246097645" lon="13.27465252822925"><ele>546.3333333333333</ele><time>2026-04-12T07:31:26.001Z</time></trkpt><trkpt lat="38.1632106388908" lon="13.274650091844812"><ele>548.0</ele><time>2026-04-12T07:31:27.001Z</time></trkpt><trkpt lat="38.16310706349843" lon="13.27467090964386"><ele>549.0</ele><time>2026-04-12T07:31:29.001Z</time></trkpt><trkpt lat="38.16304572527897" lon="13.274738940025534"><ele>550.0</ele><time>2026-04-12T07:31:31.001Z</time></trkpt><trkpt lat="38.16300103390714" lon="13.274812119493433"><ele>551.0</ele><time>2026-04-12T07:31:35.002Z</time></trkpt><trkpt lat="38.16298263938183" lon="13.274896575040152"><ele>552.0</ele><time>2026-04-12T07:31:37.002Z</time></trkpt><trkpt lat="38.16296809493441" lon="13.274978075617206"><ele>553.0</ele><time>2026-04-12T07:31:38.002Z</time></trkpt><trkpt lat="38.162959498104684" lon="13.27511853552873"><ele>554.0</ele><time>2026-04-12T07:31:40.002Z</time></trkpt><trkpt lat="38.16298360757717" lon="13.2752143096487"><ele>551.0</ele><time>2026-04-12T07:31:43.002Z</time></trkpt><trkpt lat="38.162796119346446" lon="13.275262377097487"><ele>548.0</ele><time>2026-04-12T07:31:47.002Z</time></trkpt><trkpt lat="38.16271496245042" lon="13.275285332637859"><ele>545.0</ele><time>2026-04-12T07:31:49.002Z</time></trkpt><trkpt lat="38.16263508182638" lon="13.275253043020243"><ele>542.0</ele><time>2026-04-12T07:31:51.002Z</time></trkpt><trkpt lat="38.16254185973613" lon="13.275254851784915"><ele>542.0</ele><time>2026-04-12T07:31:53.002Z</time></trkpt><trkpt lat="38.162447022536895" lon="13.27525173984027"><ele>542.0</ele><time>2026-04-12T07:31:55.002Z</time></trkpt><trkpt lat="38.162362144169926" lon="13.275220921766442"><ele>542.0</ele><time>2026-04-12T07:31:57.002Z</time></trkpt><trkpt lat="38.16226423359898" lon="13.275160046790692"><ele>542.0</ele><time>2026-04-12T07:31:59.002Z</time></trkpt><trkpt lat="38.1621880915461" lon="13.275098193141211"><ele>542.0</ele><time>2026-04-12T07:32:01.002Z</time></trkpt><trkpt lat="38.1621236222047" lon="13.275068653504315"><ele>545.5</ele><time>2026-04-12T07:32:03.002Z</time></trkpt><trkpt lat="38.16208835065479" lon="13.27497511976758"><ele>549.0</ele><time>2026-04-12T07:32:06.002Z</time></trkpt><trkpt lat="38.162034839328186" lon="13.27489803603013"><ele>552.5</ele><time>2026-04-12T07:32:08.002Z</time></trkpt><trkpt lat="38.16196964451318" lon="13.274851591066998"><ele>556.0</ele><time>2026-04-12T07:32:09.002Z</time></trkpt><trkpt lat="38.1619181181084" lon="13.274795042078953"><ele>559.5</ele><time>2026-04-12T07:32:10.002Z</time></trkpt><trkpt lat="38.16186333170817" lon="13.274733143566767"><ele>563.0</ele><time>2026-04-12T07:32:11.002Z</time></trkpt><trkpt lat="38.161801725637694" lon="13.27465730200792"><ele>563.6</ele><time>2026-04-12T07:32:12.002Z</time></trkpt><trkpt lat="38.16175557597575" lon="13.27460225494192"><ele>564.1999999999999</ele><time>2026-04-12T07:32:13.002Z</time></trkpt><trkpt lat="38.16165695967879" lon="13.274503908323782"><ele>564.8</ele><time>2026-04-12T07:32:15.002Z</time></trkpt><trkpt lat="38.16157925165116" lon="13.274413441727951"><ele>565.4</ele><time>2026-04-12T07:32:17.002Z</time></trkpt><trkpt lat="38.16152619612781" lon="13.274311043127197"><ele>566.0</ele><time>2026-04-12T07:32:19Z</time></trkpt><trkpt lat="38.16148002742355" lon="13.27422004206047"><ele>567.6666666666666</ele><time>2026-04-12T07:32:22Z</time></trkpt><trkpt lat="38.1614331776801" lon="13.274130543467521"><ele>569.3333333333333</ele><time>2026-04-12T07:32:24Z</time></trkpt><trkpt lat="38.161376280813236" lon="13.274081208914467"><ele>571.0</ele><time>2026-04-12T07:33:07.001Z</time></trkpt><trkpt lat="38.16133494144857" lon="13.274156333646113"><ele>572.6666666666666</ele><time>2026-04-12T07:33:10.001Z</time></trkpt><trkpt lat="38.1612760285065" lon="13.274189835995953"><ele>574.3333333333334</ele><time>2026-04-12T07:34:12.002Z</time></trkpt><trkpt lat="38.161197021511875" lon="13.274248262466058"><ele>576.0</ele><time>2026-04-12T07:34:14.002Z</time></trkpt><trkpt lat="38.16110775630608" lon="13.274297760366714"><ele>576.0</ele><time>2026-04-12T07:34:16.002Z</time></trkpt><trkpt lat="38.16101626868507" lon="13.274368403186273"><ele>576.0</ele><time>2026-04-12T07:34:18.002Z</time></trkpt><trkpt lat="38.16096850054242" lon="13.27425746372944"><ele>576.0</ele><time>2026-04-12T07:34:22.002Z</time></trkpt><trkpt lat="38.16090710650303" lon="13.274171973796731"><ele>576.0</ele><time>2026-04-12T07:34:24.002Z</time></trkpt><trkpt lat="38.16086060527628" lon="13.274107221650596"><ele>576.0</ele><time>2026-04-12T07:34:25Z</time></trkpt><trkpt lat="38.16079924694604" lon="13.274019234876768"><ele>577.6</ele><time>2026-04-12T07:34:26Z</time></trkpt><trkpt lat="38.160729472782705" lon="13.273904820480137"><ele>579.2</ele><time>2026-04-12T07:34:27Z</time></trkpt><trkpt lat="38.160664444292706" lon="13.273807405448638"><ele>580.8</ele><time>2026-04-12T07:34:28Z</time></trkpt><trkpt lat="38.1606212507806" lon="13.27374619361444"><ele>582.4</ele><time>2026-04-12T07:34:29Z</time></trkpt><trkpt lat="38.16055804261825" lon="13.273699698402885"><ele>584.0</ele><time>2026-04-12T07:34:31Z</time></trkpt><trkpt lat="38.160474230037394" lon="13.273824298706177"><ele>582.4</ele><time>2026-04-12T07:34:33Z</time></trkpt><trkpt lat="38.16057033635393" lon="13.273994276495982"><ele>580.8</ele><time>2026-04-12T07:34:35Z</time></trkpt><trkpt lat="38.160605398857726" lon="13.274082731553056"><ele>579.2</ele><time>2026-04-12T07:34:36Z</time></trkpt><trkpt lat="38.16065867678118" lon="13.274170909693916"><ele>577.6</ele><time>2026-04-12T07:34:37Z</time></trkpt><trkpt lat="38.160692177137065" lon="13.274285368712388"><ele>576.0</ele><time>2026-04-12T07:34:38Z</time></trkpt><trkpt lat="38.160737100676926" lon="13.274396919901328"><ele>576.0</ele><time>2026-04-12T07:34:39Z</time></trkpt><trkpt lat="38.16079675746606" lon="13.274504368772979"><ele>576.0</ele><time>2026-04-12T07:34:40Z</time></trkpt><trkpt lat="38.160845618518465" lon="13.274629736643162"><ele>576.0</ele><time>2026-04-12T07:34:41Z</time></trkpt><trkpt lat="38.16089503765175" lon="13.274761921733777"><ele>576.0</ele><time>2026-04-12T07:34:42Z</time></trkpt><trkpt lat="38.160936488688264" lon="13.27489941285074"><ele>576.0</ele><time>2026-04-12T07:34:43Z</time></trkpt><trkpt lat="38.1609912882137" lon="13.275039903132894"><ele>580.0</ele><time>2026-04-12T07:34:44Z</time></trkpt><trkpt lat="38.16104313932923" lon="13.275168415507132"><ele>584.0</ele><time>2026-04-12T07:34:45Z</time></trkpt><trkpt lat="38.16110087601721" lon="13.275311242868295"><ele>588.0</ele><time>2026-04-12T07:34:46Z</time></trkpt><trkpt lat="38.16115837581845" lon="13.275453483834795"><ele>592.0</ele><time>2026-04-12T07:34:47Z</time></trkpt><trkpt lat="38.16121646184426" lon="13.275601366968608"><ele>596.0</ele><time>2026-04-12T07:34:48Z</time></trkpt><trkpt lat="38.1612773783321" lon="13.27576548814847"><ele>600.0</ele><time>2026-04-12T07:34:49Z</time></trkpt><trkpt lat="38.161335026596625" lon="13.275934736129951"><ele>604.0</ele><time>2026-04-12T07:34:50Z</time></trkpt><trkpt lat="38.161384668110124" lon="13.276098413456685"><ele>608.0</ele><time>2026-04-12T07:34:51Z</time></trkpt><trkpt lat="38.16143099970405" lon="13.276280026321555"><ele>604.0</ele><time>2026-04-12T07:34:52Z</time></trkpt><trkpt lat="38.16147127485974" lon="13.276461105592771"><ele>600.0</ele><time>2026-04-12T07:34:53Z</time></trkpt><trkpt lat="38.16150471272187" lon="13.276633934376973"><ele>596.0</ele><time>2026-04-12T07:34:54Z</time></trkpt><trkpt lat="38.16153540599263" lon="13.276818580707667"><ele>592.0</ele><time>2026-04-12T07:34:55Z</time></trkpt><trkpt lat="38.161561526454186" lon="13.276991839491188"><ele>592.0</ele><time>2026-04-12T07:34:56Z</time></trkpt><trkpt lat="38.16158409245327" lon="13.277149143202772"><ele>592.0</ele><time>2026-04-12T07:34:57Z</time></trkpt><trkpt lat="38.16160456144362" lon="13.277310588130685"><ele>592.0</ele><time>2026-04-12T07:34:58Z</time></trkpt><trkpt lat="38.161622271752314" lon="13.277468979507578"><ele>592.0</ele><time>2026-04-12T07:34:59Z</time></trkpt><trkpt lat="38.16163688283113" lon="13.27762457680831"><ele>594.5</ele><time>2026-04-12T07:35:00.001Z</time></trkpt><trkpt lat="38.16163379597331" lon="13.277766036646257"><ele>597.0</ele><time>2026-04-12T07:35:01.001Z</time></trkpt><trkpt lat="38.16163026082646" lon="13.277932040021161"><ele>599.5</ele><time>2026-04-12T07:35:02.001Z</time></trkpt><trkpt lat="38.16163971077883" lon="13.278102655814834"><ele>602.0</ele><time>2026-04-12T07:35:03.001Z</time></trkpt><trkpt lat="38.16162624282633" lon="13.278275539664877"><ele>603.0</ele><time>2026-04-12T07:35:04.001Z</time></trkpt><trkpt lat="38.1616187502407" lon="13.278458097158381"><ele>604.0</ele><time>2026-04-12T07:35:05.001Z</time></trkpt><trkpt lat="38.16158477740572" lon="13.27862784847181"><ele>605.0</ele><time>2026-04-12T07:35:06.001Z</time></trkpt><trkpt lat="38.16155991942143" lon="13.27875195773942"><ele>606.0</ele><time>2026-04-12T07:35:07.001Z</time></trkpt><trkpt lat="38.16153457262155" lon="13.278841681090043"><ele>611.2</ele><time>2026-04-12T07:35:08.001Z</time></trkpt><trkpt lat="38.161466675686235" lon="13.278733766833394"><ele>616.4000000000001</ele><time>2026-04-12T07:35:13.001Z</time></trkpt><trkpt lat="38.161471082013826" lon="13.278651655830307"><ele>621.6</ele><time>2026-04-12T07:35:14.001Z</time></trkpt><trkpt lat="38.161469490147795" lon="13.278543148143585"><ele>626.8000000000001</ele><time>2026-04-12T07:35:15.001Z</time></trkpt><trkpt lat="38.16145708560817" lon="13.278402934621344"><ele>632.0</ele><time>2026-04-12T07:35:16.001Z</time></trkpt><trkpt lat="38.16145060204398" lon="13.278233270934425"><ele>634.0</ele><time>2026-04-12T07:35:17.001Z</time></trkpt><trkpt lat="38.16143666424478" lon="13.278055258741038"><ele>636.0</ele><time>2026-04-12T07:35:18.001Z</time></trkpt><trkpt lat="38.16142808481288" lon="13.277841350090004"><ele>638.0</ele><time>2026-04-12T07:35:19.001Z</time></trkpt><trkpt lat="38.161367592974344" lon="13.277637101770772"><ele>638.0</ele><time>2026-04-12T07:35:20.001Z</time></trkpt><trkpt lat="38.161306362558655" lon="13.277445862681134"><ele>638.0</ele><time>2026-04-12T07:35:21.001Z</time></trkpt><trkpt lat="38.16123625492079" lon="13.277238212460311"><ele>638.0</ele><time>2026-04-12T07:35:22.001Z</time></trkpt><trkpt lat="38.16115513906098" lon="13.27707130629424"><ele>634.6666666666666</ele><time>2026-04-12T07:35:23.001Z</time></trkpt><trkpt lat="38.161079066863145" lon="13.276906052814834"><ele>631.3333333333334</ele><time>2026-04-12T07:35:24.001Z</time></trkpt><trkpt lat="38.16098782026201" lon="13.276751619056903"><ele>628.0</ele><time>2026-04-12T07:35:25.001Z</time></trkpt><trkpt lat="38.16088394071159" lon="13.276605068837602"><ele>628.0</ele><time>2026-04-12T07:35:26.001Z</time></trkpt><trkpt lat="38.16078908763961" lon="13.276460486367235"><ele>628.0</ele><time>2026-04-12T07:35:27.001Z</time></trkpt><trkpt lat="38.16068096769985" lon="13.276296591356887"><ele>628.0</ele><time>2026-04-12T07:35:28.001Z</time></trkpt><trkpt lat="38.16058539721247" lon="13.276125951350496"><ele>634.0</ele><time>2026-04-12T07:35:29.001Z</time></trkpt><trkpt lat="38.160463848489734" lon="13.275983749133077"><ele>640.0</ele><time>2026-04-12T07:35:30.001Z</time></trkpt><trkpt lat="38.1603562366473" lon="13.275842032354314"><ele>646.0</ele><time>2026-04-12T07:35:31.001Z</time></trkpt><trkpt lat="38.160237823368824" lon="13.275694486276933"><ele>638.6666666666667</ele><time>2026-04-12T07:35:32.001Z</time></trkpt><trkpt lat="38.16012757957733" lon="13.27556863009942"><ele>631.3333333333334</ele><time>2026-04-12T07:35:33.001Z</time></trkpt><trkpt lat="38.1600028318895" lon="13.27543358955231"><ele>624.0</ele><time>2026-04-12T07:35:34.001Z</time></trkpt><trkpt lat="38.159888884152274" lon="13.27531559221162"><ele>631.75</ele><time>2026-04-12T07:35:35.001Z</time></trkpt><trkpt lat="38.159774078022444" lon="13.275201473098939"><ele>639.5</ele><time>2026-04-12T07:35:36.001Z</time></trkpt><trkpt lat="38.159666420964314" lon="13.27509680457696"><ele>647.25</ele><time>2026-04-12T07:35:37.001Z</time></trkpt><trkpt lat="38.159569510191545" lon="13.274981675817978"><ele>655.0</ele><time>2026-04-12T07:35:38.001Z</time></trkpt><trkpt lat="38.1594682057324" lon="13.274886571586222"><ele>655.0</ele><time>2026-04-12T07:35:39.001Z</time></trkpt><trkpt lat="38.15934670587049" lon="13.274796964093055"><ele>655.0</ele><time>2026-04-12T07:35:40.001Z</time></trkpt><trkpt lat="38.15924548201955" lon="13.274705549304576"><ele>655.0</ele><time>2026-04-12T07:35:41.001Z</time></trkpt><trkpt lat="38.15914737661784" lon="13.274638670637344"><ele>655.0</ele><time>2026-04-12T07:35:42.001Z</time></trkpt><trkpt lat="38.15906143898618" lon="13.274568896073427"><ele>655.0</ele><time>2026-04-12T07:35:43.001Z</time></trkpt><trkpt lat="38.15897579294543" lon="13.274491550904722"><ele>655.0</ele><time>2026-04-12T07:35:44.001Z</time></trkpt><trkpt lat="38.15889714894554" lon="13.274426652008765"><ele>655.0</ele><time>2026-04-12T07:35:45.001Z</time></trkpt><trkpt lat="38.15881767442953" lon="13.274339582304707"><ele>655.0</ele><time>2026-04-12T07:35:46.001Z</time></trkpt><trkpt lat="38.158698972585015" lon="13.274269627007175"><ele>655.0</ele><time>2026-04-12T07:35:47.001Z</time></trkpt><trkpt lat="38.15859202481081" lon="13.27417744029808"><ele>655.0</ele><time>2026-04-12T07:35:48.001Z</time></trkpt><trkpt lat="38.15847075580424" lon="13.274086787859478"><ele>655.0</ele><time>2026-04-12T07:35:49.001Z</time></trkpt><trkpt lat="38.15834370779646" lon="13.2739949470251"><ele>655.0</ele><time>2026-04-12T07:35:50.001Z</time></trkpt><trkpt lat="38.158217901682406" lon="13.273901545366977"><ele>655.0</ele><time>2026-04-12T07:35:51.001Z</time></trkpt><trkpt lat="38.15810956813248" lon="13.273821107625395"><ele>656.25</ele><time>2026-04-12T07:35:52.001Z</time></trkpt><trkpt lat="38.15799403917323" lon="13.2737098608159"><ele>657.5</ele><time>2026-04-12T07:35:53.001Z</time></trkpt><trkpt lat="38.15788423054138" lon="13.273624586315915"><ele>658.75</ele><time>2026-04-12T07:35:54.001Z</time></trkpt><trkpt lat="38.15776014144255" lon="13.273528166299059"><ele>660.0</ele><time>2026-04-12T07:35:55.001Z</time></trkpt><trkpt lat="38.15762239562261" lon="13.273421581022196"><ele>660.0</ele><time>2026-04-12T07:35:56.001Z</time></trkpt><trkpt lat="38.15748739199529" lon="13.273341728287592"><ele>660.0</ele><time>2026-04-12T07:35:57.001Z</time></trkpt><trkpt lat="38.1573636263335" lon="13.273225438564491"><ele>660.0</ele><time>2026-04-12T07:35:58.001Z</time></trkpt><trkpt lat="38.1572253113075" lon="13.273138312191012"><ele>661.2</ele><time>2026-04-12T07:35:59.001Z</time></trkpt><trkpt lat="38.15711788828657" lon="13.273037655995465"><ele>662.4</ele><time>2026-04-12T07:36:00.001Z</time></trkpt><trkpt lat="38.157035571071155" lon="13.272974679269934"><ele>663.5999999999999</ele><time>2026-04-12T07:36:01.001Z</time></trkpt><trkpt lat="38.15694783620511" lon="13.272925083054927"><ele>664.8</ele><time>2026-04-12T07:36:03.002Z</time></trkpt><trkpt lat="38.15688896617742" lon="13.272878875792049"><ele>666.0</ele><time>2026-04-12T07:36:06.002Z</time></trkpt><trkpt lat="38.156831325623635" lon="13.272838741271682"><ele>666.0</ele><time>2026-04-12T07:36:09.002Z</time></trkpt><trkpt lat="38.15675876256942" lon="13.272781717600012"><ele>666.0</ele><time>2026-04-12T07:36:13.002Z</time></trkpt><trkpt lat="38.156712805652695" lon="13.272718574525085"><ele>666.0</ele><time>2026-04-12T07:36:17.002Z</time></trkpt><trkpt lat="38.15666336595881" lon="13.272667076042083"><ele>666.0</ele><time>2026-04-12T07:36:21.002Z</time></trkpt><trkpt lat="38.15667239922494" lon="13.272567785925217"><ele>666.0</ele><time>2026-04-12T07:36:23.002Z</time></trkpt><trkpt lat="38.156774337400485" lon="13.272256793512934"><ele>668.3333333333334</ele><time>2026-04-12T07:36:24.002Z</time></trkpt><trkpt lat="38.15676488520622" lon="13.272138277016206"><ele>670.6666666666666</ele><time>2026-04-12T07:36:26.002Z</time></trkpt><trkpt lat="38.156812207458486" lon="13.27206019133868"><ele>673.0</ele><time>2026-04-12T07:36:29.002Z</time></trkpt><trkpt lat="38.15686297475296" lon="13.27198388161851"><ele>675.3333333333333</ele><time>2026-04-12T07:36:31Z</time></trkpt><trkpt lat="38.15693216172461" lon="13.271901291362157"><ele>677.6666666666666</ele><time>2026-04-12T07:36:34Z</time></trkpt><trkpt lat="38.156979537864764" lon="13.271843328410794"><ele>680.0</ele><time>2026-04-12T07:36:36Z</time></trkpt><trkpt lat="38.15704611729624" lon="13.271785359001894"><ele>680.0</ele><time>2026-04-12T07:36:38Z</time></trkpt><trkpt lat="38.15710669337975" lon="13.271737520762857"><ele>680.0</ele><time>2026-04-12T07:36:40Z</time></trkpt><trkpt lat="38.15715908003265" lon="13.271675238248834"><ele>680.0</ele><time>2026-04-12T07:36:41Z</time></trkpt><trkpt lat="38.15719753511536" lon="13.271594620676298"><ele>680.0</ele><time>2026-04-12T07:36:43Z</time></trkpt><trkpt lat="38.157301293963584" lon="13.27156054642848"><ele>680.0</ele><time>2026-04-12T07:36:45Z</time></trkpt><trkpt lat="38.1574082477508" lon="13.27153074970355"><ele>680.0</ele><time>2026-04-12T07:36:47Z</time></trkpt><trkpt lat="38.15745180702073" lon="13.271462638790798"><ele>682.1666666666666</ele><time>2026-04-12T07:36:49Z</time></trkpt><trkpt lat="38.15748154396082" lon="13.271380275219425"><ele>684.3333333333333</ele><time>2026-04-12T07:36:51Z</time></trkpt><trkpt lat="38.15750643101557" lon="13.27129160127312"><ele>686.5</ele><time>2026-04-12T07:36:53Z</time></trkpt><trkpt lat="38.15747565179357" lon="13.271219908297981"><ele>688.6666666666666</ele><time>2026-04-12T07:36:55Z</time></trkpt><trkpt lat="38.15736699868613" lon="13.271223922817576"><ele>690.8333333333334</ele><time>2026-04-12T07:36:58Z</time></trkpt><trkpt lat="38.157275469051946" lon="13.271216437197642"><ele>693.0</ele><time>2026-04-12T07:37:01Z</time></trkpt><trkpt lat="38.15721038931394" lon="13.27124663810563"><ele>693.8571428571429</ele><time>2026-04-12T07:37:03Z</time></trkpt><trkpt lat="38.15714637526978" lon="13.271212886474638"><ele>694.7142857142858</ele><time>2026-04-12T07:37:07Z</time></trkpt><trkpt lat="38.15708922931125" lon="13.271167547958482"><ele>695.5714285714286</ele><time>2026-04-12T07:37:10Z</time></trkpt><trkpt lat="38.15704690658612" lon="13.271097461555105"><ele>696.4285714285714</ele><time>2026-04-12T07:37:13Z</time></trkpt><trkpt lat="38.15710086864116" lon="13.27102121731726"><ele>697.2857142857143</ele><time>2026-04-12T07:37:18.001Z</time></trkpt><trkpt lat="38.15716361239484" lon="13.27100938258877"><ele>698.1428571428571</ele><time>2026-04-12T07:37:21.001Z</time></trkpt><trkpt lat="38.15720284130362" lon="13.270937139681914"><ele>699.0</ele><time>2026-04-12T07:37:25.001Z</time></trkpt><trkpt lat="38.1571520342153" lon="13.270882257045406"><ele>699.0</ele><time>2026-04-12T07:37:32.001Z</time></trkpt><trkpt lat="38.15709341879948" lon="13.270820623537901"><ele>699.0</ele><time>2026-04-12T07:37:39.001Z</time></trkpt><trkpt lat="38.157078467989315" lon="13.270738494875445"><ele>699.0</ele><time>2026-04-12T07:37:42.001Z</time></trkpt><trkpt lat="38.1570841717433" lon="13.270627167067433"><ele>699.0</ele><time>2026-04-12T07:37:44.001Z</time></trkpt><trkpt lat="38.1570814451842" lon="13.270520890115458"><ele>699.0</ele><time>2026-04-12T07:37:46.001Z</time></trkpt><trkpt lat="38.157076620020526" lon="13.270439182425166"><ele>699.0</ele><time>2026-04-12T07:37:50.001Z</time></trkpt><trkpt lat="38.157028338719634" lon="13.270370779030692"><ele>700.0</ele><time>2026-04-12T07:37:53.001Z</time></trkpt><trkpt lat="38.156932344651025" lon="13.270337504187701"><ele>701.0</ele><time>2026-04-12T07:38:14.001Z</time></trkpt><trkpt lat="38.156840030543144" lon="13.270306973724711"><ele>702.0</ele><time>2026-04-12T07:38:15.001Z</time></trkpt><trkpt lat="38.156731914328056" lon="13.27026449026449"><ele>703.0</ele><time>2026-04-12T07:38:16.002Z</time></trkpt><trkpt lat="38.15661348328254" lon="13.2702299278669"><ele>704.0</ele><time>2026-04-12T07:38:17.002Z</time></trkpt><trkpt lat="38.15651027967141" lon="13.270209684989556"><ele>702.0</ele><time>2026-04-12T07:38:18.002Z</time></trkpt><trkpt lat="38.15640950617762" lon="13.270195122670776"><ele>700.0</ele><time>2026-04-12T07:38:19.002Z</time></trkpt><trkpt lat="38.156292609782895" lon="13.270186123070902"><ele>698.0</ele><time>2026-04-12T07:38:20.002Z</time></trkpt><trkpt lat="38.156176981520176" lon="13.270178553507835"><ele>696.0</ele><time>2026-04-12T07:38:21.002Z</time></trkpt><trkpt lat="38.15609434820456" lon="13.270166950040899"><ele>694.0</ele><time>2026-04-12T07:38:22.002Z</time></trkpt><trkpt lat="38.1560090986421" lon="13.27013816409655"><ele>694.0</ele><time>2026-04-12T07:38:24.002Z</time></trkpt><trkpt lat="38.15593293704873" lon="13.270112543633461"><ele>694.0</ele><time>2026-04-12T07:38:27.002Z</time></trkpt><trkpt lat="38.15592161939356" lon="13.269768710179013"><ele>694.0</ele><time>2026-04-12T07:38:31.002Z</time></trkpt><trkpt lat="38.15588133907544" lon="13.269647350449242"><ele>693.3333333333334</ele><time>2026-04-12T07:38:33.002Z</time></trkpt><trkpt lat="38.155841955282575" lon="13.26953440102472"><ele>692.6666666666667</ele><time>2026-04-12T07:38:35.002Z</time></trkpt><trkpt lat="38.155764129572106" lon="13.269486470226965"><ele>692.0</ele><time>2026-04-12T07:38:37Z</time></trkpt><trkpt lat="38.15571513767912" lon="13.269390269728234"><ele>691.3333333333334</ele><time>2026-04-12T07:38:39Z</time></trkpt><trkpt lat="38.15570232279624" lon="13.269297873415166"><ele>690.6666666666666</ele><time>2026-04-12T07:38:41Z</time></trkpt><trkpt lat="38.15568592488306" lon="13.269205290904729"><ele>690.0</ele><time>2026-04-12T07:38:43Z</time></trkpt><trkpt lat="38.15562663080065" lon="13.269139419027917"><ele>688.1666666666666</ele><time>2026-04-12T07:38:45Z</time></trkpt><trkpt lat="38.15557670703824" lon="13.269039405690075"><ele>686.3333333333334</ele><time>2026-04-12T07:38:47Z</time></trkpt><trkpt lat="38.15551575858934" lon="13.268988904449488"><ele>684.5</ele><time>2026-04-12T07:38:48Z</time></trkpt><trkpt lat="38.15546577917592" lon="13.26893812258141"><ele>682.6666666666667</ele><time>2026-04-12T07:38:49Z</time></trkpt><trkpt lat="38.15538599831301" lon="13.268829268485957"><ele>680.8333333333334</ele><time>2026-04-12T07:38:51Z</time></trkpt><trkpt lat="38.1553429413111" lon="13.2687671969606"><ele>679.0</ele><time>2026-04-12T07:38:52Z</time></trkpt><trkpt lat="38.155308097104324" lon="13.268679204072516"><ele>677.8000000000001</ele><time>2026-04-12T07:38:53Z</time></trkpt><trkpt lat="38.155243708452666" lon="13.26858617550402"><ele>676.6</ele><time>2026-04-12T07:38:54Z</time></trkpt><trkpt lat="38.15520227416367" lon="13.268525343022382"><ele>675.4</ele><time>2026-04-12T07:38:55Z</time></trkpt><trkpt lat="38.15512834697221" lon="13.268412614742774"><ele>674.2</ele><time>2026-04-12T07:38:57Z</time></trkpt><trkpt lat="38.155088636869856" lon="13.268272744711398"><ele>673.0</ele><time>2026-04-12T07:38:59Z</time></trkpt><trkpt lat="38.15503102846597" lon="13.26821901127642"><ele>673.0</ele><time>2026-04-12T07:39:00Z</time></trkpt><trkpt lat="38.15495798665678" lon="13.268182896727193"><ele>673.0</ele><time>2026-04-12T07:39:02Z</time></trkpt><trkpt lat="38.15490180011973" lon="13.268134824572122"><ele>673.0</ele><time>2026-04-12T07:39:06Z</time></trkpt><trkpt lat="38.15483818981221" lon="13.268052375808223"><ele>673.0</ele><time>2026-04-12T07:39:09Z</time></trkpt><trkpt lat="38.154755858784974" lon="13.26799346219149"><ele>673.0</ele><time>2026-04-12T07:39:11Z</time></trkpt><trkpt lat="38.15468237332729" lon="13.267980514156358"><ele>673.0</ele><time>2026-04-12T07:39:13Z</time></trkpt><trkpt lat="38.15461462133608" lon="13.26796203664055"><ele>670.1666666666667</ele><time>2026-04-12T07:39:16Z</time></trkpt><trkpt lat="38.15453248155014" lon="13.267918407389287"><ele>667.3333333333334</ele><time>2026-04-12T07:39:19Z</time></trkpt><trkpt lat="38.15446893589457" lon="13.267841183353829"><ele>664.5</ele><time>2026-04-12T07:39:22Z</time></trkpt><trkpt lat="38.154467086664795" lon="13.267729872069763"><ele>661.6666666666666</ele><time>2026-04-12T07:39:25.001Z</time></trkpt><trkpt lat="38.154406352850124" lon="13.267652624165699"><ele>658.8333333333333</ele><time>2026-04-12T07:39:28.001Z</time></trkpt><trkpt lat="38.15435060104662" lon="13.267604279016904"><ele>656.0</ele><time>2026-04-12T07:39:30.001Z</time></trkpt><trkpt lat="38.1542936686135" lon="13.26756750877627"><ele>656.0</ele><time>2026-04-12T07:39:32.001Z</time></trkpt><trkpt lat="38.154248887013296" lon="13.267475869457641"><ele>656.0</ele><time>2026-04-12T07:39:35.001Z</time></trkpt><trkpt lat="38.15420060733141" lon="13.267389507850538"><ele>656.0</ele><time>2026-04-12T07:39:38.001Z</time></trkpt><trkpt lat="38.154128226494244" lon="13.267292133435337"><ele>656.0</ele><time>2026-04-12T07:39:41.001Z</time></trkpt><trkpt lat="38.15410275762831" lon="13.267202757194193"><ele>656.0</ele><time>2026-04-12T07:39:43.001Z</time></trkpt><trkpt lat="38.154066164457376" lon="13.267099769238056"><ele>656.0</ele><time>2026-04-12T07:39:45.001Z</time></trkpt><trkpt lat="38.15398791009291" lon="13.266989945578095"><ele>652.4</ele><time>2026-04-12T07:39:47.001Z</time></trkpt><trkpt lat="38.15394340140807" lon="13.266928242971685"><ele>648.8</ele><time>2026-04-12T07:39:48.001Z</time></trkpt><trkpt lat="38.15388402831599" lon="13.266855367342279"><ele>645.1999999999999</ele><time>2026-04-12T07:39:50.001Z</time></trkpt><trkpt lat="38.15380880970708" lon="13.266780638552953"><ele>641.5999999999999</ele><time>2026-04-12T07:39:52.001Z</time></trkpt><trkpt lat="38.1537238192217" lon="13.266704105774767"><ele>638.0</ele><time>2026-04-12T07:39:54.001Z</time></trkpt><trkpt lat="38.15362742382139" lon="13.266659115437076"><ele>638.0</ele><time>2026-04-12T07:39:56.001Z</time></trkpt><trkpt lat="38.15355073342707" lon="13.266603165556779"><ele>638.0</ele><time>2026-04-12T07:39:58.001Z</time></trkpt><trkpt lat="38.15347331710162" lon="13.266519964265514"><ele>638.0</ele><time>2026-04-12T07:40:00.001Z</time></trkpt><trkpt lat="38.153416175944606" lon="13.266456078474741"><ele>638.0</ele><time>2026-04-12T07:40:02.001Z</time></trkpt><trkpt lat="38.15335332044425" lon="13.266424447285983"><ele>638.0</ele><time>2026-04-12T07:40:04.001Z</time></trkpt><trkpt lat="38.15326322856762" lon="13.266355518119378"><ele>638.0</ele><time>2026-04-12T07:40:06.001Z</time></trkpt><trkpt lat="38.15326962790086" lon="13.266189078944887"><ele>638.0</ele><time>2026-04-12T07:40:08.001Z</time></trkpt><trkpt lat="38.153225234749655" lon="13.2661252870726"><ele>638.0</ele><time>2026-04-12T07:40:10.001Z</time></trkpt><trkpt lat="38.153082309384445" lon="13.266218295402926"><ele>638.0</ele><time>2026-04-12T07:40:12.001Z</time></trkpt><trkpt lat="38.152994359483934" lon="13.266219599613459"><ele>638.0</ele><time>2026-04-12T07:40:14.001Z</time></trkpt><trkpt lat="38.15288701468829" lon="13.266233049502066"><ele>638.0</ele><time>2026-04-12T07:40:16.001Z</time></trkpt><trkpt lat="38.152800415531104" lon="13.266165418114733"><ele>635.6</ele><time>2026-04-12T07:40:18.001Z</time></trkpt><trkpt lat="38.15273219294717" lon="13.266086288972687"><ele>633.1999999999999</ele><time>2026-04-12T07:40:20.001Z</time></trkpt><trkpt lat="38.15269253348479" lon="13.265962804093283"><ele>630.8</ele><time>2026-04-12T07:40:22.001Z</time></trkpt><trkpt lat="38.152675679160865" lon="13.26584441476752"><ele>628.4</ele><time>2026-04-12T07:40:24.002Z</time></trkpt><trkpt lat="38.15266976470565" lon="13.265750560515169"><ele>626.0</ele><time>2026-04-12T07:40:26.002Z</time></trkpt><trkpt lat="38.15261531689274" lon="13.265645528464262"><ele>624.8</ele><time>2026-04-12T07:40:29.002Z</time></trkpt><trkpt lat="38.152556277711795" lon="13.265586355495678"><ele>623.6</ele><time>2026-04-12T07:40:31.002Z</time></trkpt><trkpt lat="38.15251288560886" lon="13.265458275194598"><ele>622.4</ele><time>2026-04-12T07:40:33.002Z</time></trkpt><trkpt lat="38.15245137723329" lon="13.265334316899176"><ele>621.2</ele><time>2026-04-12T07:40:35.002Z</time></trkpt><trkpt lat="38.15240812687423" lon="13.26526001153089"><ele>620.0</ele><time>2026-04-12T07:40:36.002Z</time></trkpt><trkpt lat="38.15233564566567" lon="13.265179918570347"><ele>617.6666666666666</ele><time>2026-04-12T07:40:38.002Z</time></trkpt><trkpt lat="38.15227845115069" lon="13.265143848434109"><ele>615.3333333333333</ele><time>2026-04-12T07:40:41.002Z</time></trkpt><trkpt lat="38.152204813632515" lon="13.265112013804039"><ele>613.0</ele><time>2026-04-12T07:40:43Z</time></trkpt><trkpt lat="38.15211150341899" lon="13.265058129111306"><ele>610.6666666666666</ele><time>2026-04-12T07:40:45Z</time></trkpt><trkpt lat="38.152039204732446" lon="13.265007528101831"><ele>608.3333333333334</ele><time>2026-04-12T07:40:47Z</time></trkpt><trkpt lat="38.15197563452499" lon="13.26502183075567"><ele>606.0</ele><time>2026-04-12T07:40:49Z</time></trkpt><trkpt lat="38.151879523054426" lon="13.265080474950572"><ele>606.0</ele><time>2026-04-12T07:40:51Z</time></trkpt><trkpt lat="38.15181459241972" lon="13.265109968377176"><ele>606.0</ele><time>2026-04-12T07:40:52Z</time></trkpt><trkpt lat="38.15178230430407" lon="13.265180246023833"><ele>606.0</ele><time>2026-04-12T07:40:53Z</time></trkpt><trkpt lat="38.15157424926181" lon="13.265148305493584"><ele>606.0</ele><time>2026-04-12T07:40:54Z</time></trkpt><trkpt lat="38.15146140042747" lon="13.265090804070823"><ele>606.1666666666666</ele><time>2026-04-12T07:40:56Z</time></trkpt><trkpt lat="38.15140253383645" lon="13.265060672876114"><ele>606.3333333333334</ele><time>2026-04-12T07:40:57Z</time></trkpt><trkpt lat="38.15133858268723" lon="13.265021887581643"><ele>606.5</ele><time>2026-04-12T07:40:58Z</time></trkpt><trkpt lat="38.151277895017984" lon="13.264983315845344"><ele>606.6666666666667</ele><time>2026-04-12T07:40:59Z</time></trkpt><trkpt lat="38.15119360480541" lon="13.264921320083987"><ele>606.8333333333334</ele><time>2026-04-12T07:41:01Z</time></trkpt><trkpt lat="38.151113433389824" lon="13.264878421205363"><ele>607.0</ele><time>2026-04-12T07:41:03Z</time></trkpt><trkpt lat="38.151042704729925" lon="13.264822879209083"><ele>607.0</ele><time>2026-04-12T07:41:04Z</time></trkpt><trkpt lat="38.15094057770745" lon="13.264771432053136"><ele>607.0</ele><time>2026-04-12T07:41:05Z</time></trkpt><trkpt lat="38.15084247864276" lon="13.264773961453283"><ele>607.0</ele><time>2026-04-12T07:41:06Z</time></trkpt><trkpt lat="38.1507517810525" lon="13.26478482549837"><ele>607.0</ele><time>2026-04-12T07:41:07Z</time></trkpt><trkpt lat="38.150673703557835" lon="13.264820438737733"><ele>607.0</ele><time>2026-04-12T07:41:08Z</time></trkpt><trkpt lat="38.15059506693528" lon="13.264891307312855"><ele>607.8333333333334</ele><time>2026-04-12T07:41:09Z</time></trkpt><trkpt lat="38.150516565636835" lon="13.264969864373478"><ele>608.6666666666667</ele><time>2026-04-12T07:41:10Z</time></trkpt><trkpt lat="38.15043485674939" lon="13.26502627231364"><ele>609.5</ele><time>2026-04-12T07:41:11Z</time></trkpt><trkpt lat="38.15036353481599" lon="13.26502746348379"><ele>610.3333333333334</ele><time>2026-04-12T07:41:12Z</time></trkpt><trkpt lat="38.150276129793816" lon="13.265047554930312"><ele>611.1666666666666</ele><time>2026-04-12T07:41:13Z</time></trkpt><trkpt lat="38.15021240844747" lon="13.265011025075589"><ele>612.0</ele><time>2026-04-12T07:41:14Z</time></trkpt><trkpt lat="38.150120159267566" lon="13.264965279868365"><ele>612.0</ele><time>2026-04-12T07:41:16Z</time></trkpt><trkpt lat="38.15009199888757" lon="13.264855994405467"><ele>612.0</ele><time>2026-04-12T07:41:18.001Z</time></trkpt><trkpt lat="38.149993492537725" lon="13.26474368013734"><ele>612.0</ele><time>2026-04-12T07:41:20.001Z</time></trkpt><trkpt lat="38.14990692260223" lon="13.26465111514791"><ele>612.0</ele><time>2026-04-12T07:41:21.001Z</time></trkpt><trkpt lat="38.14981277423863" lon="13.264555572385577"><ele>608.8000000000001</ele><time>2026-04-12T07:41:22.001Z</time></trkpt><trkpt lat="38.1497190205713" lon="13.264499411491691"><ele>605.6</ele><time>2026-04-12T07:41:23.001Z</time></trkpt><trkpt lat="38.14962321841745" lon="13.264454684572748"><ele>602.4000000000001</ele><time>2026-04-12T07:41:24.001Z</time></trkpt><trkpt lat="38.14953231269789" lon="13.264413946244133"><ele>599.2</ele><time>2026-04-12T07:41:25.001Z</time></trkpt><trkpt lat="38.14943115606791" lon="13.264366311368258"><ele>596.0</ele><time>2026-04-12T07:41:26.001Z</time></trkpt><trkpt lat="38.14933643443449" lon="13.264327520231113"><ele>596.0</ele><time>2026-04-12T07:41:27.001Z</time></trkpt><trkpt lat="38.149230793740536" lon="13.264278356217286"><ele>596.0</ele><time>2026-04-12T07:41:28.001Z</time></trkpt><trkpt lat="38.14912810047559" lon="13.264236963702848"><ele>596.0</ele><time>2026-04-12T07:41:29.001Z</time></trkpt><trkpt lat="38.14902264759972" lon="13.264179372803996"><ele>596.0</ele><time>2026-04-12T07:41:30.001Z</time></trkpt><trkpt lat="38.14892851852274" lon="13.264077084372511"><ele>596.5</ele><time>2026-04-12T07:41:31.001Z</time></trkpt><trkpt lat="38.148837650012474" lon="13.263974648429084"><ele>597.0</ele><time>2026-04-12T07:41:32.001Z</time></trkpt><trkpt lat="38.148736065462195" lon="13.263858103930037"><ele>597.5</ele><time>2026-04-12T07:41:33.001Z</time></trkpt><trkpt lat="38.14863262141026" lon="13.263739557827044"><ele>598.0</ele><time>2026-04-12T07:41:34.001Z</time></trkpt><trkpt lat="38.14853089652977" lon="13.263627244629157"><ele>598.0</ele><time>2026-04-12T07:41:35.001Z</time></trkpt><trkpt lat="38.14841609041943" lon="13.263522136546056"><ele>598.0</ele><time>2026-04-12T07:41:36.001Z</time></trkpt><trkpt lat="38.148319851252225" lon="13.263404046352743"><ele>598.0</ele><time>2026-04-12T07:41:37.001Z</time></trkpt><trkpt lat="38.14822230560583" lon="13.263288864578971"><ele>598.0</ele><time>2026-04-12T07:41:38.001Z</time></trkpt><trkpt lat="38.148148306700655" lon="13.263154619819575"><ele>600.0</ele><time>2026-04-12T07:41:39.001Z</time></trkpt><trkpt lat="38.14806434613929" lon="13.26303431735018"><ele>602.0</ele><time>2026-04-12T07:41:40.001Z</time></trkpt><trkpt lat="38.14798125898451" lon="13.262916584575951"><ele>604.0</ele><time>2026-04-12T07:41:41.001Z</time></trkpt><trkpt lat="38.14788932254782" lon="13.262802734560237"><ele>606.0</ele><time>2026-04-12T07:41:42.001Z</time></trkpt><trkpt lat="38.14779047781032" lon="13.262708117460628"><ele>606.0</ele><time>2026-04-12T07:41:43.001Z</time></trkpt><trkpt lat="38.14769782711454" lon="13.262617419468665"><ele>606.0</ele><time>2026-04-12T07:41:44.001Z</time></trkpt><trkpt lat="38.147602998952124" lon="13.26251390592686"><ele>606.0</ele><time>2026-04-12T07:41:45.001Z</time></trkpt><trkpt lat="38.1475042874142" lon="13.262409046356249"><ele>606.0</ele><time>2026-04-12T07:41:46.001Z</time></trkpt><trkpt lat="38.147403749682574" lon="13.262312429144709"><ele>607.0</ele><time>2026-04-12T07:41:47.001Z</time></trkpt><trkpt lat="38.14729774870565" lon="13.262201889856788"><ele>608.0</ele><time>2026-04-12T07:41:48.001Z</time></trkpt><trkpt lat="38.14718780310248" lon="13.262087237108565"><ele>609.0</ele><time>2026-04-12T07:41:49.001Z</time></trkpt><trkpt lat="38.147086328452154" lon="13.261978399115314"><ele>610.0</ele><time>2026-04-12T07:41:50.001Z</time></trkpt><trkpt lat="38.14697356745502" lon="13.26184832153528"><ele>610.0</ele><time>2026-04-12T07:41:51.001Z</time></trkpt><trkpt lat="38.14687166814417" lon="13.261734971339584"><ele>610.0</ele><time>2026-04-12T07:41:52.001Z</time></trkpt><trkpt lat="38.146770448741115" lon="13.261633034167351"><ele>610.0</ele><time>2026-04-12T07:41:53.001Z</time></trkpt><trkpt lat="38.14665361361953" lon="13.261550866240094"><ele>610.0</ele><time>2026-04-12T07:41:54.001Z</time></trkpt><trkpt lat="38.146541562016" lon="13.261433740624176"><ele>609.0</ele><time>2026-04-12T07:41:55.001Z</time></trkpt><trkpt lat="38.14640074237748" lon="13.261326155497521"><ele>608.0</ele><time>2026-04-12T07:41:56.001Z</time></trkpt><trkpt lat="38.146269981475584" lon="13.261247378620972"><ele>607.0</ele><time>2026-04-12T07:41:57.001Z</time></trkpt><trkpt lat="38.14614163897453" lon="13.261142317052823"><ele>607.0</ele><time>2026-04-12T07:41:58.001Z</time></trkpt><trkpt lat="38.146026440338794" lon="13.261040047373053"><ele>607.0</ele><time>2026-04-12T07:41:59.001Z</time></trkpt><trkpt lat="38.145924687017" lon="13.260930934257875"><ele>607.0</ele><time>2026-04-12T07:42:00.001Z</time></trkpt><trkpt lat="38.145844478979" lon="13.2608095071659"><ele>607.0</ele><time>2026-04-12T07:42:01.001Z</time></trkpt><trkpt lat="38.145764413788164" lon="13.260685665120175"><ele>606.5</ele><time>2026-04-12T07:42:02.001Z</time></trkpt><trkpt lat="38.145654452071646" lon="13.260573409180923"><ele>606.0</ele><time>2026-04-12T07:42:03.001Z</time></trkpt><trkpt lat="38.14552451829136" lon="13.260477833213779"><ele>605.5</ele><time>2026-04-12T07:42:04.001Z</time></trkpt><trkpt lat="38.14541357298844" lon="13.260359122572757"><ele>605.0</ele><time>2026-04-12T07:42:05.001Z</time></trkpt><trkpt lat="38.14529256821794" lon="13.260231222155362"><ele>605.0</ele><time>2026-04-12T07:42:06.001Z</time></trkpt><trkpt lat="38.14516548426253" lon="13.260093073002063"><ele>605.0</ele><time>2026-04-12T07:42:07.001Z</time></trkpt><trkpt lat="38.14504110368347" lon="13.2599751224043"><ele>605.0</ele><time>2026-04-12T07:42:08.001Z</time></trkpt><trkpt lat="38.14493586677812" lon="13.259806049051798"><ele>607.3333333333333</ele><time>2026-04-12T07:42:09.001Z</time></trkpt><trkpt lat="38.144835914435696" lon="13.259655657519527"><ele>609.6666666666666</ele><time>2026-04-12T07:42:10.001Z</time></trkpt><trkpt lat="38.144717082348535" lon="13.259509665877754"><ele>612.0</ele><time>2026-04-12T07:42:11.001Z</time></trkpt><trkpt lat="38.144627313889224" lon="13.259342188632935"><ele>612.0</ele><time>2026-04-12T07:42:12.001Z</time></trkpt><trkpt lat="38.14454186922584" lon="13.25921101015925"><ele>612.0</ele><time>2026-04-12T07:42:13.001Z</time></trkpt><trkpt lat="38.14445188054337" lon="13.259100974851282"><ele>612.0</ele><time>2026-04-12T07:42:14.001Z</time></trkpt><trkpt lat="38.14437144025533" lon="13.258970401856958"><ele>612.0</ele><time>2026-04-12T07:42:15.001Z</time></trkpt><trkpt lat="38.144316231247316" lon="13.258834575008173"><ele>606.0</ele><time>2026-04-12T07:42:16.001Z</time></trkpt><trkpt lat="38.144257039063504" lon="13.258697857407578"><ele>600.0</ele><time>2026-04-12T07:42:17.001Z</time></trkpt><trkpt lat="38.144213256153286" lon="13.258546045384598"><ele>594.0</ele><time>2026-04-12T07:42:18.001Z</time></trkpt><trkpt lat="38.14414509329408" lon="13.258388928470954"><ele>588.0</ele><time>2026-04-12T07:42:19.001Z</time></trkpt><trkpt lat="38.14406440499109" lon="13.25826468058416"><ele>588.6666666666666</ele><time>2026-04-12T07:42:20.001Z</time></trkpt><trkpt lat="38.14396516193917" lon="13.25814934604162"><ele>589.3333333333333</ele><time>2026-04-12T07:42:21.002Z</time></trkpt><trkpt lat="38.143866815093446" lon="13.258009850950437"><ele>590.0</ele><time>2026-04-12T07:42:22.002Z</time></trkpt><trkpt lat="38.14375881460366" lon="13.257834972516385"><ele>590.0</ele><time>2026-04-12T07:42:23.002Z</time></trkpt><trkpt lat="38.143637735429174" lon="13.257713492372307"><ele>590.0</ele><time>2026-04-12T07:42:24.002Z</time></trkpt><trkpt lat="38.14352963970423" lon="13.257601981905792"><ele>590.0</ele><time>2026-04-12T07:42:25.002Z</time></trkpt><trkpt lat="38.14343793325304" lon="13.257470107039095"><ele>590.0</ele><time>2026-04-12T07:42:26.002Z</time></trkpt><trkpt lat="38.14335887686966" lon="13.257344007924305"><ele>586.0</ele><time>2026-04-12T07:42:27.002Z</time></trkpt><trkpt lat="38.14328678081959" lon="13.257199589476455"><ele>582.0</ele><time>2026-04-12T07:42:28.002Z</time></trkpt><trkpt lat="38.14321733374057" lon="13.257042602741487"><ele>578.0</ele><time>2026-04-12T07:42:29.002Z</time></trkpt><trkpt lat="38.14316520187611" lon="13.2568344556731"><ele>574.0</ele><time>2026-04-12T07:42:30.002Z</time></trkpt><trkpt lat="38.143124727314536" lon="13.256624619651689"><ele>580.75</ele><time>2026-04-12T07:42:31.002Z</time></trkpt><trkpt lat="38.14307587635947" lon="13.25644224955085"><ele>587.5</ele><time>2026-04-12T07:42:32.002Z</time></trkpt><trkpt lat="38.14301358602299" lon="13.256290355349284"><ele>594.25</ele><time>2026-04-12T07:42:33.002Z</time></trkpt><trkpt lat="38.14297562513939" lon="13.25611287703696"><ele>601.0</ele><time>2026-04-12T07:42:34.002Z</time></trkpt><trkpt lat="38.14291918877766" lon="13.255951241738483"><ele>601.0</ele><time>2026-04-12T07:42:35.002Z</time></trkpt><trkpt lat="38.14285360865525" lon="13.255795199807205"><ele>601.0</ele><time>2026-04-12T07:42:36.002Z</time></trkpt><trkpt lat="38.142777711224674" lon="13.255656204630066"><ele>601.0</ele><time>2026-04-12T07:42:37.002Z</time></trkpt><trkpt lat="38.14269085797457" lon="13.255549895468517"><ele>601.0</ele><time>2026-04-12T07:42:38.002Z</time></trkpt><trkpt lat="38.142616931899894" lon="13.255424340464794"><ele>594.75</ele><time>2026-04-12T07:42:39.002Z</time></trkpt><trkpt lat="38.14253743184075" lon="13.25528527782714"><ele>588.5</ele><time>2026-04-12T07:42:40.002Z</time></trkpt><trkpt lat="38.14246802013185" lon="13.255140378544631"><ele>582.25</ele><time>2026-04-12T07:42:41.002Z</time></trkpt><trkpt lat="38.14242485698084" lon="13.25498283923604"><ele>576.0</ele><time>2026-04-12T07:42:42.002Z</time></trkpt><trkpt lat="38.14237308658851" lon="13.254842490071914"><ele>584.75</ele><time>2026-04-12T07:42:43.002Z</time></trkpt><trkpt lat="38.14232538747861" lon="13.254710650388656"><ele>593.5</ele><time>2026-04-12T07:42:44.002Z</time></trkpt><trkpt lat="38.142276566395864" lon="13.25457340363896"><ele>602.25</ele><time>2026-04-12T07:42:45.002Z</time></trkpt><trkpt lat="38.14220962014282" lon="13.254440099639865"><ele>611.0</ele><time>2026-04-12T07:42:46.002Z</time></trkpt><trkpt lat="38.142167121052424" lon="13.254306535705524"><ele>611.0</ele><time>2026-04-12T07:42:47.002Z</time></trkpt><trkpt lat="38.14212857561566" lon="13.254185990300632"><ele>611.0</ele><time>2026-04-12T07:42:48.002Z</time></trkpt><trkpt lat="38.14208207622965" lon="13.254067430678495"><ele>611.0</ele><time>2026-04-12T07:42:49Z</time></trkpt><trkpt lat="38.14204193815853" lon="13.253965090641744"><ele>611.0</ele><time>2026-04-12T07:42:50Z</time></trkpt><trkpt lat="38.14199918419678" lon="13.253856080717927"><ele>611.0</ele><time>2026-04-12T07:42:51Z</time></trkpt><trkpt lat="38.141955071552644" lon="13.253743606604317"><ele>605.5</ele><time>2026-04-12T07:42:52Z</time></trkpt><trkpt lat="38.14190897191253" lon="13.253624017697941"><ele>600.0</ele><time>2026-04-12T07:42:53Z</time></trkpt><trkpt lat="38.141860386474306" lon="13.253497253285444"><ele>594.5</ele><time>2026-04-12T07:42:54Z</time></trkpt><trkpt lat="38.1418063286833" lon="13.253356210946668"><ele>589.0</ele><time>2026-04-12T07:42:55Z</time></trkpt><trkpt lat="38.141740111079066" lon="13.253230772685724"><ele>581.5</ele><time>2026-04-12T07:42:56Z</time></trkpt><trkpt lat="38.14169141598182" lon="13.253098810469613"><ele>574.0</ele><time>2026-04-12T07:42:57Z</time></trkpt><trkpt lat="38.141635943738585" lon="13.252965518670717"><ele>566.5</ele><time>2026-04-12T07:42:58Z</time></trkpt><trkpt lat="38.141573544063746" lon="13.252841609245738"><ele>559.0</ele><time>2026-04-12T07:42:59Z</time></trkpt><trkpt lat="38.14152565411955" lon="13.252694372438622"><ele>567.0</ele><time>2026-04-12T07:43:00Z</time></trkpt><trkpt lat="38.14144883974393" lon="13.2525640150306"><ele>575.0</ele><time>2026-04-12T07:43:01Z</time></trkpt><trkpt lat="38.141397538999634" lon="13.252417175204835"><ele>583.0</ele><time>2026-04-12T07:43:02Z</time></trkpt><trkpt lat="38.14133694529441" lon="13.252265930090488"><ele>591.0</ele><time>2026-04-12T07:43:03Z</time></trkpt><trkpt lat="38.14127186125253" lon="13.252115257803505"><ele>591.0</ele><time>2026-04-12T07:43:04Z</time></trkpt><trkpt lat="38.141199198162035" lon="13.251951895360165"><ele>591.0</ele><time>2026-04-12T07:43:05Z</time></trkpt><trkpt lat="38.14112354916359" lon="13.251789871942176"><ele>591.0</ele><time>2026-04-12T07:43:06Z</time></trkpt><trkpt lat="38.14105503759011" lon="13.251628021110868"><ele>591.0</ele><time>2026-04-12T07:43:07Z</time></trkpt><trkpt lat="38.140994780864936" lon="13.251465299817658"><ele>583.75</ele><time>2026-04-12T07:43:08Z</time></trkpt><trkpt lat="38.140919105959945" lon="13.251316342922197"><ele>576.5</ele><time>2026-04-12T07:43:09Z</time></trkpt><trkpt lat="38.14086099025345" lon="13.251165187146116"><ele>569.25</ele><time>2026-04-12T07:43:10Z</time></trkpt><trkpt lat="38.140803687865265" lon="13.251010205114865"><ele>562.0</ele><time>2026-04-12T07:43:11Z</time></trkpt><trkpt lat="38.14074715119534" lon="13.250863845536294"><ele>566.75</ele><time>2026-04-12T07:43:12Z</time></trkpt><trkpt lat="38.14067569127128" lon="13.250703496634856"><ele>571.5</ele><time>2026-04-12T07:43:13Z</time></trkpt><trkpt lat="38.14059714311295" lon="13.25056094416868"><ele>576.25</ele><time>2026-04-12T07:43:14Z</time></trkpt><trkpt lat="38.140503343608586" lon="13.250409856900825"><ele>581.0</ele><time>2026-04-12T07:43:15Z</time></trkpt><trkpt lat="38.14041118384159" lon="13.250261082190855"><ele>581.0</ele><time>2026-04-12T07:43:16Z</time></trkpt><trkpt lat="38.14031269724941" lon="13.250113226024816"><ele>581.0</ele><time>2026-04-12T07:43:17Z</time></trkpt><trkpt lat="38.14021214872258" lon="13.249961001237669"><ele>581.0</ele><time>2026-04-12T07:43:18Z</time></trkpt><trkpt lat="38.14011710515954" lon="13.249818650039664"><ele>583.25</ele><time>2026-04-12T07:43:19Z</time></trkpt><trkpt lat="38.14003798455535" lon="13.249685591073556"><ele>585.5</ele><time>2026-04-12T07:43:20Z</time></trkpt><trkpt lat="38.13995159718518" lon="13.249543201241451"><ele>587.75</ele><time>2026-04-12T07:43:21Z</time></trkpt><trkpt lat="38.13986603984326" lon="13.249408614564672"><ele>590.0</ele><time>2026-04-12T07:43:22Z</time></trkpt><trkpt lat="38.13977088706986" lon="13.249268535190533"><ele>590.0</ele><time>2026-04-12T07:43:23Z</time></trkpt><trkpt lat="38.139686690838204" lon="13.249101053266608"><ele>590.0</ele><time>2026-04-12T07:43:24Z</time></trkpt><trkpt lat="38.139593917317036" lon="13.248955729075522"><ele>590.0</ele><time>2026-04-12T07:43:25Z</time></trkpt><trkpt lat="38.139499855186386" lon="13.248812125619613"><ele>582.5</ele><time>2026-04-12T07:43:26.001Z</time></trkpt><trkpt lat="38.13939874326152" lon="13.248658545784275"><ele>575.0</ele><time>2026-04-12T07:43:27Z</time></trkpt><trkpt lat="38.13930145240463" lon="13.248515803209639"><ele>567.5</ele><time>2026-04-12T07:43:28Z</time></trkpt><trkpt lat="38.139209853566804" lon="13.248381261336194"><ele>560.0</ele><time>2026-04-12T07:43:29Z</time></trkpt><trkpt lat="38.139115972872794" lon="13.248243367629044"><ele>563.25</ele><time>2026-04-12T07:43:30Z</time></trkpt><trkpt lat="38.13902520107084" lon="13.24811004056044"><ele>566.5</ele><time>2026-04-12T07:43:31.001Z</time></trkpt><trkpt lat="38.138931981971076" lon="13.24797311873001"><ele>569.75</ele><time>2026-04-12T07:43:32.001Z</time></trkpt><trkpt lat="38.138850011095954" lon="13.247852718510094"><ele>573.0</ele><time>2026-04-12T07:43:33.001Z</time></trkpt><trkpt lat="38.138777802798096" lon="13.247746657737066"><ele>573.0</ele><time>2026-04-12T07:43:34.001Z</time></trkpt><trkpt lat="38.13872834327551" lon="13.24767456973413"><ele>573.0</ele><time>2026-04-12T07:43:35.001Z</time></trkpt><trkpt lat="38.138682829883635" lon="13.2476088429606"><ele>573.0</ele><time>2026-04-12T07:43:36.001Z</time></trkpt><trkpt lat="38.13860881261554" lon="13.247530879003982"><ele>573.0</ele><time>2026-04-12T07:43:37.001Z</time></trkpt><trkpt lat="38.13853686893031" lon="13.247421222389287"><ele>573.0</ele><time>2026-04-12T07:43:38.001Z</time></trkpt><trkpt lat="38.13845060020581" lon="13.247302361426435"><ele>575.25</ele><time>2026-04-12T07:43:39.001Z</time></trkpt><trkpt lat="38.13835305381373" lon="13.24716050421645"><ele>577.5</ele><time>2026-04-12T07:43:40.001Z</time></trkpt><trkpt lat="38.1382580652053" lon="13.247023099301815"><ele>579.75</ele><time>2026-04-12T07:43:41.001Z</time></trkpt><trkpt lat="38.13816730494399" lon="13.24689442338195"><ele>582.0</ele><time>2026-04-12T07:43:42.001Z</time></trkpt><trkpt lat="38.13808436877029" lon="13.246788586436704"><ele>582.0</ele><time>2026-04-12T07:43:43.001Z</time></trkpt><trkpt lat="38.13799926945689" lon="13.246678641222271"><ele>582.0</ele><time>2026-04-12T07:43:44.001Z</time></trkpt><trkpt lat="38.137926424622776" lon="13.246555603448096"><ele>582.0</ele><time>2026-04-12T07:43:45.001Z</time></trkpt><trkpt lat="38.137841289957265" lon="13.246445048619622"><ele>582.0</ele><time>2026-04-12T07:43:46.001Z</time></trkpt><trkpt lat="38.13775637322207" lon="13.246339402954844"><ele>581.2</ele><time>2026-04-12T07:43:47.001Z</time></trkpt><trkpt lat="38.13767525035069" lon="13.246242804696582"><ele>580.4000000000001</ele><time>2026-04-12T07:43:48.001Z</time></trkpt><trkpt lat="38.13759963289532" lon="13.246159725978675"><ele>579.5999999999999</ele><time>2026-04-12T07:43:49.001Z</time></trkpt><trkpt lat="38.13751083882226" lon="13.246069265418756"><ele>578.8</ele><time>2026-04-12T07:43:50.001Z</time></trkpt><trkpt lat="38.13742900972411" lon="13.245991652627797"><ele>578.0</ele><time>2026-04-12T07:43:51.001Z</time></trkpt><trkpt lat="38.1373228562189" lon="13.24589696723159"><ele>578.0</ele><time>2026-04-12T07:43:52.001Z</time></trkpt><trkpt lat="38.137199913450026" lon="13.24579194580483"><ele>578.0</ele><time>2026-04-12T07:43:53.001Z</time></trkpt><trkpt lat="38.13707438357001" lon="13.245711108526221"><ele>578.0</ele><time>2026-04-12T07:43:54.001Z</time></trkpt><trkpt lat="38.136958444286236" lon="13.245624222106697"><ele>578.0</ele><time>2026-04-12T07:43:55.001Z</time></trkpt><trkpt lat="38.13683926244962" lon="13.245552671398405"><ele>566.75</ele><time>2026-04-12T07:43:56.001Z</time></trkpt><trkpt lat="38.13672030779427" lon="13.24549922165037"><ele>555.5</ele><time>2026-04-12T07:43:57.001Z</time></trkpt><trkpt lat="38.136610100386825" lon="13.245450191994454"><ele>544.25</ele><time>2026-04-12T07:43:58.001Z</time></trkpt><trkpt lat="38.136498574017544" lon="13.245393295033912"><ele>533.0</ele><time>2026-04-12T07:43:59.001Z</time></trkpt><trkpt lat="38.13637532560195" lon="13.24539037312505"><ele>533.0</ele><time>2026-04-12T07:44:00.001Z</time></trkpt><trkpt lat="38.136257437546796" lon="13.245354728655482"><ele>533.0</ele><time>2026-04-12T07:44:01.001Z</time></trkpt><trkpt lat="38.13612365112489" lon="13.24534981071573"><ele>533.0</ele><time>2026-04-12T07:44:02.001Z</time></trkpt><trkpt lat="38.135980250039864" lon="13.245381774985455"><ele>533.0</ele><time>2026-04-12T07:44:03.001Z</time></trkpt><trkpt lat="38.13583638157032" lon="13.245402870085531"><ele>532.0</ele><time>2026-04-12T07:44:04.001Z</time></trkpt><trkpt lat="38.1356849456966" lon="13.245430746167333"><ele>531.0</ele><time>2026-04-12T07:44:05.001Z</time></trkpt><trkpt lat="38.13552820323036" lon="13.245450844519981"><ele>530.0</ele><time>2026-04-12T07:44:06.001Z</time></trkpt><trkpt lat="38.13536495074002" lon="13.245461507109141"><ele>530.0</ele><time>2026-04-12T07:44:07.001Z</time></trkpt><trkpt lat="38.13522476952539" lon="13.24551050853875"><ele>530.0</ele><time>2026-04-12T07:44:08.001Z</time></trkpt><trkpt lat="38.13506811450853" lon="13.24553092520866"><ele>530.0</ele><time>2026-04-12T07:44:09.001Z</time></trkpt><trkpt lat="38.13492696507396" lon="13.245580101251806"><ele>530.0</ele><time>2026-04-12T07:44:10.001Z</time></trkpt><trkpt lat="38.13477640144992" lon="13.245581208008101"><ele>528.5</ele><time>2026-04-12T07:44:11.001Z</time></trkpt><trkpt lat="38.13463462442973" lon="13.245600921226046"><ele>527.0</ele><time>2026-04-12T07:44:12.001Z</time></trkpt><trkpt lat="38.13449303706554" lon="13.245621310781466"><ele>525.5</ele><time>2026-04-12T07:44:13.001Z</time></trkpt><trkpt lat="38.13434984847175" lon="13.245659594419095"><ele>524.0</ele><time>2026-04-12T07:44:14.001Z</time></trkpt><trkpt lat="38.1341937277313" lon="13.245659118076823"><ele>536.0</ele><time>2026-04-12T07:44:15.001Z</time></trkpt><trkpt lat="38.1340538330391" lon="13.245695730242465"><ele>548.0</ele><time>2026-04-12T07:44:16.001Z</time></trkpt><trkpt lat="38.133903131631094" lon="13.245691367321417"><ele>560.0</ele><time>2026-04-12T07:44:17.001Z</time></trkpt><trkpt lat="38.1337570906139" lon="13.24569345672156"><ele>572.0</ele><time>2026-04-12T07:44:18.001Z</time></trkpt><trkpt lat="38.133609207507256" lon="13.245677109535174"><ele>572.0</ele><time>2026-04-12T07:44:19.001Z</time></trkpt><trkpt lat="38.13349890017585" lon="13.245640488572999"><ele>572.0</ele><time>2026-04-12T07:44:20.001Z</time></trkpt><trkpt lat="38.1334321392555" lon="13.24562412703468"><ele>572.0</ele><time>2026-04-12T07:44:21.001Z</time></trkpt><trkpt lat="38.133352721156506" lon="13.245603275150183"><ele>572.0</ele><time>2026-04-12T07:44:22.001Z</time></trkpt><trkpt lat="38.13325043422034" lon="13.245576417434174"><ele>572.0</ele><time>2026-04-12T07:44:23.001Z</time></trkpt><trkpt lat="38.133138594997256" lon="13.245554626383294"><ele>562.5</ele><time>2026-04-12T07:44:24.001Z</time></trkpt><trkpt lat="38.1330221865181" lon="13.245516312588288"><ele>553.0</ele><time>2026-04-12T07:44:25.001Z</time></trkpt><trkpt lat="38.13292375746464" lon="13.245488419868517"><ele>543.5</ele><time>2026-04-12T07:44:26.001Z</time></trkpt><trkpt lat="38.132812038086755" lon="13.245475666473515"><ele>534.0</ele><time>2026-04-12T07:44:27.001Z</time></trkpt><trkpt lat="38.132695274349786" lon="13.245498793104023"><ele>534.0</ele><time>2026-04-12T07:44:28.001Z</time></trkpt><trkpt lat="38.13258250810434" lon="13.245536797949857"><ele>534.0</ele><time>2026-04-12T07:44:29.001Z</time></trkpt><trkpt lat="38.13246580660401" lon="13.245590623516739"><ele>534.0</ele><time>2026-04-12T07:44:30.001Z</time></trkpt><trkpt lat="38.13234406383592" lon="13.245662851275524"><ele>534.0</ele><time>2026-04-12T07:44:31.001Z</time></trkpt><trkpt lat="38.1322189691561" lon="13.245730284324761"><ele>539.75</ele><time>2026-04-12T07:44:32.001Z</time></trkpt><trkpt lat="38.132094799809906" lon="13.245803726653682"><ele>545.5</ele><time>2026-04-12T07:44:33.001Z</time></trkpt><trkpt lat="38.13195828601291" lon="13.245875835793374"><ele>551.25</ele><time>2026-04-12T07:44:34.001Z</time></trkpt><trkpt lat="38.13182870627649" lon="13.245923805959633"><ele>557.0</ele><time>2026-04-12T07:44:35.002Z</time></trkpt><trkpt lat="38.131699426553126" lon="13.245992129514551"><ele>557.0</ele><time>2026-04-12T07:44:36.002Z</time></trkpt><trkpt lat="38.1315650509905" lon="13.246032939123916"><ele>557.0</ele><time>2026-04-12T07:44:37.002Z</time></trkpt><trkpt lat="38.1314241369988" lon="13.246047728598159"><ele>557.0</ele><time>2026-04-12T07:44:38.002Z</time></trkpt><trkpt lat="38.13129313845935" lon="13.246080498119031"><ele>557.0</ele><time>2026-04-12T07:44:39.002Z</time></trkpt><trkpt lat="38.13115989921248" lon="13.246119795640709"><ele>553.5</ele><time>2026-04-12T07:44:40.002Z</time></trkpt><trkpt lat="38.13103088519174" lon="13.246169938787842"><ele>550.0</ele><time>2026-04-12T07:44:41.002Z</time></trkpt><trkpt lat="38.13090693218556" lon="13.246250998009245"><ele>546.5</ele><time>2026-04-12T07:44:42.002Z</time></trkpt><trkpt lat="38.1307755953914" lon="13.246326737044699"><ele>543.0</ele><time>2026-04-12T07:44:43.002Z</time></trkpt><trkpt lat="38.130647238152136" lon="13.246410766821068"><ele>545.75</ele><time>2026-04-12T07:44:44.002Z</time></trkpt><trkpt lat="38.130520114498424" lon="13.246489563070078"><ele>548.5</ele><time>2026-04-12T07:44:45.002Z</time></trkpt><trkpt lat="38.13039749086982" lon="13.246575022037925"><ele>551.25</ele><time>2026-04-12T07:44:46.002Z</time></trkpt><trkpt lat="38.13028981224839" lon="13.246655941695876"><ele>554.0</ele><time>2026-04-12T07:44:47.002Z</time></trkpt><trkpt lat="38.13018587214119" lon="13.246734555983238"><ele>554.0</ele><time>2026-04-12T07:44:48.002Z</time></trkpt><trkpt lat="38.130091750940444" lon="13.246825629252584"><ele>554.0</ele><time>2026-04-12T07:44:49.002Z</time></trkpt><trkpt lat="38.130024973727025" lon="13.24692478404721"><ele>554.0</ele><time>2026-04-12T07:44:50.002Z</time></trkpt><trkpt lat="38.12997055659091" lon="13.247037028417813"><ele>554.0</ele><time>2026-04-12T07:44:51.002Z</time></trkpt><trkpt lat="38.129928331449825" lon="13.24716937038396"><ele>554.0</ele><time>2026-04-12T07:44:52.002Z</time></trkpt><trkpt lat="38.12987874724687" lon="13.24731513516218"><ele>553.25</ele><time>2026-04-12T07:44:53.002Z</time></trkpt><trkpt lat="38.12984236693705" lon="13.247478396671763"><ele>552.5</ele><time>2026-04-12T07:44:54.002Z</time></trkpt><trkpt lat="38.12981564354486" lon="13.247634143648737"><ele>551.75</ele><time>2026-04-12T07:44:55Z</time></trkpt><trkpt lat="38.12978940453295" lon="13.247797942181602"><ele>551.0</ele><time>2026-04-12T07:44:56Z</time></trkpt><trkpt lat="38.129758527278646" lon="13.247957124977614"><ele>551.0</ele><time>2026-04-12T07:44:57Z</time></trkpt><trkpt lat="38.1297282419683" lon="13.248116699350403"><ele>551.0</ele><time>2026-04-12T07:44:58Z</time></trkpt><trkpt lat="38.12970082133584" lon="13.248247861881685"><ele>551.0</ele><time>2026-04-12T07:44:59Z</time></trkpt><trkpt lat="38.12965865840002" lon="13.248364898808369"><ele>551.0</ele><time>2026-04-12T07:45:00Z</time></trkpt><trkpt lat="38.129629954176245" lon="13.248466827061018"><ele>551.0</ele><time>2026-04-12T07:45:01Z</time></trkpt><trkpt lat="38.129612966117186" lon="13.248561177186327"><ele>552.3333333333333</ele><time>2026-04-12T07:45:02Z</time></trkpt><trkpt lat="38.12956338307733" lon="13.248631757547825"><ele>553.6666666666666</ele><time>2026-04-12T07:45:03Z</time></trkpt><trkpt lat="38.12948923875176" lon="13.248636314645271"><ele>555.0</ele><time>2026-04-12T07:45:04Z</time></trkpt><trkpt lat="38.129424775642235" lon="13.24866266872101"><ele>556.3333333333334</ele><time>2026-04-12T07:45:05Z</time></trkpt><trkpt lat="38.12935382300043" lon="13.248727745447315"><ele>557.6666666666667</ele><time>2026-04-12T07:45:07Z</time></trkpt><trkpt lat="38.12929019853518" lon="13.248731934418661"><ele>559.0</ele><time>2026-04-12T07:45:10Z</time></trkpt><trkpt lat="38.12920293973685" lon="13.248649441282943"><ele>559.0</ele><time>2026-04-12T07:45:12Z</time></trkpt><trkpt lat="38.12914309922747" lon="13.24855069197052"><ele>559.0</ele><time>2026-04-12T07:45:13Z</time></trkpt><trkpt lat="38.12907277528456" lon="13.248450838749218"><ele>559.0</ele><time>2026-04-12T07:45:14Z</time></trkpt><trkpt lat="38.12898795414672" lon="13.248348672503269"><ele>559.0</ele><time>2026-04-12T07:45:15Z</time></trkpt><trkpt lat="38.12889924347778" lon="13.248244605721116"><ele>559.0</ele><time>2026-04-12T07:45:16Z</time></trkpt><trkpt lat="38.12880030080639" lon="13.24813789532298"><ele>555.5</ele><time>2026-04-12T07:45:17Z</time></trkpt><trkpt lat="38.12868852352135" lon="13.248022147361166"><ele>552.0</ele><time>2026-04-12T07:45:18Z</time></trkpt><trkpt lat="38.12858042500652" lon="13.247909539932774"><ele>548.5</ele><time>2026-04-12T07:45:19Z</time></trkpt><trkpt lat="38.1284689181469" lon="13.247799218665799"><ele>545.0</ele><time>2026-04-12T07:45:20Z</time></trkpt><trkpt lat="38.128350631534076" lon="13.247692230183508"><ele>545.0</ele><time>2026-04-12T07:45:21Z</time></trkpt><trkpt lat="38.12822794887292" lon="13.247593395086014"><ele>545.0</ele><time>2026-04-12T07:45:22Z</time></trkpt><trkpt lat="38.12809899618262" lon="13.247501502066504"><ele>545.0</ele><time>2026-04-12T07:45:23Z</time></trkpt><trkpt lat="38.12797854997138" lon="13.247416500264489"><ele>545.0</ele><time>2026-04-12T07:45:24Z</time></trkpt><trkpt lat="38.127860307262246" lon="13.247336167928104"><ele>538.75</ele><time>2026-04-12T07:45:25Z</time></trkpt><trkpt lat="38.12774646311753" lon="13.24726811767201"><ele>532.5</ele><time>2026-04-12T07:45:26Z</time></trkpt><trkpt lat="38.1276403214964" lon="13.24719907358873"><ele>526.25</ele><time>2026-04-12T07:45:27Z</time></trkpt><trkpt lat="38.12753480055306" lon="13.24713977638593"><ele>520.0</ele><time>2026-04-12T07:45:28Z</time></trkpt><trkpt lat="38.12742624383688" lon="13.247087488351028"><ele>521.75</ele><time>2026-04-12T07:45:29Z</time></trkpt><trkpt lat="38.12732252583338" lon="13.247033159650886"><ele>523.5</ele><time>2026-04-12T07:45:30Z</time></trkpt><trkpt lat="38.1272183062147" lon="13.246987810560524"><ele>525.25</ele><time>2026-04-12T07:45:31Z</time></trkpt><trkpt lat="38.12710852262538" lon="13.246939054474758"><ele>527.0</ele><time>2026-04-12T07:45:32Z</time></trkpt><trkpt lat="38.12699752981084" lon="13.24690192357173"><ele>527.0</ele><time>2026-04-12T07:45:33Z</time></trkpt><trkpt lat="38.12689562814302" lon="13.246862427128281"><ele>527.0</ele><time>2026-04-12T07:45:34Z</time></trkpt><trkpt lat="38.126794215718924" lon="13.246830322477427"><ele>527.0</ele><time>2026-04-12T07:45:35Z</time></trkpt><trkpt lat="38.126694018666626" lon="13.246812262491837"><ele>527.0</ele><time>2026-04-12T07:45:36Z</time></trkpt><trkpt lat="38.12659068452585" lon="13.246791462981706"><ele>527.0</ele><time>2026-04-12T07:45:37Z</time></trkpt><trkpt lat="38.12648333809102" lon="13.24677373096466"><ele>528.8000000000001</ele><time>2026-04-12T07:45:38Z</time></trkpt><trkpt lat="38.12637695388743" lon="13.246755938464018"><ele>530.6</ele><time>2026-04-12T07:45:39Z</time></trkpt><trkpt lat="38.12627476676753" lon="13.246728705074483"><ele>532.4000000000001</ele><time>2026-04-12T07:45:40Z</time></trkpt><trkpt lat="38.12617420366366" lon="13.246702050602671"><ele>534.2</ele><time>2026-04-12T07:45:41Z</time></trkpt><trkpt lat="38.12606928260042" lon="13.246677484894436"><ele>536.0</ele><time>2026-04-12T07:45:42Z</time></trkpt><trkpt lat="38.125962692081075" lon="13.246656029575185"><ele>536.0</ele><time>2026-04-12T07:45:43Z</time></trkpt><trkpt lat="38.125855111053944" lon="13.24663502149793"><ele>536.0</ele><time>2026-04-12T07:45:44Z</time></trkpt><trkpt lat="38.12574251615402" lon="13.246612608014788"><ele>536.0</ele><time>2026-04-12T07:45:45Z</time></trkpt><trkpt lat="38.12562976228567" lon="13.24658568714994"><ele>536.0</ele><time>2026-04-12T07:45:46.001Z</time></trkpt><trkpt lat="38.12551942094632" lon="13.246557883473782"><ele>538.5</ele><time>2026-04-12T07:45:47.001Z</time></trkpt><trkpt lat="38.125401427400334" lon="13.246519888815204"><ele>541.0</ele><time>2026-04-12T07:45:48.001Z</time></trkpt><trkpt lat="38.12528154381468" lon="13.24646267800736"><ele>543.5</ele><time>2026-04-12T07:45:49.001Z</time></trkpt><trkpt lat="38.125162526634725" lon="13.24639612790586"><ele>546.0</ele><time>2026-04-12T07:45:50.001Z</time></trkpt><trkpt lat="38.12504337161718" lon="13.24632402912972"><ele>540.5</ele><time>2026-04-12T07:45:51.001Z</time></trkpt><trkpt lat="38.124913116443246" lon="13.246245404490294"><ele>535.0</ele><time>2026-04-12T07:45:52.001Z</time></trkpt><trkpt lat="38.12478181144779" lon="13.246173757833759"><ele>529.5</ele><time>2026-04-12T07:45:53.001Z</time></trkpt><trkpt lat="38.124645712424325" lon="13.246098036061749"><ele>524.0</ele><time>2026-04-12T07:45:54.001Z</time></trkpt><trkpt lat="38.124508530899796" lon="13.246016877542818"><ele>524.0</ele><time>2026-04-12T07:45:55.001Z</time></trkpt><trkpt lat="38.12437431802096" lon="13.245940297635233"><ele>524.0</ele><time>2026-04-12T07:45:56.001Z</time></trkpt><trkpt lat="38.12423790543801" lon="13.245865212596696"><ele>524.0</ele><time>2026-04-12T07:45:57.001Z</time></trkpt><trkpt lat="38.124106664063184" lon="13.245784641006559"><ele>524.0</ele><time>2026-04-12T07:45:58.001Z</time></trkpt><trkpt lat="38.12397639681316" lon="13.24567181186655"><ele>515.3333333333333</ele><time>2026-04-12T07:45:59.001Z</time></trkpt><trkpt lat="38.123859424389146" lon="13.245557660211082"><ele>506.66666666666663</ele><time>2026-04-12T07:46:00.001Z</time></trkpt><trkpt lat="38.12372768007319" lon="13.245441691206066"><ele>498.0</ele><time>2026-04-12T07:46:01.001Z</time></trkpt><trkpt lat="38.12359093648006" lon="13.24534322581574"><ele>498.0</ele><time>2026-04-12T07:46:02.001Z</time></trkpt><trkpt lat="38.12344680095632" lon="13.245266649478642"><ele>498.0</ele><time>2026-04-12T07:46:03.001Z</time></trkpt><trkpt lat="38.123294221036566" lon="13.245193161604746"><ele>498.0</ele><time>2026-04-12T07:46:04.001Z</time></trkpt><trkpt lat="38.12315285476965" lon="13.245117867955768"><ele>503.5</ele><time>2026-04-12T07:46:05.001Z</time></trkpt><trkpt lat="38.12301291699837" lon="13.245049037002477"><ele>509.0</ele><time>2026-04-12T07:46:06.001Z</time></trkpt><trkpt lat="38.122880117579676" lon="13.244983867462258"><ele>514.5</ele><time>2026-04-12T07:46:07.001Z</time></trkpt><trkpt lat="38.12276024461152" lon="13.244914008710833"><ele>520.0</ele><time>2026-04-12T07:46:08.001Z</time></trkpt><trkpt lat="38.122638021310266" lon="13.244821128050832"><ele>518.6666666666667</ele><time>2026-04-12T07:46:09.001Z</time></trkpt><trkpt lat="38.12251933850281" lon="13.244714089697968"><ele>517.3333333333334</ele><time>2026-04-12T07:46:10.001Z</time></trkpt><trkpt lat="38.122386668056635" lon="13.244597652784535"><ele>516.0</ele><time>2026-04-12T07:46:11.001Z</time></trkpt><trkpt lat="38.12224693835498" lon="13.24447855694039"><ele>516.0</ele><time>2026-04-12T07:46:12.001Z</time></trkpt><trkpt lat="38.122118841474396" lon="13.24436915968615"><ele>516.0</ele><time>2026-04-12T07:46:13.001Z</time></trkpt><trkpt lat="38.12199252249972" lon="13.244248994430723"><ele>516.0</ele><time>2026-04-12T07:46:14.001Z</time></trkpt><trkpt lat="38.12188171360795" lon="13.244126536141964"><ele>516.0</ele><time>2026-04-12T07:46:15.001Z</time></trkpt><trkpt lat="38.12176975025233" lon="13.243999429236858"><ele>516.0</ele><time>2026-04-12T07:46:16.001Z</time></trkpt><trkpt lat="38.12167032325363" lon="13.243866736741728"><ele>516.0</ele><time>2026-04-12T07:46:17.001Z</time></trkpt><trkpt lat="38.12158646234336" lon="13.24371663184141"><ele>516.0</ele><time>2026-04-12T07:46:18.001Z</time></trkpt><trkpt lat="38.12151127069369" lon="13.243547236183861"><ele>520.0</ele><time>2026-04-12T07:46:19.001Z</time></trkpt><trkpt lat="38.12143117962703" lon="13.243369973160984"><ele>524.0</ele><time>2026-04-12T07:46:20.001Z</time></trkpt><trkpt lat="38.12136057137052" lon="13.243219331501352"><ele>528.0</ele><time>2026-04-12T07:46:21.001Z</time></trkpt><trkpt lat="38.121295095093345" lon="13.243074665847299"><ele>532.0</ele><time>2026-04-12T07:46:22.001Z</time></trkpt><trkpt lat="38.121226557666986" lon="13.242926586093805"><ele>522.25</ele><time>2026-04-12T07:46:23.001Z</time></trkpt><trkpt lat="38.12114870515299" lon="13.242792305662512"><ele>512.5</ele><time>2026-04-12T07:46:24.001Z</time></trkpt><trkpt lat="38.121064219000175" lon="13.242667817224243"><ele>502.75</ele><time>2026-04-12T07:46:25.001Z</time></trkpt><trkpt lat="38.120983297794815" lon="13.242551635102664"><ele>493.0</ele><time>2026-04-12T07:46:26.001Z</time></trkpt><trkpt lat="38.12091672954744" lon="13.242455288641228"><ele>493.0</ele><time>2026-04-12T07:46:27.001Z</time></trkpt><trkpt lat="38.12086604111096" lon="13.242381708983615"><ele>492.99999999999994</ele><time>2026-04-12T07:46:28.001Z</time></trkpt><trkpt lat="38.12081440541594" lon="13.242286022515499"><ele>492.99999999999994</ele><time>2026-04-12T07:46:30.001Z</time></trkpt><trkpt lat="38.120880634763864" lon="13.242227848102981"><ele>493.0</ele><time>2026-04-12T07:46:32.001Z</time></trkpt><trkpt lat="38.12097959740753" lon="13.242346227348856"><ele>493.0</ele><time>2026-04-12T07:46:34.001Z</time></trkpt><trkpt lat="38.12106010337463" lon="13.242465892126464"><ele>493.0</ele><time>2026-04-12T07:46:35.001Z</time></trkpt><trkpt lat="38.12115878702893" lon="13.242600017095205"><ele>493.0</ele><time>2026-04-12T07:46:36.001Z</time></trkpt><trkpt lat="38.12126254304916" lon="13.242731381784438"><ele>493.0</ele><time>2026-04-12T07:46:37.001Z</time></trkpt><trkpt lat="38.12137888215722" lon="13.242876215567039"><ele>493.0</ele><time>2026-04-12T07:46:38.001Z</time></trkpt><trkpt lat="38.12150390048326" lon="13.24302228730427"><ele>493.0</ele><time>2026-04-12T07:46:39.001Z</time></trkpt><trkpt lat="38.12161898588247" lon="13.243156382987896"><ele>493.0</ele><time>2026-04-12T07:46:40.001Z</time></trkpt><trkpt lat="38.12171737243003" lon="13.243283252295466"><ele>491.59999999999997</ele><time>2026-04-12T07:46:41.001Z</time></trkpt><trkpt lat="38.12180878533239" lon="13.243405425914272"><ele>490.19999999999993</ele><time>2026-04-12T07:46:42.001Z</time></trkpt><trkpt lat="38.121860702352386" lon="13.243537410796408"><ele>488.8</ele><time>2026-04-12T07:46:43.001Z</time></trkpt><trkpt lat="38.1219032494084" lon="13.243642746565873"><ele>487.4</ele><time>2026-04-12T07:46:44.001Z</time></trkpt><trkpt lat="38.121947749295984" lon="13.243732979115974"><ele>486.0</ele><time>2026-04-12T07:46:45.001Z</time></trkpt><trkpt lat="38.12202235152536" lon="13.24381618864163"><ele>486.0</ele><time>2026-04-12T07:46:47.002Z</time></trkpt><trkpt lat="38.12211374983666" lon="13.24373347968404"><ele>486.0</ele><time>2026-04-12T07:46:49.002Z</time></trkpt><trkpt lat="38.122102738104516" lon="13.243651985165863"><ele>486.0</ele><time>2026-04-12T07:46:50.002Z</time></trkpt><trkpt lat="38.122038552691684" lon="13.243540595732826"><ele>486.0</ele><time>2026-04-12T07:46:51.002Z</time></trkpt><trkpt lat="38.12196241385697" lon="13.243397795933145"><ele>486.0</ele><time>2026-04-12T07:46:52.002Z</time></trkpt><trkpt lat="38.121893678045076" lon="13.243233471665704"><ele>475.33333333333337</ele><time>2026-04-12T07:46:53.002Z</time></trkpt><trkpt lat="38.12182730402672" lon="13.243044409131267"><ele>464.6666666666667</ele><time>2026-04-12T07:46:54.002Z</time></trkpt><trkpt lat="38.12174932929018" lon="13.242848060265741"><ele>454.0</ele><time>2026-04-12T07:46:55.002Z</time></trkpt><trkpt lat="38.12165043586545" lon="13.242648317444424"><ele>453.33333333333337</ele><time>2026-04-12T07:46:56.002Z</time></trkpt><trkpt lat="38.12153706382993" lon="13.242474827898956"><ele>452.66666666666663</ele><time>2026-04-12T07:46:57.002Z</time></trkpt><trkpt lat="38.121425642406834" lon="13.242328545433162"><ele>452.0</ele><time>2026-04-12T07:46:58.002Z</time></trkpt><trkpt lat="38.12132334380911" lon="13.242194937302372"><ele>452.0</ele><time>2026-04-12T07:46:59.002Z</time></trkpt><trkpt lat="38.12123133404468" lon="13.242063361212727"><ele>452.0</ele><time>2026-04-12T07:47:00.002Z</time></trkpt><trkpt lat="38.121147408585244" lon="13.241944954714839"><ele>452.0</ele><time>2026-04-12T07:47:01Z</time></trkpt><trkpt lat="38.12105547834162" lon="13.241831256917502"><ele>452.0</ele><time>2026-04-12T07:47:02Z</time></trkpt><trkpt lat="38.12094886310731" lon="13.241742505493981"><ele>452.0</ele><time>2026-04-12T07:47:03Z</time></trkpt><trkpt lat="38.12082060225376" lon="13.241679219460558"><ele>452.0</ele><time>2026-04-12T07:47:04Z</time></trkpt><trkpt lat="38.120689531019494" lon="13.24163063631149"><ele>452.0</ele><time>2026-04-12T07:47:05Z</time></trkpt><trkpt lat="38.12056969273941" lon="13.241567709224592"><ele>452.0</ele><time>2026-04-12T07:47:06Z</time></trkpt><trkpt lat="38.12045766093464" lon="13.241502430305587"><ele>443.75</ele><time>2026-04-12T07:47:07Z</time></trkpt><trkpt lat="38.1203354721632" lon="13.241433834972018"><ele>435.5</ele><time>2026-04-12T07:47:08Z</time></trkpt><trkpt lat="38.120203821241304" lon="13.241376272264883"><ele>427.25</ele><time>2026-04-12T07:47:09Z</time></trkpt><trkpt lat="38.12006402746054" lon="13.241334714264218"><ele>419.0</ele><time>2026-04-12T07:47:10Z</time></trkpt><trkpt lat="38.11992392234888" lon="13.241273753220735"><ele>423.5</ele><time>2026-04-12T07:47:11Z</time></trkpt><trkpt lat="38.11978765001151" lon="13.24123027372384"><ele>428.0</ele><time>2026-04-12T07:47:12Z</time></trkpt><trkpt lat="38.11965168982378" lon="13.241205788553904"><ele>432.5</ele><time>2026-04-12T07:47:13Z</time></trkpt><trkpt lat="38.11952084892753" lon="13.241152024605636"><ele>437.0</ele><time>2026-04-12T07:47:14Z</time></trkpt><trkpt lat="38.11939577844082" lon="13.241077304092716"><ele>437.0</ele><time>2026-04-12T07:47:15Z</time></trkpt><trkpt lat="38.119273956421104" lon="13.240985544712961"><ele>437.0</ele><time>2026-04-12T07:47:16Z</time></trkpt><trkpt lat="38.11915409880318" lon="13.240906850892584"><ele>437.0</ele><time>2026-04-12T07:47:17Z</time></trkpt><trkpt lat="38.119035009931736" lon="13.240842338057687"><ele>437.0</ele><time>2026-04-12T07:47:18Z</time></trkpt><trkpt lat="38.11890282617107" lon="13.240789337282003"><ele>442.25</ele><time>2026-04-12T07:47:19Z</time></trkpt><trkpt lat="38.11877115455495" lon="13.240746540947441"><ele>447.5</ele><time>2026-04-12T07:47:20Z</time></trkpt><trkpt lat="38.118637165944236" lon="13.240711925141374"><ele>452.75</ele><time>2026-04-12T07:47:21Z</time></trkpt><trkpt lat="38.11851064367514" lon="13.24067051306299"><ele>458.0</ele><time>2026-04-12T07:47:22Z</time></trkpt><trkpt lat="38.11838579555954" lon="13.240625201445274"><ele>453.5</ele><time>2026-04-12T07:47:23Z</time></trkpt><trkpt lat="38.11828299122697" lon="13.240541220045015"><ele>449.0</ele><time>2026-04-12T07:47:24Z</time></trkpt><trkpt lat="38.1181832780982" lon="13.24045617599433"><ele>444.5</ele><time>2026-04-12T07:47:25Z</time></trkpt><trkpt lat="38.118090627007376" lon="13.240365826675315"><ele>440.0</ele><time>2026-04-12T07:47:26Z</time></trkpt><trkpt lat="38.11798581109097" lon="13.240270200939284"><ele>440.0</ele><time>2026-04-12T07:47:27Z</time></trkpt><trkpt lat="38.11788643917078" lon="13.240164067119245"><ele>440.0</ele><time>2026-04-12T07:47:28Z</time></trkpt><trkpt lat="38.11779759366456" lon="13.240068175934953"><ele>440.0</ele><time>2026-04-12T07:47:29Z</time></trkpt><trkpt lat="38.11770866157533" lon="13.239987305858891"><ele>440.0</ele><time>2026-04-12T07:47:30Z</time></trkpt><trkpt lat="38.11762170050469" lon="13.23990993598251"><ele>440.0</ele><time>2026-04-12T07:47:31Z</time></trkpt><trkpt lat="38.11752740747233" lon="13.23983554125757"><ele>440.0</ele><time>2026-04-12T07:47:32Z</time></trkpt><trkpt lat="38.11743667120186" lon="13.239766804032858"><ele>440.0</ele><time>2026-04-12T07:47:33Z</time></trkpt><trkpt lat="38.11735459462703" lon="13.23971770358924"><ele>440.0</ele><time>2026-04-12T07:47:34Z</time></trkpt><trkpt lat="38.11727578402444" lon="13.239668910443763"><ele>440.0</ele><time>2026-04-12T07:47:35Z</time></trkpt><trkpt lat="38.1172283050815" lon="13.23960116631111"><ele>439.16666666666663</ele><time>2026-04-12T07:47:36Z</time></trkpt><trkpt lat="38.11716917281928" lon="13.239565610001419"><ele>438.3333333333333</ele><time>2026-04-12T07:47:37Z</time></trkpt><trkpt lat="38.1171295501191" lon="13.239486696065635"><ele>437.5</ele><time>2026-04-12T07:47:39Z</time></trkpt><trkpt lat="38.117066256494205" lon="13.239506764726624"><ele>436.66666666666663</ele><time>2026-04-12T07:49:16Z</time></trkpt><trkpt lat="38.11697068366151" lon="13.239428665634271"><ele>435.8333333333333</ele><time>2026-04-12T07:49:18Z</time></trkpt><trkpt lat="38.116907219960446" lon="13.239420820229917"><ele>435.0</ele><time>2026-04-12T07:49:19Z</time></trkpt><trkpt lat="38.116828908635895" lon="13.239407456180464"><ele>435.0</ele><time>2026-04-12T07:49:20Z</time></trkpt><trkpt lat="38.116732107899935" lon="13.239365784562308"><ele>435.0</ele><time>2026-04-12T07:49:21Z</time></trkpt><trkpt lat="38.116631354842966" lon="13.239279800902201"><ele>435.0</ele><time>2026-04-12T07:49:22Z</time></trkpt><trkpt lat="38.11653209811587" lon="13.239185886504863"><ele>435.0</ele><time>2026-04-12T07:49:23Z</time></trkpt><trkpt lat="38.11642939122193" lon="13.239089485029258"><ele>436.4</ele><time>2026-04-12T07:49:24Z</time></trkpt><trkpt lat="38.11631315369385" lon="13.23903516744298"><ele>437.8</ele><time>2026-04-12T07:49:25Z</time></trkpt><trkpt lat="38.11618427464079" lon="13.238994464359493"><ele>439.20000000000005</ele><time>2026-04-12T07:49:26Z</time></trkpt><trkpt lat="38.116092486841396" lon="13.238966061744541"><ele>440.6</ele><time>2026-04-12T07:49:27Z</time></trkpt><trkpt lat="38.11603486085046" lon="13.239063523068268"><ele>442.0</ele><time>2026-04-12T07:49:30Z</time></trkpt><trkpt lat="38.116075796412936" lon="13.239152881266705"><ele>445.33333333333337</ele><time>2026-04-12T07:49:31Z</time></trkpt><trkpt lat="38.116141864246096" lon="13.23924605708845"><ele>448.6666666666667</ele><time>2026-04-12T07:49:32Z</time></trkpt><trkpt lat="38.11617621951391" lon="13.23932536803851"><ele>452.0</ele><time>2026-04-12T07:49:33Z</time></trkpt><trkpt lat="38.11613746300047" lon="13.239459976619402"><ele>455.33333333333337</ele><time>2026-04-12T07:49:35Z</time></trkpt><trkpt lat="38.11606849107264" lon="13.23947320816342"><ele>458.6666666666667</ele><time>2026-04-12T07:49:36Z</time></trkpt><trkpt lat="38.11598210517631" lon="13.239464555115113"><ele>462.0</ele><time>2026-04-12T07:49:37Z</time></trkpt><trkpt lat="38.11587795036734" lon="13.239449791187361"><ele>462.0</ele><time>2026-04-12T07:49:38Z</time></trkpt><trkpt lat="38.11577942011721" lon="13.239434410603266"><ele>462.0</ele><time>2026-04-12T07:49:39Z</time></trkpt><trkpt lat="38.11571233219389" lon="13.239426458255172"><ele>462.0</ele><time>2026-04-12T07:49:40Z</time></trkpt><trkpt lat="38.11563321331" lon="13.239414363255344"><ele>462.0</ele><time>2026-04-12T07:49:43Z</time></trkpt><trkpt lat="38.11564488445007" lon="13.239525945140931"><ele>462.0</ele><time>2026-04-12T07:49:45Z</time></trkpt><trkpt lat="38.115734469646966" lon="13.239612719631342"><ele>462.0</ele><time>2026-04-12T07:49:47Z</time></trkpt><trkpt lat="38.11571938713573" lon="13.239707312508148"><ele>466.20000000000005</ele><time>2026-04-12T07:49:49Z</time></trkpt><trkpt lat="38.11561255499629" lon="13.239720047553568"><ele>470.40000000000003</ele><time>2026-04-12T07:49:51Z</time></trkpt><trkpt lat="38.11552473934506" lon="13.239717936354046"><ele>474.59999999999997</ele><time>2026-04-12T07:49:52Z</time></trkpt><trkpt lat="38.115426987071274" lon="13.239695136491408"><ele>478.79999999999995</ele><time>2026-04-12T07:49:53Z</time></trkpt><trkpt lat="38.11532447611028" lon="13.23965415416961"><ele>483.0</ele><time>2026-04-12T07:49:54Z</time></trkpt><trkpt lat="38.115213995101406" lon="13.239618659020142"><ele>483.0</ele><time>2026-04-12T07:49:55.001Z</time></trkpt><trkpt lat="38.11510276052065" lon="13.239575630060331"><ele>483.0</ele><time>2026-04-12T07:49:56.001Z</time></trkpt><trkpt lat="38.11500330995858" lon="13.239550498038795"><ele>483.0</ele><time>2026-04-12T07:49:57.001Z</time></trkpt><trkpt lat="38.114891775792756" lon="13.239538084440102"><ele>483.0</ele><time>2026-04-12T07:49:58.001Z</time></trkpt><trkpt lat="38.11477175587209" lon="13.239525326374983"><ele>491.5</ele><time>2026-04-12T07:49:59.001Z</time></trkpt><trkpt lat="38.11464993653234" lon="13.239520250129582"><ele>500.0</ele><time>2026-04-12T07:50:00.001Z</time></trkpt><trkpt lat="38.114531764699414" lon="13.239523143507736"><ele>508.5</ele><time>2026-04-12T07:50:01.001Z</time></trkpt><trkpt lat="38.11441696238343" lon="13.239508102101269"><ele>517.0</ele><time>2026-04-12T07:50:02.001Z</time></trkpt><trkpt lat="38.11430563092635" lon="13.239500677793647"><ele>517.0</ele><time>2026-04-12T07:50:03.001Z</time></trkpt><trkpt lat="38.11421451521195" lon="13.239511239542924"><ele>517.0</ele><time>2026-04-12T07:50:04.001Z</time></trkpt><trkpt lat="38.114147673026345" lon="13.239506564023078"><ele>517.0</ele><time>2026-04-12T07:50:05.001Z</time></trkpt><trkpt lat="38.1140561597826" lon="13.239440613326254"><ele>517.0</ele><time>2026-04-12T07:50:07.001Z</time></trkpt><trkpt lat="38.11401996548118" lon="13.239354011492738"><ele>517.0</ele><time>2026-04-12T07:50:09.001Z</time></trkpt><trkpt lat="38.114006933543536" lon="13.239274817827516"><ele>517.0</ele><time>2026-04-12T07:50:11.001Z</time></trkpt><trkpt lat="38.11401367332971" lon="13.239161160729363"><ele>516.5</ele><time>2026-04-12T07:50:13.001Z</time></trkpt><trkpt lat="38.114038017087736" lon="13.239042142971421"><ele>516.0</ele><time>2026-04-12T07:50:15.001Z</time></trkpt><trkpt lat="38.11405700475623" lon="13.238916035693054"><ele>515.5</ele><time>2026-04-12T07:50:17.001Z</time></trkpt><trkpt lat="38.11406860323479" lon="13.238827563936692"><ele>515.0</ele><time>2026-04-12T07:50:19.001Z</time></trkpt><trkpt lat="38.114105758230714" lon="13.23875666298381"><ele>514.5</ele><time>2026-04-12T07:50:21.001Z</time></trkpt><trkpt lat="38.114120972885885" lon="13.238663838893213"><ele>514.0</ele><time>2026-04-12T07:50:25.001Z</time></trkpt><trkpt lat="38.1141162175701" lon="13.238569969960459"><ele>514.0</ele><time>2026-04-12T07:50:35.001Z</time></trkpt><trkpt lat="38.114118785257745" lon="13.238488335327961"><ele>514.0</ele><time>2026-04-12T07:51:00.002Z</time></trkpt><trkpt lat="38.11413383410883" lon="13.238405539472812"><ele>514.0</ele><time>2026-04-12T07:51:46Z</time></trkpt><trkpt lat="38.114105926045255" lon="13.23832635772884"><ele>514.0</ele><time>2026-04-12T07:52:24.001Z</time></trkpt><trkpt lat="38.114037515870834" lon="13.238270282341073"><ele>514.0</ele><time>2026-04-12T07:52:32.001Z</time></trkpt><trkpt lat="38.1139995458012" lon="13.238202341180472"><ele>514.0</ele><time>2026-04-12T07:52:43.001Z</time></trkpt><trkpt lat="38.11393785103521" lon="13.238178929660615"><ele>514.0</ele><time>2026-04-12T07:52:52.001Z</time></trkpt><trkpt lat="38.11387515992895" lon="13.238150958250216"><ele>516.1428571428571</ele><time>2026-04-12T07:53:01.002Z</time></trkpt><trkpt lat="38.11381168796976" lon="13.23813416539931"><ele>518.2857142857143</ele><time>2026-04-12T07:53:10.002Z</time></trkpt><trkpt lat="38.11374310318337" lon="13.238107542740622"><ele>520.4285714285714</ele><time>2026-04-12T07:53:15.002Z</time></trkpt><trkpt lat="38.11368112166033" lon="13.238085001013015"><ele>522.5714285714286</ele><time>2026-04-12T07:53:24Z</time></trkpt><trkpt lat="38.11361460071929" lon="13.238076785467786"><ele>524.7142857142857</ele><time>2026-04-12T07:53:29Z</time></trkpt><trkpt lat="38.11354889390899" lon="13.23806731450932"><ele>526.8571428571429</ele><time>2026-04-12T07:53:34Z</time></trkpt><trkpt lat="38.1134817436421" lon="13.238067016058398"><ele>529.0</ele><time>2026-04-12T07:53:47Z</time></trkpt><trkpt lat="38.11341531453958" lon="13.238088330963517"><ele>529.0</ele><time>2026-04-12T07:53:53Z</time></trkpt><trkpt lat="38.11333750480212" lon="13.238094591437575"><ele>529.0</ele><time>2026-04-12T07:54:03.001Z</time></trkpt><trkpt lat="38.11328219645555" lon="13.23803404596939"><ele>529.0</ele><time>2026-04-12T07:54:07.001Z</time></trkpt><trkpt lat="38.11321249636124" lon="13.238006341386198"><ele>529.0</ele><time>2026-04-12T07:54:10.001Z</time></trkpt><trkpt lat="38.113149900606345" lon="13.2379918509816"><ele>529.0</ele><time>2026-04-12T07:54:14.001Z</time></trkpt><trkpt lat="38.11307501220946" lon="13.237975329945995"><ele>529.0</ele><time>2026-04-12T07:54:21.001Z</time></trkpt><trkpt lat="38.11298846029146" lon="13.237963494962232"><ele>530.5</ele><time>2026-04-12T07:54:23.001Z</time></trkpt><trkpt lat="38.11290744494952" lon="13.237959009322104"><ele>532.0</ele><time>2026-04-12T07:54:26.001Z</time></trkpt><trkpt lat="38.11284315885832" lon="13.237967052869452"><ele>533.5</ele><time>2026-04-12T07:54:28.001Z</time></trkpt><trkpt lat="38.112763287315325" lon="13.237968193739084"><ele>535.0</ele><time>2026-04-12T07:54:30.001Z</time></trkpt><trkpt lat="38.11265883040575" lon="13.237959740205106"><ele>536.5</ele><time>2026-04-12T07:54:32.001Z</time></trkpt><trkpt lat="38.11256541494722" lon="13.237961337588255"><ele>538.0</ele><time>2026-04-12T07:54:34.001Z</time></trkpt><trkpt lat="38.11249576026743" lon="13.237959060433404"><ele>541.0</ele><time>2026-04-12T07:54:37.001Z</time></trkpt><trkpt lat="38.11239362133654" lon="13.237969508656654"><ele>544.0</ele><time>2026-04-12T07:54:39.001Z</time></trkpt><trkpt lat="38.112305249959476" lon="13.237969921261492"><ele>547.0</ele><time>2026-04-12T07:54:41.001Z</time></trkpt><trkpt lat="38.11222670731792" lon="13.237966046000471"><ele>550.0</ele><time>2026-04-12T07:54:43.001Z</time></trkpt><trkpt lat="38.112141284633964" lon="13.237952358037491"><ele>553.0</ele><time>2026-04-12T07:54:45.001Z</time></trkpt><trkpt lat="38.11203785355981" lon="13.237933914802237"><ele>553.0</ele><time>2026-04-12T07:54:47.001Z</time></trkpt><trkpt lat="38.11195077930633" lon="13.237896846757677"><ele>553.0</ele><time>2026-04-12T07:54:49.001Z</time></trkpt><trkpt lat="38.11187058859172" lon="13.23786857636059"><ele>553.0</ele><time>2026-04-12T07:54:51.001Z</time></trkpt><trkpt lat="38.11180335368352" lon="13.237841923886755"><ele>553.0</ele><time>2026-04-12T07:54:53.001Z</time></trkpt><trkpt lat="38.11172887198618" lon="13.237833137400607"><ele>553.0</ele><time>2026-04-12T07:54:55.001Z</time></trkpt><trkpt lat="38.11166323293316" lon="13.237801733264495"><ele>553.0</ele><time>2026-04-12T07:54:57.001Z</time></trkpt><trkpt lat="38.11157764169736" lon="13.237769068389046"><ele>555.1666666666667</ele><time>2026-04-12T07:54:59.001Z</time></trkpt><trkpt lat="38.1114903598793" lon="13.237743453464557"><ele>557.3333333333334</ele><time>2026-04-12T07:55:01.001Z</time></trkpt><trkpt lat="38.111416508610155" lon="13.237763522570493"><ele>559.5</ele><time>2026-04-12T07:55:03.001Z</time></trkpt><trkpt lat="38.11133228629084" lon="13.237776533015884"><ele>561.6666666666666</ele><time>2026-04-12T07:55:06.001Z</time></trkpt><trkpt lat="38.11126596366925" lon="13.23777406529847"><ele>563.8333333333333</ele><time>2026-04-12T07:55:08.002Z</time></trkpt><trkpt lat="38.1111931939852" lon="13.237792619147044"><ele>566.0</ele><time>2026-04-12T07:55:10.002Z</time></trkpt><trkpt lat="38.11110552802887" lon="13.237802232480014"><ele>566.0</ele><time>2026-04-12T07:55:12.002Z</time></trkpt><trkpt lat="38.111039153119705" lon="13.237816541517688"><ele>566.0</ele><time>2026-04-12T07:55:14.002Z</time></trkpt><trkpt lat="38.11097099375815" lon="13.23782911167593"><ele>566.0</ele><time>2026-04-12T07:55:17.002Z</time></trkpt><trkpt lat="38.11088221728279" lon="13.237861175159752"><ele>566.0</ele><time>2026-04-12T07:55:20.002Z</time></trkpt><trkpt lat="38.1107916159398" lon="13.2378616566112"><ele>566.0</ele><time>2026-04-12T07:55:22.002Z</time></trkpt><trkpt lat="38.11070499952144" lon="13.237843441432148"><ele>566.0</ele><time>2026-04-12T07:55:24.002Z</time></trkpt><trkpt lat="38.11061398833767" lon="13.237825932457465"><ele>567.6666666666666</ele><time>2026-04-12T07:55:26Z</time></trkpt><trkpt lat="38.110549176268464" lon="13.237842099972191"><ele>569.3333333333333</ele><time>2026-04-12T07:55:28Z</time></trkpt><trkpt lat="38.11045847341349" lon="13.237824604357124"><ele>571.0</ele><time>2026-04-12T07:55:31Z</time></trkpt><trkpt lat="38.11037711355609" lon="13.237797331847494"><ele>572.6666666666666</ele><time>2026-04-12T07:55:33Z</time></trkpt><trkpt lat="38.110310926660674" lon="13.237752883733693"><ele>574.3333333333334</ele><time>2026-04-12T07:55:35Z</time></trkpt><trkpt lat="38.110241146581316" lon="13.237752753828936"><ele>576.0</ele><time>2026-04-12T07:55:37Z</time></trkpt><trkpt lat="38.11013599401705" lon="13.237740746025672"><ele>576.0</ele><time>2026-04-12T07:55:39Z</time></trkpt><trkpt lat="38.11003973095347" lon="13.237702774292652"><ele>576.0</ele><time>2026-04-12T07:55:41Z</time></trkpt><trkpt lat="38.10993914836552" lon="13.237675338899715"><ele>576.0</ele><time>2026-04-12T07:55:43Z</time></trkpt><trkpt lat="38.10986964479177" lon="13.237647771981568"><ele>576.0</ele><time>2026-04-12T07:55:45Z</time></trkpt><trkpt lat="38.10977661389681" lon="13.23761486762379"><ele>576.0</ele><time>2026-04-12T07:55:46Z</time></trkpt><trkpt lat="38.10971967637622" lon="13.23755074836315"><ele>576.0</ele><time>2026-04-12T07:55:47Z</time></trkpt><trkpt lat="38.10966290478926" lon="13.23747202871496"><ele>577.0</ele><time>2026-04-12T07:55:49Z</time></trkpt><trkpt lat="38.109618707505085" lon="13.237410744635227"><ele>578.0</ele><time>2026-04-12T07:55:50Z</time></trkpt><trkpt lat="38.10955903536418" lon="13.237338900402698"><ele>579.0</ele><time>2026-04-12T07:55:51Z</time></trkpt><trkpt lat="38.10949081208539" lon="13.237275818747662"><ele>580.0</ele><time>2026-04-12T07:55:52Z</time></trkpt><trkpt lat="38.10931552426541" lon="13.237188087805414"><ele>581.0</ele><time>2026-04-12T07:55:54Z</time></trkpt><trkpt lat="38.10909892019995" lon="13.237196966813087"><ele>583.6666666666666</ele><time>2026-04-12T07:55:55Z</time></trkpt><trkpt lat="38.10898812724455" lon="13.237132552016663"><ele>586.3333333333334</ele><time>2026-04-12T07:55:56Z</time></trkpt><trkpt lat="38.10885593321116" lon="13.237039437997117"><ele>589.0</ele><time>2026-04-12T07:55:57.001Z</time></trkpt><trkpt lat="38.10861484519681" lon="13.236905932174816"><ele>589.0</ele><time>2026-04-12T07:55:58.001Z</time></trkpt><trkpt lat="38.1084510433871" lon="13.236758098277344"><ele>589.0</ele><time>2026-04-12T07:55:59.001Z</time></trkpt><trkpt lat="38.10831166077401" lon="13.23662227803555"><ele>589.0</ele><time>2026-04-12T07:56:00.001Z</time></trkpt><trkpt lat="38.10817514999275" lon="13.236499078351642"><ele>588.3333333333334</ele><time>2026-04-12T07:56:01.001Z</time></trkpt><trkpt lat="38.10805001735932" lon="13.236401049771903"><ele>587.6666666666666</ele><time>2026-04-12T07:56:02.001Z</time></trkpt><trkpt lat="38.10790114864704" lon="13.236278463759364"><ele>587.0</ele><time>2026-04-12T07:56:03.001Z</time></trkpt><trkpt lat="38.107772720868596" lon="13.236165114626372"><ele>587.0</ele><time>2026-04-12T07:56:04.001Z</time></trkpt><trkpt lat="38.10766566663666" lon="13.236057879009266"><ele>587.0</ele><time>2026-04-12T07:56:05.001Z</time></trkpt><trkpt lat="38.10761432518534" lon="13.235992413956872"><ele>587.0</ele><time>2026-04-12T07:56:06.001Z</time></trkpt><trkpt lat="38.107605999298684" lon="13.235445207729617"><ele>587.4</ele><time>2026-04-12T07:56:07.001Z</time></trkpt><trkpt lat="38.10751859061332" lon="13.235364337492246"><ele>587.8000000000001</ele><time>2026-04-12T07:56:08.001Z</time></trkpt><trkpt lat="38.107427084459594" lon="13.235280921327737"><ele>588.2</ele><time>2026-04-12T07:56:09.001Z</time></trkpt><trkpt lat="38.10734186172469" lon="13.23518892155074"><ele>588.6</ele><time>2026-04-12T07:56:10.001Z</time></trkpt><trkpt lat="38.10726408833622" lon="13.235087772985835"><ele>589.0</ele><time>2026-04-12T07:56:11.001Z</time></trkpt><trkpt lat="38.10719527880801" lon="13.234994229701153"><ele>589.0</ele><time>2026-04-12T07:56:12.001Z</time></trkpt><trkpt lat="38.107128597536736" lon="13.234911522935677"><ele>589.0</ele><time>2026-04-12T07:56:13.001Z</time></trkpt><trkpt lat="38.107064896360875" lon="13.234830284712856"><ele>589.0</ele><time>2026-04-12T07:56:14.001Z</time></trkpt><trkpt lat="38.10699539453748" lon="13.234745554648564"><ele>589.0</ele><time>2026-04-12T07:56:15.001Z</time></trkpt><trkpt lat="38.10692159601917" lon="13.234666932199282"><ele>589.0</ele><time>2026-04-12T07:56:16.001Z</time></trkpt><trkpt lat="38.10683523775511" lon="13.234582071091939"><ele>588.0</ele><time>2026-04-12T07:56:17.001Z</time></trkpt><trkpt lat="38.10674289702252" lon="13.23448627079636"><ele>587.0</ele><time>2026-04-12T07:56:18.001Z</time></trkpt><trkpt lat="38.10664871668285" lon="13.234386827704874"><ele>586.0</ele><time>2026-04-12T07:56:19.001Z</time></trkpt><trkpt lat="38.106551029005225" lon="13.2342763966849"><ele>585.0</ele><time>2026-04-12T07:56:20.001Z</time></trkpt><trkpt lat="38.10644776707825" lon="13.234181063529"><ele>585.0</ele><time>2026-04-12T07:56:21.001Z</time></trkpt><trkpt lat="38.10634065194705" lon="13.234106731500766"><ele>585.0</ele><time>2026-04-12T07:56:22.001Z</time></trkpt><trkpt lat="38.106228138801654" lon="13.234057219115199"><ele>585.0</ele><time>2026-04-12T07:56:23.001Z</time></trkpt><trkpt lat="38.106108377163835" lon="13.234022075641102"><ele>585.0</ele><time>2026-04-12T07:56:24.001Z</time></trkpt><trkpt lat="38.10598113708339" lon="13.233987264430771"><ele>583.0</ele><time>2026-04-12T07:56:25.001Z</time></trkpt><trkpt lat="38.10585370406917" lon="13.233954407915713"><ele>581.0</ele><time>2026-04-12T07:56:26.001Z</time></trkpt><trkpt lat="38.105720275983224" lon="13.233940250475822"><ele>579.0</ele><time>2026-04-12T07:56:27.001Z</time></trkpt><trkpt lat="38.10558076802081" lon="13.233928135664073"><ele>577.0</ele><time>2026-04-12T07:56:28.001Z</time></trkpt><trkpt lat="38.105442908641656" lon="13.233891285266473"><ele>577.0</ele><time>2026-04-12T07:56:29.001Z</time></trkpt><trkpt lat="38.10531214835326" lon="13.233881206634273"><ele>577.0</ele><time>2026-04-12T07:56:30.001Z</time></trkpt><trkpt lat="38.10518779045431" lon="13.233825882324584"><ele>577.0</ele><time>2026-04-12T07:56:31.001Z</time></trkpt><trkpt lat="38.10507699426011" lon="13.233793179250425"><ele>577.0</ele><time>2026-04-12T07:56:32.001Z</time></trkpt><trkpt lat="38.104985660785744" lon="13.233711116466162"><ele>578.8000000000001</ele><time>2026-04-12T07:56:33.001Z</time></trkpt><trkpt lat="38.10488765899852" lon="13.23365173362131"><ele>580.6</ele><time>2026-04-12T07:56:34.001Z</time></trkpt><trkpt lat="38.104790935472" lon="13.23359477638747"><ele>582.4000000000001</ele><time>2026-04-12T07:56:35.001Z</time></trkpt><trkpt lat="38.104689481378344" lon="13.233535033601052"><ele>584.2</ele><time>2026-04-12T07:56:36.001Z</time></trkpt><trkpt lat="38.10458767689524" lon="13.23347630127836"><ele>586.0</ele><time>2026-04-12T07:56:37.001Z</time></trkpt><trkpt lat="38.104483470864366" lon="13.233418636606954"><ele>586.0</ele><time>2026-04-12T07:56:38.001Z</time></trkpt><trkpt lat="38.10437418302217" lon="13.233372691502462"><ele>586.0</ele><time>2026-04-12T07:56:39.001Z</time></trkpt><trkpt lat="38.10427476069855" lon="13.233297478171895"><ele>586.0</ele><time>2026-04-12T07:56:40.001Z</time></trkpt><trkpt lat="38.10418890628434" lon="13.233205360976436"><ele>586.0</ele><time>2026-04-12T07:56:41.001Z</time></trkpt><trkpt lat="38.10412006806401" lon="13.23308855975726"><ele>584.75</ele><time>2026-04-12T07:56:42.001Z</time></trkpt><trkpt lat="38.10408818403075" lon="13.232941937319433"><ele>583.5</ele><time>2026-04-12T07:56:43.001Z</time></trkpt><trkpt lat="38.10403618064327" lon="13.23280240081261"><ele>582.25</ele><time>2026-04-12T07:56:44.001Z</time></trkpt><trkpt lat="38.104005606764474" lon="13.232650735283796"><ele>581.0</ele><time>2026-04-12T07:56:45.001Z</time></trkpt><trkpt lat="38.10396844426264" lon="13.232503258969958"><ele>581.1666666666666</ele><time>2026-04-12T07:56:46.001Z</time></trkpt><trkpt lat="38.10393265088156" lon="13.232370906141117"><ele>581.3333333333333</ele><time>2026-04-12T07:56:47.001Z</time></trkpt><trkpt lat="38.103901449784026" lon="13.232256331065905"><ele>581.5</ele><time>2026-04-12T07:56:48.001Z</time></trkpt><trkpt lat="38.10386902521957" lon="13.232162997598268"><ele>581.6666666666666</ele><time>2026-04-12T07:56:49.001Z</time></trkpt><trkpt lat="38.10382489282475" lon="13.232078836932905"><ele>581.8333333333334</ele><time>2026-04-12T07:56:50.001Z</time></trkpt><trkpt lat="38.103775512839505" lon="13.232026166583996"><ele>582.0</ele><time>2026-04-12T07:56:51.001Z</time></trkpt><trkpt lat="38.103695076715354" lon="13.231980955907016"><ele>582.0</ele><time>2026-04-12T07:56:53.001Z</time></trkpt><trkpt lat="38.10362589811274" lon="13.231959168791406"><ele>582.0</ele><time>2026-04-12T07:56:59.001Z</time></trkpt><trkpt lat="38.103554596038784" lon="13.231958635228937"><ele>582.0</ele><time>2026-04-12T07:57:01.001Z</time></trkpt><trkpt lat="38.10348282833161" lon="13.231924304521113"><ele>582.0</ele><time>2026-04-12T07:57:04.001Z</time></trkpt><trkpt lat="38.10340656791691" lon="13.231942147893989"><ele>582.0</ele><time>2026-04-12T08:00:08.001Z</time></trkpt><trkpt lat="38.10332227566035" lon="13.231945633584859"><ele>582.0</ele><time>2026-04-12T08:00:09.001Z</time></trkpt><trkpt lat="38.10322703242827" lon="13.231944890533674"><ele>582.25</ele><time>2026-04-12T08:00:10.001Z</time></trkpt><trkpt lat="38.10309213860588" lon="13.231944207076301"><ele>582.5</ele><time>2026-04-12T08:00:11.001Z</time></trkpt><trkpt lat="38.102943616844136" lon="13.231922708363637"><ele>582.75</ele><time>2026-04-12T08:00:12.001Z</time></trkpt><trkpt lat="38.10281215176248" lon="13.231926088841266"><ele>583.0</ele><time>2026-04-12T08:00:13.001Z</time></trkpt><trkpt lat="38.102716811245706" lon="13.231959862358817"><ele>583.0</ele><time>2026-04-12T08:00:14.001Z</time></trkpt><trkpt lat="38.102625229853835" lon="13.231975640251939"><ele>583.0</ele><time>2026-04-12T08:00:15.001Z</time></trkpt><trkpt lat="38.10253409363776" lon="13.23197994344607"><ele>583.0</ele><time>2026-04-12T08:00:16.001Z</time></trkpt><trkpt lat="38.102439290678284" lon="13.231966881524047"><ele>583.0</ele><time>2026-04-12T08:00:17.001Z</time></trkpt><trkpt lat="38.10234391004852" lon="13.231936623247847"><ele>583.0</ele><time>2026-04-12T08:00:18.001Z</time></trkpt><trkpt lat="38.102254742819646" lon="13.231892816070166"><ele>583.4</ele><time>2026-04-12T08:00:19.001Z</time></trkpt><trkpt lat="38.10218034730791" lon="13.231843770513459"><ele>583.8</ele><time>2026-04-12T08:00:20.001Z</time></trkpt><trkpt lat="38.102101795812686" lon="13.231774889825102"><ele>584.2</ele><time>2026-04-12T08:00:21.001Z</time></trkpt><trkpt lat="38.10202344969265" lon="13.231692216508034"><ele>584.6</ele><time>2026-04-12T08:00:22.001Z</time></trkpt><trkpt lat="38.101957684889264" lon="13.231590183703217"><ele>585.0</ele><time>2026-04-12T08:00:23.001Z</time></trkpt><trkpt lat="38.10189129408429" lon="13.231469213201208"><ele>585.0</ele><time>2026-04-12T08:00:24.001Z</time></trkpt><trkpt lat="38.101817191496664" lon="13.231355217345314"><ele>585.0</ele><time>2026-04-12T08:00:25.001Z</time></trkpt><trkpt lat="38.10173498066826" lon="13.231246770449932"><ele>585.0</ele><time>2026-04-12T08:00:26.001Z</time></trkpt><trkpt lat="38.101639956842824" lon="13.231150650959176"><ele>585.0</ele><time>2026-04-12T08:00:27.001Z</time></trkpt><trkpt lat="38.10153909045526" lon="13.23105559045777"><ele>586.0</ele><time>2026-04-12T08:00:28.001Z</time></trkpt><trkpt lat="38.10143985151527" lon="13.230966321232108"><ele>587.0</ele><time>2026-04-12T08:00:29.001Z</time></trkpt><trkpt lat="38.10134658876657" lon="13.230893179573162"><ele>588.0</ele><time>2026-04-12T08:00:30.001Z</time></trkpt><trkpt lat="38.10125880535734" lon="13.230833733313409"><ele>589.0</ele><time>2026-04-12T08:00:31.001Z</time></trkpt><trkpt lat="38.10117819593333" lon="13.230770091682105"><ele>590.0</ele><time>2026-04-12T08:00:32.001Z</time></trkpt><trkpt lat="38.101099525306225" lon="13.230702905209348"><ele>590.0</ele><time>2026-04-12T08:00:33.001Z</time></trkpt><trkpt lat="38.10103069268176" lon="13.230641702868239"><ele>590.0</ele><time>2026-04-12T08:00:34.001Z</time></trkpt><trkpt lat="38.10095964834445" lon="13.230567732715876"><ele>590.0</ele><time>2026-04-12T08:00:35.001Z</time></trkpt><trkpt lat="38.10089557960424" lon="13.230476861171935"><ele>590.0</ele><time>2026-04-12T08:00:36.001Z</time></trkpt><trkpt lat="38.10085210044915" lon="13.230370088929702"><ele>590.0</ele><time>2026-04-12T08:00:37.001Z</time></trkpt><trkpt lat="38.10082807043138" lon="13.230244653443544"><ele>590.0</ele><time>2026-04-12T08:00:38.001Z</time></trkpt><trkpt lat="38.1008347321698" lon="13.23010462406166"><ele>590.0</ele><time>2026-04-12T08:00:39.001Z</time></trkpt><trkpt lat="38.1008628485966" lon="13.229975109500815"><ele>590.0</ele><time>2026-04-12T08:00:40.001Z</time></trkpt><trkpt lat="38.1009004308896" lon="13.229852904802867"><ele>590.0</ele><time>2026-04-12T08:00:41.001Z</time></trkpt><trkpt lat="38.100951526339024" lon="13.229722865076068"><ele>590.0</ele><time>2026-04-12T08:00:42.001Z</time></trkpt><trkpt lat="38.10101221854673" lon="13.229596210641361"><ele>591.75</ele><time>2026-04-12T08:00:43.001Z</time></trkpt><trkpt lat="38.10107179439337" lon="13.229462538874701"><ele>593.5</ele><time>2026-04-12T08:00:44.001Z</time></trkpt><trkpt lat="38.10113039118868" lon="13.229329054878425"><ele>595.25</ele><time>2026-04-12T08:00:45.001Z</time></trkpt><trkpt lat="38.10118748699132" lon="13.229198687094245"><ele>597.0</ele><time>2026-04-12T08:00:46.001Z</time></trkpt><trkpt lat="38.101236472630376" lon="13.229070019074635"><ele>597.4</ele><time>2026-04-12T08:00:47.001Z</time></trkpt><trkpt lat="38.10126905842114" lon="13.228944297961332"><ele>597.8000000000001</ele><time>2026-04-12T08:00:48.001Z</time></trkpt><trkpt lat="38.101283586650794" lon="13.228815087622586"><ele>598.2</ele><time>2026-04-12T08:00:49.001Z</time></trkpt><trkpt lat="38.10128476389655" lon="13.22869666989828"><ele>598.6</ele><time>2026-04-12T08:00:50.001Z</time></trkpt><trkpt lat="38.10128180235466" lon="13.228583890602696"><ele>599.0</ele><time>2026-04-12T08:00:51.001Z</time></trkpt><trkpt lat="38.10128111677122" lon="13.228474669431352"><ele>599.0</ele><time>2026-04-12T08:00:52.001Z</time></trkpt><trkpt lat="38.10126884492719" lon="13.228376436179"><ele>599.0</ele><time>2026-04-12T08:00:53.001Z</time></trkpt><trkpt lat="38.10124483387605" lon="13.228271009481968"><ele>599.0</ele><time>2026-04-12T08:00:54.001Z</time></trkpt><trkpt lat="38.10119586683839" lon="13.228174611637847"><ele>599.0</ele><time>2026-04-12T08:00:55.001Z</time></trkpt><trkpt lat="38.10112838537294" lon="13.228090165376894"><ele>599.0</ele><time>2026-04-12T08:00:56.001Z</time></trkpt><trkpt lat="38.1010562716621" lon="13.228010965277255"><ele>599.0</ele><time>2026-04-12T08:00:57.001Z</time></trkpt><trkpt lat="38.101004794899666" lon="13.227914931309297"><ele>598.6666666666666</ele><time>2026-04-12T08:00:58.001Z</time></trkpt><trkpt lat="38.10095642257236" lon="13.22782662792091"><ele>598.3333333333333</ele><time>2026-04-12T08:00:59.001Z</time></trkpt><trkpt lat="38.1009224002891" lon="13.227734480159246"><ele>598.0</ele><time>2026-04-12T08:01:00.001Z</time></trkpt><trkpt lat="38.10090698453083" lon="13.227654239532473"><ele>597.6666666666666</ele><time>2026-04-12T08:01:01.001Z</time></trkpt><trkpt lat="38.10088785553689" lon="13.227550297579473"><ele>597.3333333333334</ele><time>2026-04-12T08:01:03.001Z</time></trkpt><trkpt lat="38.1007926804578" lon="13.227547595139214"><ele>597.0</ele><time>2026-04-12T08:01:04.001Z</time></trkpt><trkpt lat="38.10067487816551" lon="13.227495163086836"><ele>598.6</ele><time>2026-04-12T08:01:06.001Z</time></trkpt><trkpt lat="38.100605311964735" lon="13.227430246773263"><ele>600.2</ele><time>2026-04-12T08:01:07.001Z</time></trkpt><trkpt lat="38.10052272803142" lon="13.227389187353884"><ele>601.8</ele><time>2026-04-12T08:01:08.001Z</time></trkpt><trkpt lat="38.100428534799526" lon="13.22735643682523"><ele>603.4</ele><time>2026-04-12T08:01:09.001Z</time></trkpt><trkpt lat="38.10032017441952" lon="13.22732321194829"><ele>605.0</ele><time>2026-04-12T08:01:10.001Z</time></trkpt><trkpt lat="38.10021183367649" lon="13.227294342670254"><ele>605.0</ele><time>2026-04-12T08:01:11.001Z</time></trkpt><trkpt lat="38.10008263968296" lon="13.227282492693037"><ele>605.0</ele><time>2026-04-12T08:01:12.001Z</time></trkpt><trkpt lat="38.09994104427615" lon="13.227251049503378"><ele>605.0</ele><time>2026-04-12T08:01:13.001Z</time></trkpt><trkpt lat="38.09979915233024" lon="13.227235042193415"><ele>605.0</ele><time>2026-04-12T08:01:14.001Z</time></trkpt><trkpt lat="38.09966583936834" lon="13.227224536820856"><ele>606.75</ele><time>2026-04-12T08:01:15.001Z</time></trkpt><trkpt lat="38.099539272301094" lon="13.227220632044528"><ele>608.5</ele><time>2026-04-12T08:01:16.001Z</time></trkpt><trkpt lat="38.09941479031999" lon="13.22722480811028"><ele>610.25</ele><time>2026-04-12T08:01:17.001Z</time></trkpt><trkpt lat="38.09929245908123" lon="13.22719523233351"><ele>612.0</ele><time>2026-04-12T08:01:18.001Z</time></trkpt><trkpt lat="38.099177360903205" lon="13.227183797171707"><ele>614.25</ele><time>2026-04-12T08:01:19.001Z</time></trkpt><trkpt lat="38.09905576290805" lon="13.227164204442136"><ele>616.5</ele><time>2026-04-12T08:01:20.001Z</time></trkpt><trkpt lat="38.09895059115984" lon="13.227135115214892"><ele>618.75</ele><time>2026-04-12T08:01:21.001Z</time></trkpt><trkpt lat="38.09883369987801" lon="13.227117321100645"><ele>621.0</ele><time>2026-04-12T08:01:22.001Z</time></trkpt><trkpt lat="38.09871343345563" lon="13.227070514151137"><ele>621.0</ele><time>2026-04-12T08:01:23.001Z</time></trkpt><trkpt lat="38.09858518404004" lon="13.227033471938466"><ele>621.0</ele><time>2026-04-12T08:01:24.001Z</time></trkpt><trkpt lat="38.09845335221468" lon="13.22702847759529"><ele>621.0</ele><time>2026-04-12T08:01:25.001Z</time></trkpt><trkpt lat="38.098330508810804" lon="13.22706306966984"><ele>621.0</ele><time>2026-04-12T08:01:26.001Z</time></trkpt><trkpt lat="38.098206288266915" lon="13.227100951866898"><ele>623.5</ele><time>2026-04-12T08:01:27.001Z</time></trkpt><trkpt lat="38.09807835815502" lon="13.227109644308557"><ele>626.0</ele><time>2026-04-12T08:01:28.001Z</time></trkpt><trkpt lat="38.09795312981591" lon="13.227120958768584"><ele>628.5</ele><time>2026-04-12T08:01:29.001Z</time></trkpt><trkpt lat="38.09782867402247" lon="13.22712587841176"><ele>631.0</ele><time>2026-04-12T08:01:30.001Z</time></trkpt><trkpt lat="38.09770090408281" lon="13.227118770110996"><ele>631.0</ele><time>2026-04-12T08:01:31.001Z</time></trkpt><trkpt lat="38.09757289413681" lon="13.227073575063443"><ele>631.0</ele><time>2026-04-12T08:01:32.001Z</time></trkpt><trkpt lat="38.09744184659945" lon="13.227036430864798"><ele>631.0</ele><time>2026-04-12T08:01:33.001Z</time></trkpt><trkpt lat="38.09730295451257" lon="13.226990729217782"><ele>631.0</ele><time>2026-04-12T08:01:34.001Z</time></trkpt><trkpt lat="38.09715894440951" lon="13.226963353226873"><ele>632.0</ele><time>2026-04-12T08:01:35.001Z</time></trkpt><trkpt lat="38.09703303512281" lon="13.226901070753462"><ele>633.0</ele><time>2026-04-12T08:01:36.001Z</time></trkpt><trkpt lat="38.09694450415682" lon="13.226849977362457"><ele>634.0</ele><time>2026-04-12T08:01:37.001Z</time></trkpt><trkpt lat="38.096890235750365" lon="13.226752651915149"><ele>635.0</ele><time>2026-04-12T08:01:38.001Z</time></trkpt><trkpt lat="38.096808872850765" lon="13.226672048574272"><ele>636.0</ele><time>2026-04-12T08:01:39.001Z</time></trkpt><trkpt lat="38.096724128537886" lon="13.226599905632899"><ele>636.0</ele><time>2026-04-12T08:01:40.001Z</time></trkpt><trkpt lat="38.09670447647459" lon="13.22650213203985"><ele>636.0</ele><time>2026-04-12T08:01:41.001Z</time></trkpt><trkpt lat="38.09670035469883" lon="13.226403191056718"><ele>636.0</ele><time>2026-04-12T08:01:42.001Z</time></trkpt><trkpt lat="38.09669258628519" lon="13.226297615535225"><ele>636.0</ele><time>2026-04-12T08:01:43Z</time></trkpt><trkpt lat="38.096671708259116" lon="13.226183375535822"><ele>636.0</ele><time>2026-04-12T08:01:44Z</time></trkpt><trkpt lat="38.096671870866594" lon="13.226062867133814"><ele>636.0</ele><time>2026-04-12T08:01:45Z</time></trkpt><trkpt lat="38.09667716835844" lon="13.225966518469424"><ele>637.8333333333334</ele><time>2026-04-12T08:01:46Z</time></trkpt><trkpt lat="38.096638152134375" lon="13.225885055565684"><ele>639.6666666666666</ele><time>2026-04-12T08:01:47Z</time></trkpt><trkpt lat="38.096573791981896" lon="13.225840379270704"><ele>641.5</ele><time>2026-04-12T08:01:48Z</time></trkpt><trkpt lat="38.09649087191597" lon="13.225859857659211"><ele>643.3333333333333</ele><time>2026-04-12T08:01:49Z</time></trkpt><trkpt lat="38.09642036125218" lon="13.225853616442961"><ele>645.1666666666666</ele><time>2026-04-12T08:01:50Z</time></trkpt><trkpt lat="38.09633072678256" lon="13.22583879134324"><ele>647.0</ele><time>2026-04-12T08:01:51Z</time></trkpt><trkpt lat="38.09623005235032" lon="13.225807097647786"><ele>647.1666666666666</ele><time>2026-04-12T08:01:52Z</time></trkpt><trkpt lat="38.09613467853937" lon="13.225747477318253"><ele>647.3333333333333</ele><time>2026-04-12T08:01:53Z</time></trkpt><trkpt lat="38.096061285846936" lon="13.22567321588014"><ele>647.5</ele><time>2026-04-12T08:01:54Z</time></trkpt><trkpt lat="38.09600791463586" lon="13.225595124872102"><ele>647.6666666666666</ele><time>2026-04-12T08:01:55Z</time></trkpt><trkpt lat="38.09595468301953" lon="13.225522056157345"><ele>647.8333333333334</ele><time>2026-04-12T08:01:56Z</time></trkpt><trkpt lat="38.095908638156246" lon="13.225444141614721"><ele>648.0</ele><time>2026-04-12T08:01:57Z</time></trkpt><trkpt lat="38.09587738540335" lon="13.225368899638084"><ele>649.6666666666666</ele><time>2026-04-12T08:01:58Z</time></trkpt><trkpt lat="38.095866375782016" lon="13.225272093357859"><ele>651.3333333333334</ele><time>2026-04-12T08:01:59Z</time></trkpt><trkpt lat="38.095836679615424" lon="13.225174870542313"><ele>653.0</ele><time>2026-04-12T08:02:00Z</time></trkpt><trkpt lat="38.095795483145906" lon="13.225096633817138"><ele>654.6666666666667</ele><time>2026-04-12T08:02:01Z</time></trkpt><trkpt lat="38.09572903835916" lon="13.225060140652763"><ele>656.3333333333334</ele><time>2026-04-12T08:02:02Z</time></trkpt><trkpt lat="38.09568906731553" lon="13.224983574620067"><ele>658.0</ele><time>2026-04-12T08:02:03Z</time></trkpt><trkpt lat="38.095589821629446" lon="13.224907230336676"><ele>660.4</ele><time>2026-04-12T08:02:05Z</time></trkpt><trkpt lat="38.09553461629219" lon="13.224859301165635"><ele>662.8</ele><time>2026-04-12T08:02:06Z</time></trkpt><trkpt lat="38.09545494512849" lon="13.224803843651094"><ele>665.2</ele><time>2026-04-12T08:02:07Z</time></trkpt><trkpt lat="38.09539343617573" lon="13.224730461850637"><ele>667.6</ele><time>2026-04-12T08:02:08Z</time></trkpt><trkpt lat="38.09531704232505" lon="13.224662420528015"><ele>670.0</ele><time>2026-04-12T08:02:09Z</time></trkpt><trkpt lat="38.09521284115858" lon="13.224573597397022"><ele>670.0</ele><time>2026-04-12T08:02:10Z</time></trkpt><trkpt lat="38.09512487606067" lon="13.22450866165574"><ele>670.0</ele><time>2026-04-12T08:02:11Z</time></trkpt><trkpt lat="38.09503138805523" lon="13.224422497590709"><ele>670.0</ele><time>2026-04-12T08:02:12Z</time></trkpt><trkpt lat="38.09492300945993" lon="13.224335535660433"><ele>670.0</ele><time>2026-04-12T08:02:13Z</time></trkpt><trkpt lat="38.09481334528969" lon="13.224253501334868"><ele>672.75</ele><time>2026-04-12T08:02:14Z</time></trkpt><trkpt lat="38.09470453175228" lon="13.224172502600828"><ele>675.5</ele><time>2026-04-12T08:02:15Z</time></trkpt><trkpt lat="38.09459606782254" lon="13.224092879221743"><ele>678.25</ele><time>2026-04-12T08:02:16Z</time></trkpt><trkpt lat="38.09448876118857" lon="13.224014629346648"><ele>681.0</ele><time>2026-04-12T08:02:17Z</time></trkpt><trkpt lat="38.09440191781951" lon="13.22394669492901"><ele>681.5999999999999</ele><time>2026-04-12T08:02:18Z</time></trkpt><trkpt lat="38.094312908732206" lon="13.22387134295382"><ele>682.2</ele><time>2026-04-12T08:02:19Z</time></trkpt><trkpt lat="38.094223762656185" lon="13.22380623388962"><ele>682.8</ele><time>2026-04-12T08:02:20Z</time></trkpt><trkpt lat="38.09413755505372" lon="13.223711264943574"><ele>683.4000000000001</ele><time>2026-04-12T08:02:21Z</time></trkpt><trkpt lat="38.09405659959726" lon="13.223629983805727"><ele>684.0</ele><time>2026-04-12T08:02:22Z</time></trkpt><trkpt lat="38.09398080752712" lon="13.223532580788413"><ele>685.6</ele><time>2026-04-12T08:02:23Z</time></trkpt><trkpt lat="38.09389927814158" lon="13.223458777863394"><ele>687.2</ele><time>2026-04-12T08:02:24Z</time></trkpt><trkpt lat="38.09380162179699" lon="13.223372334892264"><ele>688.8000000000001</ele><time>2026-04-12T08:02:25Z</time></trkpt><trkpt lat="38.093719159963044" lon="13.223300883705774"><ele>690.4000000000001</ele><time>2026-04-12T08:02:26.001Z</time></trkpt><trkpt lat="38.09362673878591" lon="13.223248449212573"><ele>692.0</ele><time>2026-04-12T08:02:27.001Z</time></trkpt><trkpt lat="38.093538837001745" lon="13.223178283230023"><ele>692.0</ele><time>2026-04-12T08:02:28.001Z</time></trkpt><trkpt lat="38.09344698431339" lon="13.223107563668801"><ele>692.0</ele><time>2026-04-12T08:02:29.001Z</time></trkpt><trkpt lat="38.09334212941377" lon="13.223045641150579"><ele>692.0</ele><time>2026-04-12T08:02:30.001Z</time></trkpt><trkpt lat="38.09324939392982" lon="13.222988937390229"><ele>692.0</ele><time>2026-04-12T08:02:31.001Z</time></trkpt><trkpt lat="38.09314938429944" lon="13.222952740406768"><ele>692.0</ele><time>2026-04-12T08:02:32.001Z</time></trkpt><trkpt lat="38.09305415682006" lon="13.222928906087406"><ele>693.8333333333333</ele><time>2026-04-12T08:02:33.001Z</time></trkpt><trkpt lat="38.09296207824109" lon="13.222919807649063"><ele>695.6666666666666</ele><time>2026-04-12T08:02:34.001Z</time></trkpt><trkpt lat="38.09289890489507" lon="13.22290144986154"><ele>697.5</ele><time>2026-04-12T08:02:35.001Z</time></trkpt><trkpt lat="38.092836243497885" lon="13.222883490671432"><ele>699.3333333333334</ele><time>2026-04-12T08:02:36.001Z</time></trkpt><trkpt lat="38.09276392430246" lon="13.22289006945702"><ele>701.1666666666667</ele><time>2026-04-12T08:02:37.001Z</time></trkpt><trkpt lat="38.09267778634795" lon="13.222843816203982"><ele>703.0</ele><time>2026-04-12T08:02:39.001Z</time></trkpt><trkpt lat="38.09261000219805" lon="13.222798195930288"><ele>703.0</ele><time>2026-04-12T08:02:42.001Z</time></trkpt><trkpt lat="38.09258839000246" lon="13.222597122213855"><ele>703.0</ele><time>2026-04-12T08:02:43.001Z</time></trkpt><trkpt lat="38.09252487735677" lon="13.222501810976187"><ele>703.0</ele><time>2026-04-12T08:02:45.001Z</time></trkpt><trkpt lat="38.09250579055591" lon="13.22242011844712"><ele>703.0</ele><time>2026-04-12T08:02:47.001Z</time></trkpt><trkpt lat="38.092549181106634" lon="13.222289543311025"><ele>703.0</ele><time>2026-04-12T08:02:50.001Z</time></trkpt><trkpt lat="38.092669794408536" lon="13.222221489213446"><ele>705.2</ele><time>2026-04-12T08:02:52.001Z</time></trkpt><trkpt lat="38.0927502359596" lon="13.222199564896535"><ele>707.4</ele><time>2026-04-12T08:02:53.001Z</time></trkpt><trkpt lat="38.092846359461674" lon="13.222186866936083"><ele>709.6</ele><time>2026-04-12T08:02:54.001Z</time></trkpt><trkpt lat="38.09295855898407" lon="13.222157745166045"><ele>711.8000000000001</ele><time>2026-04-12T08:02:55.001Z</time></trkpt><trkpt lat="38.09306733997207" lon="13.222120505679376"><ele>714.0</ele><time>2026-04-12T08:02:56.001Z</time></trkpt><trkpt lat="38.093149431604886" lon="13.222103824611706"><ele>714.0</ele><time>2026-04-12T08:02:57.001Z</time></trkpt><trkpt lat="38.09325235487975" lon="13.222191039981107"><ele>714.0</ele><time>2026-04-12T08:02:59.001Z</time></trkpt><trkpt lat="38.09333938756015" lon="13.222168959041776"><ele>714.0</ele><time>2026-04-12T08:03:00.001Z</time></trkpt><trkpt lat="38.09342335903398" lon="13.222097331777169"><ele>714.0</ele><time>2026-04-12T08:03:01.001Z</time></trkpt><trkpt lat="38.093503310632244" lon="13.221985348155535"><ele>714.0</ele><time>2026-04-12T08:03:02.001Z</time></trkpt><trkpt lat="38.09352748655643" lon="13.221904739760753"><ele>714.0</ele><time>2026-04-12T08:03:03.001Z</time></trkpt><trkpt lat="38.09310690369936" lon="13.221541327694956"><ele>714.0</ele><time>2026-04-12T08:03:05.001Z</time></trkpt><trkpt lat="38.093044908621394" lon="13.221487643904982"><ele>714.0</ele><time>2026-04-12T08:03:06.001Z</time></trkpt><trkpt lat="38.09298039437958" lon="13.221440085260651"><ele>714.0</ele><time>2026-04-12T08:03:07.001Z</time></trkpt><trkpt lat="38.092902751933295" lon="13.221373835007077"><ele>714.0</ele><time>2026-04-12T08:03:08.001Z</time></trkpt><trkpt lat="38.09284120360182" lon="13.221301176098876"><ele>714.0</ele><time>2026-04-12T08:03:09.001Z</time></trkpt><trkpt lat="38.092776080085436" lon="13.22124282344589"><ele>714.0</ele><time>2026-04-12T08:03:10.001Z</time></trkpt><trkpt lat="38.09270326953576" lon="13.221200138881157"><ele>712.6666666666666</ele><time>2026-04-12T08:03:11.001Z</time></trkpt><trkpt lat="38.092635697594524" lon="13.221163264287535"><ele>711.3333333333334</ele><time>2026-04-12T08:03:12.001Z</time></trkpt><trkpt lat="38.09258267560614" lon="13.221013590542322"><ele>710.0</ele><time>2026-04-12T08:03:14.001Z</time></trkpt><trkpt lat="38.092569735010635" lon="13.220919170531156"><ele>708.6666666666667</ele><time>2026-04-12T08:03:15.001Z</time></trkpt><trkpt lat="38.09254702986812" lon="13.220832391553794"><ele>707.3333333333334</ele><time>2026-04-12T08:03:16.001Z</time></trkpt><trkpt lat="38.0924947808189" lon="13.220772973825243"><ele>706.0</ele><time>2026-04-12T08:03:17.001Z</time></trkpt><trkpt lat="38.092412450393006" lon="13.220715292848615"><ele>707.1999999999999</ele><time>2026-04-12T08:03:18.001Z</time></trkpt><trkpt lat="38.092314650684585" lon="13.220653937195799"><ele>708.4</ele><time>2026-04-12T08:03:19.001Z</time></trkpt><trkpt lat="38.09222018082951" lon="13.220612386584724"><ele>709.6</ele><time>2026-04-12T08:03:20.001Z</time></trkpt><trkpt lat="38.09212275917229" lon="13.220577237192666"><ele>710.8</ele><time>2026-04-12T08:03:21.001Z</time></trkpt><trkpt lat="38.092032584618394" lon="13.22056543986095"><ele>712.0</ele><time>2026-04-12T08:03:22.001Z</time></trkpt><trkpt lat="38.091951345066214" lon="13.2205214402779"><ele>712.0</ele><time>2026-04-12T08:03:23.001Z</time></trkpt><trkpt lat="38.091888741426196" lon="13.22044053128133"><ele>712.0</ele><time>2026-04-12T08:03:24.001Z</time></trkpt><trkpt lat="38.09184460842358" lon="13.22036013541801"><ele>712.0</ele><time>2026-04-12T08:03:25.001Z</time></trkpt><trkpt lat="38.091823402653496" lon="13.220260014516121"><ele>712.0</ele><time>2026-04-12T08:03:26.001Z</time></trkpt><trkpt lat="38.09171183307288" lon="13.220277812933535"><ele>712.0</ele><time>2026-04-12T08:03:27.001Z</time></trkpt><trkpt lat="38.09162294217942" lon="13.220284902916644"><ele>715.4000000000001</ele><time>2026-04-12T08:03:28.001Z</time></trkpt><trkpt lat="38.09153616551142" lon="13.220268889832026"><ele>718.8000000000001</ele><time>2026-04-12T08:03:29.001Z</time></trkpt><trkpt lat="38.091472858222645" lon="13.220212512998227"><ele>722.2</ele><time>2026-04-12T08:03:30.001Z</time></trkpt><trkpt lat="38.09138196185443" lon="13.220160109778096"><ele>725.6</ele><time>2026-04-12T08:03:31.001Z</time></trkpt><trkpt lat="38.09128612568966" lon="13.22014385203377"><ele>729.0</ele><time>2026-04-12T08:03:32.001Z</time></trkpt><trkpt lat="38.09120140933293" lon="13.220110974797379"><ele>729.0</ele><time>2026-04-12T08:03:33.001Z</time></trkpt><trkpt lat="38.09110786694874" lon="13.22009127002012"><ele>729.0</ele><time>2026-04-12T08:03:34.001Z</time></trkpt><trkpt lat="38.09100807403323" lon="13.220078605900778"><ele>729.0</ele><time>2026-04-12T08:03:35.001Z</time></trkpt><trkpt lat="38.09092572292391" lon="13.220096243673085"><ele>729.0</ele><time>2026-04-12T08:03:36.001Z</time></trkpt><trkpt lat="38.09083853346725" lon="13.220090911393143"><ele>729.0</ele><time>2026-04-12T08:03:37.001Z</time></trkpt><trkpt lat="38.09075591202226" lon="13.220097928567155"><ele>729.0</ele><time>2026-04-12T08:03:38.001Z</time></trkpt><trkpt lat="38.09064179231302" lon="13.220071347704852"><ele>731.7142857142858</ele><time>2026-04-12T08:03:40.001Z</time></trkpt><trkpt lat="38.09059592919933" lon="13.2200021470052"><ele>734.4285714285713</ele><time>2026-04-12T08:03:41.001Z</time></trkpt><trkpt lat="38.09052847736417" lon="13.21996619202778"><ele>737.1428571428571</ele><time>2026-04-12T08:03:42.001Z</time></trkpt><trkpt lat="38.0904646591824" lon="13.219937515443299"><ele>739.8571428571429</ele><time>2026-04-12T08:03:43.001Z</time></trkpt><trkpt lat="38.090400367104436" lon="13.21990976686521"><ele>742.5714285714287</ele><time>2026-04-12T08:03:44.001Z</time></trkpt><trkpt lat="38.09031541564833" lon="13.219854441817176"><ele>745.2857142857142</ele><time>2026-04-12T08:03:46.001Z</time></trkpt><trkpt lat="38.090274668937155" lon="13.219785311522608"><ele>748.0</ele><time>2026-04-12T08:03:48.001Z</time></trkpt><trkpt lat="38.090380793130585" lon="13.219682470249289"><ele>747.8333333333334</ele><time>2026-04-12T08:03:49Z</time></trkpt><trkpt lat="38.09045178239406" lon="13.219649781852993"><ele>747.6666666666667</ele><time>2026-04-12T08:03:50Z</time></trkpt><trkpt lat="38.090539670503134" lon="13.219660086998296"><ele>747.5</ele><time>2026-04-12T08:03:51Z</time></trkpt><trkpt lat="38.09063614415759" lon="13.219651802982982"><ele>747.3333333333334</ele><time>2026-04-12T08:03:52Z</time></trkpt><trkpt lat="38.09073429452446" lon="13.21966906442146"><ele>747.1666666666666</ele><time>2026-04-12T08:03:53Z</time></trkpt><trkpt lat="38.090801518821344" lon="13.219650623193651"><ele>747.0</ele><time>2026-04-12T08:03:54Z</time></trkpt><trkpt lat="38.09086912583297" lon="13.219587445842164"><ele>747.0</ele><time>2026-04-12T08:03:56Z</time></trkpt><trkpt lat="38.0908940724589" lon="13.219511527967907"><ele>747.0</ele><time>2026-04-12T08:03:57Z</time></trkpt><trkpt lat="38.09089936358685" lon="13.219392777337319"><ele>747.0</ele><time>2026-04-12T08:03:58Z</time></trkpt><trkpt lat="38.09091010111269" lon="13.219263462821122"><ele>747.0</ele><time>2026-04-12T08:03:59Z</time></trkpt><trkpt lat="38.090919558120554" lon="13.219151923908447"><ele>747.0</ele><time>2026-04-12T08:04:00Z</time></trkpt><trkpt lat="38.090961054903524" lon="13.219068644807388"><ele>747.0</ele><time>2026-04-12T08:04:01Z</time></trkpt><trkpt lat="38.09107380335265" lon="13.219000287638165"><ele>747.0</ele><time>2026-04-12T08:04:03Z</time></trkpt><trkpt lat="38.091150076579616" lon="13.219025190819462"><ele>747.0</ele><time>2026-04-12T08:04:04Z</time></trkpt><trkpt lat="38.09121632396823" lon="13.218988091724944"><ele>747.0</ele><time>2026-04-12T08:04:05Z</time></trkpt><trkpt lat="38.09128823675795" lon="13.218958502483456"><ele>747.0</ele><time>2026-04-12T08:04:06Z</time></trkpt><trkpt lat="38.091358015901726" lon="13.218921137989089"><ele>747.0</ele><time>2026-04-12T08:04:07Z</time></trkpt><trkpt lat="38.09141589826004" lon="13.21885556682445"><ele>747.0</ele><time>2026-04-12T08:04:08Z</time></trkpt><trkpt lat="38.09147792077492" lon="13.218774349748683"><ele>746.6666666666666</ele><time>2026-04-12T08:04:09Z</time></trkpt><trkpt lat="38.09153263811135" lon="13.218685450059336"><ele>746.3333333333334</ele><time>2026-04-12T08:04:10Z</time></trkpt><trkpt lat="38.09158011820297" lon="13.218566997260687"><ele>746.0</ele><time>2026-04-12T08:04:11Z</time></trkpt><trkpt lat="38.0915868217094" lon="13.218474729385852"><ele>745.6666666666667</ele><time>2026-04-12T08:04:12Z</time></trkpt><trkpt lat="38.091600437894805" lon="13.2183874587942"><ele>745.3333333333334</ele><time>2026-04-12T08:04:13Z</time></trkpt><trkpt lat="38.09157007382239" lon="13.21828753994606"><ele>745.0</ele><time>2026-04-12T08:04:14Z</time></trkpt><trkpt lat="38.09152685618843" lon="13.218195159377453"><ele>751.0</ele><time>2026-04-12T08:04:15Z</time></trkpt><trkpt lat="38.09147594717936" lon="13.218095824042587"><ele>757.0</ele><time>2026-04-12T08:04:16Z</time></trkpt><trkpt lat="38.09141527936896" lon="13.217986772733385"><ele>763.0</ele><time>2026-04-12T08:04:17Z</time></trkpt><trkpt lat="38.091354417374475" lon="13.217886001914886"><ele>769.0</ele><time>2026-04-12T08:04:18Z</time></trkpt><trkpt lat="38.09129007955695" lon="13.217790249747436"><ele>775.0</ele><time>2026-04-12T08:04:19Z</time></trkpt><trkpt lat="38.09121119906984" lon="13.217712776258832"><ele>775.0</ele><time>2026-04-12T08:04:20Z</time></trkpt><trkpt lat="38.091148924114776" lon="13.217615078114077"><ele>775.0</ele><time>2026-04-12T08:04:21Z</time></trkpt><trkpt lat="38.09108355622404" lon="13.21751679413167"><ele>775.0</ele><time>2026-04-12T08:04:22Z</time></trkpt><trkpt lat="38.09101759287796" lon="13.217420874346203"><ele>775.0</ele><time>2026-04-12T08:04:23Z</time></trkpt><trkpt lat="38.09096241373809" lon="13.217319922052415"><ele>775.0</ele><time>2026-04-12T08:04:24Z</time></trkpt><trkpt lat="38.090908926978045" lon="13.217208860377406"><ele>774.9999999999999</ele><time>2026-04-12T08:04:25Z</time></trkpt><trkpt lat="38.09084360774254" lon="13.217120728513695"><ele>775.0</ele><time>2026-04-12T08:04:26Z</time></trkpt><trkpt lat="38.09079549424736" lon="13.21702945577575"><ele>775.0</ele><time>2026-04-12T08:04:28Z</time></trkpt><trkpt lat="38.09073504155385" lon="13.217069006656217"><ele>775.0</ele><time>2026-04-12T08:04:29Z</time></trkpt><trkpt lat="38.0907408483095" lon="13.217179080758132"><ele>774.9999999999999</ele><time>2026-04-12T08:04:30Z</time></trkpt><trkpt lat="38.090774693802224" lon="13.21726666391207"><ele>775.0</ele><time>2026-04-12T08:04:31Z</time></trkpt><trkpt lat="38.090789800708244" lon="13.217405177460073"><ele>775.0</ele><time>2026-04-12T08:04:32Z</time></trkpt><trkpt lat="38.09081232926393" lon="13.2175374910508"><ele>775.0</ele><time>2026-04-12T08:04:33Z</time></trkpt><trkpt lat="38.090868679835005" lon="13.217681296080748"><ele>775.0</ele><time>2026-04-12T08:04:34Z</time></trkpt><trkpt lat="38.09090875894954" lon="13.217814616020691"><ele>775.0</ele><time>2026-04-12T08:04:35Z</time></trkpt><trkpt lat="38.090938570579176" lon="13.217919463985622"><ele>775.0</ele><time>2026-04-12T08:04:36Z</time></trkpt><trkpt lat="38.09094695449067" lon="13.218000864336016"><ele>774.9999999999999</ele><time>2026-04-12T08:04:37Z</time></trkpt><trkpt lat="38.0908996551818" lon="13.218088545062733"><ele>775.0</ele><time>2026-04-12T08:04:39Z</time></trkpt><trkpt lat="38.09080292890456" lon="13.218052968985702"><ele>775.0</ele><time>2026-04-12T08:04:41Z</time></trkpt><trkpt lat="38.090687953092335" lon="13.218078876177168"><ele>775.0</ele><time>2026-04-12T08:04:43Z</time></trkpt><trkpt lat="38.090624649126546" lon="13.218076191251907"><ele>774.9999999999999</ele><time>2026-04-12T08:04:44Z</time></trkpt><trkpt lat="38.09055331878704" lon="13.21810133958266"><ele>775.0</ele><time>2026-04-12T08:04:45Z</time></trkpt><trkpt lat="38.09048790626603" lon="13.21814849643119"><ele>780.4</ele><time>2026-04-12T08:04:46Z</time></trkpt><trkpt lat="38.09042238058241" lon="13.21822127617167"><ele>785.8</ele><time>2026-04-12T08:04:47Z</time></trkpt><trkpt lat="38.090366798438694" lon="13.218300679855082"><ele>791.2</ele><time>2026-04-12T08:04:48Z</time></trkpt><trkpt lat="38.09031669521762" lon="13.218387778160197"><ele>796.6</ele><time>2026-04-12T08:04:49Z</time></trkpt><trkpt lat="38.09024572378782" lon="13.218481211534664"><ele>802.0</ele><time>2026-04-12T08:04:50.001Z</time></trkpt><trkpt lat="38.09017828205842" lon="13.218571131537951"><ele>801.9999999999999</ele><time>2026-04-12T08:04:51.001Z</time></trkpt><trkpt lat="38.090119914391536" lon="13.218622706358541"><ele>802.0</ele><time>2026-04-12T08:04:52.001Z</time></trkpt><trkpt lat="38.090014774651344" lon="13.218671273625358"><ele>802.0</ele><time>2026-04-12T08:04:54.001Z</time></trkpt><trkpt lat="38.089944423579226" lon="13.218662126029695"><ele>802.0</ele><time>2026-04-12T08:04:55.001Z</time></trkpt><trkpt lat="38.0899001667682" lon="13.218592637317686"><ele>801.9999999999999</ele><time>2026-04-12T08:04:56.001Z</time></trkpt><trkpt lat="38.08982866347021" lon="13.218546031016489"><ele>802.0</ele><time>2026-04-12T08:04:57.001Z</time></trkpt><trkpt lat="38.089745762451116" lon="13.2185191954341"><ele>803.9999999999999</ele><time>2026-04-12T08:04:58.001Z</time></trkpt><trkpt lat="38.08966119159701" lon="13.218483699038869"><ele>806.0</ele><time>2026-04-12T08:04:59.001Z</time></trkpt><trkpt lat="38.08957400611467" lon="13.218457127304571"><ele>808.0</ele><time>2026-04-12T08:05:00.001Z</time></trkpt><trkpt lat="38.089497463757844" lon="13.218448952320044"><ele>810.0</ele><time>2026-04-12T08:05:01.001Z</time></trkpt><trkpt lat="38.08942465251904" lon="13.218455554090898"><ele>811.9999999999999</ele><time>2026-04-12T08:05:02.001Z</time></trkpt><trkpt lat="38.08935442089419" lon="13.218481517351302"><ele>814.0</ele><time>2026-04-12T08:05:03.001Z</time></trkpt><trkpt lat="38.089289801083346" lon="13.21852421576394"><ele>814.0</ele><time>2026-04-12T08:05:04.001Z</time></trkpt><trkpt lat="38.089232171394045" lon="13.218585109784048"><ele>814.0</ele><time>2026-04-12T08:05:05.001Z</time></trkpt><trkpt lat="38.08918790207667" lon="13.218660888719398"><ele>814.0</ele><time>2026-04-12T08:05:06.001Z</time></trkpt><trkpt lat="38.08912277837789" lon="13.218718020875977"><ele>814.0</ele><time>2026-04-12T08:05:07.001Z</time></trkpt><trkpt lat="38.089039583954055" lon="13.218827902299147"><ele>814.0</ele><time>2026-04-12T08:05:09.001Z</time></trkpt><trkpt lat="38.08895160750504" lon="13.218945472099774"><ele>815.0000000000001</ele><time>2026-04-12T08:05:11.001Z</time></trkpt><trkpt lat="38.088905400276296" lon="13.219017439419849"><ele>816.0</ele><time>2026-04-12T08:05:12.001Z</time></trkpt><trkpt lat="38.08887204908564" lon="13.219091041301299"><ele>817.0</ele><time>2026-04-12T08:05:13.001Z</time></trkpt><trkpt lat="38.08884640015525" lon="13.219173519318945"><ele>818.0</ele><time>2026-04-12T08:05:14.001Z</time></trkpt><trkpt lat="38.088802809838676" lon="13.219235695142672"><ele>819.0</ele><time>2026-04-12T08:05:15.001Z</time></trkpt><trkpt lat="38.088745694823395" lon="13.21929022356279"><ele>820.0000000000001</ele><time>2026-04-12T08:05:16.001Z</time></trkpt><trkpt lat="38.08868332585299" lon="13.219333369829993"><ele>821.0</ele><time>2026-04-12T08:05:17.001Z</time></trkpt><trkpt lat="38.08862044232061" lon="13.21938044320169"><ele>821.0000000000001</ele><time>2026-04-12T08:05:18.001Z</time></trkpt><trkpt lat="38.088571264514755" lon="13.219455382933697"><ele>821.0</ele><time>2026-04-12T08:05:19.001Z</time></trkpt><trkpt lat="38.08853857593426" lon="13.219550389225635"><ele>821.0</ele><time>2026-04-12T08:05:20.001Z</time></trkpt><trkpt lat="38.08852624020061" lon="13.219654854684801"><ele>821.0</ele><time>2026-04-12T08:05:21.001Z</time></trkpt><trkpt lat="38.08849006565434" lon="13.219761194484542"><ele>821.0000000000001</ele><time>2026-04-12T08:05:22.001Z</time></trkpt><trkpt lat="38.08844927613498" lon="13.219852799497819"><ele>821.0</ele><time>2026-04-12T08:05:23.001Z</time></trkpt><trkpt lat="38.08840805132371" lon="13.219948852198884"><ele>820.0000000000001</ele><time>2026-04-12T08:05:24.001Z</time></trkpt><trkpt lat="38.088389011095785" lon="13.220052499751345"><ele>819.0</ele><time>2026-04-12T08:05:25.001Z</time></trkpt><trkpt lat="38.08836877729893" lon="13.22014186633758"><ele>818.0</ele><time>2026-04-12T08:05:26.001Z</time></trkpt><trkpt lat="38.08838481421127" lon="13.220240789123801"><ele>817.0</ele><time>2026-04-12T08:05:27.001Z</time></trkpt><trkpt lat="38.08842680442718" lon="13.220357752856339"><ele>816.0000000000001</ele><time>2026-04-12T08:05:28.001Z</time></trkpt><trkpt lat="38.08848790176468" lon="13.220473482215597"><ele>815.0</ele><time>2026-04-12T08:05:29.001Z</time></trkpt><trkpt lat="38.08855505564576" lon="13.220592259663857"><ele>817.5</ele><time>2026-04-12T08:05:30.001Z</time></trkpt><trkpt lat="38.08861191594945" lon="13.220720025236758"><ele>820.0</ele><time>2026-04-12T08:05:31.001Z</time></trkpt><trkpt lat="38.08869504727767" lon="13.220837920885172"><ele>822.5</ele><time>2026-04-12T08:05:32.001Z</time></trkpt><trkpt lat="38.08876488363945" lon="13.22096923941992"><ele>825.0</ele><time>2026-04-12T08:05:33.001Z</time></trkpt><trkpt lat="38.088851819907866" lon="13.221074813147014"><ele>825.0</ele><time>2026-04-12T08:05:34.001Z</time></trkpt><trkpt lat="38.08894996831147" lon="13.221163729565564"><ele>825.0</ele><time>2026-04-12T08:05:35.001Z</time></trkpt><trkpt lat="38.08905986518524" lon="13.221243664825941"><ele>825.0</ele><time>2026-04-12T08:05:36.001Z</time></trkpt><trkpt lat="38.08913819432767" lon="13.221336543837316"><ele>825.0</ele><time>2026-04-12T08:05:37.001Z</time></trkpt><trkpt lat="38.089216582845346" lon="13.221405269679083"><ele>822.5</ele><time>2026-04-12T08:05:38.001Z</time></trkpt><trkpt lat="38.08926911257589" lon="13.221472083477456"><ele>820.0</ele><time>2026-04-12T08:05:39.001Z</time></trkpt><trkpt lat="38.08930125803329" lon="13.221542126099354"><ele>817.5</ele><time>2026-04-12T08:05:40.001Z</time></trkpt><trkpt lat="38.08927772024969" lon="13.221653713379098"><ele>815.0</ele><time>2026-04-12T08:05:41.001Z</time></trkpt><trkpt lat="38.08928880112478" lon="13.221752478011743"><ele>812.5</ele><time>2026-04-12T08:05:42.001Z</time></trkpt><trkpt lat="38.08933258932229" lon="13.22183797544217"><ele>810.0</ele><time>2026-04-12T08:05:43.001Z</time></trkpt><trkpt lat="38.08940458737512" lon="13.221888386589475"><ele>810.0</ele><time>2026-04-12T08:05:44.001Z</time></trkpt><trkpt lat="38.08949370062054" lon="13.221913208727445"><ele>810.0</ele><time>2026-04-12T08:05:45.001Z</time></trkpt><trkpt lat="38.08958613496686" lon="13.221927834067854"><ele>810.0</ele><time>2026-04-12T08:05:46.001Z</time></trkpt><trkpt lat="38.08967888953014" lon="13.221920726914169"><ele>810.0</ele><time>2026-04-12T08:05:47.001Z</time></trkpt><trkpt lat="38.08975403705393" lon="13.221904153362386"><ele>810.0</ele><time>2026-04-12T08:05:48.001Z</time></trkpt><trkpt lat="38.08981380108397" lon="13.22193812543092"><ele>810.0</ele><time>2026-04-12T08:05:49.001Z</time></trkpt><trkpt lat="38.08988555716006" lon="13.221995895761296"><ele>808.8333333333334</ele><time>2026-04-12T08:05:50.001Z</time></trkpt><trkpt lat="38.08994987581225" lon="13.222051784605688"><ele>807.6666666666667</ele><time>2026-04-12T08:05:51.001Z</time></trkpt><trkpt lat="38.090001989536376" lon="13.22213058904015"><ele>806.5</ele><time>2026-04-12T08:05:52.001Z</time></trkpt><trkpt lat="38.0900237087424" lon="13.222223245842127"><ele>805.3333333333334</ele><time>2026-04-12T08:05:53.001Z</time></trkpt><trkpt lat="38.09004887961867" lon="13.222305059707942"><ele>804.1666666666667</ele><time>2026-04-12T08:05:54.001Z</time></trkpt><trkpt lat="38.09007266448663" lon="13.222404635118298"><ele>803.0</ele><time>2026-04-12T08:05:55Z</time></trkpt><trkpt lat="38.09007885530997" lon="13.222534274944909"><ele>803.0</ele><time>2026-04-12T08:05:56Z</time></trkpt><trkpt lat="38.09011432021781" lon="13.222681324714154"><ele>803.0</ele><time>2026-04-12T08:05:57Z</time></trkpt><trkpt lat="38.090109796264166" lon="13.222793165781797"><ele>803.0</ele><time>2026-04-12T08:05:58Z</time></trkpt><trkpt lat="38.09010343977486" lon="13.222882206077648"><ele>803.0</ele><time>2026-04-12T08:06:00Z</time></trkpt><trkpt lat="38.08998503523141" lon="13.222862413228023"><ele>803.0</ele><time>2026-04-12T08:06:02Z</time></trkpt><trkpt lat="38.0898972144548" lon="13.222821540217405"><ele>804.0</ele><time>2026-04-12T08:06:03Z</time></trkpt><trkpt lat="38.089782665131324" lon="13.222823078253576"><ele>805.0</ele><time>2026-04-12T08:06:04Z</time></trkpt><trkpt lat="38.08966030908117" lon="13.222782668410868"><ele>806.0</ele><time>2026-04-12T08:06:05Z</time></trkpt><trkpt lat="38.08955084017337" lon="13.222760280615923"><ele>807.0</ele><time>2026-04-12T08:06:06Z</time></trkpt><trkpt lat="38.08944276434611" lon="13.222694337917726"><ele>807.0</ele><time>2026-04-12T08:06:07Z</time></trkpt><trkpt lat="38.08929341367918" lon="13.222658866336705"><ele>807.0</ele><time>2026-04-12T08:06:08Z</time></trkpt><trkpt lat="38.089149594615066" lon="13.222613570305647"><ele>807.0</ele><time>2026-04-12T08:06:09Z</time></trkpt><trkpt lat="38.089039930902175" lon="13.222552996975951"><ele>807.0</ele><time>2026-04-12T08:06:10Z</time></trkpt><trkpt lat="38.08895259006223" lon="13.222501514293477"><ele>806.2</ele><time>2026-04-12T08:06:11Z</time></trkpt><trkpt lat="38.08886981131775" lon="13.222442627301701"><ele>805.4000000000001</ele><time>2026-04-12T08:06:12Z</time></trkpt><trkpt lat="38.088790371211" lon="13.222386913980833"><ele>804.5999999999999</ele><time>2026-04-12T08:06:13Z</time></trkpt><trkpt lat="38.08871039174211" lon="13.222356846598293"><ele>803.8</ele><time>2026-04-12T08:06:14Z</time></trkpt><trkpt lat="38.08863746999597" lon="13.222304640193236"><ele>803.0</ele><time>2026-04-12T08:06:15Z</time></trkpt><trkpt lat="38.088538937080486" lon="13.222272326136292"><ele>803.0</ele><time>2026-04-12T08:06:16Z</time></trkpt><trkpt lat="38.088431708595955" lon="13.222252287344228"><ele>803.0</ele><time>2026-04-12T08:06:17Z</time></trkpt><trkpt lat="38.08831507216487" lon="13.222307591046938"><ele>803.0</ele><time>2026-04-12T08:06:18Z</time></trkpt><trkpt lat="38.088212897019034" lon="13.222310896251537"><ele>803.0</ele><time>2026-04-12T08:06:19Z</time></trkpt><trkpt lat="38.08812630303914" lon="13.22232069233341"><ele>803.0</ele><time>2026-04-12T08:06:20Z</time></trkpt><trkpt lat="38.08803840475835" lon="13.222326010278877"><ele>803.0000000000001</ele><time>2026-04-12T08:06:21Z</time></trkpt><trkpt lat="38.087942478799256" lon="13.222324463143464"><ele>803.0</ele><time>2026-04-12T08:06:22Z</time></trkpt><trkpt lat="38.087851358729004" lon="13.222309633837282"><ele>803.0</ele><time>2026-04-12T08:06:23Z</time></trkpt><trkpt lat="38.08776872193649" lon="13.222288377451024"><ele>803.0</ele><time>2026-04-12T08:06:24Z</time></trkpt><trkpt lat="38.08768698649257" lon="13.222262070331576"><ele>803.0000000000001</ele><time>2026-04-12T08:06:25Z</time></trkpt><trkpt lat="38.08760838140972" lon="13.222233605435887"><ele>803.0</ele><time>2026-04-12T08:06:26Z</time></trkpt><trkpt lat="38.08752287151787" lon="13.222197059326225"><ele>807.0000000000001</ele><time>2026-04-12T08:06:27Z</time></trkpt><trkpt lat="38.087433113177006" lon="13.22216470031017"><ele>811.0</ele><time>2026-04-12T08:06:28Z</time></trkpt><trkpt lat="38.08736643345" lon="13.222121695882027"><ele>815.0</ele><time>2026-04-12T08:06:29Z</time></trkpt><trkpt lat="38.08729502461782" lon="13.222074586257687"><ele>819.0</ele><time>2026-04-12T08:06:30Z</time></trkpt><trkpt lat="38.08722524423416" lon="13.222052797161313"><ele>823.0000000000001</ele><time>2026-04-12T08:06:31Z</time></trkpt><trkpt lat="38.087153342293135" lon="13.222038411807208"><ele>827.0</ele><time>2026-04-12T08:06:32Z</time></trkpt><trkpt lat="38.08708152243266" lon="13.222033637935455"><ele>827.0000000000001</ele><time>2026-04-12T08:06:33Z</time></trkpt><trkpt lat="38.08701811546699" lon="13.22203616532353"><ele>827.0</ele><time>2026-04-12T08:06:34Z</time></trkpt><trkpt lat="38.086951131244604" lon="13.222047952225592"><ele>827.0</ele><time>2026-04-12T08:06:35Z</time></trkpt><trkpt lat="38.08688706016131" lon="13.222071022035886"><ele>827.0</ele><time>2026-04-12T08:06:36Z</time></trkpt><trkpt lat="38.08681459425338" lon="13.222082815609921"><ele>827.0000000000001</ele><time>2026-04-12T08:06:37Z</time></trkpt><trkpt lat="38.086729763230665" lon="13.222121334681077"><ele>827.0</ele><time>2026-04-12T08:06:38Z</time></trkpt><trkpt lat="38.086647280031514" lon="13.222183391042277"><ele>825.6</ele><time>2026-04-12T08:06:39Z</time></trkpt><trkpt lat="38.08655354454005" lon="13.222225484686742"><ele>824.2</ele><time>2026-04-12T08:06:40Z</time></trkpt><trkpt lat="38.08645254022631" lon="13.222239719378505"><ele>822.8</ele><time>2026-04-12T08:06:41Z</time></trkpt><trkpt lat="38.08635887639774" lon="13.222255645211199"><ele>821.4</ele><time>2026-04-12T08:06:42Z</time></trkpt><trkpt lat="38.086268333083545" lon="13.222290062508378"><ele>820.0</ele><time>2026-04-12T08:06:43Z</time></trkpt><trkpt lat="38.08617744612294" lon="13.222304906159584"><ele>818.0</ele><time>2026-04-12T08:06:44Z</time></trkpt><trkpt lat="38.08608619947441" lon="13.222359370340746"><ele>816.0</ele><time>2026-04-12T08:06:45Z</time></trkpt><trkpt lat="38.086016077147995" lon="13.222435225982286"><ele>814.0</ele><time>2026-04-12T08:06:46Z</time></trkpt><trkpt lat="38.08596302472655" lon="13.22254792613217"><ele>812.0</ele><time>2026-04-12T08:06:47Z</time></trkpt><trkpt lat="38.08586655528318" lon="13.222588788204252"><ele>810.0</ele><time>2026-04-12T08:06:48Z</time></trkpt><trkpt lat="38.08576458525037" lon="13.22264923386951"><ele>812.25</ele><time>2026-04-12T08:06:49Z</time></trkpt><trkpt lat="38.085657492168714" lon="13.22271205997081"><ele>814.5</ele><time>2026-04-12T08:06:50Z</time></trkpt><trkpt lat="38.085553572371516" lon="13.22279260382992"><ele>816.75</ele><time>2026-04-12T08:06:51Z</time></trkpt><trkpt lat="38.08544723486792" lon="13.222867750904692"><ele>819.0</ele><time>2026-04-12T08:06:52Z</time></trkpt><trkpt lat="38.085346387508146" lon="13.222938673869676"><ele>819.0</ele><time>2026-04-12T08:06:53Z</time></trkpt><trkpt lat="38.085254301580434" lon="13.223030857024307"><ele>819.0</ele><time>2026-04-12T08:06:54Z</time></trkpt><trkpt lat="38.08517149976634" lon="13.223156782815366"><ele>819.0</ele><time>2026-04-12T08:06:55Z</time></trkpt><trkpt lat="38.085115897379964" lon="13.223277326839165"><ele>819.0</ele><time>2026-04-12T08:06:56Z</time></trkpt><trkpt lat="38.08506037103831" lon="13.223379249185275"><ele>819.4000000000001</ele><time>2026-04-12T08:06:57Z</time></trkpt><trkpt lat="38.085015324032895" lon="13.223478802202745"><ele>819.8</ele><time>2026-04-12T08:06:58Z</time></trkpt><trkpt lat="38.08498297004447" lon="13.223582181052073"><ele>820.2</ele><time>2026-04-12T08:06:59Z</time></trkpt><trkpt lat="38.084951755486856" lon="13.22368359468483"><ele>820.5999999999999</ele><time>2026-04-12T08:07:00Z</time></trkpt><trkpt lat="38.08492504788623" lon="13.223796671325525"><ele>821.0</ele><time>2026-04-12T08:07:01Z</time></trkpt><trkpt lat="38.08490544700707" lon="13.22392019411558"><ele>827.8</ele><time>2026-04-12T08:07:02Z</time></trkpt><trkpt lat="38.08491591935322" lon="13.224055177642146"><ele>834.5999999999999</ele><time>2026-04-12T08:07:03Z</time></trkpt><trkpt lat="38.08490828705481" lon="13.224171996897772"><ele>841.4</ele><time>2026-04-12T08:07:04Z</time></trkpt><trkpt lat="38.08488686259656" lon="13.224274162310563"><ele>848.2</ele><time>2026-04-12T08:07:05Z</time></trkpt><trkpt lat="38.084861170537884" lon="13.224396311171766"><ele>855.0</ele><time>2026-04-12T08:07:06Z</time></trkpt><trkpt lat="38.08484151209136" lon="13.224509935713636"><ele>855.0</ele><time>2026-04-12T08:07:07Z</time></trkpt><trkpt lat="38.084825711461974" lon="13.224595187895247"><ele>855.0</ele><time>2026-04-12T08:07:08Z</time></trkpt><trkpt lat="38.08479273018795" lon="13.224703105817781"><ele>855.0</ele><time>2026-04-12T08:07:09Z</time></trkpt><trkpt lat="38.08476741439347" lon="13.224787591078254"><ele>855.0</ele><time>2026-04-12T08:07:10Z</time></trkpt><trkpt lat="38.08472542318378" lon="13.224872513155102"><ele>855.0</ele><time>2026-04-12T08:07:11.001Z</time></trkpt><trkpt lat="38.08466556685219" lon="13.224954149071065"><ele>855.0</ele><time>2026-04-12T08:07:12.001Z</time></trkpt><trkpt lat="38.08459762521934" lon="13.225039561813103"><ele>855.6666666666666</ele><time>2026-04-12T08:07:13.001Z</time></trkpt><trkpt lat="38.08454304232168" lon="13.225130733512218"><ele>856.3333333333333</ele><time>2026-04-12T08:07:14.001Z</time></trkpt><trkpt lat="38.08450876965841" lon="13.225220328814911"><ele>857.0</ele><time>2026-04-12T08:07:15.001Z</time></trkpt><trkpt lat="38.08448209909347" lon="13.225318792575413"><ele>857.6666666666666</ele><time>2026-04-12T08:07:16.001Z</time></trkpt><trkpt lat="38.08448054022684" lon="13.225408102514463"><ele>858.3333333333333</ele><time>2026-04-12T08:07:17.001Z</time></trkpt><trkpt lat="38.08444935627076" lon="13.225498478489857"><ele>859.0</ele><time>2026-04-12T08:07:19.001Z</time></trkpt><trkpt lat="38.084362610750205" lon="13.225425489741886"><ele>858.9999999999999</ele><time>2026-04-12T08:07:22.001Z</time></trkpt><trkpt lat="38.084386140872304" lon="13.225346754755922"><ele>859.0</ele><time>2026-04-12T08:07:23.001Z</time></trkpt><trkpt lat="38.08439661206944" lon="13.225257919018862"><ele>859.0</ele><time>2026-04-12T08:07:24.001Z</time></trkpt><trkpt lat="38.08440619980187" lon="13.225140922264957"><ele>859.0</ele><time>2026-04-12T08:07:25.001Z</time></trkpt><trkpt lat="38.08441746161737" lon="13.225015372174237"><ele>858.9999999999999</ele><time>2026-04-12T08:07:26.001Z</time></trkpt><trkpt lat="38.08442478081555" lon="13.224910074215675"><ele>859.0</ele><time>2026-04-12T08:07:27.001Z</time></trkpt><trkpt lat="38.08438482442531" lon="13.224835109803308"><ele>859.0</ele><time>2026-04-12T08:07:30.001Z</time></trkpt><trkpt lat="38.0843035684523" lon="13.224931022446512"><ele>859.0000000000001</ele><time>2026-04-12T08:07:32.001Z</time></trkpt><trkpt lat="38.084284851118966" lon="13.225026988713427"><ele>859.0000000000001</ele><time>2026-04-12T08:07:33.001Z</time></trkpt><trkpt lat="38.08425319471186" lon="13.225132253569324"><ele>859.0</ele><time>2026-04-12T08:07:34.001Z</time></trkpt><trkpt lat="38.08422150852994" lon="13.225278333309282"><ele>859.0</ele><time>2026-04-12T08:07:36.001Z</time></trkpt><trkpt lat="38.08424456494921" lon="13.225411800955044"><ele>859.0</ele><time>2026-04-12T08:07:38.001Z</time></trkpt><trkpt lat="38.08423025170272" lon="13.225492850920443"><ele>859.0000000000001</ele><time>2026-04-12T08:07:39.001Z</time></trkpt><trkpt lat="38.084218792034264" lon="13.225604964439002"><ele>859.0000000000001</ele><time>2026-04-12T08:07:41.001Z</time></trkpt><trkpt lat="38.08414127129745" lon="13.225698676006356"><ele>859.0</ele><time>2026-04-12T08:07:43.001Z</time></trkpt><trkpt lat="38.0841107751288" lon="13.225846112409082"><ele>859.0</ele><time>2026-04-12T08:07:45.001Z</time></trkpt><trkpt lat="38.08412924883123" lon="13.225934102361634"><ele>858.6</ele><time>2026-04-12T08:07:46.001Z</time></trkpt><trkpt lat="38.08414747215574" lon="13.22602693830754"><ele>858.2</ele><time>2026-04-12T08:07:47.001Z</time></trkpt><trkpt lat="38.08415036495873" lon="13.22615773667199"><ele>857.8000000000001</ele><time>2026-04-12T08:07:48.001Z</time></trkpt><trkpt lat="38.084143073987114" lon="13.226281756996604"><ele>857.4000000000001</ele><time>2026-04-12T08:07:49.001Z</time></trkpt><trkpt lat="38.084175783743085" lon="13.226400427080465"><ele>857.0</ele><time>2026-04-12T08:07:50.001Z</time></trkpt><trkpt lat="38.0841799808924" lon="13.22649864447336"><ele>857.0</ele><time>2026-04-12T08:07:51.001Z</time></trkpt><trkpt lat="38.08419630131267" lon="13.226601859228994"><ele>857.0</ele><time>2026-04-12T08:07:52.001Z</time></trkpt><trkpt lat="38.08423200469547" lon="13.226722385484488"><ele>857.0</ele><time>2026-04-12T08:07:53.001Z</time></trkpt><trkpt lat="38.084272599648884" lon="13.226835454553004"><ele>857.0</ele><time>2026-04-12T08:07:54.001Z</time></trkpt><trkpt lat="38.08429125914255" lon="13.226958581077524"><ele>857.0</ele><time>2026-04-12T08:07:55.001Z</time></trkpt><trkpt lat="38.08433898695774" lon="13.22705370943839"><ele>857.0</ele><time>2026-04-12T08:07:56.001Z</time></trkpt><trkpt lat="38.08441444534135" lon="13.227124329674607"><ele>857.0</ele><time>2026-04-12T08:07:57.001Z</time></trkpt><trkpt lat="38.0844840295442" lon="13.227182330791152"><ele>857.0</ele><time>2026-04-12T08:07:58.001Z</time></trkpt><trkpt lat="38.08456862535703" lon="13.227248627395388"><ele>857.0</ele><time>2026-04-12T08:07:59.001Z</time></trkpt><trkpt lat="38.08464821097165" lon="13.227298265903334"><ele>857.0</ele><time>2026-04-12T08:08:00.001Z</time></trkpt><trkpt lat="38.084737310110064" lon="13.227360796028018"><ele>857.2</ele><time>2026-04-12T08:08:01Z</time></trkpt><trkpt lat="38.08482108375053" lon="13.22741449935957"><ele>857.4000000000001</ele><time>2026-04-12T08:08:02Z</time></trkpt><trkpt lat="38.08490996690837" lon="13.22747168144301"><ele>857.5999999999999</ele><time>2026-04-12T08:08:03Z</time></trkpt><trkpt lat="38.08501553089806" lon="13.227534434564092"><ele>857.8</ele><time>2026-04-12T08:08:04Z</time></trkpt><trkpt lat="38.08511492083225" lon="13.22757796412461"><ele>858.0</ele><time>2026-04-12T08:08:05Z</time></trkpt><trkpt lat="38.08519759817442" lon="13.22758853984919"><ele>858.0</ele><time>2026-04-12T08:08:06Z</time></trkpt><trkpt lat="38.08527114467383" lon="13.227630884099785"><ele>858.0</ele><time>2026-04-12T08:08:07Z</time></trkpt><trkpt lat="38.085363765351275" lon="13.22774127134014"><ele>858.0</ele><time>2026-04-12T08:08:09Z</time></trkpt><trkpt lat="38.085407042001016" lon="13.227857962753543"><ele>858.0</ele><time>2026-04-12T08:08:10Z</time></trkpt><trkpt lat="38.08546588477399" lon="13.227951062283854"><ele>858.0</ele><time>2026-04-12T08:08:11Z</time></trkpt><trkpt lat="38.08554651051596" lon="13.228026288654634"><ele>858.0</ele><time>2026-04-12T08:08:12Z</time></trkpt><trkpt lat="38.08563757078062" lon="13.228103351845833"><ele>858.0</ele><time>2026-04-12T08:08:13Z</time></trkpt><trkpt lat="38.08569564692009" lon="13.228196670172313"><ele>858.0</ele><time>2026-04-12T08:08:14Z</time></trkpt><trkpt lat="38.08575384930357" lon="13.228288976210393"><ele>858.0</ele><time>2026-04-12T08:08:15Z</time></trkpt><trkpt lat="38.08582650759853" lon="13.228397493814184"><ele>858.0</ele><time>2026-04-12T08:08:16Z</time></trkpt><trkpt lat="38.085898410482244" lon="13.22852937907876"><ele>859.8</ele><time>2026-04-12T08:08:17Z</time></trkpt><trkpt lat="38.085956109011136" lon="13.228644250996137"><ele>861.5999999999999</ele><time>2026-04-12T08:08:18Z</time></trkpt><trkpt lat="38.085990875972016" lon="13.228780745391745"><ele>863.4000000000001</ele><time>2026-04-12T08:08:19Z</time></trkpt><trkpt lat="38.08605068350622" lon="13.228887261073316"><ele>865.2</ele><time>2026-04-12T08:08:20Z</time></trkpt><trkpt lat="38.086084983491475" lon="13.228988468665772"><ele>867.0</ele><time>2026-04-12T08:08:21Z</time></trkpt><trkpt lat="38.086113208690435" lon="13.22907472067647"><ele>872.3333333333334</ele><time>2026-04-12T08:08:22Z</time></trkpt><trkpt lat="38.08614733274094" lon="13.229153526079424"><ele>877.6666666666667</ele><time>2026-04-12T08:08:23Z</time></trkpt><trkpt lat="38.086190217027536" lon="13.22924320700613"><ele>883.0</ele><time>2026-04-12T08:08:24Z</time></trkpt><trkpt lat="38.08623077759379" lon="13.229330871431225"><ele>888.3333333333334</ele><time>2026-04-12T08:08:25Z</time></trkpt><trkpt lat="38.08626662944424" lon="13.229416136422525"><ele>893.6666666666667</ele><time>2026-04-12T08:08:26Z</time></trkpt><trkpt lat="38.08630735814872" lon="13.229510729620628"><ele>899.0</ele><time>2026-04-12T08:08:27Z</time></trkpt><trkpt lat="38.086357056511986" lon="13.229603686417537"><ele>899.0</ele><time>2026-04-12T08:08:28Z</time></trkpt><trkpt lat="38.086403396934514" lon="13.229710121934556"><ele>899.0000000000001</ele><time>2026-04-12T08:08:29Z</time></trkpt><trkpt lat="38.086454019053484" lon="13.22983424280752"><ele>899.0000000000001</ele><time>2026-04-12T08:08:30Z</time></trkpt><trkpt lat="38.08652364145071" lon="13.229950053236411"><ele>899.0</ele><time>2026-04-12T08:08:31Z</time></trkpt><trkpt lat="38.08661058352464" lon="13.230070377445333"><ele>899.0</ele><time>2026-04-12T08:08:32Z</time></trkpt><trkpt lat="38.08671387386956" lon="13.230176066643873"><ele>901.0</ele><time>2026-04-12T08:08:33Z</time></trkpt><trkpt lat="38.0868064476115" lon="13.23027696985714"><ele>903.0000000000001</ele><time>2026-04-12T08:08:34Z</time></trkpt><trkpt lat="38.08685720685298" lon="13.230376120025117"><ele>905.0000000000001</ele><time>2026-04-12T08:08:35Z</time></trkpt><trkpt lat="38.08689967491183" lon="13.230470472982242"><ele>907.0</ele><time>2026-04-12T08:08:36Z</time></trkpt><trkpt lat="38.086940030651235" lon="13.230559347395651"><ele>909.0</ele><time>2026-04-12T08:08:37Z</time></trkpt><trkpt lat="38.08695541893592" lon="13.23067839561637"><ele>909.0</ele><time>2026-04-12T08:08:38Z</time></trkpt><trkpt lat="38.08695391850661" lon="13.230767039960742"><ele>909.0000000000001</ele><time>2026-04-12T08:08:39Z</time></trkpt><trkpt lat="38.0869483559351" lon="13.230865094766203"><ele>909.0000000000001</ele><time>2026-04-12T08:08:40Z</time></trkpt><trkpt lat="38.08692948635381" lon="13.231001603616454"><ele>909.0</ele><time>2026-04-12T08:08:41Z</time></trkpt><trkpt lat="38.086942127659306" lon="13.23116583174062"><ele>909.0</ele><time>2026-04-12T08:08:42Z</time></trkpt><trkpt lat="38.086924428844014" lon="13.231324116593228"><ele>909.0</ele><time>2026-04-12T08:08:43Z</time></trkpt><trkpt lat="38.08693072445344" lon="13.231428747993895"><ele>909.0</ele><time>2026-04-12T08:08:44Z</time></trkpt><trkpt lat="38.08700259925377" lon="13.231514203609589"><ele>909.0</ele><time>2026-04-12T08:08:45Z</time></trkpt><trkpt lat="38.08705568928071" lon="13.231590723519325"><ele>909.0</ele><time>2026-04-12T08:08:46Z</time></trkpt><trkpt lat="38.08711646865885" lon="13.231668712957266"><ele>909.0</ele><time>2026-04-12T08:08:47Z</time></trkpt><trkpt lat="38.08719515014454" lon="13.231740602701544"><ele>909.0</ele><time>2026-04-12T08:08:48Z</time></trkpt><trkpt lat="38.08728784764965" lon="13.231803538303879"><ele>911.6</ele><time>2026-04-12T08:08:49Z</time></trkpt><trkpt lat="38.0873797488173" lon="13.231847740219438"><ele>914.2</ele><time>2026-04-12T08:08:50Z</time></trkpt><trkpt lat="38.08745680868848" lon="13.231914604354985"><ele>916.8000000000001</ele><time>2026-04-12T08:08:51Z</time></trkpt><trkpt lat="38.08750968945802" lon="13.231976327551614"><ele>919.4000000000001</ele><time>2026-04-12T08:08:52Z</time></trkpt><trkpt lat="38.08759913668409" lon="13.232074897552511"><ele>922.0</ele><time>2026-04-12T08:08:54Z</time></trkpt><trkpt lat="38.08764267599311" lon="13.232157415289457"><ele>920.4999999999999</ele><time>2026-04-12T08:08:55Z</time></trkpt><trkpt lat="38.087668144164056" lon="13.23227030826199"><ele>919.0</ele><time>2026-04-12T08:08:56Z</time></trkpt><trkpt lat="38.08769368748741" lon="13.232366201320593"><ele>917.5</ele><time>2026-04-12T08:08:57Z</time></trkpt><trkpt lat="38.08773220049607" lon="13.232456180354315"><ele>916.0</ele><time>2026-04-12T08:08:58Z</time></trkpt><trkpt lat="38.08776330750299" lon="13.232536122294404"><ele>914.4999999999999</ele><time>2026-04-12T08:08:59Z</time></trkpt><trkpt lat="38.08780678748407" lon="13.232598398805797"><ele>913.0</ele><time>2026-04-12T08:09:00Z</time></trkpt><trkpt lat="38.08785742865259" lon="13.232665442001144"><ele>912.9999999999999</ele><time>2026-04-12T08:09:01Z</time></trkpt><trkpt lat="38.087908927902824" lon="13.232720369364882"><ele>913.0</ele><time>2026-04-12T08:09:02Z</time></trkpt><trkpt lat="38.08797533891314" lon="13.232755008065514"><ele>913.0</ele><time>2026-04-12T08:09:03Z</time></trkpt><trkpt lat="38.08805336222833" lon="13.232870655724648"><ele>913.0</ele><time>2026-04-12T08:09:05Z</time></trkpt><trkpt lat="38.088110804527545" lon="13.232908418093722"><ele>912.9999999999999</ele><time>2026-04-12T08:09:06Z</time></trkpt><trkpt lat="38.088182523246516" lon="13.232995553188625"><ele>913.0</ele><time>2026-04-12T08:09:08Z</time></trkpt><trkpt lat="38.08823386688509" lon="13.233084175490777"><ele>910.3333333333333</ele><time>2026-04-12T08:09:10Z</time></trkpt><trkpt lat="38.088282156013776" lon="13.233159737766403"><ele>907.6666666666666</ele><time>2026-04-12T08:09:12Z</time></trkpt><trkpt lat="38.08833657070785" lon="13.233244323619271"><ele>905.0</ele><time>2026-04-12T08:09:14Z</time></trkpt><trkpt lat="38.08836580344616" lon="13.23332927143398"><ele>902.3333333333333</ele><time>2026-04-12T08:09:15Z</time></trkpt><trkpt lat="38.08840743113346" lon="13.233430436221752"><ele>899.6666666666666</ele><time>2026-04-12T08:09:16Z</time></trkpt><trkpt lat="38.088449636276984" lon="13.233532232730402"><ele>897.0</ele><time>2026-04-12T08:09:17Z</time></trkpt><trkpt lat="38.08848654224182" lon="13.233618373293796"><ele>897.0</ele><time>2026-04-12T08:09:18Z</time></trkpt><trkpt lat="38.088524404256525" lon="13.2336830544941"><ele>897.0</ele><time>2026-04-12T08:09:19Z</time></trkpt><trkpt lat="38.08855562946391" lon="13.233753528093539"><ele>897.0</ele><time>2026-04-12T08:09:20.001Z</time></trkpt><trkpt lat="38.08861661827039" lon="13.233886536289603"><ele>897.0</ele><time>2026-04-12T08:09:22.001Z</time></trkpt><trkpt lat="38.08865491910334" lon="13.233960133692522"><ele>897.0</ele><time>2026-04-12T08:09:23.001Z</time></trkpt><trkpt lat="38.08869146704753" lon="13.234029778462707"><ele>897.0</ele><time>2026-04-12T08:09:24.001Z</time></trkpt><trkpt lat="38.08873411893562" lon="13.234118883813357"><ele>899.3333333333334</ele><time>2026-04-12T08:09:25.001Z</time></trkpt><trkpt lat="38.0887729112924" lon="13.234217007457557"><ele>901.6666666666667</ele><time>2026-04-12T08:09:26.001Z</time></trkpt><trkpt lat="38.088823239264734" lon="13.234301850038024"><ele>904.0</ele><time>2026-04-12T08:09:27.001Z</time></trkpt><trkpt lat="38.08886187990808" lon="13.234405084462802"><ele>906.3333333333334</ele><time>2026-04-12T08:09:28.001Z</time></trkpt><trkpt lat="38.08891538927404" lon="13.23449884106398"><ele>908.6666666666667</ele><time>2026-04-12T08:09:29.001Z</time></trkpt><trkpt lat="38.08897839958699" lon="13.234593280939924"><ele>911.0</ele><time>2026-04-12T08:09:30.001Z</time></trkpt><trkpt lat="38.089041572896306" lon="13.234683677699433"><ele>908.8</ele><time>2026-04-12T08:09:31.001Z</time></trkpt><trkpt lat="38.08910250408245" lon="13.234775822615784"><ele>906.5999999999999</ele><time>2026-04-12T08:09:32.001Z</time></trkpt><trkpt lat="38.089164184527334" lon="13.234862015375324"><ele>904.4</ele><time>2026-04-12T08:09:33.001Z</time></trkpt><trkpt lat="38.0892259135106" lon="13.23494840586648"><ele>902.2</ele><time>2026-04-12T08:09:34.001Z</time></trkpt><trkpt lat="38.08928831343006" lon="13.235018211070342"><ele>900.0</ele><time>2026-04-12T08:09:35.001Z</time></trkpt><trkpt lat="38.08936047523596" lon="13.235093391451828"><ele>900.0</ele><time>2026-04-12T08:09:36.001Z</time></trkpt><trkpt lat="38.089442284506745" lon="13.235175042019707"><ele>900.0</ele><time>2026-04-12T08:09:37.001Z</time></trkpt><trkpt lat="38.08950927426348" lon="13.235266587750171"><ele>900.0</ele><time>2026-04-12T08:09:38.001Z</time></trkpt><trkpt lat="38.089561067435696" lon="13.23534386773065"><ele>900.0</ele><time>2026-04-12T08:09:39.001Z</time></trkpt><trkpt lat="38.08958314403724" lon="13.235430121069118"><ele>900.0</ele><time>2026-04-12T08:09:40.001Z</time></trkpt><trkpt lat="38.089622181755885" lon="13.235508507138018"><ele>900.0</ele><time>2026-04-12T08:09:41.001Z</time></trkpt><trkpt lat="38.089691895153535" lon="13.235530193810202"><ele>900.0</ele><time>2026-04-12T08:09:42.001Z</time></trkpt><trkpt lat="38.08975778835528" lon="13.235528523017418"><ele>900.0</ele><time>2026-04-12T08:09:43.001Z</time></trkpt><trkpt lat="38.08983523376524" lon="13.23547845894133"><ele>900.0</ele><time>2026-04-12T08:09:44.001Z</time></trkpt><trkpt lat="38.089933112311584" lon="13.235441060642612"><ele>900.0</ele><time>2026-04-12T08:09:45.001Z</time></trkpt><trkpt lat="38.09001428642535" lon="13.235351092659066"><ele>900.0</ele><time>2026-04-12T08:09:46.001Z</time></trkpt><trkpt lat="38.09007979996465" lon="13.235254898792876"><ele>899.2</ele><time>2026-04-12T08:09:47.001Z</time></trkpt><trkpt lat="38.09012203764625" lon="13.235132381085808"><ele>898.4</ele><time>2026-04-12T08:09:48.001Z</time></trkpt><trkpt lat="38.090163155202184" lon="13.235002688964988"><ele>897.5999999999999</ele><time>2026-04-12T08:09:49.001Z</time></trkpt><trkpt lat="38.09020866615764" lon="13.234910098992957"><ele>896.8</ele><time>2026-04-12T08:09:50.001Z</time></trkpt><trkpt lat="38.090276167859756" lon="13.234823517879045"><ele>896.0</ele><time>2026-04-12T08:09:51.001Z</time></trkpt><trkpt lat="38.09034348126471" lon="13.234771448595723"><ele>892.8333333333334</ele><time>2026-04-12T08:09:52.001Z</time></trkpt><trkpt lat="38.090421281067606" lon="13.234733030187332"><ele>889.6666666666667</ele><time>2026-04-12T08:09:53.001Z</time></trkpt><trkpt lat="38.09050355706711" lon="13.234699900655672"><ele>886.5</ele><time>2026-04-12T08:09:54.001Z</time></trkpt><trkpt lat="38.090570963064145" lon="13.23466610078449"><ele>883.3333333333333</ele><time>2026-04-12T08:09:55.001Z</time></trkpt><trkpt lat="38.0906446309023" lon="13.234648583261349"><ele>880.1666666666666</ele><time>2026-04-12T08:09:56.001Z</time></trkpt><trkpt lat="38.090731595683806" lon="13.234651587486244"><ele>877.0</ele><time>2026-04-12T08:09:57.001Z</time></trkpt><trkpt lat="38.090808869946095" lon="13.23466892309514"><ele>877.0000000000001</ele><time>2026-04-12T08:09:58.001Z</time></trkpt><trkpt lat="38.090873185105735" lon="13.234694284358762"><ele>877.0</ele><time>2026-04-12T08:09:59.001Z</time></trkpt><trkpt lat="38.090934715724" lon="13.234746836816054"><ele>877.0</ele><time>2026-04-12T08:10:00.001Z</time></trkpt><trkpt lat="38.090990761801336" lon="13.234791381990895"><ele>877.0</ele><time>2026-04-12T08:10:01.001Z</time></trkpt><trkpt lat="38.09104641627527" lon="13.234849025901323"><ele>877.0</ele><time>2026-04-12T08:10:02.001Z</time></trkpt><trkpt lat="38.0911033246265" lon="13.234914477517027"><ele>877.0000000000001</ele><time>2026-04-12T08:10:03.001Z</time></trkpt><trkpt lat="38.09115064802684" lon="13.234986971597476"><ele>877.0</ele><time>2026-04-12T08:10:04.001Z</time></trkpt><trkpt lat="38.09119292362247" lon="13.235068549528993"><ele>880.7142857142858</ele><time>2026-04-12T08:10:05.001Z</time></trkpt><trkpt lat="38.0912223115956" lon="13.2351522982921"><ele>884.4285714285714</ele><time>2026-04-12T08:10:06.001Z</time></trkpt><trkpt lat="38.0912554839737" lon="13.235238268885793"><ele>888.1428571428571</ele><time>2026-04-12T08:10:07Z</time></trkpt><trkpt lat="38.091290743483015" lon="13.235318084637369"><ele>891.8571428571429</ele><time>2026-04-12T08:10:08Z</time></trkpt><trkpt lat="38.091345758398546" lon="13.235393939553044"><ele>895.5714285714286</ele><time>2026-04-12T08:10:09Z</time></trkpt><trkpt lat="38.09138942723939" lon="13.235457814046402"><ele>899.2857142857143</ele><time>2026-04-12T08:10:10Z</time></trkpt><trkpt lat="38.09143858417205" lon="13.235519475540794"><ele>903.0</ele><time>2026-04-12T08:10:11Z</time></trkpt><trkpt lat="38.091509387366536" lon="13.235602351242495"><ele>901.8333333333334</ele><time>2026-04-12T08:10:13Z</time></trkpt><trkpt lat="38.091575260078635" lon="13.235674476777733"><ele>900.6666666666667</ele><time>2026-04-12T08:10:15Z</time></trkpt><trkpt lat="38.09163719897994" lon="13.235736273328417"><ele>899.5</ele><time>2026-04-12T08:10:17Z</time></trkpt><trkpt lat="38.091695335486385" lon="13.235773907817194"><ele>898.3333333333334</ele><time>2026-04-12T08:10:19Z</time></trkpt><trkpt lat="38.091771552785076" lon="13.235847603921782"><ele>897.1666666666667</ele><time>2026-04-12T08:10:21Z</time></trkpt><trkpt lat="38.091823176380174" lon="13.23590341833148"><ele>896.0</ele><time>2026-04-12T08:10:23Z</time></trkpt><trkpt lat="38.09201545631429" lon="13.235638067692266"><ele>892.5999999999999</ele><time>2026-04-12T08:10:25Z</time></trkpt><trkpt lat="38.09208152768269" lon="13.23561768125696"><ele>889.1999999999999</ele><time>2026-04-12T08:10:26Z</time></trkpt><trkpt lat="38.09217006257274" lon="13.235583054980635"><ele>885.8000000000001</ele><time>2026-04-12T08:10:27Z</time></trkpt><trkpt lat="38.09225712324692" lon="13.235534343845407"><ele>882.4000000000001</ele><time>2026-04-12T08:10:28Z</time></trkpt><trkpt lat="38.092342017886956" lon="13.23550144699824"><ele>879.0</ele><time>2026-04-12T08:10:29Z</time></trkpt><trkpt lat="38.09243847518985" lon="13.235441747073661"><ele>876.8000000000001</ele><time>2026-04-12T08:10:30Z</time></trkpt><trkpt lat="38.09251621131697" lon="13.235362145028812"><ele>874.6000000000001</ele><time>2026-04-12T08:10:31Z</time></trkpt><trkpt lat="38.092602338979376" lon="13.23528656102875"><ele>872.4</ele><time>2026-04-12T08:10:32Z</time></trkpt><trkpt lat="38.092690291709125" lon="13.235216485785307"><ele>870.2</ele><time>2026-04-12T08:10:33Z</time></trkpt><trkpt lat="38.092759181860814" lon="13.23518690663469"><ele>868.0</ele><time>2026-04-12T08:10:34Z</time></trkpt><trkpt lat="38.09284353223056" lon="13.23514793876737"><ele>867.9999999999999</ele><time>2026-04-12T08:10:35Z</time></trkpt><trkpt lat="38.09292231224387" lon="13.235111421022198"><ele>868.0</ele><time>2026-04-12T08:10:36Z</time></trkpt><trkpt lat="38.09300500980616" lon="13.235074841458196"><ele>868.0</ele><time>2026-04-12T08:10:37Z</time></trkpt><trkpt lat="38.09308628412397" lon="13.23503820236837"><ele>868.0</ele><time>2026-04-12T08:10:38Z</time></trkpt><trkpt lat="38.09316412745079" lon="13.235005961954194"><ele>867.9999999999999</ele><time>2026-04-12T08:10:39Z</time></trkpt><trkpt lat="38.09324988585152" lon="13.234980532887537"><ele>868.0</ele><time>2026-04-12T08:10:40Z</time></trkpt><trkpt lat="38.09334148525793" lon="13.234958361272026"><ele>868.8333333333333</ele><time>2026-04-12T08:10:41Z</time></trkpt><trkpt lat="38.09343135574079" lon="13.234943862894946"><ele>869.6666666666666</ele><time>2026-04-12T08:10:42Z</time></trkpt><trkpt lat="38.09352613901288" lon="13.234927095905553"><ele>870.5</ele><time>2026-04-12T08:10:43Z</time></trkpt><trkpt lat="38.0936096491151" lon="13.234936308248958"><ele>871.3333333333333</ele><time>2026-04-12T08:10:44Z</time></trkpt><trkpt lat="38.09369074266988" lon="13.23494966513574"><ele>872.1666666666666</ele><time>2026-04-12T08:10:45Z</time></trkpt><trkpt lat="38.09375626167565" lon="13.234966790459339"><ele>873.0</ele><time>2026-04-12T08:10:46Z</time></trkpt><trkpt lat="38.093870578934464" lon="13.23499575316311"><ele>873.0</ele><time>2026-04-12T08:10:48Z</time></trkpt><trkpt lat="38.093955857602126" lon="13.235044525332366"><ele>873.0</ele><time>2026-04-12T08:10:50Z</time></trkpt><trkpt lat="38.094014147069906" lon="13.235147410543192"><ele>873.0</ele><time>2026-04-12T08:10:52Z</time></trkpt><trkpt lat="38.094032829962245" lon="13.235234172084121"><ele>873.0</ele><time>2026-04-12T08:10:53Z</time></trkpt><trkpt lat="38.094043319409934" lon="13.23532342290323"><ele>873.0</ele><time>2026-04-12T08:10:54Z</time></trkpt><trkpt lat="38.09406090362782" lon="13.235412743614031"><ele>873.0</ele><time>2026-04-12T08:10:55Z</time></trkpt><trkpt lat="38.094083269237444" lon="13.235493586326847"><ele>874.6666666666666</ele><time>2026-04-12T08:10:56Z</time></trkpt><trkpt lat="38.09410786101814" lon="13.23557344540077"><ele>876.3333333333333</ele><time>2026-04-12T08:10:57Z</time></trkpt><trkpt lat="38.0941104495623" lon="13.23571351053834"><ele>878.0</ele><time>2026-04-12T08:10:59Z</time></trkpt><trkpt lat="38.094093091407814" lon="13.235795761637451"><ele>879.6666666666666</ele><time>2026-04-12T08:11:00Z</time></trkpt><trkpt lat="38.09404944496992" lon="13.235927307174716"><ele>881.3333333333333</ele><time>2026-04-12T08:11:02Z</time></trkpt><trkpt lat="38.09399485495579" lon="13.235973474108523"><ele>883.0</ele><time>2026-04-12T08:11:03Z</time></trkpt><trkpt lat="38.09394780677284" lon="13.236033627539495"><ele>883.0</ele><time>2026-04-12T08:11:04Z</time></trkpt><trkpt lat="38.093896304960914" lon="13.236126370447051"><ele>883.0</ele><time>2026-04-12T08:11:05Z</time></trkpt><trkpt lat="38.09382790984157" lon="13.236212403989365"><ele>883.0</ele><time>2026-04-12T08:11:06Z</time></trkpt><trkpt lat="38.09375097002555" lon="13.236309088165937"><ele>883.0</ele><time>2026-04-12T08:11:07Z</time></trkpt><trkpt lat="38.09368115686086" lon="13.236423107123725"><ele>883.0</ele><time>2026-04-12T08:11:08Z</time></trkpt><trkpt lat="38.09359870079005" lon="13.236553143108058"><ele>881.2</ele><time>2026-04-12T08:11:09Z</time></trkpt><trkpt lat="38.09352712852589" lon="13.236704739049568"><ele>879.4</ele><time>2026-04-12T08:11:10Z</time></trkpt><trkpt lat="38.093462661823075" lon="13.236865217698226"><ele>877.6000000000001</ele><time>2026-04-12T08:11:11Z</time></trkpt><trkpt lat="38.093435141120565" lon="13.236979127705185"><ele>875.8000000000001</ele><time>2026-04-12T08:11:12Z</time></trkpt><trkpt lat="38.093433891678885" lon="13.23706145615544"><ele>874.0</ele><time>2026-04-12T08:11:13Z</time></trkpt><trkpt lat="38.093468459552454" lon="13.237160474708352"><ele>874.0</ele><time>2026-04-12T08:11:14Z</time></trkpt><trkpt lat="38.093493148402594" lon="13.237263087476604"><ele>874.0000000000001</ele><time>2026-04-12T08:11:15Z</time></trkpt><trkpt lat="38.09353232039721" lon="13.237385125960145"><ele>874.0000000000001</ele><time>2026-04-12T08:11:16Z</time></trkpt><trkpt lat="38.09356979388076" lon="13.237505720132749"><ele>874.0</ele><time>2026-04-12T08:11:17Z</time></trkpt><trkpt lat="38.093614260789366" lon="13.237632557904826"><ele>874.0</ele><time>2026-04-12T08:11:18Z</time></trkpt><trkpt lat="38.093667150108935" lon="13.237737358534204"><ele>874.4000000000001</ele><time>2026-04-12T08:11:19Z</time></trkpt><trkpt lat="38.09370028986287" lon="13.237834552795833"><ele>874.8000000000001</ele><time>2026-04-12T08:11:20Z</time></trkpt><trkpt lat="38.093746583309745" lon="13.237941445214325"><ele>875.1999999999999</ele><time>2026-04-12T08:11:21Z</time></trkpt><trkpt lat="38.093795644456485" lon="13.238058980200233"><ele>875.5999999999999</ele><time>2026-04-12T08:11:22Z</time></trkpt><trkpt lat="38.0938649904689" lon="13.238179458118701"><ele>876.0</ele><time>2026-04-12T08:11:23Z</time></trkpt><trkpt lat="38.09391237689203" lon="13.238320734360036"><ele>873.1999999999999</ele><time>2026-04-12T08:11:24Z</time></trkpt><trkpt lat="38.09398090638261" lon="13.238450581186823"><ele>870.3999999999999</ele><time>2026-04-12T08:11:25Z</time></trkpt><trkpt lat="38.09404354631858" lon="13.238555591291702"><ele>867.6</ele><time>2026-04-12T08:11:26Z</time></trkpt><trkpt lat="38.09410546224741" lon="13.238643684129872"><ele>864.8</ele><time>2026-04-12T08:11:27Z</time></trkpt><trkpt lat="38.094176632484604" lon="13.238717892905226"><ele>862.0</ele><time>2026-04-12T08:11:28Z</time></trkpt><trkpt lat="38.09427942668824" lon="13.238775879121082"><ele>862.0</ele><time>2026-04-12T08:11:29.001Z</time></trkpt><trkpt lat="38.09439555411471" lon="13.238797889024157"><ele>862.0</ele><time>2026-04-12T08:11:30.001Z</time></trkpt><trkpt lat="38.094486977837676" lon="13.238853802756312"><ele>862.0</ele><time>2026-04-12T08:11:31.001Z</time></trkpt><trkpt lat="38.09455730556857" lon="13.238933210718812"><ele>862.0</ele><time>2026-04-12T08:11:32.001Z</time></trkpt><trkpt lat="38.09465056517228" lon="13.239029897909651"><ele>862.0</ele><time>2026-04-12T08:11:34.001Z</time></trkpt><trkpt lat="38.094704097413384" lon="13.239094027518655"><ele>866.2</ele><time>2026-04-12T08:11:35.001Z</time></trkpt><trkpt lat="38.094703920178226" lon="13.23921538450288"><ele>870.4000000000001</ele><time>2026-04-12T08:11:36.001Z</time></trkpt><trkpt lat="38.0947307863139" lon="13.239349559943973"><ele>874.5999999999999</ele><time>2026-04-12T08:11:37.001Z</time></trkpt><trkpt lat="38.094784497529524" lon="13.23946398680365"><ele>878.8</ele><time>2026-04-12T08:11:38.001Z</time></trkpt><trkpt lat="38.09483108431753" lon="13.239593186822791"><ele>883.0</ele><time>2026-04-12T08:11:39.001Z</time></trkpt><trkpt lat="38.09489269071986" lon="13.239728616018015"><ele>881.0</ele><time>2026-04-12T08:11:40.001Z</time></trkpt><trkpt lat="38.09493538542385" lon="13.239848182792587"><ele>879.0</ele><time>2026-04-12T08:11:41.001Z</time></trkpt><trkpt lat="38.09496700591238" lon="13.239959054235385"><ele>877.0</ele><time>2026-04-12T08:11:42.001Z</time></trkpt><trkpt lat="38.09499650075581" lon="13.240036565187783"><ele>875.0</ele><time>2026-04-12T08:11:43.001Z</time></trkpt><trkpt lat="38.09503041279494" lon="13.240149216150929"><ele>873.0</ele><time>2026-04-12T08:11:44.001Z</time></trkpt><trkpt lat="38.09509090863481" lon="13.240309699114812"><ele>873.0</ele><time>2026-04-12T08:11:46.001Z</time></trkpt><trkpt lat="38.09513425976368" lon="13.240400635682372"><ele>873.0</ele><time>2026-04-12T08:11:47.001Z</time></trkpt><trkpt lat="38.095194700276615" lon="13.240486442138618"><ele>873.0</ele><time>2026-04-12T08:11:48.001Z</time></trkpt><trkpt lat="38.0952578325218" lon="13.240570223891245"><ele>873.0</ele><time>2026-04-12T08:11:49.001Z</time></trkpt><trkpt lat="38.095370542485256" lon="13.240580263198556"><ele>873.0</ele><time>2026-04-12T08:11:50.001Z</time></trkpt><trkpt lat="38.09547422234355" lon="13.240599860803783"><ele>873.0</ele><time>2026-04-12T08:11:51.001Z</time></trkpt><trkpt lat="38.09558374439078" lon="13.240612012348313"><ele>873.0</ele><time>2026-04-12T08:11:52.001Z</time></trkpt><trkpt lat="38.09568956807479" lon="13.240623809253078"><ele>873.0</ele><time>2026-04-12T08:11:53.001Z</time></trkpt><trkpt lat="38.09579354187475" lon="13.240586443437323"><ele>873.0</ele><time>2026-04-12T08:11:54.001Z</time></trkpt><trkpt lat="38.09589792193378" lon="13.240559073236094"><ele>873.0</ele><time>2026-04-12T08:11:55.001Z</time></trkpt><trkpt lat="38.09599737068383" lon="13.240521962733297"><ele>871.0</ele><time>2026-04-12T08:11:56.001Z</time></trkpt><trkpt lat="38.096100830088155" lon="13.240517969235114"><ele>869.0</ele><time>2026-04-12T08:11:57.001Z</time></trkpt><trkpt lat="38.09618480207519" lon="13.240482252272429"><ele>867.0</ele><time>2026-04-12T08:11:58.001Z</time></trkpt><trkpt lat="38.096256366996336" lon="13.240490779701489"><ele>865.0</ele><time>2026-04-12T08:11:59.001Z</time></trkpt><trkpt lat="38.09632289399006" lon="13.240519320909804"><ele>863.0</ele><time>2026-04-12T08:12:00.001Z</time></trkpt><trkpt lat="38.09639922750916" lon="13.240556441809389"><ele>861.0</ele><time>2026-04-12T08:12:01.001Z</time></trkpt><trkpt lat="38.096478837944964" lon="13.240619843540674"><ele>863.8333333333334</ele><time>2026-04-12T08:12:02.001Z</time></trkpt><trkpt lat="38.09654285995618" lon="13.24066349720146"><ele>866.6666666666667</ele><time>2026-04-12T08:12:03.001Z</time></trkpt><trkpt lat="38.096600836192394" lon="13.240750884720507"><ele>869.5</ele><time>2026-04-12T08:12:05.001Z</time></trkpt><trkpt lat="38.0966140038099" lon="13.240887108500205"><ele>872.3333333333334</ele><time>2026-04-12T08:12:07.001Z</time></trkpt><trkpt lat="38.096597087406046" lon="13.240973103082338"><ele>875.1666666666667</ele><time>2026-04-12T08:12:08.001Z</time></trkpt><trkpt lat="38.09655314807683" lon="13.24107993971553"><ele>878.0</ele><time>2026-04-12T08:12:10.001Z</time></trkpt><trkpt lat="38.09657005196916" lon="13.241157150478639"><ele>878.0000000000001</ele><time>2026-04-12T08:12:13Z</time></trkpt><trkpt lat="38.096669059790045" lon="13.241084705753504"><ele>878.0</ele><time>2026-04-12T08:12:15Z</time></trkpt><trkpt lat="38.0967520685234" lon="13.241069395291541"><ele>878.0</ele><time>2026-04-12T08:12:16Z</time></trkpt><trkpt lat="38.09683167302624" lon="13.24104520736853"><ele>878.0</ele><time>2026-04-12T08:12:17Z</time></trkpt><trkpt lat="38.096908330409796" lon="13.241045286687864"><ele>878.0000000000001</ele><time>2026-04-12T08:12:18Z</time></trkpt><trkpt lat="38.09698058838557" lon="13.241052176986983"><ele>878.0</ele><time>2026-04-12T08:12:19Z</time></trkpt><trkpt lat="38.09705952811849" lon="13.241074321606227"><ele>878.0</ele><time>2026-04-12T08:12:20Z</time></trkpt><trkpt lat="38.09713831165764" lon="13.241105688499427"><ele>878.0</ele><time>2026-04-12T08:12:21Z</time></trkpt><trkpt lat="38.09721915105674" lon="13.24115052229643"><ele>878.0</ele><time>2026-04-12T08:12:22Z</time></trkpt><trkpt lat="38.09730300212164" lon="13.241202428066858"><ele>878.0</ele><time>2026-04-12T08:12:23Z</time></trkpt><trkpt lat="38.097402338436495" lon="13.241269223755937"><ele>878.0</ele><time>2026-04-12T08:12:24Z</time></trkpt><trkpt lat="38.097530018673105" lon="13.241329127509875"><ele>873.5</ele><time>2026-04-12T08:12:25Z</time></trkpt><trkpt lat="38.097660381531206" lon="13.241360419094752"><ele>869.0</ele><time>2026-04-12T08:12:26Z</time></trkpt><trkpt lat="38.09777565574769" lon="13.241391388818123"><ele>864.5</ele><time>2026-04-12T08:12:27Z</time></trkpt><trkpt lat="38.09789026143446" lon="13.241438630986355"><ele>860.0</ele><time>2026-04-12T08:12:28Z</time></trkpt><trkpt lat="38.09798233572967" lon="13.24146054998591"><ele>860.3333333333334</ele><time>2026-04-12T08:12:29Z</time></trkpt><trkpt lat="38.098082101323115" lon="13.24148342930403"><ele>860.6666666666667</ele><time>2026-04-12T08:12:30Z</time></trkpt><trkpt lat="38.098164401242634" lon="13.241502049304199"><ele>861.0</ele><time>2026-04-12T08:12:31Z</time></trkpt><trkpt lat="38.098252390983994" lon="13.241540073331523"><ele>861.3333333333333</ele><time>2026-04-12T08:12:33Z</time></trkpt><trkpt lat="38.09832776738611" lon="13.241593099666206"><ele>861.6666666666666</ele><time>2026-04-12T08:12:36Z</time></trkpt><trkpt lat="38.0983886340241" lon="13.241647079571012"><ele>862.0</ele><time>2026-04-12T08:12:38Z</time></trkpt><trkpt lat="38.09845402807611" lon="13.241715069933225"><ele>862.0</ele><time>2026-04-12T08:12:40Z</time></trkpt><trkpt lat="38.098517742892945" lon="13.2417781009394"><ele>862.0</ele><time>2026-04-12T08:12:42Z</time></trkpt><trkpt lat="38.09859430401256" lon="13.241852863528898"><ele>862.0</ele><time>2026-04-12T08:12:44Z</time></trkpt><trkpt lat="38.098665170894144" lon="13.241922066390766"><ele>862.0</ele><time>2026-04-12T08:12:46Z</time></trkpt><trkpt lat="38.09875350955815" lon="13.241831198994328"><ele>862.0</ele><time>2026-04-12T08:12:47Z</time></trkpt><trkpt lat="38.09881061178147" lon="13.241882660769779"><ele>862.0</ele><time>2026-04-12T08:12:49Z</time></trkpt><trkpt lat="38.09886691491349" lon="13.24183735847686"><ele>862.0</ele><time>2026-04-12T08:12:52Z</time></trkpt><trkpt lat="38.098914144864914" lon="13.24175763975563"><ele>862.0</ele><time>2026-04-12T08:12:55Z</time></trkpt><trkpt lat="38.098896149752555" lon="13.241661843046563"><ele>862.0</ele><time>2026-04-12T08:12:57Z</time></trkpt><trkpt lat="38.098848361942636" lon="13.241606023179882"><ele>862.0</ele><time>2026-04-12T08:12:58Z</time></trkpt><trkpt lat="38.0987923956929" lon="13.241555886515107"><ele>862.0</ele><time>2026-04-12T08:12:59Z</time></trkpt><trkpt lat="38.09876171070208" lon="13.241476882964182"><ele>862.0</ele><time>2026-04-12T08:13:00Z</time></trkpt><trkpt lat="38.09872204444488" lon="13.241404713651402"><ele>860.6666666666666</ele><time>2026-04-12T08:13:01Z</time></trkpt><trkpt lat="38.09869729847886" lon="13.24133045672154"><ele>859.3333333333333</ele><time>2026-04-12T08:13:02Z</time></trkpt><trkpt lat="38.09867674516603" lon="13.24123791746895"><ele>858.0</ele><time>2026-04-12T08:13:03Z</time></trkpt><trkpt lat="38.098654751247324" lon="13.24114026591622"><ele>856.6666666666667</ele><time>2026-04-12T08:13:04Z</time></trkpt><trkpt lat="38.098630334689055" lon="13.241018712543731"><ele>855.3333333333334</ele><time>2026-04-12T08:13:05Z</time></trkpt><trkpt lat="38.09859856241981" lon="13.240904744941211"><ele>854.0</ele><time>2026-04-12T08:13:06Z</time></trkpt><trkpt lat="38.098559112916554" lon="13.240808090130368"><ele>854.0000000000001</ele><time>2026-04-12T08:13:07Z</time></trkpt><trkpt lat="38.0985224815524" lon="13.240739235122884"><ele>854.0</ele><time>2026-04-12T08:13:08Z</time></trkpt><trkpt lat="38.09847583603438" lon="13.240675156123125"><ele>854.0</ele><time>2026-04-12T08:13:09Z</time></trkpt><trkpt lat="38.09840504990011" lon="13.240639505713077"><ele>854.0</ele><time>2026-04-12T08:13:10Z</time></trkpt><trkpt lat="38.09831625743878" lon="13.240658751442934"><ele>854.0000000000001</ele><time>2026-04-12T08:13:11Z</time></trkpt><trkpt lat="38.09823396838911" lon="13.240661519233663"><ele>854.0</ele><time>2026-04-12T08:13:12Z</time></trkpt><trkpt lat="38.09814915086639" lon="13.240683486719568"><ele>855.2</ele><time>2026-04-12T08:13:13Z</time></trkpt><trkpt lat="38.0980512071435" lon="13.240687005080853"><ele>856.4000000000001</ele><time>2026-04-12T08:13:14Z</time></trkpt><trkpt lat="38.09795551605527" lon="13.240657890016799"><ele>857.6</ele><time>2026-04-12T08:13:15Z</time></trkpt><trkpt lat="38.097870960224114" lon="13.2406144674707"><ele>858.8</ele><time>2026-04-12T08:13:16Z</time></trkpt><trkpt lat="38.097801396170276" lon="13.240572115084602"><ele>860.0</ele><time>2026-04-12T08:13:17Z</time></trkpt><trkpt lat="38.0977186281757" lon="13.240526025609464"><ele>859.0000000000001</ele><time>2026-04-12T08:13:18Z</time></trkpt><trkpt lat="38.09762816100921" lon="13.240488073589717"><ele>858.0</ele><time>2026-04-12T08:13:19Z</time></trkpt><trkpt lat="38.09755824861173" lon="13.240430078119333"><ele>857.0</ele><time>2026-04-12T08:13:20Z</time></trkpt><trkpt lat="38.09749071312062" lon="13.24038326317371"><ele>856.0</ele><time>2026-04-12T08:13:21Z</time></trkpt><trkpt lat="38.09743501125968" lon="13.240311391682956"><ele>855.0000000000001</ele><time>2026-04-12T08:13:22Z</time></trkpt><trkpt lat="38.097355961231344" lon="13.240247605437421"><ele>854.0</ele><time>2026-04-12T08:13:23Z</time></trkpt><trkpt lat="38.09729841833972" lon="13.240171387521917"><ele>854.0000000000001</ele><time>2026-04-12T08:13:24Z</time></trkpt><trkpt lat="38.09724357809704" lon="13.240087973794102"><ele>854.0</ele><time>2026-04-12T08:13:25Z</time></trkpt><trkpt lat="38.09722414663248" lon="13.239982323454745"><ele>854.0</ele><time>2026-04-12T08:13:26Z</time></trkpt><trkpt lat="38.097182287663664" lon="13.23989380607415"><ele>854.0</ele><time>2026-04-12T08:13:27Z</time></trkpt><trkpt lat="38.09713686803186" lon="13.239807852001674"><ele>854.0000000000001</ele><time>2026-04-12T08:13:28Z</time></trkpt><trkpt lat="38.09708786399544" lon="13.239745206893787"><ele>854.0</ele><time>2026-04-12T08:13:29Z</time></trkpt><trkpt lat="38.097021993389596" lon="13.2397467129516"><ele>854.0</ele><time>2026-04-12T08:13:30Z</time></trkpt><trkpt lat="38.09696713830095" lon="13.239695174199344"><ele>854.0000000000001</ele><time>2026-04-12T08:13:32Z</time></trkpt><trkpt lat="38.097027792331936" lon="13.239629852999911"><ele>854.0000000000001</ele><time>2026-04-12T08:13:35Z</time></trkpt><trkpt lat="38.09712488338977" lon="13.239710283678273"><ele>854.0</ele><time>2026-04-12T08:13:37Z</time></trkpt><trkpt lat="38.097214611419496" lon="13.239789848752256"><ele>854.0</ele><time>2026-04-12T08:13:38Z</time></trkpt><trkpt lat="38.09732139850329" lon="13.239869790769092"><ele>854.0</ele><time>2026-04-12T08:13:39Z</time></trkpt><trkpt lat="38.09740718322403" lon="13.239933241945433"><ele>854.0000000000001</ele><time>2026-04-12T08:13:40Z</time></trkpt><trkpt lat="38.097485522285304" lon="13.240021472452382"><ele>854.0000000000001</ele><time>2026-04-12T08:13:41.001Z</time></trkpt><trkpt lat="38.09758135057016" lon="13.240055326932932"><ele>854.0</ele><time>2026-04-12T08:13:42.001Z</time></trkpt><trkpt lat="38.097666971151234" lon="13.240071401807473"><ele>854.0</ele><time>2026-04-12T08:13:43.001Z</time></trkpt><trkpt lat="38.0977532778205" lon="13.240088060207206"><ele>850.0</ele><time>2026-04-12T08:13:44.001Z</time></trkpt><trkpt lat="38.09785055828101" lon="13.24007802608805"><ele>846.0000000000001</ele><time>2026-04-12T08:13:45.001Z</time></trkpt><trkpt lat="38.09793694960733" lon="13.240058784445432"><ele>842.0</ele><time>2026-04-12T08:13:46.001Z</time></trkpt><trkpt lat="38.09801880320499" lon="13.240021267121778"><ele>838.0</ele><time>2026-04-12T08:13:47.001Z</time></trkpt><trkpt lat="38.09810855176594" lon="13.239979594700907"><ele>834.0</ele><time>2026-04-12T08:13:48.001Z</time></trkpt><trkpt lat="38.09819585459169" lon="13.239917725792262"><ele>832.8000000000001</ele><time>2026-04-12T08:13:49.001Z</time></trkpt><trkpt lat="38.09828541795055" lon="13.239859161770926"><ele>831.6</ele><time>2026-04-12T08:13:50.001Z</time></trkpt><trkpt lat="38.098370046368366" lon="13.239811019213496"><ele>830.4</ele><time>2026-04-12T08:13:51.001Z</time></trkpt><trkpt lat="38.098438082473834" lon="13.239761837766252"><ele>829.2</ele><time>2026-04-12T08:13:52.001Z</time></trkpt><trkpt lat="38.09851662835281" lon="13.239704024681597"><ele>828.0</ele><time>2026-04-12T08:13:53.001Z</time></trkpt><trkpt lat="38.09860027435379" lon="13.239660992129862"><ele>828.0</ele><time>2026-04-12T08:13:54.001Z</time></trkpt><trkpt lat="38.098683590076305" lon="13.239644162177598"><ele>828.0</ele><time>2026-04-12T08:13:55.001Z</time></trkpt><trkpt lat="38.098757976276445" lon="13.239643828259359"><ele>828.0</ele><time>2026-04-12T08:13:56.001Z</time></trkpt><trkpt lat="38.09885037149009" lon="13.239668177138167"><ele>828.0</ele><time>2026-04-12T08:13:57.001Z</time></trkpt><trkpt lat="38.098916114857055" lon="13.239690516310551"><ele>828.0</ele><time>2026-04-12T08:13:58.001Z</time></trkpt><trkpt lat="38.098980010455456" lon="13.239747463320818"><ele>828.0</ele><time>2026-04-12T08:13:59.001Z</time></trkpt><trkpt lat="38.09903689343307" lon="13.239823286412822"><ele>828.0</ele><time>2026-04-12T08:14:00.001Z</time></trkpt><trkpt lat="38.09907085807656" lon="13.239916901817063"><ele>828.0</ele><time>2026-04-12T08:14:01.001Z</time></trkpt><trkpt lat="38.0991169216701" lon="13.239975172483014"><ele>828.0</ele><time>2026-04-12T08:14:02.001Z</time></trkpt><trkpt lat="38.099171959216704" lon="13.240100963848267"><ele>828.0</ele><time>2026-04-12T08:14:04.001Z</time></trkpt><trkpt lat="38.09923498600234" lon="13.240239283953995"><ele>828.0</ele><time>2026-04-12T08:14:06.001Z</time></trkpt><trkpt lat="38.09928457095428" lon="13.240394393010755"><ele>827.8333333333334</ele><time>2026-04-12T08:14:08.001Z</time></trkpt><trkpt lat="38.09929456792447" lon="13.240474411033688"><ele>827.6666666666667</ele><time>2026-04-12T08:14:09.001Z</time></trkpt><trkpt lat="38.09930745707501" lon="13.2405576898873"><ele>827.5</ele><time>2026-04-12T08:14:10.001Z</time></trkpt><trkpt lat="38.09938709932252" lon="13.240675179110376"><ele>827.3333333333334</ele><time>2026-04-12T08:14:12.001Z</time></trkpt><trkpt lat="38.09944200005344" lon="13.240721883433684"><ele>827.1666666666667</ele><time>2026-04-12T08:14:13.001Z</time></trkpt><trkpt lat="38.09949331221667" lon="13.240776467132694"><ele>827.0</ele><time>2026-04-12T08:14:14.001Z</time></trkpt><trkpt lat="38.09958192684771" lon="13.240892106638098"><ele>827.0</ele><time>2026-04-12T08:14:16.001Z</time></trkpt><trkpt lat="38.099632124612086" lon="13.240950264751218"><ele>827.0</ele><time>2026-04-12T08:14:17.001Z</time></trkpt><trkpt lat="38.09969025005831" lon="13.241005255094878"><ele>827.0</ele><time>2026-04-12T08:14:18Z</time></trkpt><trkpt lat="38.099713433771186" lon="13.241086060607591"><ele>827.0</ele><time>2026-04-12T08:14:19Z</time></trkpt><trkpt lat="38.099738070494304" lon="13.241165424415563"><ele>827.0</ele><time>2026-04-12T08:14:20Z</time></trkpt><trkpt lat="38.09975123149498" lon="13.241250059373861"><ele>827.0</ele><time>2026-04-12T08:14:21Z</time></trkpt><trkpt lat="38.0997755120887" lon="13.241344525771254"><ele>827.0</ele><time>2026-04-12T08:14:22Z</time></trkpt><trkpt lat="38.09982191382579" lon="13.24143902723972"><ele>830.0000000000001</ele><time>2026-04-12T08:14:23Z</time></trkpt><trkpt lat="38.09988557582741" lon="13.24151082104365"><ele>833.0</ele><time>2026-04-12T08:14:24Z</time></trkpt><trkpt lat="38.099959354420214" lon="13.24157018383878"><ele>836.0</ele><time>2026-04-12T08:14:25Z</time></trkpt><trkpt lat="38.10001822108651" lon="13.241624301824904"><ele>839.0</ele><time>2026-04-12T08:14:26Z</time></trkpt><trkpt lat="38.1000813067051" lon="13.241688465692857"><ele>842.0000000000001</ele><time>2026-04-12T08:14:27Z</time></trkpt><trkpt lat="38.1001387659621" lon="13.241768413944145"><ele>845.0</ele><time>2026-04-12T08:14:28Z</time></trkpt><trkpt lat="38.10018273703597" lon="13.241850530852304"><ele>839.0000000000001</ele><time>2026-04-12T08:14:29Z</time></trkpt><trkpt lat="38.10024116458178" lon="13.241907056466175"><ele>833.0</ele><time>2026-04-12T08:14:30Z</time></trkpt><trkpt lat="38.10031181463904" lon="13.241986712677962"><ele>827.0</ele><time>2026-04-12T08:14:31Z</time></trkpt><trkpt lat="38.10036699751499" lon="13.24206795649233"><ele>821.0</ele><time>2026-04-12T08:14:32Z</time></trkpt><trkpt lat="38.100428965334494" lon="13.242181974411196"><ele>815.0000000000001</ele><time>2026-04-12T08:14:34Z</time></trkpt><trkpt lat="38.10045258430559" lon="13.24228096406215"><ele>809.0</ele><time>2026-04-12T08:14:37Z</time></trkpt><trkpt lat="38.100461893087896" lon="13.242367112908886"><ele>809.0</ele><time>2026-04-12T08:14:39Z</time></trkpt><trkpt lat="38.10044927783804" lon="13.24247295174619"><ele>809.0</ele><time>2026-04-12T08:14:41Z</time></trkpt><trkpt lat="38.10045384108302" lon="13.24257902241099"><ele>809.0</ele><time>2026-04-12T08:14:43Z</time></trkpt><trkpt lat="38.100474728104494" lon="13.242716174060359"><ele>809.0</ele><time>2026-04-12T08:14:45Z</time></trkpt><trkpt lat="38.100540172030406" lon="13.242835993573856"><ele>809.0</ele><time>2026-04-12T08:14:47Z</time></trkpt><trkpt lat="38.10056992890148" lon="13.242906818087803"><ele>809.0000000000001</ele><time>2026-04-12T08:14:48Z</time></trkpt><trkpt lat="38.100600653293775" lon="13.243060687413573"><ele>809.0</ele><time>2026-04-12T08:14:50Z</time></trkpt><trkpt lat="38.10060077315958" lon="13.243140777310462"><ele>809.0</ele><time>2026-04-12T08:14:51Z</time></trkpt><trkpt lat="38.10061148737652" lon="13.24323688636213"><ele>809.0</ele><time>2026-04-12T08:14:52Z</time></trkpt><trkpt lat="38.10064310941948" lon="13.243332184938494"><ele>809.0000000000001</ele><time>2026-04-12T08:14:53Z</time></trkpt><trkpt lat="38.10070662746403" lon="13.243419449491615"><ele>809.0</ele><time>2026-04-12T08:14:54Z</time></trkpt><trkpt lat="38.10077499749228" lon="13.243497988237333"><ele>805.8000000000001</ele><time>2026-04-12T08:14:55Z</time></trkpt><trkpt lat="38.10083706706947" lon="13.243571357003045"><ele>802.6</ele><time>2026-04-12T08:14:56Z</time></trkpt><trkpt lat="38.100908790324986" lon="13.243665795377478"><ele>799.4</ele><time>2026-04-12T08:14:57Z</time></trkpt><trkpt lat="38.10097707288453" lon="13.2437674970633"><ele>796.2</ele><time>2026-04-12T08:14:58Z</time></trkpt><trkpt lat="38.101053812382" lon="13.243886297093724"><ele>793.0</ele><time>2026-04-12T08:14:59Z</time></trkpt><trkpt lat="38.10111680991493" lon="13.244031171925995"><ele>787.8</ele><time>2026-04-12T08:15:00Z</time></trkpt><trkpt lat="38.101176818410025" lon="13.24414821852419"><ele>782.5999999999999</ele><time>2026-04-12T08:15:01Z</time></trkpt><trkpt lat="38.101229437308476" lon="13.244246687159459"><ele>777.4000000000001</ele><time>2026-04-12T08:15:02Z</time></trkpt><trkpt lat="38.10128337013509" lon="13.244363192167784"><ele>772.2</ele><time>2026-04-12T08:15:03Z</time></trkpt><trkpt lat="38.10133989295209" lon="13.24447483159188"><ele>767.0</ele><time>2026-04-12T08:15:04Z</time></trkpt><trkpt lat="38.101393981419385" lon="13.244604837454586"><ele>767.0</ele><time>2026-04-12T08:15:05Z</time></trkpt><trkpt lat="38.101421123803036" lon="13.24472657827289"><ele>767.0</ele><time>2026-04-12T08:15:06Z</time></trkpt><trkpt lat="38.1014345797826" lon="13.244853049163801"><ele>767.0</ele><time>2026-04-12T08:15:07Z</time></trkpt><trkpt lat="38.1014542333243" lon="13.244957732214676"><ele>767.0</ele><time>2026-04-12T08:15:08Z</time></trkpt><trkpt lat="38.10147408064376" lon="13.245070036415207"><ele>767.0</ele><time>2026-04-12T08:15:09Z</time></trkpt><trkpt lat="38.10153705466121" lon="13.245141205245476"><ele>768.8333333333333</ele><time>2026-04-12T08:15:10Z</time></trkpt><trkpt lat="38.101587258903145" lon="13.245211032244905"><ele>770.6666666666666</ele><time>2026-04-12T08:15:11Z</time></trkpt><trkpt lat="38.10163788847517" lon="13.245270092311948"><ele>772.5</ele><time>2026-04-12T08:15:12Z</time></trkpt><trkpt lat="38.10168303346188" lon="13.245332767823037"><ele>774.3333333333333</ele><time>2026-04-12T08:15:13Z</time></trkpt><trkpt lat="38.10175036672796" lon="13.245381084390187"><ele>776.1666666666666</ele><time>2026-04-12T08:15:14Z</time></trkpt><trkpt lat="38.10183138014419" lon="13.245415172796083"><ele>778.0</ele><time>2026-04-12T08:15:15Z</time></trkpt><trkpt lat="38.10191618597138" lon="13.245387645402172"><ele>777.9999999999999</ele><time>2026-04-12T08:15:16Z</time></trkpt><trkpt lat="38.102003050403106" lon="13.245366835572849"><ele>778.0</ele><time>2026-04-12T08:15:17Z</time></trkpt><trkpt lat="38.10207820343904" lon="13.245339999016938"><ele>778.0</ele><time>2026-04-12T08:15:18Z</time></trkpt><trkpt lat="38.10217199652209" lon="13.245316256035704"><ele>778.0</ele><time>2026-04-12T08:15:19Z</time></trkpt><trkpt lat="38.102256311846034" lon="13.24530264846817"><ele>777.9999999999999</ele><time>2026-04-12T08:15:20Z</time></trkpt><trkpt lat="38.102335434177476" lon="13.245273143119547"><ele>778.0</ele><time>2026-04-12T08:15:21Z</time></trkpt><trkpt lat="38.10244933896066" lon="13.24532179125538"><ele>774.4</ele><time>2026-04-12T08:15:23Z</time></trkpt><trkpt lat="38.102506928672646" lon="13.245399488983121"><ele>770.8</ele><time>2026-04-12T08:15:24Z</time></trkpt><trkpt lat="38.10256277725389" lon="13.245508629615085"><ele>767.2</ele><time>2026-04-12T08:15:25Z</time></trkpt><trkpt lat="38.102629009078" lon="13.245615975816538"><ele>763.6</ele><time>2026-04-12T08:15:26Z</time></trkpt><trkpt lat="38.10270591074016" lon="13.245696755800177"><ele>760.0</ele><time>2026-04-12T08:15:27Z</time></trkpt><trkpt lat="38.10277095077253" lon="13.245789483563273"><ele>760.0</ele><time>2026-04-12T08:15:28Z</time></trkpt><trkpt lat="38.102785453574036" lon="13.245923753952445"><ele>760.0</ele><time>2026-04-12T08:15:29Z</time></trkpt><trkpt lat="38.10281701419809" lon="13.24602183543696"><ele>760.0</ele><time>2026-04-12T08:15:30Z</time></trkpt><trkpt lat="38.10291064234849" lon="13.246121118753777"><ele>760.0</ele><time>2026-04-12T08:15:32Z</time></trkpt><trkpt lat="38.10299078658415" lon="13.246125821430129"><ele>760.0</ele><time>2026-04-12T08:15:33Z</time></trkpt><trkpt lat="38.1030790412978" lon="13.246122148239037"><ele>760.0</ele><time>2026-04-12T08:15:34Z</time></trkpt><trkpt lat="38.10319242343984" lon="13.246177832219267"><ele>760.0</ele><time>2026-04-12T08:15:36Z</time></trkpt><trkpt lat="38.10323717445595" lon="13.246240916774735"><ele>760.0</ele><time>2026-04-12T08:15:37Z</time></trkpt><trkpt lat="38.10327892560823" lon="13.24632395754357"><ele>760.0</ele><time>2026-04-12T08:15:38Z</time></trkpt><trkpt lat="38.103325348002265" lon="13.246410679595563"><ele>760.0</ele><time>2026-04-12T08:15:39Z</time></trkpt><trkpt lat="38.10339916871106" lon="13.246450345097971"><ele>760.0</ele><time>2026-04-12T08:15:40Z</time></trkpt><trkpt lat="38.10344458573534" lon="13.246516991515989"><ele>760.6</ele><time>2026-04-12T08:15:41Z</time></trkpt><trkpt lat="38.10350079217986" lon="13.246660991809916"><ele>761.2</ele><time>2026-04-12T08:15:43Z</time></trkpt><trkpt lat="38.10346230615548" lon="13.246748046207141"><ele>761.8</ele><time>2026-04-12T08:15:44Z</time></trkpt><trkpt lat="38.1034487487761" lon="13.246853296215479"><ele>762.4</ele><time>2026-04-12T08:15:45Z</time></trkpt><trkpt lat="38.103445120993094" lon="13.246977303643781"><ele>763.0</ele><time>2026-04-12T08:15:46Z</time></trkpt><trkpt lat="38.10348924265136" lon="13.247087888559076"><ele>763.0</ele><time>2026-04-12T08:15:47Z</time></trkpt><trkpt lat="38.10351181191579" lon="13.247193812109256"><ele>763.0</ele><time>2026-04-12T08:15:48Z</time></trkpt><trkpt lat="38.10352953321211" lon="13.247313015372809"><ele>763.0</ele><time>2026-04-12T08:15:49Z</time></trkpt><trkpt lat="38.103531276650344" lon="13.247416036955347"><ele>763.0</ele><time>2026-04-12T08:15:50Z</time></trkpt><trkpt lat="38.10353771925247" lon="13.247512970755704"><ele>763.0</ele><time>2026-04-12T08:15:51Z</time></trkpt><trkpt lat="38.10352895960794" lon="13.247625692687317"><ele>763.0</ele><time>2026-04-12T08:15:52.001Z</time></trkpt><trkpt lat="38.10352369870978" lon="13.24776599566128"><ele>760.0</ele><time>2026-04-12T08:15:53.001Z</time></trkpt><trkpt lat="38.103545074839964" lon="13.247880671100562"><ele>757.0</ele><time>2026-04-12T08:15:54.001Z</time></trkpt><trkpt lat="38.103571448144145" lon="13.248000977519318"><ele>754.0</ele><time>2026-04-12T08:15:55.001Z</time></trkpt><trkpt lat="38.10360724461149" lon="13.248120750010647"><ele>751.0</ele><time>2026-04-12T08:15:56.001Z</time></trkpt><trkpt lat="38.10364389754364" lon="13.248226084792279"><ele>748.0</ele><time>2026-04-12T08:15:57.001Z</time></trkpt><trkpt lat="38.10366864053873" lon="13.248343082649802"><ele>745.5999999999999</ele><time>2026-04-12T08:15:58.001Z</time></trkpt><trkpt lat="38.10369891335718" lon="13.248442415816246"><ele>743.1999999999999</ele><time>2026-04-12T08:15:59.001Z</time></trkpt><trkpt lat="38.103721003092865" lon="13.248557152573051"><ele>740.8</ele><time>2026-04-12T08:16:00.001Z</time></trkpt><trkpt lat="38.1037399313217" lon="13.248667231564996"><ele>738.4</ele><time>2026-04-12T08:16:01.001Z</time></trkpt><trkpt lat="38.103767964773965" lon="13.248782892409615"><ele>736.0</ele><time>2026-04-12T08:16:02.001Z</time></trkpt><trkpt lat="38.10379907959973" lon="13.248899095339421"><ele>731.4</ele><time>2026-04-12T08:16:03.001Z</time></trkpt><trkpt lat="38.10384171421345" lon="13.249008337480634"><ele>726.8</ele><time>2026-04-12T08:16:04.001Z</time></trkpt><trkpt lat="38.10389195710543" lon="13.249123625773173"><ele>722.1999999999999</ele><time>2026-04-12T08:16:05.001Z</time></trkpt><trkpt lat="38.10394142388759" lon="13.24924504970344"><ele>717.5999999999999</ele><time>2026-04-12T08:16:06.001Z</time></trkpt><trkpt lat="38.10398484187449" lon="13.24937017517731"><ele>713.0</ele><time>2026-04-12T08:16:07.001Z</time></trkpt><trkpt lat="38.10403721746485" lon="13.24949343620959"><ele>713.0</ele><time>2026-04-12T08:16:08.001Z</time></trkpt><trkpt lat="38.10406461742433" lon="13.24961091021495"><ele>713.0</ele><time>2026-04-12T08:16:09.001Z</time></trkpt><trkpt lat="38.10409490176412" lon="13.249715345657698"><ele>713.0</ele><time>2026-04-12T08:16:10.001Z</time></trkpt><trkpt lat="38.10412873896127" lon="13.249803159313515"><ele>713.0</ele><time>2026-04-12T08:16:11.001Z</time></trkpt><trkpt lat="38.10415367199514" lon="13.249910130235872"><ele>713.0</ele><time>2026-04-12T08:16:12.001Z</time></trkpt><trkpt lat="38.10419259366739" lon="13.25003495258538"><ele>713.8</ele><time>2026-04-12T08:16:13.001Z</time></trkpt><trkpt lat="38.10421252939772" lon="13.250148669046817"><ele>714.5999999999999</ele><time>2026-04-12T08:16:14.001Z</time></trkpt><trkpt lat="38.10423949715555" lon="13.250272809091989"><ele>715.4000000000001</ele><time>2026-04-12T08:16:15.001Z</time></trkpt><trkpt lat="38.104275152215315" lon="13.250397581132454"><ele>716.2</ele><time>2026-04-12T08:16:16.001Z</time></trkpt><trkpt lat="38.10429521954132" lon="13.250520956265802"><ele>717.0</ele><time>2026-04-12T08:16:17.001Z</time></trkpt><trkpt lat="38.10432241358968" lon="13.250644365441119"><ele>717.0</ele><time>2026-04-12T08:16:18.001Z</time></trkpt><trkpt lat="38.104329877240275" lon="13.250769181348302"><ele>717.0</ele><time>2026-04-12T08:16:19.001Z</time></trkpt><trkpt lat="38.10436745637658" lon="13.250885818299022"><ele>717.0</ele><time>2026-04-12T08:16:20.001Z</time></trkpt><trkpt lat="38.104398127871065" lon="13.251008707957032"><ele>717.0</ele><time>2026-04-12T08:16:21.001Z</time></trkpt><trkpt lat="38.104438776990484" lon="13.251126483212083"><ele>717.0</ele><time>2026-04-12T08:16:22.001Z</time></trkpt><trkpt lat="38.1044829289987" lon="13.251256543122885"><ele>717.0</ele><time>2026-04-12T08:16:23.001Z</time></trkpt><trkpt lat="38.10452423242822" lon="13.251376486811518"><ele>717.0</ele><time>2026-04-12T08:16:24Z</time></trkpt><trkpt lat="38.104568835768006" lon="13.251493947273456"><ele>717.0</ele><time>2026-04-12T08:16:25Z</time></trkpt><trkpt lat="38.10461284045286" lon="13.251608335974405"><ele>717.0</ele><time>2026-04-12T08:16:26Z</time></trkpt><trkpt lat="38.10465888542794" lon="13.251734351193571"><ele>717.0</ele><time>2026-04-12T08:16:27Z</time></trkpt><trkpt lat="38.10469917869315" lon="13.251849185932345"><ele>714.1666666666666</ele><time>2026-04-12T08:16:28Z</time></trkpt><trkpt lat="38.104734998936074" lon="13.251950694440062"><ele>711.3333333333334</ele><time>2026-04-12T08:16:29Z</time></trkpt><trkpt lat="38.10477002198046" lon="13.25205122926839"><ele>708.5</ele><time>2026-04-12T08:16:30Z</time></trkpt><trkpt lat="38.10478868500088" lon="13.2521336891583"><ele>705.6666666666667</ele><time>2026-04-12T08:16:31Z</time></trkpt><trkpt lat="38.10482092130178" lon="13.252224110304818"><ele>702.8333333333334</ele><time>2026-04-12T08:16:32Z</time></trkpt><trkpt lat="38.104860323822486" lon="13.25233228235643"><ele>700.0</ele><time>2026-04-12T08:16:33Z</time></trkpt><trkpt lat="38.10491032946084" lon="13.252427468159532"><ele>703.4</ele><time>2026-04-12T08:16:34Z</time></trkpt><trkpt lat="38.104947345649194" lon="13.252540848155691"><ele>706.8</ele><time>2026-04-12T08:16:35Z</time></trkpt><trkpt lat="38.10499361909466" lon="13.252654040148812"><ele>710.2</ele><time>2026-04-12T08:16:36Z</time></trkpt><trkpt lat="38.10504466418794" lon="13.252767636510349"><ele>713.6</ele><time>2026-04-12T08:16:37Z</time></trkpt><trkpt lat="38.105096795889224" lon="13.252882525251424"><ele>717.0</ele><time>2026-04-12T08:16:38Z</time></trkpt><trkpt lat="38.105156466070426" lon="13.252998267616382"><ele>717.0</ele><time>2026-04-12T08:16:39Z</time></trkpt><trkpt lat="38.105215529362994" lon="13.253107989795067"><ele>717.0</ele><time>2026-04-12T08:16:40Z</time></trkpt><trkpt lat="38.10527131131632" lon="13.253214924262256"><ele>717.0</ele><time>2026-04-12T08:16:41Z</time></trkpt><trkpt lat="38.10532837247961" lon="13.25332787135488"><ele>717.0</ele><time>2026-04-12T08:16:42Z</time></trkpt><trkpt lat="38.10538687710422" lon="13.253422046941036"><ele>717.0</ele><time>2026-04-12T08:16:43Z</time></trkpt><trkpt lat="38.105433365637936" lon="13.253482879916811"><ele>712.6666666666666</ele><time>2026-04-12T08:16:44Z</time></trkpt><trkpt lat="38.105499497062915" lon="13.253584960615639"><ele>708.3333333333334</ele><time>2026-04-12T08:16:46Z</time></trkpt><trkpt lat="38.10541889785603" lon="13.253675903633791"><ele>704.0</ele><time>2026-04-12T08:16:49Z</time></trkpt><trkpt lat="38.105382166022714" lon="13.25360293020346"><ele>699.6666666666667</ele><time>2026-04-12T08:16:50Z</time></trkpt><trkpt lat="38.10534825661118" lon="13.25351709710601"><ele>695.3333333333334</ele><time>2026-04-12T08:16:51Z</time></trkpt><trkpt lat="38.105284075739" lon="13.253439799455201"><ele>691.0</ele><time>2026-04-12T08:16:52Z</time></trkpt><trkpt lat="38.10522620916029" lon="13.25335158790974"><ele>691.0</ele><time>2026-04-12T08:16:53Z</time></trkpt><trkpt lat="38.10514917628579" lon="13.253283288409662"><ele>691.0</ele><time>2026-04-12T08:16:54Z</time></trkpt><trkpt lat="38.10508080180209" lon="13.253193728185698"><ele>691.0</ele><time>2026-04-12T08:16:55Z</time></trkpt><trkpt lat="38.105011900300674" lon="13.253112550584323"><ele>691.0</ele><time>2026-04-12T08:16:56Z</time></trkpt><trkpt lat="38.10493399737153" lon="13.253021773686283"><ele>691.0</ele><time>2026-04-12T08:16:57Z</time></trkpt><trkpt lat="38.10486345033147" lon="13.252939661498333"><ele>688.1999999999999</ele><time>2026-04-12T08:16:58Z</time></trkpt><trkpt lat="38.10479029068452" lon="13.25285529574012"><ele>685.4</ele><time>2026-04-12T08:16:59Z</time></trkpt><trkpt lat="38.10471572194788" lon="13.252769305196004"><ele>682.6</ele><time>2026-04-12T08:17:00Z</time></trkpt><trkpt lat="38.104644742834125" lon="13.252687454169775"><ele>679.8</ele><time>2026-04-12T08:17:01Z</time></trkpt><trkpt lat="38.10456918585145" lon="13.252623879479437"><ele>677.0</ele><time>2026-04-12T08:17:02Z</time></trkpt><trkpt lat="38.10448492093736" lon="13.252529214966703"><ele>677.0</ele><time>2026-04-12T08:17:03Z</time></trkpt><trkpt lat="38.104410057881594" lon="13.252448352159327"><ele>677.0</ele><time>2026-04-12T08:17:04Z</time></trkpt><trkpt lat="38.10433821308383" lon="13.252371963761803"><ele>677.0</ele><time>2026-04-12T08:17:05Z</time></trkpt><trkpt lat="38.10426966573197" lon="13.252273299398182"><ele>677.0</ele><time>2026-04-12T08:17:06Z</time></trkpt><trkpt lat="38.10419691889898" lon="13.252197874660009"><ele>677.0</ele><time>2026-04-12T08:17:07Z</time></trkpt><trkpt lat="38.10411665068997" lon="13.252106348245624"><ele>673.8</ele><time>2026-04-12T08:17:08Z</time></trkpt><trkpt lat="38.104047498026034" lon="13.252019638798014"><ele>670.6</ele><time>2026-04-12T08:17:09Z</time></trkpt><trkpt lat="38.10397660312451" lon="13.251924238369886"><ele>667.4</ele><time>2026-04-12T08:17:10Z</time></trkpt><trkpt lat="38.1039091868986" lon="13.251817671770949"><ele>664.1999999999999</ele><time>2026-04-12T08:17:11Z</time></trkpt><trkpt lat="38.10383194619579" lon="13.251731809729945"><ele>661.0</ele><time>2026-04-12T08:17:12Z</time></trkpt><trkpt lat="38.10377584552194" lon="13.251644246935356"><ele>661.0</ele><time>2026-04-12T08:17:13Z</time></trkpt><trkpt lat="38.1037116059751" lon="13.251531267691279"><ele>661.0</ele><time>2026-04-12T08:17:14Z</time></trkpt><trkpt lat="38.103631194038556" lon="13.251459672279207"><ele>661.0</ele><time>2026-04-12T08:17:15Z</time></trkpt><trkpt lat="38.10356457689766" lon="13.251375040625765"><ele>661.0</ele><time>2026-04-12T08:17:16Z</time></trkpt><trkpt lat="38.10349094311456" lon="13.251275821598382"><ele>661.0</ele><time>2026-04-12T08:17:17Z</time></trkpt><trkpt lat="38.103443916134545" lon="13.251182861210685"><ele>664.0</ele><time>2026-04-12T08:17:18Z</time></trkpt><trkpt lat="38.10337592499698" lon="13.251102885505743"><ele>667.0</ele><time>2026-04-12T08:17:19Z</time></trkpt><trkpt lat="38.10332427881402" lon="13.25099829265353"><ele>670.0</ele><time>2026-04-12T08:17:20Z</time></trkpt><trkpt lat="38.10329523418655" lon="13.25089207043889"><ele>673.0</ele><time>2026-04-12T08:17:21Z</time></trkpt><trkpt lat="38.103254760174146" lon="13.250792367159772"><ele>676.0</ele><time>2026-04-12T08:17:22Z</time></trkpt><trkpt lat="38.103210459884366" lon="13.250685642152467"><ele>673.8333333333334</ele><time>2026-04-12T08:17:23Z</time></trkpt><trkpt lat="38.103158396048734" lon="13.250594630595083"><ele>671.6666666666667</ele><time>2026-04-12T08:17:24Z</time></trkpt><trkpt lat="38.10311555352726" lon="13.250485234595446"><ele>669.5</ele><time>2026-04-12T08:17:25Z</time></trkpt><trkpt lat="38.10305416775303" lon="13.250407867065837"><ele>667.3333333333334</ele><time>2026-04-12T08:17:26Z</time></trkpt><trkpt lat="38.102998250858704" lon="13.250331480652484"><ele>665.1666666666666</ele><time>2026-04-12T08:17:27Z</time></trkpt><trkpt lat="38.10291461900412" lon="13.250297786148446"><ele>663.0</ele><time>2026-04-12T08:17:28Z</time></trkpt><trkpt lat="38.10282573163918" lon="13.250252465712995"><ele>663.0</ele><time>2026-04-12T08:17:29Z</time></trkpt><trkpt lat="38.10273919058365" lon="13.250202561056089"><ele>663.0</ele><time>2026-04-12T08:17:30Z</time></trkpt><trkpt lat="38.10265026864169" lon="13.25015621213562"><ele>663.0</ele><time>2026-04-12T08:17:31Z</time></trkpt><trkpt lat="38.10258023099603" lon="13.250093883614074"><ele>663.0</ele><time>2026-04-12T08:17:32Z</time></trkpt><trkpt lat="38.10249939444403" lon="13.250006143636265"><ele>663.0</ele><time>2026-04-12T08:17:33Z</time></trkpt><trkpt lat="38.10239414232092" lon="13.249960446294706"><ele>660.2</ele><time>2026-04-12T08:17:34Z</time></trkpt><trkpt lat="38.10231182191877" lon="13.249881495924221"><ele>657.4</ele><time>2026-04-12T08:17:35Z</time></trkpt><trkpt lat="38.10221326984402" lon="13.249801546583917"><ele>654.6</ele><time>2026-04-12T08:17:36Z</time></trkpt><trkpt lat="38.10212388304959" lon="13.249729094588478"><ele>651.8000000000001</ele><time>2026-04-12T08:17:37Z</time></trkpt><trkpt lat="38.10204038960027" lon="13.249667531827527"><ele>649.0</ele><time>2026-04-12T08:17:38Z</time></trkpt><trkpt lat="38.101957009424794" lon="13.24958190053877"><ele>649.0</ele><time>2026-04-12T08:17:39Z</time></trkpt><trkpt lat="38.10188988446676" lon="13.249485847973629"><ele>649.0</ele><time>2026-04-12T08:17:41Z</time></trkpt><trkpt lat="38.10188626084587" lon="13.24936367021396"><ele>649.0</ele><time>2026-04-12T08:17:45Z</time></trkpt><trkpt lat="38.101782898106435" lon="13.249324023292324"><ele>649.0</ele><time>2026-04-12T08:17:47Z</time></trkpt><trkpt lat="38.101755767983654" lon="13.249465207824255"><ele>649.0</ele><time>2026-04-12T08:17:49Z</time></trkpt><trkpt lat="38.10180803035439" lon="13.249610912449034"><ele>649.0</ele><time>2026-04-12T08:17:51Z</time></trkpt><trkpt lat="38.10181671000235" lon="13.249710070439654"><ele>649.0</ele><time>2026-04-12T08:17:52.001Z</time></trkpt><trkpt lat="38.101856164524186" lon="13.249822233022206"><ele>649.0</ele><time>2026-04-12T08:17:53.001Z</time></trkpt><trkpt lat="38.10190040310499" lon="13.249909907615017"><ele>649.0</ele><time>2026-04-12T08:17:54.001Z</time></trkpt><trkpt lat="38.10196660533899" lon="13.249976921519213"><ele>649.0</ele><time>2026-04-12T08:17:55.001Z</time></trkpt><trkpt lat="38.10201555345382" lon="13.250074234268945"><ele>649.0</ele><time>2026-04-12T08:17:56.001Z</time></trkpt><trkpt lat="38.10206633962004" lon="13.250158949350492"><ele>646.6666666666667</ele><time>2026-04-12T08:17:57.001Z</time></trkpt><trkpt lat="38.10213323356447" lon="13.250232830104343"><ele>644.3333333333334</ele><time>2026-04-12T08:17:58.001Z</time></trkpt><trkpt lat="38.10217964244177" lon="13.250306180371327"><ele>642.0</ele><time>2026-04-12T08:17:59.001Z</time></trkpt><trkpt lat="38.10224392601484" lon="13.250389227083218"><ele>639.6666666666666</ele><time>2026-04-12T08:18:00.001Z</time></trkpt><trkpt lat="38.10230664819949" lon="13.250460450055384"><ele>637.3333333333333</ele><time>2026-04-12T08:18:01.001Z</time></trkpt><trkpt lat="38.10236641556137" lon="13.250528569346942"><ele>635.0</ele><time>2026-04-12T08:18:02.001Z</time></trkpt><trkpt lat="38.10242923398386" lon="13.250592677476781"><ele>635.6666666666666</ele><time>2026-04-12T08:18:03.001Z</time></trkpt><trkpt lat="38.10248342180619" lon="13.250651928310813"><ele>636.3333333333333</ele><time>2026-04-12T08:18:04.001Z</time></trkpt><trkpt lat="38.10254099864336" lon="13.250738496141647"><ele>637.0</ele><time>2026-04-12T08:18:05.001Z</time></trkpt><trkpt lat="38.10256690391413" lon="13.250834562645693"><ele>637.6666666666666</ele><time>2026-04-12T08:18:06.001Z</time></trkpt><trkpt lat="38.10256827450844" lon="13.250927262123065"><ele>638.3333333333334</ele><time>2026-04-12T08:18:07.001Z</time></trkpt><trkpt lat="38.10256394890422" lon="13.251038685171837"><ele>639.0</ele><time>2026-04-12T08:18:08.001Z</time></trkpt><trkpt lat="38.10254808494599" lon="13.251165858328187"><ele>639.0</ele><time>2026-04-12T08:18:09.001Z</time></trkpt><trkpt lat="38.10254420886953" lon="13.251263353746982"><ele>639.0</ele><time>2026-04-12T08:18:10.001Z</time></trkpt><trkpt lat="38.10256093567698" lon="13.251412593653717"><ele>639.0</ele><time>2026-04-12T08:18:11.001Z</time></trkpt><trkpt lat="38.10258324257112" lon="13.25154757963821"><ele>639.0</ele><time>2026-04-12T08:18:12.001Z</time></trkpt><trkpt lat="38.10261541777192" lon="13.251664237499245"><ele>639.0</ele><time>2026-04-12T08:18:13.001Z</time></trkpt><trkpt lat="38.10263880252605" lon="13.251785864144665"><ele>636.4</ele><time>2026-04-12T08:18:14.001Z</time></trkpt><trkpt lat="38.10267223298283" lon="13.251912546103245"><ele>633.8</ele><time>2026-04-12T08:18:15.001Z</time></trkpt><trkpt lat="38.10271829168635" lon="13.252031636685947"><ele>631.2</ele><time>2026-04-12T08:18:16.001Z</time></trkpt><trkpt lat="38.102750477045134" lon="13.252152030951052"><ele>628.6</ele><time>2026-04-12T08:18:17.001Z</time></trkpt><trkpt lat="38.10280035641258" lon="13.252259527739504"><ele>626.0</ele><time>2026-04-12T08:18:18.001Z</time></trkpt><trkpt lat="38.102851920051144" lon="13.25233857069943"><ele>626.0</ele><time>2026-04-12T08:18:19.001Z</time></trkpt><trkpt lat="38.10293399256811" lon="13.252421107239014"><ele>626.0</ele><time>2026-04-12T08:18:21.001Z</time></trkpt><trkpt lat="38.10286892727808" lon="13.252496383534693"><ele>626.0</ele><time>2026-04-12T08:18:25.001Z</time></trkpt><trkpt lat="38.102821150799635" lon="13.252365215950658"><ele>626.0</ele><time>2026-04-12T08:18:27.001Z</time></trkpt><trkpt lat="38.10276677201003" lon="13.252312667341208"><ele>626.0</ele><time>2026-04-12T08:18:28.001Z</time></trkpt><trkpt lat="38.10270239446424" lon="13.252199663570565"><ele>626.0</ele><time>2026-04-12T08:18:29.001Z</time></trkpt><trkpt lat="38.1026384305789" lon="13.252103308137057"><ele>626.0</ele><time>2026-04-12T08:18:30Z</time></trkpt><trkpt lat="38.10258741630025" lon="13.251997502335803"><ele>626.0</ele><time>2026-04-12T08:18:31Z</time></trkpt><trkpt lat="38.10254005056862" lon="13.251885126312889"><ele>626.0</ele><time>2026-04-12T08:18:32Z</time></trkpt><trkpt lat="38.1025041375784" lon="13.251788929390766"><ele>626.0</ele><time>2026-04-12T08:18:33Z</time></trkpt><trkpt lat="38.10245929849205" lon="13.251672585181824"><ele>626.0</ele><time>2026-04-12T08:18:34Z</time></trkpt><trkpt lat="38.102423571063646" lon="13.251579899775429"><ele>626.0</ele><time>2026-04-12T08:18:35Z</time></trkpt><trkpt lat="38.10238261426318" lon="13.251473653340994"><ele>626.0</ele><time>2026-04-12T08:18:36Z</time></trkpt><trkpt lat="38.10233251094864" lon="13.251343001975686"><ele>626.0</ele><time>2026-04-12T08:18:37Z</time></trkpt><trkpt lat="38.10228727175261" lon="13.251236770805948"><ele>626.0</ele><time>2026-04-12T08:18:38Z</time></trkpt><trkpt lat="38.10225009208265" lon="13.25116266042502"><ele>624.8</ele><time>2026-04-12T08:18:39Z</time></trkpt><trkpt lat="38.10219423287166" lon="13.251111008861093"><ele>623.6</ele><time>2026-04-12T08:18:40Z</time></trkpt><trkpt lat="38.10213297370828" lon="13.251073510500603"><ele>622.4</ele><time>2026-04-12T08:18:41Z</time></trkpt><trkpt lat="38.10203215068905" lon="13.251064030159524"><ele>621.2</ele><time>2026-04-12T08:18:42Z</time></trkpt><trkpt lat="38.101917460862374" lon="13.25107365469502"><ele>620.0</ele><time>2026-04-12T08:18:43Z</time></trkpt><trkpt lat="38.10180755946996" lon="13.251128243361807"><ele>620.0</ele><time>2026-04-12T08:18:44Z</time></trkpt><trkpt lat="38.10169702443358" lon="13.251176124756004"><ele>620.0</ele><time>2026-04-12T08:18:45Z</time></trkpt><trkpt lat="38.10159402207783" lon="13.25121449143266"><ele>620.0</ele><time>2026-04-12T08:18:46Z</time></trkpt><trkpt lat="38.10150559608996" lon="13.251229141101474"><ele>620.0</ele><time>2026-04-12T08:18:47Z</time></trkpt><trkpt lat="38.10141195424082" lon="13.251183512188366"><ele>620.0</ele><time>2026-04-12T08:18:48Z</time></trkpt><trkpt lat="38.10130792267833" lon="13.251168484028454"><ele>617.0</ele><time>2026-04-12T08:18:49Z</time></trkpt><trkpt lat="38.10121599215786" lon="13.25113356779886"><ele>614.0</ele><time>2026-04-12T08:18:50Z</time></trkpt><trkpt lat="38.10111184211807" lon="13.251115066506813"><ele>611.0</ele><time>2026-04-12T08:18:51Z</time></trkpt><trkpt lat="38.10099952008301" lon="13.251106176400407"><ele>608.0</ele><time>2026-04-12T08:18:52Z</time></trkpt><trkpt lat="38.100895036230284" lon="13.251105700056774"><ele>605.0</ele><time>2026-04-12T08:18:53Z</time></trkpt><trkpt lat="38.10081082936472" lon="13.25105645475752"><ele>602.0</ele><time>2026-04-12T08:18:54Z</time></trkpt><trkpt lat="38.10070467082281" lon="13.25104284683405"><ele>599.0</ele><time>2026-04-12T08:18:55Z</time></trkpt><trkpt lat="38.10061393075445" lon="13.251023448181797"><ele>596.0</ele><time>2026-04-12T08:18:56Z</time></trkpt><trkpt lat="38.10051842593559" lon="13.251015607421598"><ele>593.0</ele><time>2026-04-12T08:18:57Z</time></trkpt><trkpt lat="38.1004215201131" lon="13.251041676960387"><ele>590.0</ele><time>2026-04-12T08:18:58Z</time></trkpt><trkpt lat="38.10030716745554" lon="13.251076972312282"><ele>590.0</ele><time>2026-04-12T08:18:59Z</time></trkpt><trkpt lat="38.10021858822125" lon="13.251118223198006"><ele>590.0</ele><time>2026-04-12T08:19:00Z</time></trkpt><trkpt lat="38.100127127637386" lon="13.251146572262703"><ele>590.0</ele><time>2026-04-12T08:19:01Z</time></trkpt><trkpt lat="38.10005796111879" lon="13.25114375403795"><ele>590.0</ele><time>2026-04-12T08:19:02Z</time></trkpt><trkpt lat="38.099981517440334" lon="13.251156543826939"><ele>590.0</ele><time>2026-04-12T08:19:03Z</time></trkpt><trkpt lat="38.09989592708132" lon="13.25115888898706"><ele>590.0</ele><time>2026-04-12T08:19:04Z</time></trkpt><trkpt lat="38.09980957249985" lon="13.251103224040339"><ele>588.1666666666666</ele><time>2026-04-12T08:19:05Z</time></trkpt><trkpt lat="38.099720128169764" lon="13.251084868818845"><ele>586.3333333333333</ele><time>2026-04-12T08:19:06Z</time></trkpt><trkpt lat="38.099640514349396" lon="13.251104383788185"><ele>584.5</ele><time>2026-04-12T08:19:07Z</time></trkpt><trkpt lat="38.099572239042864" lon="13.251111296137836"><ele>582.6666666666666</ele><time>2026-04-12T08:19:08Z</time></trkpt><trkpt lat="38.09949257866816" lon="13.251129241536589"><ele>580.8333333333334</ele><time>2026-04-12T08:19:09Z</time></trkpt><trkpt lat="38.09942277865011" lon="13.251132155739946"><ele>579.0</ele><time>2026-04-12T08:19:10Z</time></trkpt><trkpt lat="38.09935425944963" lon="13.251118585668724"><ele>579.0</ele><time>2026-04-12T08:19:11Z</time></trkpt><trkpt lat="38.099250680431695" lon="13.251062777600467"><ele>579.0</ele><time>2026-04-12T08:19:13Z</time></trkpt><trkpt lat="38.099234978522624" lon="13.250932750300974"><ele>579.0</ele><time>2026-04-12T08:19:15Z</time></trkpt><trkpt lat="38.09927805545963" lon="13.250864334734253"><ele>579.0</ele><time>2026-04-12T08:19:16Z</time></trkpt><trkpt lat="38.099354322930026" lon="13.250821407627646"><ele>579.0</ele><time>2026-04-12T08:19:17Z</time></trkpt><trkpt lat="38.09939765530893" lon="13.250759115693095"><ele>579.0</ele><time>2026-04-12T08:19:18Z</time></trkpt><trkpt lat="38.09943347677769" lon="13.250636416518134"><ele>580.1666666666666</ele><time>2026-04-12T08:19:19Z</time></trkpt><trkpt lat="38.09945327185356" lon="13.2504805404244"><ele>581.3333333333334</ele><time>2026-04-12T08:19:20Z</time></trkpt><trkpt lat="38.099454111044295" lon="13.250349565071147"><ele>582.5</ele><time>2026-04-12T08:19:21Z</time></trkpt><trkpt lat="38.099442247251936" lon="13.250263013363766"><ele>583.6666666666667</ele><time>2026-04-12T08:19:22Z</time></trkpt><trkpt lat="38.09941342352683" lon="13.250186789465863"><ele>584.8333333333334</ele><time>2026-04-12T08:19:23Z</time></trkpt><trkpt lat="38.099358981251136" lon="13.25012925342347"><ele>586.0</ele><time>2026-04-12T08:19:24Z</time></trkpt><trkpt lat="38.099255280770805" lon="13.250137474192124"><ele>586.0</ele><time>2026-04-12T08:19:25Z</time></trkpt><trkpt lat="38.099137289403394" lon="13.25013942627509"><ele>586.0</ele><time>2026-04-12T08:19:26Z</time></trkpt><trkpt lat="38.09903485125662" lon="13.250095395296693"><ele>586.0</ele><time>2026-04-12T08:19:27Z</time></trkpt><trkpt lat="38.098973493282855" lon="13.250057891318658"><ele>586.0</ele><time>2026-04-12T08:19:28Z</time></trkpt><trkpt lat="38.09890140094251" lon="13.250005656813334"><ele>586.0</ele><time>2026-04-12T08:19:29Z</time></trkpt><trkpt lat="38.09881331109822" lon="13.249943218356869"><ele>586.0</ele><time>2026-04-12T08:19:30Z</time></trkpt><trkpt lat="38.09875298148092" lon="13.249855164896953"><ele>586.0</ele><time>2026-04-12T08:19:31Z</time></trkpt><trkpt lat="38.098687385794044" lon="13.249814280432194"><ele>586.0</ele><time>2026-04-12T08:19:32Z</time></trkpt><trkpt lat="38.098616565839286" lon="13.249785480392667"><ele>586.0</ele><time>2026-04-12T08:19:33Z</time></trkpt><trkpt lat="38.09855002810034" lon="13.24977539237358"><ele>586.0</ele><time>2026-04-12T08:19:34Z</time></trkpt><trkpt lat="38.09848690060462" lon="13.249878244489635"><ele>586.0</ele><time>2026-04-12T08:19:35Z</time></trkpt><trkpt lat="38.098396301294734" lon="13.249972715467864"><ele>586.0</ele><time>2026-04-12T08:19:36Z</time></trkpt><trkpt lat="38.09831503345136" lon="13.250092886012258"><ele>586.0</ele><time>2026-04-12T08:19:37Z</time></trkpt><trkpt lat="38.09824802842218" lon="13.250193674064507"><ele>586.0</ele><time>2026-04-12T08:19:38Z</time></trkpt><trkpt lat="38.098188330410245" lon="13.250284844374486"><ele>586.0</ele><time>2026-04-12T08:19:39Z</time></trkpt><trkpt lat="38.0981272854177" lon="13.250404736444187"><ele>586.0</ele><time>2026-04-12T08:19:40Z</time></trkpt><trkpt lat="38.09809063505778" lon="13.25050938995103"><ele>586.0</ele><time>2026-04-12T08:19:41Z</time></trkpt><trkpt lat="38.09805929248266" lon="13.250586227597582"><ele>586.0</ele><time>2026-04-12T08:19:42Z</time></trkpt><trkpt lat="38.09802880242034" lon="13.250660974022475"><ele>586.0</ele><time>2026-04-12T08:19:43Z</time></trkpt><trkpt lat="38.09790393668508" lon="13.250672839293019"><ele>586.0</ele><time>2026-04-12T08:19:45Z</time></trkpt><trkpt lat="38.09783958187486" lon="13.250703362631844"><ele>586.0</ele><time>2026-04-12T08:19:46Z</time></trkpt><trkpt lat="38.09776375318242" lon="13.250745671942955"><ele>586.0</ele><time>2026-04-12T08:19:47Z</time></trkpt><trkpt lat="38.09766336369102" lon="13.25084320615423"><ele>586.0</ele><time>2026-04-12T08:19:48Z</time></trkpt><trkpt lat="38.09760596391377" lon="13.251005061706389"><ele>586.0</ele><time>2026-04-12T08:19:49Z</time></trkpt><trkpt lat="38.097527821591676" lon="13.251167293066542"><ele>586.0</ele><time>2026-04-12T08:19:50Z</time></trkpt><trkpt lat="38.09746242552679" lon="13.251301263943686"><ele>586.0</ele><time>2026-04-12T08:19:51Z</time></trkpt><trkpt lat="38.097419889749304" lon="13.25137237946322"><ele>586.7142857142857</ele><time>2026-04-12T08:19:52Z</time></trkpt><trkpt lat="38.097362949697825" lon="13.251448693780919"><ele>587.4285714285714</ele><time>2026-04-12T08:19:53Z</time></trkpt><trkpt lat="38.09731263931494" lon="13.251517032625959"><ele>588.1428571428571</ele><time>2026-04-12T08:19:54Z</time></trkpt><trkpt lat="38.09725447998512" lon="13.251549185753133"><ele>588.8571428571429</ele><time>2026-04-12T08:19:55Z</time></trkpt><trkpt lat="38.09719355665848" lon="13.251581807158663"><ele>589.5714285714286</ele><time>2026-04-12T08:19:56Z</time></trkpt><trkpt lat="38.09714457145622" lon="13.251645833474136"><ele>590.2857142857142</ele><time>2026-04-12T08:19:57Z</time></trkpt><trkpt lat="38.09708782263619" lon="13.251726697066742"><ele>591.0</ele><time>2026-04-12T08:19:58Z</time></trkpt><trkpt lat="38.09702919794278" lon="13.251799912401163"><ele>587.4</ele><time>2026-04-12T08:19:59.001Z</time></trkpt><trkpt lat="38.096920212041724" lon="13.251864395819192"><ele>583.8</ele><time>2026-04-12T08:20:01.001Z</time></trkpt><trkpt lat="38.09679014472899" lon="13.251889730641507"><ele>580.1999999999999</ele><time>2026-04-12T08:20:03.001Z</time></trkpt><trkpt lat="38.09671326262418" lon="13.25185710848635"><ele>576.6</ele><time>2026-04-12T08:20:04.001Z</time></trkpt><trkpt lat="38.09661651966424" lon="13.251820046827731"><ele>573.0</ele><time>2026-04-12T08:20:05.001Z</time></trkpt><trkpt lat="38.096537444070925" lon="13.251793021047817"><ele>572.1999999999999</ele><time>2026-04-12T08:20:06.001Z</time></trkpt><trkpt lat="38.09647265806582" lon="13.251773995127026"><ele>571.4</ele><time>2026-04-12T08:20:07.001Z</time></trkpt><trkpt lat="38.09639142103544" lon="13.251764580136431"><ele>570.5999999999999</ele><time>2026-04-12T08:20:08.001Z</time></trkpt><trkpt lat="38.09629605602143" lon="13.25174453209998"><ele>569.8</ele><time>2026-04-12T08:20:09.001Z</time></trkpt><trkpt lat="38.09619570080651" lon="13.251697730919082"><ele>569.0</ele><time>2026-04-12T08:20:10.001Z</time></trkpt><trkpt lat="38.09608792062996" lon="13.251669122164294"><ele>569.0</ele><time>2026-04-12T08:20:11.001Z</time></trkpt><trkpt lat="38.09599406595275" lon="13.251644854635893"><ele>569.0</ele><time>2026-04-12T08:20:12.001Z</time></trkpt><trkpt lat="38.09587014131388" lon="13.251613595830726"><ele>569.0</ele><time>2026-04-12T08:20:14.001Z</time></trkpt><trkpt lat="38.09578968346987" lon="13.251593654488818"><ele>569.0</ele><time>2026-04-12T08:20:15.001Z</time></trkpt><trkpt lat="38.09571003449895" lon="13.251574259621295"><ele>569.0</ele><time>2026-04-12T08:20:16.001Z</time></trkpt><trkpt lat="38.095639975034324" lon="13.251572236382946"><ele>571.0</ele><time>2026-04-12T08:20:17.001Z</time></trkpt><trkpt lat="38.09553698483939" lon="13.251511968218377"><ele>573.0</ele><time>2026-04-12T08:20:18.001Z</time></trkpt><trkpt lat="38.095422389141426" lon="13.251439925831798"><ele>575.0</ele><time>2026-04-12T08:20:19.001Z</time></trkpt><trkpt lat="38.0953120908685" lon="13.251387084921625"><ele>577.0</ele><time>2026-04-12T08:20:20.001Z</time></trkpt><trkpt lat="38.09521713813521" lon="13.25131939187168"><ele>577.0</ele><time>2026-04-12T08:20:21.001Z</time></trkpt><trkpt lat="38.095121139407254" lon="13.251271863323867"><ele>577.0</ele><time>2026-04-12T08:20:22.001Z</time></trkpt><trkpt lat="38.09502136489797" lon="13.251252458216232"><ele>577.0</ele><time>2026-04-12T08:20:23.001Z</time></trkpt><trkpt lat="38.09490997323891" lon="13.251250789171044"><ele>577.0</ele><time>2026-04-12T08:20:24.001Z</time></trkpt><trkpt lat="38.09480636907508" lon="13.251244093652211"><ele>577.0</ele><time>2026-04-12T08:20:25.001Z</time></trkpt><trkpt lat="38.094711454999555" lon="13.25125117557399"><ele>577.4</ele><time>2026-04-12T08:20:26.001Z</time></trkpt><trkpt lat="38.09460905809883" lon="13.25126280816474"><ele>577.8000000000001</ele><time>2026-04-12T08:20:27.001Z</time></trkpt><trkpt lat="38.09450634365896" lon="13.251294326217804"><ele>578.2</ele><time>2026-04-12T08:20:28.001Z</time></trkpt><trkpt lat="38.094394870856775" lon="13.251327782543513"><ele>578.6</ele><time>2026-04-12T08:20:29.001Z</time></trkpt><trkpt lat="38.09428629091205" lon="13.251360370594377"><ele>579.0</ele><time>2026-04-12T08:20:30.001Z</time></trkpt><trkpt lat="38.09418214478768" lon="13.251391628491332"><ele>579.0</ele><time>2026-04-12T08:20:31.001Z</time></trkpt><trkpt lat="38.09409269927091" lon="13.251401772952663"><ele>579.0</ele><time>2026-04-12T08:20:32.001Z</time></trkpt><trkpt lat="38.0940005841786" lon="13.251402810911408"><ele>579.0</ele><time>2026-04-12T08:20:33.001Z</time></trkpt><trkpt lat="38.093912011480526" lon="13.251402767273643"><ele>579.0</ele><time>2026-04-12T08:20:34.001Z</time></trkpt><trkpt lat="38.09381718977117" lon="13.2514216342538"><ele>579.0</ele><time>2026-04-12T08:20:35.001Z</time></trkpt><trkpt lat="38.093725385837764" lon="13.25151382812186"><ele>575.0</ele><time>2026-04-12T08:20:36Z</time></trkpt><trkpt lat="38.09364039064912" lon="13.251609246675438"><ele>571.0</ele><time>2026-04-12T08:20:37Z</time></trkpt><trkpt lat="38.09355121741683" lon="13.251685785364623"><ele>567.0</ele><time>2026-04-12T08:20:38Z</time></trkpt><trkpt lat="38.09347511014556" lon="13.251734284781087"><ele>563.0</ele><time>2026-04-12T08:20:39Z</time></trkpt><trkpt lat="38.093394697010176" lon="13.251776509401452"><ele>559.0</ele><time>2026-04-12T08:20:40Z</time></trkpt><trkpt lat="38.09330069841208" lon="13.251744526708986"><ele>559.6</ele><time>2026-04-12T08:20:41Z</time></trkpt><trkpt lat="38.093220280436036" lon="13.251720096395701"><ele>560.2</ele><time>2026-04-12T08:20:42Z</time></trkpt><trkpt lat="38.093159185957695" lon="13.251661060697161"><ele>560.8000000000001</ele><time>2026-04-12T08:20:43Z</time></trkpt><trkpt lat="38.0931252488178" lon="13.251579792077592"><ele>561.4</ele><time>2026-04-12T08:20:44Z</time></trkpt><trkpt lat="38.09311796507916" lon="13.251441971861047"><ele>562.0</ele><time>2026-04-12T08:20:45Z</time></trkpt><trkpt lat="38.09306823233736" lon="13.251280735120407"><ele>562.0</ele><time>2026-04-12T08:20:46Z</time></trkpt><trkpt lat="38.093032389889856" lon="13.251143171645174"><ele>562.0</ele><time>2026-04-12T08:20:47Z</time></trkpt><trkpt lat="38.09300121764594" lon="13.251043012662642"><ele>562.0</ele><time>2026-04-12T08:20:48Z</time></trkpt><trkpt lat="38.09295024222568" lon="13.25095537044414"><ele>562.0</ele><time>2026-04-12T08:20:49Z</time></trkpt><trkpt lat="38.09288374972318" lon="13.250879219333287"><ele>562.0</ele><time>2026-04-12T08:20:50Z</time></trkpt><trkpt lat="38.09281234745123" lon="13.250818176150377"><ele>562.0</ele><time>2026-04-12T08:20:51Z</time></trkpt><trkpt lat="38.09274632069856" lon="13.250763096015358"><ele>562.0</ele><time>2026-04-12T08:20:52Z</time></trkpt><trkpt lat="38.09266424596514" lon="13.250786531458296"><ele>562.0</ele><time>2026-04-12T08:20:53Z</time></trkpt><trkpt lat="38.09259171879421" lon="13.250821501684232"><ele>562.0</ele><time>2026-04-12T08:20:54Z</time></trkpt><trkpt lat="38.09250396200799" lon="13.250888305446832"><ele>562.0</ele><time>2026-04-12T08:20:55Z</time></trkpt><trkpt lat="38.09240061555666" lon="13.250943622395985"><ele>564.0</ele><time>2026-04-12T08:20:56Z</time></trkpt><trkpt lat="38.0923056693332" lon="13.250990795830802"><ele>566.0</ele><time>2026-04-12T08:20:57Z</time></trkpt><trkpt lat="38.092204226071836" lon="13.251025941916806"><ele>568.0</ele><time>2026-04-12T08:20:58Z</time></trkpt><trkpt lat="38.09211160163209" lon="13.251061884149797"><ele>570.0</ele><time>2026-04-12T08:20:59Z</time></trkpt><trkpt lat="38.09201031065757" lon="13.251082181474418"><ele>572.0</ele><time>2026-04-12T08:21:00Z</time></trkpt><trkpt lat="38.09191246752024" lon="13.251140724314695"><ele>572.0</ele><time>2026-04-12T08:21:01Z</time></trkpt><trkpt lat="38.091818366371115" lon="13.251247390622911"><ele>572.0</ele><time>2026-04-12T08:21:02Z</time></trkpt><trkpt lat="38.0917513368598" lon="13.251382884413951"><ele>572.0</ele><time>2026-04-12T08:21:03Z</time></trkpt><trkpt lat="38.09169097317668" lon="13.251481193476298"><ele>572.0</ele><time>2026-04-12T08:21:04Z</time></trkpt><trkpt lat="38.09160706294326" lon="13.251528222736528"><ele>572.0</ele><time>2026-04-12T08:21:05Z</time></trkpt><trkpt lat="38.0914918759167" lon="13.251553337059788"><ele>569.75</ele><time>2026-04-12T08:21:06Z</time></trkpt><trkpt lat="38.09137937454532" lon="13.251593444860243"><ele>567.5</ele><time>2026-04-12T08:21:07Z</time></trkpt><trkpt lat="38.091278159768095" lon="13.251671597735418"><ele>565.25</ele><time>2026-04-12T08:21:08Z</time></trkpt><trkpt lat="38.091177037205526" lon="13.251704769601513"><ele>563.0</ele><time>2026-04-12T08:21:09Z</time></trkpt><trkpt lat="38.091055391186174" lon="13.251675595903318"><ele>563.0</ele><time>2026-04-12T08:21:10Z</time></trkpt><trkpt lat="38.09093134220046" lon="13.251637853680695"><ele>563.0</ele><time>2026-04-12T08:21:11Z</time></trkpt><trkpt lat="38.09082447653556" lon="13.251594663988891"><ele>563.0</ele><time>2026-04-12T08:21:12Z</time></trkpt><trkpt lat="38.09072530642338" lon="13.251516845264412"><ele>563.0</ele><time>2026-04-12T08:21:13Z</time></trkpt><trkpt lat="38.09061661490817" lon="13.25141539330953"><ele>565.0</ele><time>2026-04-12T08:21:14Z</time></trkpt><trkpt lat="38.0905048874657" lon="13.25131007393725"><ele>567.0</ele><time>2026-04-12T08:21:15Z</time></trkpt><trkpt lat="38.0904220586355" lon="13.251229670428616"><ele>569.0</ele><time>2026-04-12T08:21:16Z</time></trkpt><trkpt lat="38.09035681401187" lon="13.251159614948449"><ele>571.0</ele><time>2026-04-12T08:21:17Z</time></trkpt><trkpt lat="38.09029850532307" lon="13.251089618310445"><ele>573.0</ele><time>2026-04-12T08:21:18Z</time></trkpt><trkpt lat="38.09022855531698" lon="13.251019540761556"><ele>573.0</ele><time>2026-04-12T08:21:19Z</time></trkpt><trkpt lat="38.09015899608422" lon="13.25096899512514"><ele>573.0</ele><time>2026-04-12T08:21:20Z</time></trkpt><trkpt lat="38.0900784108062" lon="13.250964263560931"><ele>573.0</ele><time>2026-04-12T08:21:21Z</time></trkpt><trkpt lat="38.0900109083294" lon="13.250936286012339"><ele>573.0</ele><time>2026-04-12T08:21:22Z</time></trkpt><trkpt lat="38.08994501614181" lon="13.25090983822658"><ele>573.0</ele><time>2026-04-12T08:21:23Z</time></trkpt><trkpt lat="38.089866944779274" lon="13.250889092847496"><ele>573.0</ele><time>2026-04-12T08:21:24Z</time></trkpt><trkpt lat="38.08979417936387" lon="13.250832480391493"><ele>569.6</ele><time>2026-04-12T08:21:25Z</time></trkpt><trkpt lat="38.08970007339649" lon="13.250793418165905"><ele>566.1999999999999</ele><time>2026-04-12T08:21:26Z</time></trkpt><trkpt lat="38.08959170862642" lon="13.250754132453759"><ele>562.8</ele><time>2026-04-12T08:21:27Z</time></trkpt><trkpt lat="38.08949141792773" lon="13.250719794271076"><ele>559.4</ele><time>2026-04-12T08:21:28Z</time></trkpt><trkpt lat="38.089386990823236" lon="13.250684039884678"><ele>556.0</ele><time>2026-04-12T08:21:29Z</time></trkpt><trkpt lat="38.08928914371395" lon="13.250650354463096"><ele>556.5</ele><time>2026-04-12T08:21:30Z</time></trkpt><trkpt lat="38.089188806276546" lon="13.250613566890598"><ele>557.0</ele><time>2026-04-12T08:21:31Z</time></trkpt><trkpt lat="38.08910203169213" lon="13.250585404366642"><ele>557.5</ele><time>2026-04-12T08:21:32Z</time></trkpt><trkpt lat="38.089032264256126" lon="13.25059312420138"><ele>558.0</ele><time>2026-04-12T08:21:33Z</time></trkpt><trkpt lat="38.08896069988982" lon="13.250591935607233"><ele>558.5</ele><time>2026-04-12T08:21:34Z</time></trkpt><trkpt lat="38.08890001687564" lon="13.250638928442227"><ele>559.0</ele><time>2026-04-12T08:21:35Z</time></trkpt><trkpt lat="38.08882473219786" lon="13.25069002188539"><ele>559.0</ele><time>2026-04-12T08:21:36Z</time></trkpt><trkpt lat="38.08876057983124" lon="13.250767738446335"><ele>559.0</ele><time>2026-04-12T08:21:37Z</time></trkpt><trkpt lat="38.08871269732217" lon="13.25083062231291"><ele>559.0</ele><time>2026-04-12T08:21:38Z</time></trkpt><trkpt lat="38.08864208207004" lon="13.250921712127099"><ele>559.0</ele><time>2026-04-12T08:21:40Z</time></trkpt><trkpt lat="38.088575478496146" lon="13.25100412098505"><ele>559.0</ele><time>2026-04-12T08:21:42Z</time></trkpt><trkpt lat="38.08849846351689" lon="13.251103859614378"><ele>559.0</ele><time>2026-04-12T08:21:44Z</time></trkpt><trkpt lat="38.088429110519165" lon="13.25121755491346"><ele>559.0</ele><time>2026-04-12T08:21:46Z</time></trkpt><trkpt lat="38.08840489806332" lon="13.251301857650299"><ele>559.0</ele><time>2026-04-12T08:21:47Z</time></trkpt><trkpt lat="38.088423072909436" lon="13.251428222765956"><ele>559.0</ele><time>2026-04-12T08:21:49Z</time></trkpt><trkpt lat="38.088480229450425" lon="13.251484329744091"><ele>559.0</ele><time>2026-04-12T08:21:50Z</time></trkpt><trkpt lat="38.088553380929746" lon="13.2515419335909"><ele>559.0</ele><time>2026-04-12T08:21:51Z</time></trkpt><trkpt lat="38.088632307514615" lon="13.251615498469318"><ele>560.8</ele><time>2026-04-12T08:21:52Z</time></trkpt><trkpt lat="38.08871044115091" lon="13.251714451566764"><ele>562.5999999999999</ele><time>2026-04-12T08:21:53Z</time></trkpt><trkpt lat="38.088773047379554" lon="13.251813522722474"><ele>564.4</ele><time>2026-04-12T08:21:54Z</time></trkpt><trkpt lat="38.08884479561132" lon="13.25191422773238"><ele>566.1999999999999</ele><time>2026-04-12T08:21:55Z</time></trkpt><trkpt lat="38.08892697706422" lon="13.251990554231185"><ele>568.0</ele><time>2026-04-12T08:21:56Z</time></trkpt><trkpt lat="38.08903120763103" lon="13.252057517525058"><ele>565.6</ele><time>2026-04-12T08:21:57Z</time></trkpt><trkpt lat="38.08914769842536" lon="13.252130441113502"><ele>563.1999999999999</ele><time>2026-04-12T08:21:58Z</time></trkpt><trkpt lat="38.08923354453079" lon="13.25220923268282"><ele>560.8</ele><time>2026-04-12T08:21:59Z</time></trkpt><trkpt lat="38.089300512265424" lon="13.252301960744774"><ele>558.4</ele><time>2026-04-12T08:22:00Z</time></trkpt><trkpt lat="38.089341739858476" lon="13.252389385541123"><ele>556.0</ele><time>2026-04-12T08:22:01Z</time></trkpt><trkpt lat="38.089373055251926" lon="13.252472908304345"><ele>556.0</ele><time>2026-04-12T08:22:02Z</time></trkpt><trkpt lat="38.08937848714524" lon="13.252622884715082"><ele>556.0</ele><time>2026-04-12T08:22:04Z</time></trkpt><trkpt lat="38.089349053294605" lon="13.252705245995399"><ele>556.0</ele><time>2026-04-12T08:22:05.001Z</time></trkpt><trkpt lat="38.089309522130485" lon="13.252790619052735"><ele>556.0</ele><time>2026-04-12T08:22:06.001Z</time></trkpt><trkpt lat="38.0892893852716" lon="13.252874034252878"><ele>556.0</ele><time>2026-04-12T08:22:07.001Z</time></trkpt><trkpt lat="38.08932648284333" lon="13.252971714065087"><ele>556.0</ele><time>2026-04-12T08:22:08.001Z</time></trkpt><trkpt lat="38.089367296738295" lon="13.253068723553982"><ele>556.4</ele><time>2026-04-12T08:22:09.001Z</time></trkpt><trkpt lat="38.08946493889089" lon="13.2531224402546"><ele>556.8</ele><time>2026-04-12T08:22:10.001Z</time></trkpt><trkpt lat="38.08952930633871" lon="13.253158080148893"><ele>557.1999999999999</ele><time>2026-04-12T08:22:11.001Z</time></trkpt><trkpt lat="38.08962713351609" lon="13.253214706353042"><ele>557.6</ele><time>2026-04-12T08:22:13.001Z</time></trkpt><trkpt lat="38.08969697922699" lon="13.253273114862802"><ele>558.0</ele><time>2026-04-12T08:22:15.001Z</time></trkpt><trkpt lat="38.08977729550363" lon="13.253332622543029"><ele>558.0</ele><time>2026-04-12T08:22:18.001Z</time></trkpt><trkpt lat="38.0898074406421" lon="13.253421909265219"><ele>558.0</ele><time>2026-04-12T08:22:21.001Z</time></trkpt><trkpt lat="38.08969704436282" lon="13.253466510544985"><ele>558.0</ele><time>2026-04-12T08:22:27.001Z</time></trkpt><trkpt lat="38.08962423468573" lon="13.253396413168375"><ele>558.0</ele><time>2026-04-12T08:22:29.001Z</time></trkpt><trkpt lat="38.08954319348022" lon="13.253353645662337"><ele>558.0</ele><time>2026-04-12T08:22:31.001Z</time></trkpt><trkpt lat="38.08945463363029" lon="13.253301138816573"><ele>558.0</ele><time>2026-04-12T08:22:33.001Z</time></trkpt><trkpt lat="38.089339681366155" lon="13.25329113372408"><ele>558.0</ele><time>2026-04-12T08:22:35.001Z</time></trkpt><trkpt lat="38.08925950125139" lon="13.253273095808439"><ele>558.0</ele><time>2026-04-12T08:22:37.001Z</time></trkpt><trkpt lat="38.08914671940392" lon="13.253269153907876"><ele>558.0</ele><time>2026-04-12T08:22:39.001Z</time></trkpt><trkpt lat="38.08905752996042" lon="13.253257723702612"><ele>558.0</ele><time>2026-04-12T08:22:41.001Z</time></trkpt><trkpt lat="38.088965973407" lon="13.25326698728756"><ele>562.5</ele><time>2026-04-12T08:22:43Z</time></trkpt><trkpt lat="38.0888536328033" lon="13.25335229537174"><ele>567.0</ele><time>2026-04-12T08:22:45Z</time></trkpt><trkpt lat="38.08880499265547" lon="13.253455565204703"><ele>571.5</ele><time>2026-04-12T08:22:46Z</time></trkpt><trkpt lat="38.08875117182833" lon="13.253589977759122"><ele>576.0</ele><time>2026-04-12T08:22:47Z</time></trkpt><trkpt lat="38.088677916543524" lon="13.25369711253818"><ele>576.0</ele><time>2026-04-12T08:22:48Z</time></trkpt><trkpt lat="38.08855999648346" lon="13.253718396110266"><ele>576.0</ele><time>2026-04-12T08:22:49Z</time></trkpt><trkpt lat="38.0885027142521" lon="13.253771791970271"><ele>576.0</ele><time>2026-04-12T08:22:50Z</time></trkpt><trkpt lat="38.088663097758875" lon="13.253848901741629"><ele>576.0</ele><time>2026-04-12T08:22:54Z</time></trkpt><trkpt lat="38.088733075366804" lon="13.25382719981412"><ele>576.0</ele><time>2026-04-12T08:22:55Z</time></trkpt><trkpt lat="38.088721278491036" lon="13.254028042560218"><ele>575.4</ele><time>2026-04-12T08:22:58Z</time></trkpt><trkpt lat="38.088671372131174" lon="13.254114766852073"><ele>574.8</ele><time>2026-04-12T08:22:59Z</time></trkpt><trkpt lat="38.08860973123281" lon="13.254199089034675"><ele>574.1999999999999</ele><time>2026-04-12T08:23:00Z</time></trkpt><trkpt lat="38.08857005055926" lon="13.254267002955746"><ele>573.6</ele><time>2026-04-12T08:23:01Z</time></trkpt><trkpt lat="38.088518853714596" lon="13.254356569224797"><ele>573.0</ele><time>2026-04-12T08:23:03Z</time></trkpt><trkpt lat="38.08839053488323" lon="13.254112775072917"><ele>573.0</ele><time>2026-04-12T08:23:05Z</time></trkpt><trkpt lat="38.08834177441428" lon="13.254049334203268"><ele>573.0</ele><time>2026-04-12T08:23:06Z</time></trkpt><trkpt lat="38.088296199061816" lon="13.25398558799666"><ele>573.0</ele><time>2026-04-12T08:23:07Z</time></trkpt><trkpt lat="38.08824273648813" lon="13.253939548480593"><ele>573.0</ele><time>2026-04-12T08:23:09Z</time></trkpt><trkpt lat="38.08810972458115" lon="13.25411852050424"><ele>573.0</ele><time>2026-04-12T08:23:10Z</time></trkpt><trkpt lat="38.08806422436984" lon="13.254199272264005"><ele>575.1999999999999</ele><time>2026-04-12T08:23:11Z</time></trkpt><trkpt lat="38.0880107167634" lon="13.254269901545346"><ele>577.4</ele><time>2026-04-12T08:23:12Z</time></trkpt><trkpt lat="38.087917311736696" lon="13.2543590615959"><ele>579.5999999999999</ele><time>2026-04-12T08:23:13Z</time></trkpt><trkpt lat="38.08783005299742" lon="13.25444996062708"><ele>581.8</ele><time>2026-04-12T08:23:14Z</time></trkpt><trkpt lat="38.08774593564805" lon="13.254562398755299"><ele>584.0</ele><time>2026-04-12T08:23:15Z</time></trkpt><trkpt lat="38.08766599395787" lon="13.254685533648205"><ele>582.0</ele><time>2026-04-12T08:23:16Z</time></trkpt><trkpt lat="38.087590231602306" lon="13.25481585025852"><ele>580.0</ele><time>2026-04-12T08:23:17Z</time></trkpt><trkpt lat="38.08752641770409" lon="13.254938174297477"><ele>578.0</ele><time>2026-04-12T08:23:18Z</time></trkpt><trkpt lat="38.08748608483457" lon="13.255056024130337"><ele>576.0</ele><time>2026-04-12T08:23:19Z</time></trkpt><trkpt lat="38.08744476387061" lon="13.255167340372303"><ele>574.0</ele><time>2026-04-12T08:23:20Z</time></trkpt><trkpt lat="38.08736754428436" lon="13.255247845629844"><ele>577.2</ele><time>2026-04-12T08:23:21Z</time></trkpt><trkpt lat="38.08729136976811" lon="13.255319129902867"><ele>580.4</ele><time>2026-04-12T08:23:22Z</time></trkpt><trkpt lat="38.087203900746665" lon="13.255411605306199"><ele>583.6</ele><time>2026-04-12T08:23:23Z</time></trkpt><trkpt lat="38.087112953112516" lon="13.255513233973257"><ele>586.8</ele><time>2026-04-12T08:23:24Z</time></trkpt><trkpt lat="38.08701519177457" lon="13.25559619483969"><ele>590.0</ele><time>2026-04-12T08:23:25Z</time></trkpt><trkpt lat="38.08692864276899" lon="13.2556899059782"><ele>590.0</ele><time>2026-04-12T08:23:26Z</time></trkpt><trkpt lat="38.086847237586326" lon="13.255781571471768"><ele>590.0</ele><time>2026-04-12T08:23:27Z</time></trkpt><trkpt lat="38.08677456183493" lon="13.255862428100754"><ele>590.0</ele><time>2026-04-12T08:23:28Z</time></trkpt><trkpt lat="38.086699497098806" lon="13.255941590048753"><ele>590.0</ele><time>2026-04-12T08:23:29Z</time></trkpt><trkpt lat="38.0866273368037" lon="13.256011382591382"><ele>590.0</ele><time>2026-04-12T08:23:30Z</time></trkpt><trkpt lat="38.08654702141516" lon="13.256083121377712"><ele>593.5</ele><time>2026-04-12T08:23:31Z</time></trkpt><trkpt lat="38.086449773009875" lon="13.256176095460647"><ele>597.0</ele><time>2026-04-12T08:23:32Z</time></trkpt><trkpt lat="38.08634121377288" lon="13.256275636719502"><ele>600.5</ele><time>2026-04-12T08:23:33Z</time></trkpt><trkpt lat="38.086211534582496" lon="13.256365084114252"><ele>604.0</ele><time>2026-04-12T08:23:34Z</time></trkpt><trkpt lat="38.086093983460785" lon="13.256445966858035"><ele>604.25</ele><time>2026-04-12T08:23:35Z</time></trkpt><trkpt lat="38.08598218026746" lon="13.2565175468607"><ele>604.5</ele><time>2026-04-12T08:23:36Z</time></trkpt><trkpt lat="38.085874701734774" lon="13.256570144768771"><ele>604.75</ele><time>2026-04-12T08:23:37Z</time></trkpt><trkpt lat="38.08574247409459" lon="13.256611466664621"><ele>605.0</ele><time>2026-04-12T08:23:38Z</time></trkpt><trkpt lat="38.08563216151353" lon="13.256675809191128"><ele>605.0</ele><time>2026-04-12T08:23:39Z</time></trkpt><trkpt lat="38.085547355377045" lon="13.256770622952962"><ele>605.0</ele><time>2026-04-12T08:23:40Z</time></trkpt><trkpt lat="38.08547808129296" lon="13.256834587422285"><ele>605.0</ele><time>2026-04-12T08:23:41Z</time></trkpt><trkpt lat="38.08539935010232" lon="13.256914741144337"><ele>605.0</ele><time>2026-04-12T08:23:42Z</time></trkpt><trkpt lat="38.085328510378076" lon="13.256991378548463"><ele>605.0</ele><time>2026-04-12T08:23:43Z</time></trkpt><trkpt lat="38.08524877040545" lon="13.257045515050667"><ele>605.0</ele><time>2026-04-12T08:23:44Z</time></trkpt><trkpt lat="38.08515828429866" lon="13.257054696434519"><ele>605.0</ele><time>2026-04-12T08:23:45Z</time></trkpt><trkpt lat="38.0850815522997" lon="13.257092148758717"><ele>605.0</ele><time>2026-04-12T08:23:46Z</time></trkpt><trkpt lat="38.08501807322841" lon="13.25717025955794"><ele>605.0</ele><time>2026-04-12T08:23:47Z</time></trkpt><trkpt lat="38.08500569879154" lon="13.257313248170096"><ele>605.0</ele><time>2026-04-12T08:23:49Z</time></trkpt><trkpt lat="38.08487997870694" lon="13.257259305608779"><ele>605.0</ele><time>2026-04-12T08:23:52Z</time></trkpt><trkpt lat="38.08479347402278" lon="13.257223484300091"><ele>605.0</ele><time>2026-04-12T08:23:53Z</time></trkpt><trkpt lat="38.08470595604364" lon="13.257186799859621"><ele>605.0</ele><time>2026-04-12T08:23:54Z</time></trkpt><trkpt lat="38.08467041905207" lon="13.257087912127249"><ele>605.0</ele><time>2026-04-12T08:23:55Z</time></trkpt><trkpt lat="38.084599754106904" lon="13.256991855123687"><ele>605.0</ele><time>2026-04-12T08:23:56Z</time></trkpt><trkpt lat="38.08457586507351" lon="13.256902021859766"><ele>605.0</ele><time>2026-04-12T08:23:57Z</time></trkpt><trkpt lat="38.084544430080186" lon="13.256803131452205"><ele>605.0</ele><time>2026-04-12T08:23:58Z</time></trkpt><trkpt lat="38.08449684983688" lon="13.25670943169058"><ele>605.0</ele><time>2026-04-12T08:23:59Z</time></trkpt><trkpt lat="38.08444502556763" lon="13.256604162974646"><ele>605.0</ele><time>2026-04-12T08:24:00Z</time></trkpt><trkpt lat="38.08441060756997" lon="13.256473012314643"><ele>605.0</ele><time>2026-04-12T08:24:01Z</time></trkpt><trkpt lat="38.084375363252384" lon="13.256351067534947"><ele>605.0</ele><time>2026-04-12T08:24:02Z</time></trkpt><trkpt lat="38.084334040871845" lon="13.256242551920465"><ele>608.1666666666666</ele><time>2026-04-12T08:24:03Z</time></trkpt><trkpt lat="38.0842821140338" lon="13.256158334905809"><ele>611.3333333333333</ele><time>2026-04-12T08:24:04Z</time></trkpt><trkpt lat="38.08416557286305" lon="13.256118309013084"><ele>614.5</ele><time>2026-04-12T08:24:06Z</time></trkpt><trkpt lat="38.084100700947104" lon="13.256128509461506"><ele>617.6666666666666</ele><time>2026-04-12T08:24:07Z</time></trkpt><trkpt lat="38.08403077714634" lon="13.25615732724354"><ele>620.8333333333334</ele><time>2026-04-12T08:24:08Z</time></trkpt><trkpt lat="38.08395344240532" lon="13.256193085837394"><ele>624.0</ele><time>2026-04-12T08:24:09.001Z</time></trkpt><trkpt lat="38.08386700227296" lon="13.256246285010551"><ele>627.4</ele><time>2026-04-12T08:24:10.001Z</time></trkpt><trkpt lat="38.083793052254684" lon="13.256292692446626"><ele>630.8</ele><time>2026-04-12T08:24:11.001Z</time></trkpt><trkpt lat="38.08368463288303" lon="13.256353075772347"><ele>634.1999999999999</ele><time>2026-04-12T08:24:12.001Z</time></trkpt><trkpt lat="38.08358282183055" lon="13.256395855839314"><ele>637.5999999999999</ele><time>2026-04-12T08:24:13.001Z</time></trkpt><trkpt lat="38.08348509956273" lon="13.25642178035043"><ele>641.0</ele><time>2026-04-12T08:24:14.001Z</time></trkpt><trkpt lat="38.08340868822224" lon="13.256418613520431"><ele>641.0</ele><time>2026-04-12T08:24:15.001Z</time></trkpt><trkpt lat="38.08329317713866" lon="13.256428790528124"><ele>641.0</ele><time>2026-04-12T08:24:17.001Z</time></trkpt><trkpt lat="38.083202751217165" lon="13.256436757429597"><ele>641.0</ele><time>2026-04-12T08:24:19.001Z</time></trkpt><trkpt lat="38.083191477706904" lon="13.256636936828198"><ele>641.0</ele><time>2026-04-12T08:24:20.001Z</time></trkpt><trkpt lat="38.083148357218484" lon="13.256724922128628"><ele>641.0</ele><time>2026-04-12T08:24:22.001Z</time></trkpt><trkpt lat="38.08309135766564" lon="13.256789822409168"><ele>641.5</ele><time>2026-04-12T08:24:24.001Z</time></trkpt><trkpt lat="38.0830173167148" lon="13.256850117708025"><ele>642.0</ele><time>2026-04-12T08:24:32.001Z</time></trkpt><trkpt lat="38.082952085905674" lon="13.256875140006107"><ele>642.5</ele><time>2026-04-12T08:24:35.001Z</time></trkpt><trkpt lat="38.08288422107573" lon="13.25690741162628"><ele>643.0</ele><time>2026-04-12T08:24:37.001Z</time></trkpt><trkpt lat="38.082803906782466" lon="13.256958497669913"><ele>643.5</ele><time>2026-04-12T08:24:39.001Z</time></trkpt><trkpt lat="38.08273843063705" lon="13.25702383981808"><ele>644.0</ele><time>2026-04-12T08:24:41.001Z</time></trkpt><trkpt lat="38.082682562542644" lon="13.257078286584829"><ele>644.0</ele><time>2026-04-12T08:24:43.001Z</time></trkpt><trkpt lat="38.08263030219749" lon="13.257132696736472"><ele>644.0</ele><time>2026-04-12T08:24:45.001Z</time></trkpt><trkpt lat="38.08257606780112" lon="13.257190700925179"><ele>644.0</ele><time>2026-04-12T08:24:47.001Z</time></trkpt><trkpt lat="38.08252168571859" lon="13.257281635717737"><ele>644.0</ele><time>2026-04-12T08:24:49Z</time></trkpt><trkpt lat="38.08243151847635" lon="13.25729644243347"><ele>644.0</ele><time>2026-04-12T08:24:52Z</time></trkpt><trkpt lat="38.0823865624798" lon="13.257361175748207"><ele>644.0</ele><time>2026-04-12T08:24:55Z</time></trkpt><trkpt lat="38.0824111299258" lon="13.257462259922615"><ele>642.5</ele><time>2026-04-12T08:24:58Z</time></trkpt><trkpt lat="38.08243048106443" lon="13.257550309236038"><ele>641.0</ele><time>2026-04-12T08:25:00Z</time></trkpt><trkpt lat="38.08246963645307" lon="13.257655216199797"><ele>639.5</ele><time>2026-04-12T08:25:03Z</time></trkpt><trkpt lat="38.08249515713638" lon="13.257753652856815"><ele>638.0</ele><time>2026-04-12T08:25:05Z</time></trkpt><trkpt lat="38.082506848922456" lon="13.25784284186541"><ele>636.5</ele><time>2026-04-12T08:25:07Z</time></trkpt><trkpt lat="38.082469180975174" lon="13.257920359819206"><ele>635.0</ele><time>2026-04-12T08:25:10Z</time></trkpt><trkpt lat="38.08239702820293" lon="13.257980091856066"><ele>638.8333333333333</ele><time>2026-04-12T08:25:13Z</time></trkpt><trkpt lat="38.08234711390949" lon="13.258072158369767"><ele>642.6666666666666</ele><time>2026-04-12T08:25:15Z</time></trkpt><trkpt lat="38.08226260810113" lon="13.258107333830727"><ele>646.5</ele><time>2026-04-12T08:25:18Z</time></trkpt><trkpt lat="38.08219302863332" lon="13.25815575803965"><ele>650.3333333333334</ele><time>2026-04-12T08:25:20Z</time></trkpt><trkpt lat="38.082130048806796" lon="13.258195828272923"><ele>654.1666666666667</ele><time>2026-04-12T08:25:22Z</time></trkpt><trkpt lat="38.0820662868334" lon="13.258256258911342"><ele>658.0</ele><time>2026-04-12T08:25:24Z</time></trkpt><trkpt lat="38.08200776812502" lon="13.258296618285865"><ele>659.0</ele><time>2026-04-12T08:25:26Z</time></trkpt><trkpt lat="38.081992605713666" lon="13.25838410395709"><ele>660.0</ele><time>2026-04-12T08:25:28Z</time></trkpt><trkpt lat="38.08194916845527" lon="13.258484097094607"><ele>661.0</ele><time>2026-04-12T08:27:07Z</time></trkpt><trkpt lat="38.08190063161993" lon="13.25856670934046"><ele>662.0</ele><time>2026-04-12T08:27:13Z</time></trkpt><trkpt lat="38.08191578903494" lon="13.258678278340208"><ele>663.0</ele><time>2026-04-12T08:27:25Z</time></trkpt><trkpt lat="38.08190664106869" lon="13.258761760906662"><ele>664.0</ele><time>2026-04-12T08:27:28Z</time></trkpt><trkpt lat="38.08185109373129" lon="13.258717871340565"><ele>664.0</ele><time>2026-04-12T08:27:37Z</time></trkpt><trkpt lat="38.081758506933184" lon="13.258731302675292"><ele>664.0</ele><time>2026-04-12T08:27:42Z</time></trkpt><trkpt lat="38.081686025385345" lon="13.258710704305079"><ele>664.0</ele><time>2026-04-12T08:27:44Z</time></trkpt><trkpt lat="38.08160947144479" lon="13.258755278032258"><ele>664.0</ele><time>2026-04-12T08:27:47Z</time></trkpt><trkpt lat="38.081549051939305" lon="13.258790381540685"><ele>664.0</ele><time>2026-04-12T08:27:49Z</time></trkpt><trkpt lat="38.081510686851594" lon="13.25872371850159"><ele>664.0</ele><time>2026-04-12T08:27:53Z</time></trkpt><trkpt lat="38.081495336035104" lon="13.258645435337021"><ele>664.0</ele><time>2026-04-12T08:29:34Z</time></trkpt><trkpt lat="38.081496040085874" lon="13.258561713504802"><ele>670.75</ele><time>2026-04-12T08:29:35Z</time></trkpt><trkpt lat="38.0814856722878" lon="13.258460279922849"><ele>677.5</ele><time>2026-04-12T08:29:36Z</time></trkpt><trkpt lat="38.08148057336241" lon="13.258317110679366"><ele>684.25</ele><time>2026-04-12T08:29:37Z</time></trkpt><trkpt lat="38.081485678653515" lon="13.258144570927998"><ele>691.0</ele><time>2026-04-12T08:29:38Z</time></trkpt><trkpt lat="38.081505910035496" lon="13.257958726276948"><ele>691.0</ele><time>2026-04-12T08:29:39Z</time></trkpt><trkpt lat="38.0815191894456" lon="13.25780531165087"><ele>691.0</ele><time>2026-04-12T08:29:40Z</time></trkpt><trkpt lat="38.081510299315774" lon="13.257672362891682"><ele>691.0</ele><time>2026-04-12T08:29:41Z</time></trkpt><trkpt lat="38.08146903637435" lon="13.257553432137493"><ele>691.0</ele><time>2026-04-12T08:29:42Z</time></trkpt><trkpt lat="38.08139289229245" lon="13.257462813435936"><ele>691.0</ele><time>2026-04-12T08:29:43Z</time></trkpt><trkpt lat="38.08131855502237" lon="13.257342334084296"><ele>692.0</ele><time>2026-04-12T08:29:44Z</time></trkpt><trkpt lat="38.08129753850658" lon="13.25724903234524"><ele>693.0</ele><time>2026-04-12T08:29:45Z</time></trkpt><trkpt lat="38.081328225102794" lon="13.257128102247213"><ele>694.0</ele><time>2026-04-12T08:29:46Z</time></trkpt><trkpt lat="38.08147089701192" lon="13.257098897229335"><ele>695.0</ele><time>2026-04-12T08:29:47Z</time></trkpt><trkpt lat="38.081542516478954" lon="13.257032491536883"><ele>696.0</ele><time>2026-04-12T08:29:48Z</time></trkpt><trkpt lat="38.08163319122935" lon="13.256970129841285"><ele>690.5</ele><time>2026-04-12T08:29:49Z</time></trkpt><trkpt lat="38.0817486699442" lon="13.256887709317361"><ele>685.0</ele><time>2026-04-12T08:29:50Z</time></trkpt><trkpt lat="38.081862831415144" lon="13.256798050924163"><ele>679.5</ele><time>2026-04-12T08:29:51Z</time></trkpt><trkpt lat="38.08196340650392" lon="13.256712691052444"><ele>674.0</ele><time>2026-04-12T08:29:52Z</time></trkpt><trkpt lat="38.08203987014887" lon="13.256591201670327"><ele>674.0</ele><time>2026-04-12T08:29:53Z</time></trkpt><trkpt lat="38.08212088182379" lon="13.256460945065887"><ele>674.0</ele><time>2026-04-12T08:29:54Z</time></trkpt><trkpt lat="38.08220698439768" lon="13.256366451184205"><ele>674.0</ele><time>2026-04-12T08:29:55Z</time></trkpt><trkpt lat="38.0822586866825" lon="13.256284490889168"><ele>674.0</ele><time>2026-04-12T08:29:56Z</time></trkpt><trkpt lat="38.082304788815634" lon="13.256200565215886"><ele>674.0</ele><time>2026-04-12T08:29:57Z</time></trkpt><trkpt lat="38.08232761055564" lon="13.25609186442823"><ele>671.8000000000001</ele><time>2026-04-12T08:29:58Z</time></trkpt><trkpt lat="38.08236508578688" lon="13.255943034025364"><ele>669.6</ele><time>2026-04-12T08:29:59Z</time></trkpt><trkpt lat="38.0824022922076" lon="13.255823900613953"><ele>667.4</ele><time>2026-04-12T08:30:00Z</time></trkpt><trkpt lat="38.082432226063375" lon="13.255720846736875"><ele>665.2</ele><time>2026-04-12T08:30:01Z</time></trkpt><trkpt lat="38.08246745998471" lon="13.255643518553521"><ele>663.0</ele><time>2026-04-12T08:30:02Z</time></trkpt><trkpt lat="38.08248814030007" lon="13.255507533941177"><ele>667.1666666666666</ele><time>2026-04-12T08:30:04Z</time></trkpt><trkpt lat="38.082514426541" lon="13.2554257301262"><ele>671.3333333333334</ele><time>2026-04-12T08:30:05Z</time></trkpt><trkpt lat="38.082549892119935" lon="13.25532551130561"><ele>675.5</ele><time>2026-04-12T08:30:07Z</time></trkpt><trkpt lat="38.082573668449825" lon="13.255238067177881"><ele>679.6666666666667</ele><time>2026-04-12T08:30:09Z</time></trkpt><trkpt lat="38.082606192100606" lon="13.255151848935546"><ele>683.8333333333334</ele><time>2026-04-12T08:30:12Z</time></trkpt><trkpt lat="38.0826680353343" lon="13.255059152693066"><ele>688.0</ele><time>2026-04-12T08:30:50.001Z</time></trkpt><trkpt lat="38.082736732726126" lon="13.254990710846025"><ele>688.0</ele><time>2026-04-12T08:30:52.001Z</time></trkpt><trkpt lat="38.08277890619433" lon="13.254912187764969"><ele>688.0</ele><time>2026-04-12T08:30:54.001Z</time></trkpt><trkpt lat="38.08284041094058" lon="13.254864603231391"><ele>688.0</ele><time>2026-04-12T08:30:56.001Z</time></trkpt><trkpt lat="38.08293120550669" lon="13.254837250425517"><ele>688.0</ele><time>2026-04-12T08:30:58.001Z</time></trkpt><trkpt lat="38.08299387379545" lon="13.25482212125186"><ele>688.0</ele><time>2026-04-12T08:30:59.001Z</time></trkpt><trkpt lat="38.08310077503845" lon="13.254858120832669"><ele>688.0</ele><time>2026-04-12T08:31:01.001Z</time></trkpt><trkpt lat="38.08311681250105" lon="13.254776040484703"><ele>692.8</ele><time>2026-04-12T08:31:03.001Z</time></trkpt><trkpt lat="38.083034958867216" lon="13.25468164297048"><ele>697.5999999999999</ele><time>2026-04-12T08:31:04.001Z</time></trkpt><trkpt lat="38.08293690607199" lon="13.254665450708687"><ele>702.4000000000001</ele><time>2026-04-12T08:31:07Z</time></trkpt><trkpt lat="38.08284041184661" lon="13.254604437644772"><ele>707.2</ele><time>2026-04-12T08:31:09Z</time></trkpt><trkpt lat="38.08278096314397" lon="13.254567842007903"><ele>712.0</ele><time>2026-04-12T08:31:10Z</time></trkpt><trkpt lat="38.08270757824515" lon="13.254457014585194"><ele>712.0</ele><time>2026-04-12T08:31:12Z</time></trkpt><trkpt lat="38.08272786174136" lon="13.25435721588212"><ele>712.0</ele><time>2026-04-12T08:31:15Z</time></trkpt><trkpt lat="38.08279265167267" lon="13.254253984187795"><ele>712.0</ele><time>2026-04-12T08:31:17Z</time></trkpt><trkpt lat="38.08286591334379" lon="13.254195084241848"><ele>712.0</ele><time>2026-04-12T08:31:19Z</time></trkpt><trkpt lat="38.08292294967164" lon="13.254158931441854"><ele>712.0</ele><time>2026-04-12T08:31:20Z</time></trkpt><trkpt lat="38.0830329601599" lon="13.25410620358276"><ele>712.0</ele><time>2026-04-12T08:31:22Z</time></trkpt><trkpt lat="38.08308123843987" lon="13.254041302740148"><ele>712.0</ele><time>2026-04-12T08:31:24Z</time></trkpt><trkpt lat="38.083029169683186" lon="13.253960621033938"><ele>712.0</ele><time>2026-04-12T08:31:30Z</time></trkpt><trkpt lat="38.08301962828993" lon="13.253833508022028"><ele>712.0</ele><time>2026-04-12T08:31:32Z</time></trkpt><trkpt lat="38.0830410710514" lon="13.253735657881464"><ele>712.0</ele><time>2026-04-12T08:31:34Z</time></trkpt><trkpt lat="38.08309804859992" lon="13.253625318677127"><ele>712.0</ele><time>2026-04-12T08:31:36Z</time></trkpt><trkpt lat="38.08314058899377" lon="13.253562501149629"><ele>715.7142857142857</ele><time>2026-04-12T08:31:37Z</time></trkpt><trkpt lat="38.08318706371336" lon="13.253504074401489"><ele>719.4285714285714</ele><time>2026-04-12T08:31:39Z</time></trkpt><trkpt lat="38.08319488214277" lon="13.253413279839359"><ele>723.1428571428571</ele><time>2026-04-12T08:31:41Z</time></trkpt><trkpt lat="38.083215211763225" lon="13.253326365026126"><ele>726.8571428571429</ele><time>2026-04-12T08:31:43Z</time></trkpt><trkpt lat="38.08319968579039" lon="13.25322945896714"><ele>730.5714285714286</ele><time>2026-04-12T08:31:45Z</time></trkpt><trkpt lat="38.08318088628329" lon="13.25313795031914"><ele>734.2857142857142</ele><time>2026-04-12T08:31:47Z</time></trkpt><trkpt lat="38.083166736000656" lon="13.253048383263708"><ele>738.0</ele><time>2026-04-12T08:31:49Z</time></trkpt><trkpt lat="38.08314977877137" lon="13.252930663523982"><ele>739.1666666666666</ele><time>2026-04-12T08:31:51Z</time></trkpt><trkpt lat="38.08313453773412" lon="13.252847421207173"><ele>740.3333333333334</ele><time>2026-04-12T08:31:52Z</time></trkpt><trkpt lat="38.08308679522796" lon="13.252765954883735"><ele>741.5</ele><time>2026-04-12T08:31:54Z</time></trkpt><trkpt lat="38.083042236795194" lon="13.252702205087365"><ele>742.6666666666667</ele><time>2026-04-12T08:31:55Z</time></trkpt><trkpt lat="38.082987498154594" lon="13.252589510518511"><ele>743.8333333333334</ele><time>2026-04-12T08:31:57Z</time></trkpt><trkpt lat="38.082949086780836" lon="13.252491671822723"><ele>745.0</ele><time>2026-04-12T08:31:59Z</time></trkpt><trkpt lat="38.08292108968757" lon="13.252406323800518"><ele>747.4</ele><time>2026-04-12T08:32:00Z</time></trkpt><trkpt lat="38.082900602602756" lon="13.252259780603378"><ele>749.8</ele><time>2026-04-12T08:32:02Z</time></trkpt><trkpt lat="38.08289071942098" lon="13.25213018674826"><ele>752.2</ele><time>2026-04-12T08:32:04Z</time></trkpt><trkpt lat="38.082904283630214" lon="13.252014152832961"><ele>754.6</ele><time>2026-04-12T08:32:06Z</time></trkpt><trkpt lat="38.082892623815766" lon="13.25190272308657"><ele>757.0</ele><time>2026-04-12T08:32:08Z</time></trkpt><trkpt lat="38.082963252349664" lon="13.251809405896621"><ele>757.0</ele><time>2026-04-12T08:32:10Z</time></trkpt><trkpt lat="38.083024302159295" lon="13.251757549849275"><ele>757.0</ele><time>2026-04-12T08:32:11Z</time></trkpt><trkpt lat="38.08308185957967" lon="13.251700513267144"><ele>757.0</ele><time>2026-04-12T08:32:12Z</time></trkpt><trkpt lat="38.08312990981627" lon="13.251630088838208"><ele>757.0</ele><time>2026-04-12T08:32:13Z</time></trkpt><trkpt lat="38.08322796267519" lon="13.25149650069321"><ele>757.0</ele><time>2026-04-12T08:32:15Z</time></trkpt><trkpt lat="38.083278166354674" lon="13.25142392544227"><ele>757.0</ele><time>2026-04-12T08:32:16Z</time></trkpt><trkpt lat="38.08333607766681" lon="13.251370374923525"><ele>758.2</ele><time>2026-04-12T08:32:17Z</time></trkpt><trkpt lat="38.0834018957698" lon="13.251251130647667"><ele>759.4000000000001</ele><time>2026-04-12T08:32:19Z</time></trkpt><trkpt lat="38.0834410485255" lon="13.251139986498243"><ele>760.5999999999999</ele><time>2026-04-12T08:32:21Z</time></trkpt><trkpt lat="38.08348854840328" lon="13.25099760191361"><ele>761.8</ele><time>2026-04-12T08:32:23Z</time></trkpt><trkpt lat="38.083553534927844" lon="13.25090231244859"><ele>763.0</ele><time>2026-04-12T08:32:26Z</time></trkpt><trkpt lat="38.08360376082651" lon="13.250816519924165"><ele>763.0</ele><time>2026-04-12T08:32:28Z</time></trkpt><trkpt lat="38.08359825115002" lon="13.250693298275005"><ele>763.0</ele><time>2026-04-12T08:33:36Z</time></trkpt><trkpt lat="38.08360823521679" lon="13.250589588535268"><ele>763.0</ele><time>2026-04-12T08:33:37Z</time></trkpt><trkpt lat="38.08362204601018" lon="13.250496878148052"><ele>763.0</ele><time>2026-04-12T08:33:38Z</time></trkpt><trkpt lat="38.08367781294082" lon="13.2504217603334"><ele>763.0</ele><time>2026-04-12T08:33:39Z</time></trkpt><trkpt lat="38.08372951501839" lon="13.250280049990108"><ele>765.5999999999999</ele><time>2026-04-12T08:33:41Z</time></trkpt><trkpt lat="38.08379811911688" lon="13.250181657323953"><ele>768.1999999999999</ele><time>2026-04-12T08:33:43Z</time></trkpt><trkpt lat="38.08384220177878" lon="13.250070483136623"><ele>770.8</ele><time>2026-04-12T08:33:45Z</time></trkpt><trkpt lat="38.08390968196184" lon="13.249997078171141"><ele>773.4</ele><time>2026-04-12T08:33:47Z</time></trkpt><trkpt lat="38.083991486124724" lon="13.249931912307684"><ele>776.0</ele><time>2026-04-12T08:33:49Z</time></trkpt><trkpt lat="38.0840708546178" lon="13.249871548262064"><ele>772.1999999999999</ele><time>2026-04-12T08:33:51Z</time></trkpt><trkpt lat="38.08416307963798" lon="13.24979806900997"><ele>768.4</ele><time>2026-04-12T08:33:53Z</time></trkpt><trkpt lat="38.08423075123002" lon="13.249743049196246"><ele>764.6</ele><time>2026-04-12T08:33:54Z</time></trkpt><trkpt lat="38.084336844320205" lon="13.249663616280053"><ele>760.8</ele><time>2026-04-12T08:33:56Z</time></trkpt><trkpt lat="38.084441792354916" lon="13.249583380781852"><ele>757.0</ele><time>2026-04-12T08:33:58Z</time></trkpt><trkpt lat="38.084548955087406" lon="13.249494131994918"><ele>756.8</ele><time>2026-04-12T08:34:00Z</time></trkpt><trkpt lat="38.08465568964175" lon="13.24940584667954"><ele>756.6</ele><time>2026-04-12T08:34:02Z</time></trkpt><trkpt lat="38.0847345443625" lon="13.249382982450344"><ele>756.4</ele><time>2026-04-12T08:34:03Z</time></trkpt><trkpt lat="38.084804151576485" lon="13.249346648194441"><ele>756.1999999999999</ele><time>2026-04-12T08:34:04Z</time></trkpt><trkpt lat="38.084884683704026" lon="13.249305608763317"><ele>756.0</ele><time>2026-04-12T08:34:05Z</time></trkpt><trkpt lat="38.08497206851544" lon="13.249261077214653"><ele>751.6666666666666</ele><time>2026-04-12T08:34:06Z</time></trkpt><trkpt lat="38.08504321108774" lon="13.249205257477348"><ele>747.3333333333334</ele><time>2026-04-12T08:34:07Z</time></trkpt><trkpt lat="38.08512991186935" lon="13.249148442840067"><ele>743.0</ele><time>2026-04-12T08:34:08Z</time></trkpt><trkpt lat="38.08520706598249" lon="13.249112402375227"><ele>738.6666666666667</ele><time>2026-04-12T08:34:09Z</time></trkpt><trkpt lat="38.08531149154589" lon="13.249042378951966"><ele>734.3333333333334</ele><time>2026-04-12T08:34:11Z</time></trkpt><trkpt lat="38.08536134446884" lon="13.248992298304673"><ele>730.0</ele><time>2026-04-12T08:34:12Z</time></trkpt><trkpt lat="38.08541593278872" lon="13.248910087908534"><ele>726.0</ele><time>2026-04-12T08:34:14Z</time></trkpt><trkpt lat="38.085393666482354" lon="13.24875419101294"><ele>722.0</ele><time>2026-04-12T08:34:16Z</time></trkpt><trkpt lat="38.085379228162786" lon="13.248672289347404"><ele>718.0</ele><time>2026-04-12T08:34:17Z</time></trkpt><trkpt lat="38.08532431808165" lon="13.248550521841258"><ele>714.0</ele><time>2026-04-12T08:34:19Z</time></trkpt><trkpt lat="38.08524839109785" lon="13.248517177955089"><ele>710.0</ele><time>2026-04-12T08:34:20Z</time></trkpt><trkpt lat="38.08518218605199" lon="13.248474104805986"><ele>710.0</ele><time>2026-04-12T08:34:21Z</time></trkpt><trkpt lat="38.085129584178425" lon="13.248423709220324"><ele>710.0</ele><time>2026-04-12T08:34:22Z</time></trkpt><trkpt lat="38.085046348597835" lon="13.248314507662046"><ele>710.0</ele><time>2026-04-12T08:34:24Z</time></trkpt><trkpt lat="38.08490498531801" lon="13.248250119639966"><ele>710.0</ele><time>2026-04-12T08:34:26Z</time></trkpt><trkpt lat="38.08484339300664" lon="13.248161290916913"><ele>710.0</ele><time>2026-04-12T08:34:27Z</time></trkpt><trkpt lat="38.08479145216041" lon="13.248074682850763"><ele>712.6666666666666</ele><time>2026-04-12T08:34:29Z</time></trkpt><trkpt lat="38.08474656267878" lon="13.248006857626594"><ele>715.3333333333333</ele><time>2026-04-12T08:34:30.001Z</time></trkpt><trkpt lat="38.08472378845628" lon="13.24791677578666"><ele>718.0</ele><time>2026-04-12T08:34:31.001Z</time></trkpt><trkpt lat="38.08468817776704" lon="13.247830258675053"><ele>720.6666666666666</ele><time>2026-04-12T08:34:32.001Z</time></trkpt><trkpt lat="38.08462732699487" lon="13.247757123769173"><ele>723.3333333333334</ele><time>2026-04-12T08:34:33.001Z</time></trkpt><trkpt lat="38.084566316020805" lon="13.247695295467564"><ele>726.0</ele><time>2026-04-12T08:34:34.001Z</time></trkpt><trkpt lat="38.084516359575595" lon="13.247620364702431"><ele>726.0</ele><time>2026-04-12T08:34:35.001Z</time></trkpt><trkpt lat="38.084487841424526" lon="13.247537395470296"><ele>726.0</ele><time>2026-04-12T08:34:36.001Z</time></trkpt><trkpt lat="38.08449089577264" lon="13.247442001711265"><ele>726.0</ele><time>2026-04-12T08:34:37.001Z</time></trkpt><trkpt lat="38.084469570341255" lon="13.247349298722932"><ele>726.0</ele><time>2026-04-12T08:34:38.001Z</time></trkpt><trkpt lat="38.084461732935914" lon="13.247244798793728"><ele>726.0</ele><time>2026-04-12T08:34:39.001Z</time></trkpt><trkpt lat="38.084444911446255" lon="13.247126422724646"><ele>726.0</ele><time>2026-04-12T08:34:40.001Z</time></trkpt><trkpt lat="38.08442077845486" lon="13.247006138977051"><ele>721.4</ele><time>2026-04-12T08:34:41.001Z</time></trkpt><trkpt lat="38.084392603427254" lon="13.24689627209777"><ele>716.8</ele><time>2026-04-12T08:34:42.001Z</time></trkpt><trkpt lat="38.084359344085776" lon="13.246797825924421"><ele>712.1999999999999</ele><time>2026-04-12T08:34:43.001Z</time></trkpt><trkpt lat="38.08430563268118" lon="13.24671100024876"><ele>707.5999999999999</ele><time>2026-04-12T08:34:44.001Z</time></trkpt><trkpt lat="38.08424095917213" lon="13.246621200063341"><ele>703.0</ele><time>2026-04-12T08:34:45.001Z</time></trkpt><trkpt lat="38.08417260238026" lon="13.246517113341097"><ele>703.5</ele><time>2026-04-12T08:34:46.001Z</time></trkpt><trkpt lat="38.08410719411117" lon="13.246410738562346"><ele>704.0</ele><time>2026-04-12T08:34:47.001Z</time></trkpt><trkpt lat="38.08403265291559" lon="13.246289398134351"><ele>704.5</ele><time>2026-04-12T08:34:48.001Z</time></trkpt><trkpt lat="38.08396519701741" lon="13.246170272303305"><ele>705.0</ele><time>2026-04-12T08:34:49.001Z</time></trkpt><trkpt lat="38.083891586844466" lon="13.24604675880608"><ele>708.8333333333334</ele><time>2026-04-12T08:34:50.001Z</time></trkpt><trkpt lat="38.0838441825937" lon="13.245956716788054"><ele>712.6666666666666</ele><time>2026-04-12T08:34:51.001Z</time></trkpt><trkpt lat="38.0838070248066" lon="13.245854212674963"><ele>716.5</ele><time>2026-04-12T08:34:52.001Z</time></trkpt><trkpt lat="38.083829558171765" lon="13.245741811796533"><ele>720.3333333333333</ele><time>2026-04-12T08:34:54.001Z</time></trkpt><trkpt lat="38.08386395741901" lon="13.245668018076662"><ele>724.1666666666666</ele><time>2026-04-12T08:34:57.001Z</time></trkpt><trkpt lat="38.0837763472394" lon="13.245643814381733"><ele>728.0</ele><time>2026-04-12T08:35:01.001Z</time></trkpt><trkpt lat="38.08371190740741" lon="13.24569703928291"><ele>728.0</ele><time>2026-04-12T08:35:02.001Z</time></trkpt><trkpt lat="38.08364740009995" lon="13.245764325909782"><ele>728.0</ele><time>2026-04-12T08:35:03.001Z</time></trkpt><trkpt lat="38.08354478975197" lon="13.245719684943658"><ele>728.0</ele><time>2026-04-12T08:35:05.001Z</time></trkpt><trkpt lat="38.08349968553535" lon="13.245648110932873"><ele>728.0</ele><time>2026-04-12T08:35:06.001Z</time></trkpt><trkpt lat="38.08352471177566" lon="13.245543434979139"><ele>728.0</ele><time>2026-04-12T08:35:07.001Z</time></trkpt><trkpt lat="38.0836067695724" lon="13.245431247982951"><ele>729.4</ele><time>2026-04-12T08:35:08.001Z</time></trkpt><trkpt lat="38.083713110861424" lon="13.245331920297694"><ele>730.8</ele><time>2026-04-12T08:35:09.001Z</time></trkpt><trkpt lat="38.08381335431928" lon="13.24524129318617"><ele>732.2</ele><time>2026-04-12T08:35:10.001Z</time></trkpt><trkpt lat="38.08389650498852" lon="13.245175309720015"><ele>733.6</ele><time>2026-04-12T08:35:11.001Z</time></trkpt><trkpt lat="38.083986494635155" lon="13.245141696642916"><ele>735.0</ele><time>2026-04-12T08:35:12.001Z</time></trkpt><trkpt lat="38.08408676246286" lon="13.245165141582808"><ele>735.5</ele><time>2026-04-12T08:35:13.001Z</time></trkpt><trkpt lat="38.08421277460148" lon="13.245224613317141"><ele>736.0</ele><time>2026-04-12T08:35:14.001Z</time></trkpt><trkpt lat="38.084341445736165" lon="13.245275246384226"><ele>736.5</ele><time>2026-04-12T08:35:15.001Z</time></trkpt><trkpt lat="38.0844758784851" lon="13.24530147323038"><ele>737.0</ele><time>2026-04-12T08:35:16.001Z</time></trkpt><trkpt lat="38.08459924672026" lon="13.245307626351323"><ele>737.0</ele><time>2026-04-12T08:35:17.001Z</time></trkpt><trkpt lat="38.084706072204575" lon="13.24528572137532"><ele>737.0</ele><time>2026-04-12T08:35:18Z</time></trkpt><trkpt lat="38.08479328646467" lon="13.24524027835063"><ele>737.0</ele><time>2026-04-12T08:35:19Z</time></trkpt><trkpt lat="38.0848720521499" lon="13.245155942337714"><ele>737.0</ele><time>2026-04-12T08:35:20Z</time></trkpt><trkpt lat="38.08494130957753" lon="13.245046134841946"><ele>737.0</ele><time>2026-04-12T08:35:21Z</time></trkpt><trkpt lat="38.08501216800794" lon="13.244944459237423"><ele>737.2</ele><time>2026-04-12T08:35:22Z</time></trkpt><trkpt lat="38.085088239991315" lon="13.244890905181157"><ele>737.4000000000001</ele><time>2026-04-12T08:35:23Z</time></trkpt><trkpt lat="38.0851723359974" lon="13.244882519313302"><ele>737.5999999999999</ele><time>2026-04-12T08:35:24Z</time></trkpt><trkpt lat="38.08525426457294" lon="13.244934011438595"><ele>737.8</ele><time>2026-04-12T08:35:25Z</time></trkpt><trkpt lat="38.08537149724742" lon="13.244981961587207"><ele>738.0</ele><time>2026-04-12T08:35:26Z</time></trkpt><trkpt lat="38.085474319422104" lon="13.245041549068906"><ele>738.0</ele><time>2026-04-12T08:35:27Z</time></trkpt><trkpt lat="38.08558329105823" lon="13.245092923340065"><ele>738.0</ele><time>2026-04-12T08:35:28Z</time></trkpt><trkpt lat="38.085686008790255" lon="13.245113855018838"><ele>738.0</ele><time>2026-04-12T08:35:29Z</time></trkpt><trkpt lat="38.085805520565266" lon="13.245105694043078"><ele>738.0</ele><time>2026-04-12T08:35:30Z</time></trkpt><trkpt lat="38.085925108264746" lon="13.245073784442758"><ele>737.1666666666666</ele><time>2026-04-12T08:35:31Z</time></trkpt><trkpt lat="38.086035285251974" lon="13.245033449264339"><ele>736.3333333333334</ele><time>2026-04-12T08:35:32Z</time></trkpt><trkpt lat="38.08611705716969" lon="13.244988813332048"><ele>735.5</ele><time>2026-04-12T08:35:33Z</time></trkpt><trkpt lat="38.086171545243715" lon="13.244908183648885"><ele>734.6666666666667</ele><time>2026-04-12T08:35:34Z</time></trkpt><trkpt lat="38.08617730951617" lon="13.244813727256732"><ele>733.8333333333334</ele><time>2026-04-12T08:35:35Z</time></trkpt><trkpt lat="38.08617794577397" lon="13.244712139998127"><ele>733.0</ele><time>2026-04-12T08:35:36Z</time></trkpt><trkpt lat="38.08616467373305" lon="13.244593739096272"><ele>736.0</ele><time>2026-04-12T08:35:37Z</time></trkpt><trkpt lat="38.086139377314865" lon="13.244452961011609"><ele>739.0</ele><time>2026-04-12T08:35:38Z</time></trkpt><trkpt lat="38.086106448191416" lon="13.244312660414682"><ele>742.0</ele><time>2026-04-12T08:35:39Z</time></trkpt><trkpt lat="38.08607925858827" lon="13.244180802557596"><ele>745.0</ele><time>2026-04-12T08:35:40Z</time></trkpt><trkpt lat="38.086048552322744" lon="13.244050654958151"><ele>748.0</ele><time>2026-04-12T08:35:41Z</time></trkpt><trkpt lat="38.08602439489181" lon="13.24397650158741"><ele>748.0</ele><time>2026-04-12T08:35:42Z</time></trkpt><trkpt lat="38.086007343782356" lon="13.24388033314223"><ele>748.0</ele><time>2026-04-12T08:35:44Z</time></trkpt><trkpt lat="38.085937937717425" lon="13.244032096620296"><ele>748.0</ele><time>2026-04-12T08:35:48Z</time></trkpt><trkpt lat="38.08593769911095" lon="13.244199001400558"><ele>748.0</ele><time>2026-04-12T08:35:49Z</time></trkpt><trkpt lat="38.085946397675755" lon="13.244386366960539"><ele>748.0</ele><time>2026-04-12T08:35:50Z</time></trkpt><trkpt lat="38.08594592296958" lon="13.244536832794548"><ele>748.0</ele><time>2026-04-12T08:35:51Z</time></trkpt><trkpt lat="38.085930596088744" lon="13.244627666370866"><ele>748.0</ele><time>2026-04-12T08:35:52Z</time></trkpt><trkpt lat="38.085860836798474" lon="13.244730337209491"><ele>748.0</ele><time>2026-04-12T08:35:54Z</time></trkpt><trkpt lat="38.08571904750663" lon="13.244691699079144"><ele>748.0</ele><time>2026-04-12T08:35:56Z</time></trkpt><trkpt lat="38.085646163355996" lon="13.244671156102694"><ele>750.0</ele><time>2026-04-12T08:35:57Z</time></trkpt><trkpt lat="38.085568725761334" lon="13.244644128210965"><ele>752.0</ele><time>2026-04-12T08:35:58Z</time></trkpt><trkpt lat="38.08548108816298" lon="13.244592050311415"><ele>754.0</ele><time>2026-04-12T08:35:59Z</time></trkpt><trkpt lat="38.08540102900547" lon="13.244515011792823"><ele>756.0</ele><time>2026-04-12T08:36:00Z</time></trkpt><trkpt lat="38.0853510525456" lon="13.244426525906352"><ele>758.0</ele><time>2026-04-12T08:36:01Z</time></trkpt><trkpt lat="38.085282688658054" lon="13.244363442599594"><ele>760.0</ele><time>2026-04-12T08:36:02Z</time></trkpt><trkpt lat="38.08523561927227" lon="13.244283582330635"><ele>760.0</ele><time>2026-04-12T08:36:03Z</time></trkpt><trkpt lat="38.085182945239865" lon="13.244211312709092"><ele>760.0</ele><time>2026-04-12T08:36:04Z</time></trkpt><trkpt lat="38.085138892704244" lon="13.244134475242717"><ele>760.0</ele><time>2026-04-12T08:36:05Z</time></trkpt><trkpt lat="38.08507980997347" lon="13.244071950513723"><ele>760.0</ele><time>2026-04-12T08:36:06Z</time></trkpt><trkpt lat="38.085035828862644" lon="13.244010659145701"><ele>760.0</ele><time>2026-04-12T08:36:07Z</time></trkpt><trkpt lat="38.084974262732494" lon="13.243918509109687"><ele>760.0</ele><time>2026-04-12T08:36:09Z</time></trkpt><trkpt lat="38.08493034248308" lon="13.243832344846028"><ele>760.2</ele><time>2026-04-12T08:36:11Z</time></trkpt><trkpt lat="38.08484112894278" lon="13.243832844353864"><ele>760.4</ele><time>2026-04-12T08:36:12Z</time></trkpt><trkpt lat="38.08476179769551" lon="13.243884689302904"><ele>760.5999999999999</ele><time>2026-04-12T08:36:13Z</time></trkpt><trkpt lat="38.084744938078074" lon="13.24402150545177"><ele>760.8</ele><time>2026-04-12T08:36:14Z</time></trkpt><trkpt lat="38.08469534446042" lon="13.24411502382232"><ele>761.0</ele><time>2026-04-12T08:36:15Z</time></trkpt><trkpt lat="38.084668245669555" lon="13.244212733007762"><ele>761.3333333333333</ele><time>2026-04-12T08:36:16Z</time></trkpt><trkpt lat="38.084642755696656" lon="13.244314442773495"><ele>761.6666666666666</ele><time>2026-04-12T08:36:17Z</time></trkpt><trkpt lat="38.08461493252703" lon="13.244420549539775"><ele>762.0</ele><time>2026-04-12T08:36:18Z</time></trkpt><trkpt lat="38.08460016772344" lon="13.24450200522122"><ele>762.3333333333334</ele><time>2026-04-12T08:36:19Z</time></trkpt><trkpt lat="38.084559126347735" lon="13.244574689799757"><ele>762.6666666666667</ele><time>2026-04-12T08:36:20Z</time></trkpt><trkpt lat="38.08447397377923" lon="13.24460856666838"><ele>763.0</ele><time>2026-04-12T08:36:22Z</time></trkpt><trkpt lat="38.0843782669651" lon="13.24455802186775"><ele>763.0</ele><time>2026-04-12T08:36:24Z</time></trkpt><trkpt lat="38.08428993534921" lon="13.244533941641736"><ele>763.0</ele><time>2026-04-12T08:36:25Z</time></trkpt><trkpt lat="38.08420957103787" lon="13.244498337306082"><ele>763.0</ele><time>2026-04-12T08:36:26Z</time></trkpt><trkpt lat="38.084116346188964" lon="13.24444836660885"><ele>763.0</ele><time>2026-04-12T08:36:27Z</time></trkpt><trkpt lat="38.08400993761559" lon="13.244413694538656"><ele>763.0</ele><time>2026-04-12T08:36:28Z</time></trkpt><trkpt lat="38.083921042783786" lon="13.244396862983137"><ele>762.5999999999999</ele><time>2026-04-12T08:36:29Z</time></trkpt><trkpt lat="38.083833465293715" lon="13.244402811981004"><ele>762.1999999999999</ele><time>2026-04-12T08:36:30Z</time></trkpt><trkpt lat="38.08373638942697" lon="13.244445386461967"><ele>761.8</ele><time>2026-04-12T08:36:31Z</time></trkpt><trkpt lat="38.08367806247722" lon="13.244551871273337"><ele>761.4</ele><time>2026-04-12T08:36:32Z</time></trkpt><trkpt lat="38.08362052115976" lon="13.244617222413362"><ele>761.0</ele><time>2026-04-12T08:36:33Z</time></trkpt><trkpt lat="38.083550913747295" lon="13.244675007999794"><ele>761.0</ele><time>2026-04-12T08:36:34Z</time></trkpt><trkpt lat="38.08348890350369" lon="13.244719117524266"><ele>761.0</ele><time>2026-04-12T08:36:35Z</time></trkpt><trkpt lat="38.08342311525528" lon="13.244736720550375"><ele>761.0</ele><time>2026-04-12T08:36:36.001Z</time></trkpt><trkpt lat="38.08334016788318" lon="13.244731815566807"><ele>761.0</ele><time>2026-04-12T08:36:37.001Z</time></trkpt><trkpt lat="38.083259761960946" lon="13.244712558639154"><ele>761.0</ele><time>2026-04-12T08:36:38.001Z</time></trkpt><trkpt lat="38.0831880186889" lon="13.244671580781304"><ele>761.0</ele><time>2026-04-12T08:36:39.001Z</time></trkpt><trkpt lat="38.083112370076904" lon="13.24461523198702"><ele>757.8</ele><time>2026-04-12T08:36:41.001Z</time></trkpt><trkpt lat="38.083042887776976" lon="13.244527114806244"><ele>754.5999999999999</ele><time>2026-04-12T08:36:43.001Z</time></trkpt><trkpt lat="38.08302416915367" lon="13.244397603481783"><ele>751.4</ele><time>2026-04-12T08:36:45.001Z</time></trkpt><trkpt lat="38.08302411118324" lon="13.244258721500408"><ele>748.2</ele><time>2026-04-12T08:36:47.001Z</time></trkpt><trkpt lat="38.08301927777317" lon="13.244091407278525"><ele>745.0</ele><time>2026-04-12T08:36:49.001Z</time></trkpt><trkpt lat="38.083020096537474" lon="13.243954498614054"><ele>745.0</ele><time>2026-04-12T08:36:51.001Z</time></trkpt><trkpt lat="38.08303991276791" lon="13.24387045584532"><ele>745.0</ele><time>2026-04-12T08:36:53.001Z</time></trkpt><trkpt lat="38.08310892441766" lon="13.243859470604441"><ele>745.0</ele><time>2026-04-12T08:36:54.001Z</time></trkpt><trkpt lat="38.08315379880896" lon="13.243957576355724"><ele>745.0</ele><time>2026-04-12T08:36:56.001Z</time></trkpt><trkpt lat="38.08312713958171" lon="13.2440903259475"><ele>745.0</ele><time>2026-04-12T08:36:58.001Z</time></trkpt><trkpt lat="38.083143093822706" lon="13.244168090850861"><ele>745.0</ele><time>2026-04-12T08:36:59.001Z</time></trkpt><trkpt lat="38.08315380875779" lon="13.244322313377063"><ele>748.2</ele><time>2026-04-12T08:37:01.001Z</time></trkpt><trkpt lat="38.08314986575701" lon="13.244412798519715"><ele>751.4</ele><time>2026-04-12T08:37:02.001Z</time></trkpt><trkpt lat="38.08320773595452" lon="13.244542898877977"><ele>754.5999999999999</ele><time>2026-04-12T08:37:04.001Z</time></trkpt><trkpt lat="38.08332529065784" lon="13.244545168411644"><ele>757.8</ele><time>2026-04-12T08:37:06.001Z</time></trkpt><trkpt lat="38.08341568026712" lon="13.244504762397426"><ele>761.0</ele><time>2026-04-12T08:37:07.001Z</time></trkpt><trkpt lat="38.08351484197805" lon="13.244454979030394"><ele>761.0</ele><time>2026-04-12T08:37:08.001Z</time></trkpt><trkpt lat="38.08360685070232" lon="13.244361054967719"><ele>761.0</ele><time>2026-04-12T08:37:09.001Z</time></trkpt><trkpt lat="38.08367415861957" lon="13.244305534543921"><ele>761.0</ele><time>2026-04-12T08:37:10.001Z</time></trkpt><trkpt lat="38.083748498624146" lon="13.244259014586836"><ele>761.0</ele><time>2026-04-12T08:37:11.001Z</time></trkpt><trkpt lat="38.08385438797258" lon="13.244247025578208"><ele>761.0</ele><time>2026-04-12T08:37:12.001Z</time></trkpt><trkpt lat="38.08395860222422" lon="13.244227998054301"><ele>761.0</ele><time>2026-04-12T08:37:13.001Z</time></trkpt><trkpt lat="38.084041138830834" lon="13.244228312475926"><ele>761.0</ele><time>2026-04-12T08:37:14.001Z</time></trkpt><trkpt lat="38.08413465475786" lon="13.244243489793487"><ele>761.0</ele><time>2026-04-12T08:37:15.001Z</time></trkpt><trkpt lat="38.08423568490812" lon="13.24426020614773"><ele>761.0</ele><time>2026-04-12T08:37:16.001Z</time></trkpt><trkpt lat="38.084304733302126" lon="13.244261526592224"><ele>761.0</ele><time>2026-04-12T08:37:17.001Z</time></trkpt><trkpt lat="38.084384578357025" lon="13.244209081788355"><ele>761.0</ele><time>2026-04-12T08:37:18.001Z</time></trkpt><trkpt lat="38.08448298166559" lon="13.244103592337916"><ele>761.0</ele><time>2026-04-12T08:37:20.001Z</time></trkpt><trkpt lat="38.08450567050436" lon="13.243991423931405"><ele>761.0</ele><time>2026-04-12T08:37:21.001Z</time></trkpt><trkpt lat="38.08454725357522" lon="13.243852636793358"><ele>761.0</ele><time>2026-04-12T08:37:22.001Z</time></trkpt><trkpt lat="38.084580696856584" lon="13.243717595647757"><ele>761.0</ele><time>2026-04-12T08:37:23.001Z</time></trkpt><trkpt lat="38.084617552587005" lon="13.243593733102536"><ele>761.0</ele><time>2026-04-12T08:37:24Z</time></trkpt><trkpt lat="38.084655249461214" lon="13.243483969607977"><ele>761.0</ele><time>2026-04-12T08:37:25Z</time></trkpt><trkpt lat="38.084691954614904" lon="13.243387222253649"><ele>761.0</ele><time>2026-04-12T08:37:26Z</time></trkpt><trkpt lat="38.084725487250566" lon="13.24331172621717"><ele>761.0</ele><time>2026-04-12T08:37:27Z</time></trkpt><trkpt lat="38.08476245002947" lon="13.243241822108565"><ele>761.0</ele><time>2026-04-12T08:37:28Z</time></trkpt><trkpt lat="38.08481500940494" lon="13.24316538857605"><ele>761.0</ele><time>2026-04-12T08:37:29Z</time></trkpt><trkpt lat="38.08488975145462" lon="13.243091163602188"><ele>761.0</ele><time>2026-04-12T08:37:30Z</time></trkpt><trkpt lat="38.08497510134733" lon="13.24303620632838"><ele>756.25</ele><time>2026-04-12T08:37:31Z</time></trkpt><trkpt lat="38.08508273176041" lon="13.242972844594291"><ele>751.5</ele><time>2026-04-12T08:37:32Z</time></trkpt><trkpt lat="38.08519724080368" lon="13.242913305694211"><ele>746.75</ele><time>2026-04-12T08:37:33Z</time></trkpt><trkpt lat="38.08530121650236" lon="13.242839431094595"><ele>742.0</ele><time>2026-04-12T08:37:34Z</time></trkpt><trkpt lat="38.085411288945465" lon="13.242817739094763"><ele>742.0</ele><time>2026-04-12T08:37:35Z</time></trkpt><trkpt lat="38.085519481860736" lon="13.24277682080008"><ele>742.0</ele><time>2026-04-12T08:37:36Z</time></trkpt><trkpt lat="38.085633908765075" lon="13.242715912523437"><ele>742.0</ele><time>2026-04-12T08:37:37Z</time></trkpt><trkpt lat="38.085734715702635" lon="13.242606224803417"><ele>742.0</ele><time>2026-04-12T08:37:38Z</time></trkpt><trkpt lat="38.08585202797324" lon="13.24251580225848"><ele>743.2</ele><time>2026-04-12T08:37:39Z</time></trkpt><trkpt lat="38.085932268750334" lon="13.242410210718248"><ele>744.4000000000001</ele><time>2026-04-12T08:37:40Z</time></trkpt><trkpt lat="38.08601048643535" lon="13.242318975567184"><ele>745.5999999999999</ele><time>2026-04-12T08:37:41Z</time></trkpt><trkpt lat="38.08608096888169" lon="13.242236822409762"><ele>746.8</ele><time>2026-04-12T08:37:42Z</time></trkpt><trkpt lat="38.086135304098526" lon="13.242158569497082"><ele>748.0</ele><time>2026-04-12T08:37:43Z</time></trkpt><trkpt lat="38.08616923034157" lon="13.242089962945721"><ele>748.0</ele><time>2026-04-12T08:37:44Z</time></trkpt><trkpt lat="38.086225863794226" lon="13.241928350380109"><ele>748.0</ele><time>2026-04-12T08:37:46Z</time></trkpt><trkpt lat="38.08626001136108" lon="13.241851453052133"><ele>748.0</ele><time>2026-04-12T08:37:47Z</time></trkpt><trkpt lat="38.086303637583036" lon="13.2417613836373"><ele>748.0</ele><time>2026-04-12T08:37:48Z</time></trkpt><trkpt lat="38.08633143320846" lon="13.24167818350437"><ele>748.0</ele><time>2026-04-12T08:37:49Z</time></trkpt><trkpt lat="38.08633574697603" lon="13.241580336299702"><ele>748.0</ele><time>2026-04-12T08:37:50Z</time></trkpt><trkpt lat="38.086332212969225" lon="13.241476883720425"><ele>750.5</ele><time>2026-04-12T08:37:51Z</time></trkpt><trkpt lat="38.08633275663012" lon="13.241363006509443"><ele>753.0</ele><time>2026-04-12T08:37:52Z</time></trkpt><trkpt lat="38.08633195892274" lon="13.241276076615048"><ele>755.5</ele><time>2026-04-12T08:37:53Z</time></trkpt><trkpt lat="38.08633715739788" lon="13.241183848539112"><ele>758.0</ele><time>2026-04-12T08:37:54Z</time></trkpt><trkpt lat="38.08633567328986" lon="13.24108174095692"><ele>760.5</ele><time>2026-04-12T08:37:56Z</time></trkpt><trkpt lat="38.0863276261716" lon="13.240959235024906"><ele>763.0</ele><time>2026-04-12T08:37:58Z</time></trkpt><trkpt lat="38.0863178793545" lon="13.240830246795"><ele>763.0</ele><time>2026-04-12T08:38:00Z</time></trkpt><trkpt lat="38.086280712261384" lon="13.240732542172424"><ele>763.0</ele><time>2026-04-12T08:38:02Z</time></trkpt><trkpt lat="38.08621627766782" lon="13.240711877432906"><ele>763.0</ele><time>2026-04-12T08:38:04Z</time></trkpt><trkpt lat="38.086130729313794" lon="13.240724202434794"><ele>763.0</ele><time>2026-04-12T08:38:06Z</time></trkpt><trkpt lat="38.08603847947953" lon="13.24076278455737"><ele>763.0</ele><time>2026-04-12T08:38:08Z</time></trkpt><trkpt lat="38.08596138557957" lon="13.240789117145718"><ele>763.0</ele><time>2026-04-12T08:38:12Z</time></trkpt><trkpt lat="38.08601071911355" lon="13.241052207053421"><ele>763.0</ele><time>2026-04-12T08:38:15Z</time></trkpt><trkpt lat="38.086009924204056" lon="13.24113317610206"><ele>763.0</ele><time>2026-04-12T08:38:17Z</time></trkpt><trkpt lat="38.085946638474425" lon="13.241162104886811"><ele>763.0</ele><time>2026-04-12T08:38:19Z</time></trkpt><trkpt lat="38.08585949063675" lon="13.241211004879402"><ele>763.0</ele><time>2026-04-12T08:38:21Z</time></trkpt><trkpt lat="38.08580899952939" lon="13.241274322206982"><ele>763.0</ele><time>2026-04-12T08:38:26Z</time></trkpt><trkpt lat="38.085762682174874" lon="13.24134354527601"><ele>763.0</ele><time>2026-04-12T08:38:33Z</time></trkpt><trkpt lat="38.08570653729007" lon="13.241392401180526"><ele>763.0</ele><time>2026-04-12T08:38:37Z</time></trkpt><trkpt lat="38.0856407284897" lon="13.241436159157157"><ele>757.0</ele><time>2026-04-12T08:38:41Z</time></trkpt><trkpt lat="38.085565137090114" lon="13.241490034240998"><ele>751.0</ele><time>2026-04-12T08:38:45.001Z</time></trkpt><trkpt lat="38.08551533462853" lon="13.24154268016549"><ele>745.0</ele><time>2026-04-12T08:38:47.001Z</time></trkpt><trkpt lat="38.085442898603745" lon="13.241593199822256"><ele>739.0</ele><time>2026-04-12T08:38:50.001Z</time></trkpt><trkpt lat="38.08536967224846" lon="13.241647068831657"><ele>733.0</ele><time>2026-04-12T08:38:54.001Z</time></trkpt><trkpt lat="38.08529572037585" lon="13.241633007402449"><ele>727.0</ele><time>2026-04-12T08:38:57.001Z</time></trkpt><trkpt lat="38.085233623422106" lon="13.241584672158904"><ele>727.0</ele><time>2026-04-12T08:39:00.001Z</time></trkpt><trkpt lat="38.08517159461462" lon="13.241605753990472"><ele>727.0</ele><time>2026-04-12T08:39:04.001Z</time></trkpt><trkpt lat="38.08509748081317" lon="13.241618310344556"><ele>727.0</ele><time>2026-04-12T08:39:08.001Z</time></trkpt><trkpt lat="38.08502958740378" lon="13.241607026809707"><ele>727.0</ele><time>2026-04-12T08:39:10.001Z</time></trkpt><trkpt lat="38.08496636110057" lon="13.241635328569554"><ele>727.0</ele><time>2026-04-12T08:39:12.001Z</time></trkpt><trkpt lat="38.084887033487334" lon="13.241633612212194"><ele>727.0</ele><time>2026-04-12T08:39:16.001Z</time></trkpt><trkpt lat="38.08481670062387" lon="13.241614618020286"><ele>727.0</ele><time>2026-04-12T08:39:18.001Z</time></trkpt><trkpt lat="38.08473752773124" lon="13.241634265774712"><ele>723.0</ele><time>2026-04-12T08:39:21.001Z</time></trkpt><trkpt lat="38.0846434986525" lon="13.241636484202424"><ele>719.0</ele><time>2026-04-12T08:39:23.001Z</time></trkpt><trkpt lat="38.084568681989175" lon="13.24164442755617"><ele>715.0</ele><time>2026-04-12T08:39:25.001Z</time></trkpt><trkpt lat="38.08449859674811" lon="13.241665851655107"><ele>711.0</ele><time>2026-04-12T08:39:27.001Z</time></trkpt><trkpt lat="38.0844216490798" lon="13.241705472241367"><ele>707.0</ele><time>2026-04-12T08:39:30Z</time></trkpt><trkpt lat="38.08435162512052" lon="13.24168611585429"><ele>703.0</ele><time>2026-04-12T08:39:33Z</time></trkpt><trkpt lat="38.08427157096057" lon="13.241633100687666"><ele>703.0</ele><time>2026-04-12T08:39:35Z</time></trkpt><trkpt lat="38.08420543532069" lon="13.241636881025675"><ele>703.0</ele><time>2026-04-12T08:39:37Z</time></trkpt><trkpt lat="38.08409931234574" lon="13.24165651957234"><ele>703.0</ele><time>2026-04-12T08:39:39Z</time></trkpt><trkpt lat="38.08399384338397" lon="13.241664488189382"><ele>703.0</ele><time>2026-04-12T08:39:41Z</time></trkpt><trkpt lat="38.083867124576" lon="13.241674436302185"><ele>703.0</ele><time>2026-04-12T08:39:43Z</time></trkpt><trkpt lat="38.08380164593067" lon="13.241672058825198"><ele>701.0</ele><time>2026-04-12T08:39:45Z</time></trkpt><trkpt lat="38.08370185975973" lon="13.241785869701953"><ele>699.0</ele><time>2026-04-12T08:39:49Z</time></trkpt><trkpt lat="38.08364027801199" lon="13.241849392009271"><ele>697.0</ele><time>2026-04-12T08:39:50Z</time></trkpt><trkpt lat="38.08355188540122" lon="13.241885423467176"><ele>695.0</ele><time>2026-04-12T08:39:53Z</time></trkpt><trkpt lat="38.083459982652926" lon="13.241846246394537"><ele>693.0</ele><time>2026-04-12T08:39:55Z</time></trkpt><trkpt lat="38.08338255532725" lon="13.241789154279038"><ele>693.0</ele><time>2026-04-12T08:39:57Z</time></trkpt><trkpt lat="38.083334726815984" lon="13.241729604596852"><ele>693.0</ele><time>2026-04-12T08:40:00Z</time></trkpt><trkpt lat="38.0832621164793" lon="13.241657852467192"><ele>693.0</ele><time>2026-04-12T08:40:02Z</time></trkpt><trkpt lat="38.08316665602007" lon="13.24158862036668"><ele>693.0</ele><time>2026-04-12T08:40:04Z</time></trkpt><trkpt lat="38.083108779846825" lon="13.241527432620853"><ele>693.0</ele><time>2026-04-12T08:40:05Z</time></trkpt><trkpt lat="38.08304951670385" lon="13.241466862547963"><ele>693.0</ele><time>2026-04-12T08:40:06Z</time></trkpt><trkpt lat="38.0829932541223" lon="13.241403442658292"><ele>688.8</ele><time>2026-04-12T08:40:07Z</time></trkpt><trkpt lat="38.082905626853524" lon="13.241298272925183"><ele>684.5999999999999</ele><time>2026-04-12T08:40:09Z</time></trkpt><trkpt lat="38.08280109758873" lon="13.241211224221102"><ele>680.4000000000001</ele><time>2026-04-12T08:40:11Z</time></trkpt><trkpt lat="38.08273156785189" lon="13.241190653163196"><ele>676.2</ele><time>2026-04-12T08:40:12Z</time></trkpt><trkpt lat="38.08266200681965" lon="13.241178871862264"><ele>672.0</ele><time>2026-04-12T08:40:13Z</time></trkpt><trkpt lat="38.0825986745154" lon="13.241171144277867"><ele>672.0</ele><time>2026-04-12T08:40:14Z</time></trkpt><trkpt lat="38.0825284634304" lon="13.241133128875317"><ele>672.0</ele><time>2026-04-12T08:40:17Z</time></trkpt><trkpt lat="38.082467087466014" lon="13.241077093340854"><ele>672.0</ele><time>2026-04-12T08:40:19Z</time></trkpt><trkpt lat="38.08238668250189" lon="13.241037512348917"><ele>672.0</ele><time>2026-04-12T08:40:21Z</time></trkpt><trkpt lat="38.082281073881276" lon="13.241012381112144"><ele>672.0</ele><time>2026-04-12T08:40:23Z</time></trkpt><trkpt lat="38.082215022129894" lon="13.240983127598742"><ele>672.0</ele><time>2026-04-12T08:40:24Z</time></trkpt><trkpt lat="38.08214592988362" lon="13.240952909278315"><ele>670.0</ele><time>2026-04-12T08:40:25Z</time></trkpt><trkpt lat="38.082027878426565" lon="13.24091694478812"><ele>668.0</ele><time>2026-04-12T08:40:27Z</time></trkpt><trkpt lat="38.08195445039487" lon="13.24089696087587"><ele>666.0</ele><time>2026-04-12T08:40:28Z</time></trkpt><trkpt lat="38.08181486417226" lon="13.24083487675655"><ele>664.0</ele><time>2026-04-12T08:40:30Z</time></trkpt><trkpt lat="38.081752602188956" lon="13.240790750322777"><ele>662.0</ele><time>2026-04-12T08:40:31Z</time></trkpt><trkpt lat="38.08168831185025" lon="13.240750335001005"><ele>659.1666666666666</ele><time>2026-04-12T08:40:32Z</time></trkpt><trkpt lat="38.081591562059074" lon="13.24073225280665"><ele>656.3333333333333</ele><time>2026-04-12T08:40:33Z</time></trkpt><trkpt lat="38.081495447524915" lon="13.240718003844814"><ele>653.5</ele><time>2026-04-12T08:40:34Z</time></trkpt><trkpt lat="38.08141706332728" lon="13.240712462977605"><ele>650.6666666666666</ele><time>2026-04-12T08:40:35Z</time></trkpt><trkpt lat="38.081351888926974" lon="13.240710651632744"><ele>647.8333333333334</ele><time>2026-04-12T08:40:36Z</time></trkpt><trkpt lat="38.081287988769034" lon="13.240733061671916"><ele>645.0</ele><time>2026-04-12T08:40:37Z</time></trkpt><trkpt lat="38.081228469991636" lon="13.240763029803206"><ele>645.0</ele><time>2026-04-12T08:40:38.001Z</time></trkpt><trkpt lat="38.081168746199054" lon="13.240797284669027"><ele>645.0</ele><time>2026-04-12T08:40:39.001Z</time></trkpt><trkpt lat="38.0810544727231" lon="13.240876979564728"><ele>645.0</ele><time>2026-04-12T08:40:41.001Z</time></trkpt><trkpt lat="38.08098232004129" lon="13.240919903913703"><ele>645.0</ele><time>2026-04-12T08:40:42.001Z</time></trkpt><trkpt lat="38.08090680411422" lon="13.240984941966284"><ele>645.0</ele><time>2026-04-12T08:40:43.001Z</time></trkpt><trkpt lat="38.08085151443005" lon="13.24104157429494"><ele>645.0</ele><time>2026-04-12T08:40:44.001Z</time></trkpt><trkpt lat="38.08077953807802" lon="13.241104518750143"><ele>641.6</ele><time>2026-04-12T08:40:45.001Z</time></trkpt><trkpt lat="38.08067637708456" lon="13.241141450957171"><ele>638.2</ele><time>2026-04-12T08:40:46.001Z</time></trkpt><trkpt lat="38.08059877986194" lon="13.241181908598078"><ele>634.8</ele><time>2026-04-12T08:40:47.001Z</time></trkpt><trkpt lat="38.08052699312522" lon="13.241245599649414"><ele>631.4</ele><time>2026-04-12T08:40:48.001Z</time></trkpt><trkpt lat="38.08042865074527" lon="13.241313261090497"><ele>628.0</ele><time>2026-04-12T08:40:49.001Z</time></trkpt><trkpt lat="38.08034425037734" lon="13.24134138670658"><ele>628.0</ele><time>2026-04-12T08:40:50.001Z</time></trkpt><trkpt lat="38.08027205913752" lon="13.24139493956327"><ele>628.0</ele><time>2026-04-12T08:40:51.001Z</time></trkpt><trkpt lat="38.08018874849388" lon="13.241436762168497"><ele>628.0</ele><time>2026-04-12T08:40:52.001Z</time></trkpt><trkpt lat="38.080124673847465" lon="13.241430569072957"><ele>628.0</ele><time>2026-04-12T08:40:53.001Z</time></trkpt><trkpt lat="38.08001349223938" lon="13.241572665171454"><ele>628.0</ele><time>2026-04-12T08:40:55.001Z</time></trkpt><trkpt lat="38.07996836681413" lon="13.241650224591096"><ele>629.1999999999999</ele><time>2026-04-12T08:40:56.001Z</time></trkpt><trkpt lat="38.079930772345" lon="13.241803716508088"><ele>630.4</ele><time>2026-04-12T08:40:58.001Z</time></trkpt><trkpt lat="38.07992832157949" lon="13.24192228112451"><ele>631.5999999999999</ele><time>2026-04-12T08:40:59.001Z</time></trkpt><trkpt lat="38.07992324581728" lon="13.242036386949067"><ele>632.8</ele><time>2026-04-12T08:41:00.001Z</time></trkpt><trkpt lat="38.079913520348256" lon="13.242172965573205"><ele>634.0</ele><time>2026-04-12T08:41:01.001Z</time></trkpt><trkpt lat="38.079901171592766" lon="13.242288812386318"><ele>632.0</ele><time>2026-04-12T08:41:02.001Z</time></trkpt><trkpt lat="38.07988934345051" lon="13.242374522771073"><ele>630.0</ele><time>2026-04-12T08:41:03.001Z</time></trkpt><trkpt lat="38.079853247845065" lon="13.242444818639676"><ele>628.0</ele><time>2026-04-12T08:41:04.001Z</time></trkpt><trkpt lat="38.07979098159749" lon="13.242512277414729"><ele>626.0</ele><time>2026-04-12T08:41:05.001Z</time></trkpt><trkpt lat="38.079728656806225" lon="13.242575587955011"><ele>624.0</ele><time>2026-04-12T08:41:06.001Z</time></trkpt><trkpt lat="38.079666795087356" lon="13.24262559822935"><ele>622.0</ele><time>2026-04-12T08:41:07.001Z</time></trkpt><trkpt lat="38.079578330916185" lon="13.242695530385618"><ele>622.0</ele><time>2026-04-12T08:41:09.001Z</time></trkpt><trkpt lat="38.07951339781446" lon="13.242665824067748"><ele>622.0</ele><time>2026-04-12T08:41:12.001Z</time></trkpt><trkpt lat="38.07948199594945" lon="13.242568373519745"><ele>622.0</ele><time>2026-04-12T08:41:15.001Z</time></trkpt><trkpt lat="38.07948651448652" lon="13.242399867670276"><ele>622.0</ele><time>2026-04-12T08:41:17.001Z</time></trkpt><trkpt lat="38.0795004484062" lon="13.242308489419685"><ele>622.0</ele><time>2026-04-12T08:41:18.001Z</time></trkpt><trkpt lat="38.079483644533276" lon="13.242227118112385"><ele>622.0</ele><time>2026-04-12T08:41:19.001Z</time></trkpt><trkpt lat="38.07945246939338" lon="13.242127882003285"><ele>624.4</ele><time>2026-04-12T08:41:20.001Z</time></trkpt><trkpt lat="38.07941706346916" lon="13.242023569526024"><ele>626.8000000000001</ele><time>2026-04-12T08:41:21.001Z</time></trkpt><trkpt lat="38.079382335121046" lon="13.241906317173434"><ele>629.2</ele><time>2026-04-12T08:41:22.001Z</time></trkpt><trkpt lat="38.07934233721858" lon="13.24176463744547"><ele>631.6</ele><time>2026-04-12T08:41:23.001Z</time></trkpt><trkpt lat="38.07931130461934" lon="13.241638963819886"><ele>634.0</ele><time>2026-04-12T08:41:24.001Z</time></trkpt><trkpt lat="38.07928535085124" lon="13.241530688975962"><ele>634.2</ele><time>2026-04-12T08:41:25.001Z</time></trkpt><trkpt lat="38.07926130372828" lon="13.241426867339277"><ele>634.4</ele><time>2026-04-12T08:41:26.001Z</time></trkpt><trkpt lat="38.07925923951141" lon="13.241275989429079"><ele>634.6</ele><time>2026-04-12T08:41:27.001Z</time></trkpt><trkpt lat="38.07925754772732" lon="13.241128671528422"><ele>634.8</ele><time>2026-04-12T08:41:28.001Z</time></trkpt><trkpt lat="38.07926289329057" lon="13.240992317812625"><ele>635.0</ele><time>2026-04-12T08:41:29.001Z</time></trkpt><trkpt lat="38.07927573822607" lon="13.240868943293096"><ele>635.0</ele><time>2026-04-12T08:41:30.001Z</time></trkpt><trkpt lat="38.07929927898825" lon="13.240749311807306"><ele>635.0</ele><time>2026-04-12T08:41:31.001Z</time></trkpt><trkpt lat="38.07931289182444" lon="13.240648137684039"><ele>635.0</ele><time>2026-04-12T08:41:32.001Z</time></trkpt><trkpt lat="38.07930793927834" lon="13.240539040657465"><ele>635.0</ele><time>2026-04-12T08:41:33.001Z</time></trkpt><trkpt lat="38.07928075350783" lon="13.240461248347039"><ele>635.0</ele><time>2026-04-12T08:41:34.001Z</time></trkpt><trkpt lat="38.07924213233914" lon="13.2403910818092"><ele>635.0</ele><time>2026-04-12T08:41:35.001Z</time></trkpt><trkpt lat="38.079143726374056" lon="13.24034318309353"><ele>635.4</ele><time>2026-04-12T08:41:37Z</time></trkpt><trkpt lat="38.079105180850576" lon="13.240228258878043"><ele>635.8</ele><time>2026-04-12T08:41:39Z</time></trkpt><trkpt lat="38.07906907700049" lon="13.24014836613071"><ele>636.2</ele><time>2026-04-12T08:41:40Z</time></trkpt><trkpt lat="38.07899462941804" lon="13.240025963656738"><ele>636.6</ele><time>2026-04-12T08:41:42Z</time></trkpt><trkpt lat="38.07893979219611" lon="13.239943495620011"><ele>637.0</ele><time>2026-04-12T08:41:43Z</time></trkpt><trkpt lat="38.07886315411908" lon="13.239820382463133"><ele>646.2</ele><time>2026-04-12T08:41:45Z</time></trkpt><trkpt lat="38.07882953732612" lon="13.23974042552463"><ele>655.4000000000001</ele><time>2026-04-12T08:41:46Z</time></trkpt><trkpt lat="38.07879883274481" lon="13.23963621038169"><ele>664.5999999999999</ele><time>2026-04-12T08:41:47Z</time></trkpt><trkpt lat="38.078784918584766" lon="13.239510180049663"><ele>673.8</ele><time>2026-04-12T08:41:48Z</time></trkpt><trkpt lat="38.078764586510324" lon="13.239317069763562"><ele>683.0</ele><time>2026-04-12T08:41:50Z</time></trkpt><trkpt lat="38.07875278262373" lon="13.239210501805418"><ele>683.0</ele><time>2026-04-12T08:41:51Z</time></trkpt><trkpt lat="38.07872680813806" lon="13.239130620616887"><ele>683.0</ele><time>2026-04-12T08:41:52Z</time></trkpt><trkpt lat="38.07872438161267" lon="13.239014298627207"><ele>683.0</ele><time>2026-04-12T08:41:53Z</time></trkpt><trkpt lat="38.07874071713498" lon="13.238896013205377"><ele>683.0</ele><time>2026-04-12T08:41:54Z</time></trkpt><trkpt lat="38.078757385272546" lon="13.238781946483904"><ele>683.0</ele><time>2026-04-12T08:41:55Z</time></trkpt><trkpt lat="38.07878295344136" lon="13.238669981284781"><ele>683.0</ele><time>2026-04-12T08:41:56Z</time></trkpt><trkpt lat="38.07880041264305" lon="13.2385484062728"><ele>683.2</ele><time>2026-04-12T08:41:57Z</time></trkpt><trkpt lat="38.07881337487105" lon="13.238399945490865"><ele>683.4</ele><time>2026-04-12T08:41:58Z</time></trkpt><trkpt lat="38.0788036441248" lon="13.238235879900198"><ele>683.6</ele><time>2026-04-12T08:41:59Z</time></trkpt><trkpt lat="38.07880210873925" lon="13.238091851118229"><ele>683.8000000000001</ele><time>2026-04-12T08:42:00Z</time></trkpt><trkpt lat="38.07882202416092" lon="13.23800110218728"><ele>684.0</ele><time>2026-04-12T08:42:01Z</time></trkpt><trkpt lat="38.07885055516454" lon="13.237907559442094"><ele>684.0</ele><time>2026-04-12T08:42:02Z</time></trkpt><trkpt lat="38.07885762707161" lon="13.237823134442099"><ele>684.0</ele><time>2026-04-12T08:42:03Z</time></trkpt><trkpt lat="38.07884371482452" lon="13.237740012483327"><ele>684.0</ele><time>2026-04-12T08:42:04Z</time></trkpt><trkpt lat="38.07884007654939" lon="13.237649308655127"><ele>684.0</ele><time>2026-04-12T08:42:05Z</time></trkpt><trkpt lat="38.07883646631211" lon="13.237513756285313"><ele>684.0</ele><time>2026-04-12T08:42:07Z</time></trkpt><trkpt lat="38.0787642640857" lon="13.237398081862219"><ele>684.0</ele><time>2026-04-12T08:42:09Z</time></trkpt><trkpt lat="38.07870725314132" lon="13.237356001687127"><ele>684.0</ele><time>2026-04-12T08:42:10Z</time></trkpt><trkpt lat="38.078606979362476" lon="13.23733149516442"><ele>684.0</ele><time>2026-04-12T08:42:12Z</time></trkpt><trkpt lat="38.07853187547347" lon="13.237283989646839"><ele>684.0</ele><time>2026-04-12T08:42:14Z</time></trkpt><trkpt lat="38.078473190936606" lon="13.23718924601354"><ele>684.0</ele><time>2026-04-12T08:42:16Z</time></trkpt><trkpt lat="38.07840534218699" lon="13.237055118208358"><ele>684.0</ele><time>2026-04-12T08:42:18Z</time></trkpt><trkpt lat="38.07835699276511" lon="13.236940539063518"><ele>683.6666666666666</ele><time>2026-04-12T08:42:20Z</time></trkpt><trkpt lat="38.078290717307596" lon="13.236853668200895"><ele>683.3333333333334</ele><time>2026-04-12T08:42:23Z</time></trkpt><trkpt lat="38.07824551395606" lon="13.236797814292142"><ele>683.0</ele><time>2026-04-12T08:42:25Z</time></trkpt><trkpt lat="38.078201493616774" lon="13.236733721256229"><ele>682.6666666666667</ele><time>2026-04-12T08:42:27Z</time></trkpt><trkpt lat="38.07817709569194" lon="13.236651111972288"><ele>682.3333333333334</ele><time>2026-04-12T08:42:29Z</time></trkpt><trkpt lat="38.07813883182887" lon="13.236552226592826"><ele>682.0</ele><time>2026-04-12T08:42:31Z</time></trkpt><trkpt lat="38.078107347944034" lon="13.236447026187522"><ele>684.1666666666667</ele><time>2026-04-12T08:42:33Z</time></trkpt><trkpt lat="38.07805087941335" lon="13.236363398087345"><ele>686.3333333333334</ele><time>2026-04-12T08:45:29.001Z</time></trkpt><trkpt lat="38.07800822377279" lon="13.236265526139537"><ele>688.5</ele><time>2026-04-12T08:45:32.001Z</time></trkpt><trkpt lat="38.077962735561044" lon="13.23617147490286"><ele>690.6666666666666</ele><time>2026-04-12T08:45:35.001Z</time></trkpt><trkpt lat="38.07793983153098" lon="13.23608290409604"><ele>692.8333333333333</ele><time>2026-04-12T08:45:44.001Z</time></trkpt><trkpt lat="38.07786258892765" lon="13.23601682871142"><ele>695.0</ele><time>2026-04-12T08:45:47.001Z</time></trkpt><trkpt lat="38.07776952817175" lon="13.235957591027908"><ele>695.0</ele><time>2026-04-12T08:45:49Z</time></trkpt><trkpt lat="38.07769642931238" lon="13.235953001188916"><ele>695.0</ele><time>2026-04-12T08:45:51Z</time></trkpt><trkpt lat="38.077587736000964" lon="13.235900088037244"><ele>695.0</ele><time>2026-04-12T08:45:53Z</time></trkpt><trkpt lat="38.07749639668854" lon="13.235793946917452"><ele>695.0</ele><time>2026-04-12T08:45:55Z</time></trkpt><trkpt lat="38.077438725315226" lon="13.235750510504015"><ele>695.0</ele><time>2026-04-12T08:45:56Z</time></trkpt><trkpt lat="38.07730430708325" lon="13.23569849641196"><ele>697.4</ele><time>2026-04-12T08:45:58Z</time></trkpt><trkpt lat="38.077216052763674" lon="13.235651209039277"><ele>699.8</ele><time>2026-04-12T08:46:00Z</time></trkpt><trkpt lat="38.077129588694106" lon="13.235559749856893"><ele>702.2</ele><time>2026-04-12T08:46:02Z</time></trkpt><trkpt lat="38.077040958907894" lon="13.235514389924617"><ele>704.6</ele><time>2026-04-12T08:46:04Z</time></trkpt><trkpt lat="38.07700212058782" lon="13.23543498594151"><ele>707.0</ele><time>2026-04-12T08:46:05Z</time></trkpt><trkpt lat="38.07697901824209" lon="13.235321251347095"><ele>707.0</ele><time>2026-04-12T08:46:06Z</time></trkpt><trkpt lat="38.07696315717645" lon="13.23521197502683"><ele>707.0</ele><time>2026-04-12T08:46:07Z</time></trkpt><trkpt lat="38.07692119597786" lon="13.235113176561146"><ele>707.0</ele><time>2026-04-12T08:46:08Z</time></trkpt><trkpt lat="38.07687631519149" lon="13.235033440960647"><ele>707.0</ele><time>2026-04-12T08:46:09Z</time></trkpt><trkpt lat="38.07678756077672" lon="13.234955958632026"><ele>707.0</ele><time>2026-04-12T08:46:11Z</time></trkpt><trkpt lat="38.07668578007713" lon="13.234874528979093"><ele>708.4000000000001</ele><time>2026-04-12T08:46:13Z</time></trkpt><trkpt lat="38.07656877856048" lon="13.234814446001945"><ele>709.8000000000001</ele><time>2026-04-12T08:46:15Z</time></trkpt><trkpt lat="38.076469193968975" lon="13.234682883976392"><ele>711.2</ele><time>2026-04-12T08:46:17Z</time></trkpt><trkpt lat="38.07640813408298" lon="13.2346178964148"><ele>712.6</ele><time>2026-04-12T08:46:18Z</time></trkpt><trkpt lat="38.07635155308683" lon="13.234570263156318"><ele>714.0</ele><time>2026-04-12T08:46:19Z</time></trkpt><trkpt lat="38.07629637765979" lon="13.234519005157951"><ele>714.0</ele><time>2026-04-12T08:46:20Z</time></trkpt><trkpt lat="38.07623422332257" lon="13.234488012848022"><ele>714.0</ele><time>2026-04-12T08:46:21Z</time></trkpt><trkpt lat="38.07612544638859" lon="13.234478876687335"><ele>714.0</ele><time>2026-04-12T08:46:23Z</time></trkpt><trkpt lat="38.07602328214104" lon="13.234485367887368"><ele>714.0</ele><time>2026-04-12T08:46:25Z</time></trkpt><trkpt lat="38.07596033718683" lon="13.234429268140683"><ele>714.0</ele><time>2026-04-12T08:46:38Z</time></trkpt><trkpt lat="38.0759118090294" lon="13.234375018924617"><ele>714.0</ele><time>2026-04-12T08:46:39Z</time></trkpt><trkpt lat="38.07585670380825" lon="13.234313660662382"><ele>714.0</ele><time>2026-04-12T08:46:40Z</time></trkpt><trkpt lat="38.075806075580836" lon="13.234259383061506"><ele>714.0</ele><time>2026-04-12T08:46:41Z</time></trkpt><trkpt lat="38.07567679320751" lon="13.234222990467522"><ele>714.0</ele><time>2026-04-12T08:46:43Z</time></trkpt><trkpt lat="38.07561369011669" lon="13.234197391621278"><ele>714.0</ele><time>2026-04-12T08:46:44Z</time></trkpt><trkpt lat="38.07555388791097" lon="13.234149522962085"><ele>714.0</ele><time>2026-04-12T08:46:46Z</time></trkpt><trkpt lat="38.07550443006776" lon="13.2340970518304"><ele>714.0</ele><time>2026-04-12T08:46:52Z</time></trkpt><trkpt lat="38.07545022017226" lon="13.234035798957612"><ele>716.0</ele><time>2026-04-12T08:46:54Z</time></trkpt><trkpt lat="38.07538325962167" lon="13.233936742493277"><ele>718.0</ele><time>2026-04-12T08:46:56Z</time></trkpt><trkpt lat="38.07532409522493" lon="13.233814914346935"><ele>720.0</ele><time>2026-04-12T08:46:58Z</time></trkpt><trkpt lat="38.075284588108666" lon="13.233734511904236"><ele>722.0</ele><time>2026-04-12T08:46:59Z</time></trkpt><trkpt lat="38.07523946777753" lon="13.23360535518568"><ele>724.0</ele><time>2026-04-12T08:47:01Z</time></trkpt><trkpt lat="38.075215255149615" lon="13.233509435076149"><ele>724.0</ele><time>2026-04-12T08:47:03Z</time></trkpt><trkpt lat="38.07514439949758" lon="13.23343235961402"><ele>724.0</ele><time>2026-04-12T08:47:05Z</time></trkpt><trkpt lat="38.075077713026616" lon="13.23338599517151"><ele>724.0</ele><time>2026-04-12T08:47:06Z</time></trkpt><trkpt lat="38.075013590573874" lon="13.233334894230623"><ele>724.0</ele><time>2026-04-12T08:47:07.001Z</time></trkpt><trkpt lat="38.07493806226166" lon="13.233270261010624"><ele>724.0</ele><time>2026-04-12T08:47:08.001Z</time></trkpt><trkpt lat="38.07486694501977" lon="13.233215567552492"><ele>724.0</ele><time>2026-04-12T08:47:09.001Z</time></trkpt><trkpt lat="38.07479756010836" lon="13.23316510608617"><ele>725.6666666666667</ele><time>2026-04-12T08:47:10.001Z</time></trkpt><trkpt lat="38.07474570381412" lon="13.233100385072545"><ele>727.3333333333334</ele><time>2026-04-12T08:47:11.001Z</time></trkpt><trkpt lat="38.07470295553117" lon="13.233019196701258"><ele>729.0</ele><time>2026-04-12T08:47:12.001Z</time></trkpt><trkpt lat="38.07466122256301" lon="13.232919829440219"><ele>730.6666666666666</ele><time>2026-04-12T08:47:13.001Z</time></trkpt><trkpt lat="38.07461645776573" lon="13.232839629309032"><ele>732.3333333333333</ele><time>2026-04-12T08:47:14.001Z</time></trkpt><trkpt lat="38.07455234281472" lon="13.232750055078522"><ele>734.0</ele><time>2026-04-12T08:47:15.001Z</time></trkpt><trkpt lat="38.074501583331624" lon="13.232677953843856"><ele>734.0</ele><time>2026-04-12T08:47:16.001Z</time></trkpt><trkpt lat="38.07446340917768" lon="13.232584757916069"><ele>734.0</ele><time>2026-04-12T08:47:17.001Z</time></trkpt><trkpt lat="38.07443310655379" lon="13.232466695678948"><ele>734.0</ele><time>2026-04-12T08:47:18.001Z</time></trkpt><trkpt lat="38.074398416745815" lon="13.232332692457257"><ele>734.0</ele><time>2026-04-12T08:47:19.001Z</time></trkpt><trkpt lat="38.07435768542007" lon="13.232230369739494"><ele>734.0</ele><time>2026-04-12T08:47:20.001Z</time></trkpt><trkpt lat="38.07431741894724" lon="13.232135838585839"><ele>734.0</ele><time>2026-04-12T08:47:21.001Z</time></trkpt><trkpt lat="38.074258300065935" lon="13.232056215589008"><ele>734.0</ele><time>2026-04-12T08:47:22.001Z</time></trkpt><trkpt lat="38.07420613347263" lon="13.23196554072012"><ele>734.0</ele><time>2026-04-12T08:47:23.001Z</time></trkpt><trkpt lat="38.07415627266843" lon="13.23184412861032"><ele>734.0</ele><time>2026-04-12T08:47:24.001Z</time></trkpt><trkpt lat="38.07410125964281" lon="13.231712842176014"><ele>734.0</ele><time>2026-04-12T08:47:25.001Z</time></trkpt><trkpt lat="38.07404927992249" lon="13.231606374239348"><ele>735.8000000000001</ele><time>2026-04-12T08:47:26.001Z</time></trkpt><trkpt lat="38.07401832940115" lon="13.231506948253585"><ele>737.6</ele><time>2026-04-12T08:47:27.001Z</time></trkpt><trkpt lat="38.074008609943164" lon="13.231421579657422"><ele>739.4</ele><time>2026-04-12T08:47:28.001Z</time></trkpt><trkpt lat="38.07397669777219" lon="13.23126619457333"><ele>741.2</ele><time>2026-04-12T08:47:30.001Z</time></trkpt><trkpt lat="38.073930728160256" lon="13.231124769255583"><ele>743.0</ele><time>2026-04-12T08:47:32.001Z</time></trkpt><trkpt lat="38.07391259987725" lon="13.23104209574896"><ele>744.0</ele><time>2026-04-12T08:47:33.001Z</time></trkpt><trkpt lat="38.07389319503525" lon="13.230954297820668"><ele>745.0</ele><time>2026-04-12T08:47:34.001Z</time></trkpt><trkpt lat="38.07387513699011" lon="13.230866938281624"><ele>746.0</ele><time>2026-04-12T08:47:35.001Z</time></trkpt><trkpt lat="38.073853793731" lon="13.23077859040278"><ele>747.0</ele><time>2026-04-12T08:47:36.001Z</time></trkpt><trkpt lat="38.07384338893293" lon="13.230670275063424"><ele>748.0</ele><time>2026-04-12T08:47:37.001Z</time></trkpt><trkpt lat="38.073835581017036" lon="13.230540251752172"><ele>749.0</ele><time>2026-04-12T08:47:38.001Z</time></trkpt><trkpt lat="38.073829837439206" lon="13.230414063456745"><ele>750.8333333333333</ele><time>2026-04-12T08:47:39.001Z</time></trkpt><trkpt lat="38.073823463599346" lon="13.230322790387797"><ele>752.6666666666666</ele><time>2026-04-12T08:47:40.001Z</time></trkpt><trkpt lat="38.0738346582663" lon="13.230206123077265"><ele>754.5</ele><time>2026-04-12T08:47:42.001Z</time></trkpt><trkpt lat="38.07386292861683" lon="13.230132063553334"><ele>756.3333333333334</ele><time>2026-04-12T08:48:13Z</time></trkpt><trkpt lat="38.07388442225431" lon="13.230023981495254"><ele>758.1666666666667</ele><time>2026-04-12T08:48:16Z</time></trkpt><trkpt lat="38.07390741266071" lon="13.229888343752364"><ele>760.0</ele><time>2026-04-12T08:48:18Z</time></trkpt><trkpt lat="38.07393142423869" lon="13.229791439777745"><ele>760.0</ele><time>2026-04-12T08:48:20Z</time></trkpt><trkpt lat="38.07397331955271" lon="13.229706942086997"><ele>760.0</ele><time>2026-04-12T08:48:22Z</time></trkpt><trkpt lat="38.07400998331104" lon="13.22958758775276"><ele>760.0</ele><time>2026-04-12T08:48:25Z</time></trkpt><trkpt lat="38.074048501627516" lon="13.229517773735143"><ele>760.0</ele><time>2026-04-12T08:49:35.001Z</time></trkpt><trkpt lat="38.07404863451972" lon="13.229418638389763"><ele>760.0</ele><time>2026-04-12T08:49:43.001Z</time></trkpt><trkpt lat="38.0740589720038" lon="13.229314600850795"><ele>760.0</ele><time>2026-04-12T08:51:24Z</time></trkpt><trkpt lat="38.074112590335346" lon="13.22923429828324"><ele>760.0</ele><time>2026-04-12T08:51:26.001Z</time></trkpt><trkpt lat="38.07411155111023" lon="13.229122563947227"><ele>760.0</ele><time>2026-04-12T08:51:28.001Z</time></trkpt><trkpt lat="38.07413330683269" lon="13.229011389365654"><ele>760.0</ele><time>2026-04-12T08:51:35.001Z</time></trkpt><trkpt lat="38.07414056546251" lon="13.228888457087178"><ele>760.0</ele><time>2026-04-12T08:51:37.001Z</time></trkpt><trkpt lat="38.07414118753322" lon="13.228764361698778"><ele>760.0</ele><time>2026-04-12T08:51:39.001Z</time></trkpt><trkpt lat="38.07415153670801" lon="13.228678382810692"><ele>760.0</ele><time>2026-04-12T08:51:42.001Z</time></trkpt><trkpt lat="38.07415548597374" lon="13.228763124649253"><ele>760.0</ele><time>2026-04-12T08:55:36Z</time></trkpt><trkpt lat="38.07414851486534" lon="13.228846506821757"><ele>760.0</ele><time>2026-04-12T08:55:41Z</time></trkpt><trkpt lat="38.07415052695114" lon="13.228936605034598"><ele>760.0</ele><time>2026-04-12T08:55:46Z</time></trkpt><trkpt lat="38.07414402700796" lon="13.229034039108663"><ele>760.0</ele><time>2026-04-12T08:55:51Z</time></trkpt><trkpt lat="38.074110240245474" lon="13.22911106311263"><ele>760.0</ele><time>2026-04-12T08:55:56Z</time></trkpt><trkpt lat="38.074125542957646" lon="13.22919655421916"><ele>760.0</ele><time>2026-04-12T08:56:04.001Z</time></trkpt><trkpt lat="38.07409990683036" lon="13.22927503888439"><ele>760.0</ele><time>2026-04-12T08:56:33.999Z</time></trkpt><trkpt lat="38.07406111349715" lon="13.229341446165328"><ele>760.0</ele><time>2026-04-12T08:56:44.999Z</time></trkpt><trkpt lat="38.074021390402336" lon="13.229414344371452"><ele>760.0</ele><time>2026-04-12T08:58:00Z</time></trkpt><trkpt lat="38.07407529662314" lon="13.229366633223613"><ele>760.0</ele><time>2026-04-12T08:59:27Z</time></trkpt><trkpt lat="38.074105582596566" lon="13.22929298048184"><ele>760.0</ele><time>2026-04-12T08:59:30Z</time></trkpt><trkpt lat="38.07412175966029" lon="13.229200271223974"><ele>760.0</ele><time>2026-04-12T08:59:32Z</time></trkpt><trkpt lat="38.07412829145562" lon="13.229119530691248"><ele>760.0</ele><time>2026-04-12T08:59:34Z</time></trkpt><trkpt lat="38.07414255654659" lon="13.229012008021213"><ele>760.0</ele><time>2026-04-12T08:59:36Z</time></trkpt><trkpt lat="38.074135130753646" lon="13.22892872962837"><ele>761.5714285714286</ele><time>2026-04-12T08:59:38Z</time></trkpt><trkpt lat="38.07414874060082" lon="13.228830310065737"><ele>763.1428571428571</ele><time>2026-04-12T08:59:41Z</time></trkpt><trkpt lat="38.074173693827696" lon="13.228736356127309"><ele>764.7142857142858</ele><time>2026-04-12T08:59:45Z</time></trkpt><trkpt lat="38.07412644681324" lon="13.228673327730478"><ele>766.2857142857142</ele><time>2026-04-12T09:00:29.997Z</time></trkpt><trkpt lat="38.074125201531416" lon="13.228575462644308"><ele>767.8571428571428</ele><time>2026-04-12T09:02:21.002Z</time></trkpt><trkpt lat="38.07412978758078" lon="13.228491993365452"><ele>769.4285714285714</ele><time>2026-04-12T09:02:23.002Z</time></trkpt><trkpt lat="38.074145663347245" lon="13.228400907565076"><ele>771.0</ele><time>2026-04-12T09:02:26.002Z</time></trkpt><trkpt lat="38.074171715452465" lon="13.228306382781762"><ele>771.0</ele><time>2026-04-12T09:02:28.002Z</time></trkpt><trkpt lat="38.074178745355994" lon="13.228205017336858"><ele>771.0</ele><time>2026-04-12T09:02:30.002Z</time></trkpt><trkpt lat="38.07421911465237" lon="13.22809862789994"><ele>771.0</ele><time>2026-04-12T09:02:32.002Z</time></trkpt><trkpt lat="38.074230208047304" lon="13.228016430561212"><ele>771.0</ele><time>2026-04-12T09:02:33.002Z</time></trkpt><trkpt lat="38.07425136606352" lon="13.227889041404646"><ele>771.0</ele><time>2026-04-12T09:02:35.002Z</time></trkpt><trkpt lat="38.074266339354686" lon="13.227760648417474"><ele>771.0</ele><time>2026-04-12T09:02:36.997Z</time></trkpt><trkpt lat="38.074279749172874" lon="13.227634934412304"><ele>772.4</ele><time>2026-04-12T09:02:38.997Z</time></trkpt><trkpt lat="38.074272994422785" lon="13.227516538864494"><ele>773.8</ele><time>2026-04-12T09:02:40.997Z</time></trkpt><trkpt lat="38.074257037413346" lon="13.227422523425279"><ele>775.1999999999999</ele><time>2026-04-12T09:02:44.998Z</time></trkpt><trkpt lat="38.0742360637663" lon="13.227331459792707"><ele>776.5999999999999</ele><time>2026-04-12T09:02:45.998Z</time></trkpt><trkpt lat="38.07420611692027" lon="13.227201380058474"><ele>778.0</ele><time>2026-04-12T09:02:48.998Z</time></trkpt><trkpt lat="38.074136164555924" lon="13.22707302723959"><ele>783.25</ele><time>2026-04-12T09:02:51.998Z</time></trkpt><trkpt lat="38.07401019376146" lon="13.226851321755914"><ele>788.5</ele><time>2026-04-12T09:02:53.998Z</time></trkpt><trkpt lat="38.07395555035663" lon="13.226768037082374"><ele>793.75</ele><time>2026-04-12T09:02:54.998Z</time></trkpt><trkpt lat="38.07389167831779" lon="13.22663891272735"><ele>799.0</ele><time>2026-04-12T09:02:56.998Z</time></trkpt><trkpt lat="38.0738061327647" lon="13.226561364937199"><ele>798.9999999999999</ele><time>2026-04-12T09:02:58.999Z</time></trkpt><trkpt lat="38.07372320534968" lon="13.226531723338946"><ele>799.0</ele><time>2026-04-12T09:03:00.999Z</time></trkpt><trkpt lat="38.073666480412136" lon="13.226447515726361"><ele>799.0</ele><time>2026-04-12T09:03:02.999Z</time></trkpt><trkpt lat="38.07360100132301" lon="13.226371393534235"><ele>799.0</ele><time>2026-04-12T09:03:04.999Z</time></trkpt><trkpt lat="38.07355193175609" lon="13.226304119679897"><ele>798.9999999999999</ele><time>2026-04-12T09:03:06.999Z</time></trkpt><trkpt lat="38.07348298769185" lon="13.22624163184036"><ele>799.0</ele><time>2026-04-12T09:03:08.999Z</time></trkpt><trkpt lat="38.07340711876933" lon="13.22620713510496"><ele>800.1666666666666</ele><time>2026-04-12T09:05:24.001Z</time></trkpt><trkpt lat="38.07333963660546" lon="13.226207498308638"><ele>801.3333333333333</ele><time>2026-04-12T09:05:26.001Z</time></trkpt><trkpt lat="38.0732795707776" lon="13.226154257713976"><ele>802.5</ele><time>2026-04-12T09:05:28.001Z</time></trkpt><trkpt lat="38.07320404717046" lon="13.226149876894512"><ele>803.6666666666667</ele><time>2026-04-12T09:05:30.001Z</time></trkpt><trkpt lat="38.07309518341006" lon="13.226123608372882"><ele>804.8333333333334</ele><time>2026-04-12T09:05:32.001Z</time></trkpt><trkpt lat="38.07303591299067" lon="13.226155727251637"><ele>806.0</ele><time>2026-04-12T09:05:33.001Z</time></trkpt><trkpt lat="38.072968642326956" lon="13.226184525533464"><ele>808.4</ele><time>2026-04-12T09:05:34.001Z</time></trkpt><trkpt lat="38.07288360299282" lon="13.226185172167881"><ele>810.8</ele><time>2026-04-12T09:05:36.001Z</time></trkpt><trkpt lat="38.07280618421704" lon="13.226212145444704"><ele>813.1999999999999</ele><time>2026-04-12T09:05:38.001Z</time></trkpt><trkpt lat="38.072714624575084" lon="13.22620674607949"><ele>815.5999999999999</ele><time>2026-04-12T09:05:40.001Z</time></trkpt><trkpt lat="38.07263333254728" lon="13.226157805002211"><ele>818.0</ele><time>2026-04-12T09:05:42.001Z</time></trkpt><trkpt lat="38.072507096331165" lon="13.22613466559232"><ele>818.0</ele><time>2026-04-12T09:05:44.001Z</time></trkpt><trkpt lat="38.07248239918589" lon="13.226023593609359"><ele>818.0</ele><time>2026-04-12T09:05:47.001Z</time></trkpt><trkpt lat="38.072396846402526" lon="13.225914284102965"><ele>818.0</ele><time>2026-04-12T09:05:49.002Z</time></trkpt><trkpt lat="38.07241581419971" lon="13.225809685838522"><ele>818.0</ele><time>2026-04-12T09:05:51.002Z</time></trkpt><trkpt lat="38.07240044175319" lon="13.225725489152099"><ele>818.0</ele><time>2026-04-12T09:05:53.002Z</time></trkpt><trkpt lat="38.072371901618524" lon="13.225619473282348"><ele>825.8</ele><time>2026-04-12T09:05:55.002Z</time></trkpt><trkpt lat="38.07235678466393" lon="13.225503502794295"><ele>833.5999999999999</ele><time>2026-04-12T09:05:57.002Z</time></trkpt><trkpt lat="38.07234657911763" lon="13.22539732251066"><ele>841.4000000000001</ele><time>2026-04-12T09:05:59.002Z</time></trkpt><trkpt lat="38.07234302254777" lon="13.22531418505534"><ele>849.2</ele><time>2026-04-12T09:06:00.002Z</time></trkpt><trkpt lat="38.072331380435045" lon="13.225174319436388"><ele>857.0</ele><time>2026-04-12T09:06:02.002Z</time></trkpt><trkpt lat="38.07233980447493" lon="13.22504182232494"><ele>857.0000000000001</ele><time>2026-04-12T09:06:04.002Z</time></trkpt><trkpt lat="38.07233881699342" lon="13.224955935732977"><ele>857.0</ele><time>2026-04-12T09:06:06.002Z</time></trkpt><trkpt lat="38.07230066224015" lon="13.22487088032243"><ele>857.0</ele><time>2026-04-12T09:06:12.002Z</time></trkpt><trkpt lat="38.072322802373975" lon="13.224773262891757"><ele>857.0</ele><time>2026-04-12T09:06:14.002Z</time></trkpt><trkpt lat="38.072325416939194" lon="13.224623436320417"><ele>857.0000000000001</ele><time>2026-04-12T09:06:16.002Z</time></trkpt><trkpt lat="38.072318499401064" lon="13.224492701677923"><ele>857.0</ele><time>2026-04-12T09:06:18.002Z</time></trkpt><trkpt lat="38.072354562329494" lon="13.224363365707578"><ele>856.8</ele><time>2026-04-12T09:06:20.002Z</time></trkpt><trkpt lat="38.07240052376822" lon="13.224239701695693"><ele>856.6</ele><time>2026-04-12T09:06:22.003Z</time></trkpt><trkpt lat="38.072436636863166" lon="13.224130952908746"><ele>856.3999999999999</ele><time>2026-04-12T09:06:24.003Z</time></trkpt><trkpt lat="38.07248322977629" lon="13.224004752669414"><ele>856.1999999999999</ele><time>2026-04-12T09:06:27.003Z</time></trkpt><trkpt lat="38.07251155464143" lon="13.223916187006798"><ele>856.0</ele><time>2026-04-12T09:06:29.003Z</time></trkpt><trkpt lat="38.072534865721394" lon="13.223824943994599"><ele>855.9999999999999</ele><time>2026-04-12T09:06:31.003Z</time></trkpt><trkpt lat="38.0725387644062" lon="13.223744161593519"><ele>856.0</ele><time>2026-04-12T09:06:34.003Z</time></trkpt><trkpt lat="38.07255673945579" lon="13.223652967084437"><ele>856.0</ele><time>2026-04-12T09:06:36.003Z</time></trkpt><trkpt lat="38.07258858375798" lon="13.22352781963118"><ele>856.0</ele><time>2026-04-12T09:06:38.003Z</time></trkpt><trkpt lat="38.07257828657726" lon="13.223408380178794"><ele>855.9999999999999</ele><time>2026-04-12T09:06:40.003Z</time></trkpt><trkpt lat="38.07256006674916" lon="13.223319418136667"><ele>856.0</ele><time>2026-04-12T09:06:43.003Z</time></trkpt><trkpt lat="38.072479249473055" lon="13.223321691700054"><ele>856.0000000000001</ele><time>2026-04-12T09:10:57.003Z</time></trkpt><trkpt lat="38.072441206035975" lon="13.223388702860236"><ele>856.0</ele><time>2026-04-12T09:10:59.003Z</time></trkpt><trkpt lat="38.07237552003677" lon="13.223480849695875"><ele>856.0</ele><time>2026-04-12T09:11:01Z</time></trkpt><trkpt lat="38.07232468420715" lon="13.22353147352018"><ele>856.0</ele><time>2026-04-12T09:11:02Z</time></trkpt><trkpt lat="38.07226922725136" lon="13.223571443161946"><ele>856.0</ele><time>2026-04-12T09:11:03Z</time></trkpt><trkpt lat="38.072204128849364" lon="13.2236064835304"><ele>856.0000000000001</ele><time>2026-04-12T09:11:04Z</time></trkpt><trkpt lat="38.07213465830081" lon="13.223626530892245"><ele>856.0</ele><time>2026-04-12T09:11:05Z</time></trkpt><trkpt lat="38.07207446127213" lon="13.223657682574705"><ele>857.9999999999999</ele><time>2026-04-12T09:11:06Z</time></trkpt><trkpt lat="38.072034803478864" lon="13.223722495118876"><ele>860.0</ele><time>2026-04-12T09:11:07Z</time></trkpt><trkpt lat="38.07199983203095" lon="13.2238081677863"><ele>862.0</ele><time>2026-04-12T09:11:08Z</time></trkpt><trkpt lat="38.07195582173077" lon="13.223938755949991"><ele>864.0</ele><time>2026-04-12T09:11:10Z</time></trkpt><trkpt lat="38.071917838955265" lon="13.224027099132439"><ele>865.9999999999999</ele><time>2026-04-12T09:11:11Z</time></trkpt><trkpt lat="38.071876240600375" lon="13.22409422012295"><ele>868.0</ele><time>2026-04-12T09:11:12Z</time></trkpt><trkpt lat="38.07182929527962" lon="13.224176860676602"><ele>867.9999999999999</ele><time>2026-04-12T09:11:13Z</time></trkpt><trkpt lat="38.071791301415836" lon="13.22425126449934"><ele>868.0</ele><time>2026-04-12T09:11:14Z</time></trkpt><trkpt lat="38.071754947208376" lon="13.224331580255525"><ele>868.0</ele><time>2026-04-12T09:11:15Z</time></trkpt><trkpt lat="38.071674357058505" lon="13.22446502649445"><ele>868.0</ele><time>2026-04-12T09:11:17Z</time></trkpt><trkpt lat="38.07161941963852" lon="13.224545566538438"><ele>867.9999999999999</ele><time>2026-04-12T09:11:18Z</time></trkpt><trkpt lat="38.07156943353995" lon="13.22462443499613"><ele>868.0</ele><time>2026-04-12T09:11:19Z</time></trkpt><trkpt lat="38.07153317194669" lon="13.224720979407829"><ele>871.2</ele><time>2026-04-12T09:11:20Z</time></trkpt><trkpt lat="38.07151172008197" lon="13.224802877538327"><ele>874.4</ele><time>2026-04-12T09:11:21Z</time></trkpt><trkpt lat="38.071415873317676" lon="13.224929652140476"><ele>877.6000000000001</ele><time>2026-04-12T09:11:23Z</time></trkpt><trkpt lat="38.07134533900787" lon="13.224979253293439"><ele>880.8000000000001</ele><time>2026-04-12T09:11:24Z</time></trkpt><trkpt lat="38.071270858889264" lon="13.225029032740693"><ele>884.0</ele><time>2026-04-12T09:11:25Z</time></trkpt><trkpt lat="38.07118372435256" lon="13.225065556108582"><ele>884.0000000000001</ele><time>2026-04-12T09:11:26Z</time></trkpt><trkpt lat="38.07109610981536" lon="13.225117565059074"><ele>884.0</ele><time>2026-04-12T09:11:27Z</time></trkpt><trkpt lat="38.07101456662547" lon="13.225186630836669"><ele>884.0</ele><time>2026-04-12T09:11:28Z</time></trkpt><trkpt lat="38.070953352884075" lon="13.22525559003088"><ele>884.0</ele><time>2026-04-12T09:11:29Z</time></trkpt><trkpt lat="38.07088606331025" lon="13.225317450436664"><ele>884.0000000000001</ele><time>2026-04-12T09:11:30.001Z</time></trkpt><trkpt lat="38.070816486791834" lon="13.225375487855613"><ele>884.0</ele><time>2026-04-12T09:11:31.001Z</time></trkpt><trkpt lat="38.070753315745726" lon="13.225437753454434"><ele>882.8000000000001</ele><time>2026-04-12T09:11:32.001Z</time></trkpt><trkpt lat="38.070677479647685" lon="13.225486123703597"><ele>881.6000000000001</ele><time>2026-04-12T09:11:33.001Z</time></trkpt><trkpt lat="38.07058119241601" lon="13.225544500499185"><ele>880.4</ele><time>2026-04-12T09:11:35.001Z</time></trkpt><trkpt lat="38.07047992137194" lon="13.225568590065535"><ele>879.2</ele><time>2026-04-12T09:11:37.001Z</time></trkpt><trkpt lat="38.070358570570974" lon="13.225564200685767"><ele>878.0</ele><time>2026-04-12T09:11:39.001Z</time></trkpt><trkpt lat="38.070293653369" lon="13.225568641414782"><ele>878.0000000000001</ele><time>2026-04-12T09:11:40.001Z</time></trkpt><trkpt lat="38.07022758598405" lon="13.225584930569278"><ele>878.0</ele><time>2026-04-12T09:11:41.001Z</time></trkpt><trkpt lat="38.07010647558088" lon="13.225574316334708"><ele>878.0</ele><time>2026-04-12T09:11:43.001Z</time></trkpt><trkpt lat="38.07005038409241" lon="13.225534356924289"><ele>878.0</ele><time>2026-04-12T09:11:44.001Z</time></trkpt><trkpt lat="38.070014328391196" lon="13.22545642356471"><ele>878.0000000000001</ele><time>2026-04-12T09:11:45.001Z</time></trkpt><trkpt lat="38.06998473157976" lon="13.225364501774342"><ele>878.0</ele><time>2026-04-12T09:11:46.001Z</time></trkpt><trkpt lat="38.0699589499141" lon="13.225246555190095"><ele>876.0</ele><time>2026-04-12T09:11:47.001Z</time></trkpt><trkpt lat="38.06993851583043" lon="13.225131130880994"><ele>874.0</ele><time>2026-04-12T09:11:48.001Z</time></trkpt><trkpt lat="38.06989143193903" lon="13.225005524568111"><ele>872.0</ele><time>2026-04-12T09:11:49.001Z</time></trkpt><trkpt lat="38.06985049448348" lon="13.224893040638575"><ele>870.0</ele><time>2026-04-12T09:11:50.001Z</time></trkpt><trkpt lat="38.069818463985484" lon="13.224782883696266"><ele>868.0</ele><time>2026-04-12T09:11:51.001Z</time></trkpt><trkpt lat="38.06980701103364" lon="13.22466586469062"><ele>867.9999999999999</ele><time>2026-04-12T09:11:52.001Z</time></trkpt><trkpt lat="38.06981495601793" lon="13.224536481376177"><ele>868.0</ele><time>2026-04-12T09:11:53.001Z</time></trkpt><trkpt lat="38.069837596437786" lon="13.22443477714837"><ele>868.0</ele><time>2026-04-12T09:11:54.001Z</time></trkpt><trkpt lat="38.06985147059173" lon="13.224348709754105"><ele>868.0</ele><time>2026-04-12T09:11:55.001Z</time></trkpt><trkpt lat="38.069857005875" lon="13.224265925642323"><ele>867.9999999999999</ele><time>2026-04-12T09:11:56.001Z</time></trkpt><trkpt lat="38.06986577605406" lon="13.224139390892027"><ele>868.0</ele><time>2026-04-12T09:11:58.001Z</time></trkpt><trkpt lat="38.06986495507658" lon="13.22403548082243"><ele>871.0</ele><time>2026-04-12T09:12:01.001Z</time></trkpt><trkpt lat="38.0698718062747" lon="13.22394429371598"><ele>874.0</ele><time>2026-04-12T09:12:04.002Z</time></trkpt><trkpt lat="38.069865889153036" lon="13.22382004117468"><ele>877.0</ele><time>2026-04-12T09:12:07.002Z</time></trkpt><trkpt lat="38.06984853806924" lon="13.223682983018229"><ele>880.0</ele><time>2026-04-12T09:12:09.002Z</time></trkpt><trkpt lat="38.06982220166911" lon="13.223599633433004"><ele>883.0</ele><time>2026-04-12T09:12:10.002Z</time></trkpt><trkpt lat="38.06973822351073" lon="13.223463103856632"><ele>882.9999999999999</ele><time>2026-04-12T09:12:12.002Z</time></trkpt><trkpt lat="38.06967890520035" lon="13.223401590121298"><ele>883.0</ele><time>2026-04-12T09:12:13.002Z</time></trkpt><trkpt lat="38.069619125217145" lon="13.223371563410186"><ele>883.0</ele><time>2026-04-12T09:12:14.002Z</time></trkpt><trkpt lat="38.06950027990247" lon="13.223337265646503"><ele>883.0</ele><time>2026-04-12T09:12:16.002Z</time></trkpt><trkpt lat="38.069433506156" lon="13.223342565829434"><ele>882.9999999999999</ele><time>2026-04-12T09:12:17.002Z</time></trkpt><trkpt lat="38.06935538454656" lon="13.223341134604816"><ele>883.0</ele><time>2026-04-12T09:12:18.002Z</time></trkpt><trkpt lat="38.069292026383515" lon="13.223363736559417"><ele>883.0</ele><time>2026-04-12T09:12:19.002Z</time></trkpt><trkpt lat="38.06921645932236" lon="13.22339069342113"><ele>883.0</ele><time>2026-04-12T09:12:20.002Z</time></trkpt><trkpt lat="38.0691126916751" lon="13.223434088195742"><ele>883.0</ele><time>2026-04-12T09:12:21.002Z</time></trkpt><trkpt lat="38.06900834267482" lon="13.223470775333611"><ele>883.0</ele><time>2026-04-12T09:12:22.002Z</time></trkpt><trkpt lat="38.0689187129391" lon="13.223525598852925"><ele>883.0</ele><time>2026-04-12T09:12:23.002Z</time></trkpt><trkpt lat="38.06883508284026" lon="13.223606027230362"><ele>885.5999999999999</ele><time>2026-04-12T09:12:24.002Z</time></trkpt><trkpt lat="38.068738489268796" lon="13.22368965175264"><ele>888.1999999999999</ele><time>2026-04-12T09:12:25.002Z</time></trkpt><trkpt lat="38.068678804329764" lon="13.223737051927186"><ele>890.8</ele><time>2026-04-12T09:12:26.002Z</time></trkpt><trkpt lat="38.06860426043729" lon="13.223749276915152"><ele>893.4</ele><time>2026-04-12T09:12:28.002Z</time></trkpt><trkpt lat="38.068471553984025" lon="13.223716617925948"><ele>896.0</ele><time>2026-04-12T09:12:30.002Z</time></trkpt><trkpt lat="38.06838111013838" lon="13.223696765799659"><ele>899.8</ele><time>2026-04-12T09:12:31.002Z</time></trkpt><trkpt lat="38.06826926972031" lon="13.223707433230521"><ele>903.5999999999999</ele><time>2026-04-12T09:12:32.002Z</time></trkpt><trkpt lat="38.068169439705564" lon="13.223740822680439"><ele>907.4</ele><time>2026-04-12T09:12:33.002Z</time></trkpt><trkpt lat="38.06808287322513" lon="13.223769043395308"><ele>911.2</ele><time>2026-04-12T09:12:34.002Z</time></trkpt><trkpt lat="38.068014759953485" lon="13.223666797037188"><ele>915.0</ele><time>2026-04-12T09:12:36.002Z</time></trkpt><trkpt lat="38.06788505034556" lon="13.223596619581295"><ele>915.0</ele><time>2026-04-12T09:12:38.003Z</time></trkpt><trkpt lat="38.0678136913034" lon="13.223613169900672"><ele>915.0</ele><time>2026-04-12T09:12:39.003Z</time></trkpt><trkpt lat="38.067728092562994" lon="13.223593296320416"><ele>915.0</ele><time>2026-04-12T09:12:40.003Z</time></trkpt><trkpt lat="38.06765104729683" lon="13.22359313495629"><ele>915.0</ele><time>2026-04-12T09:12:41.003Z</time></trkpt><trkpt lat="38.06758044813098" lon="13.22357694365586"><ele>915.0</ele><time>2026-04-12T09:12:42.003Z</time></trkpt><trkpt lat="38.067488491262814" lon="13.223563051547695"><ele>915.0</ele><time>2026-04-12T09:12:43.003Z</time></trkpt><trkpt lat="38.0673583016358" lon="13.223590124333699"><ele>919.4</ele><time>2026-04-12T09:12:45.003Z</time></trkpt><trkpt lat="38.06727973350897" lon="13.223651797412293"><ele>923.8</ele><time>2026-04-12T09:12:46.003Z</time></trkpt><trkpt lat="38.067205812190004" lon="13.223737027943875"><ele>928.2</ele><time>2026-04-12T09:12:47.003Z</time></trkpt><trkpt lat="38.06713365194095" lon="13.223793907599854"><ele>932.6</ele><time>2026-04-12T09:12:48.003Z</time></trkpt><trkpt lat="38.06703551111795" lon="13.223823801712085"><ele>937.0</ele><time>2026-04-12T09:12:49.003Z</time></trkpt><trkpt lat="38.06693117600106" lon="13.223862497660622"><ele>937.0</ele><time>2026-04-12T09:12:50.003Z</time></trkpt><trkpt lat="38.06682602641889" lon="13.223903582628216"><ele>937.0</ele><time>2026-04-12T09:12:51.003Z</time></trkpt><trkpt lat="38.06671098573849" lon="13.22392641319487"><ele>937.0</ele><time>2026-04-12T09:12:52.003Z</time></trkpt><trkpt lat="38.06661841247137" lon="13.223954693061673"><ele>937.0</ele><time>2026-04-12T09:12:53.003Z</time></trkpt><trkpt lat="38.06654375398856" lon="13.223998952639537"><ele>937.0</ele><time>2026-04-12T09:12:54.003Z</time></trkpt><trkpt lat="38.066464647974186" lon="13.224079928487807"><ele>937.8333333333333</ele><time>2026-04-12T09:12:56.003Z</time></trkpt><trkpt lat="38.066393410430514" lon="13.224092183567988"><ele>938.6666666666666</ele><time>2026-04-12T09:12:58.003Z</time></trkpt><trkpt lat="38.06639274983485" lon="13.223995368832488"><ele>939.5</ele><time>2026-04-12T09:13:00.003Z</time></trkpt><trkpt lat="38.06639421603499" lon="13.223906592141782"><ele>940.3333333333333</ele><time>2026-04-12T09:13:01.003Z</time></trkpt><trkpt lat="38.06637815204075" lon="13.223815451038096"><ele>941.1666666666666</ele><time>2026-04-12T09:13:02.003Z</time></trkpt><trkpt lat="38.06629973301031" lon="13.223700173334878"><ele>942.0</ele><time>2026-04-12T09:13:04.003Z</time></trkpt><trkpt lat="38.06620273166894" lon="13.223707420316638"><ele>942.0</ele><time>2026-04-12T09:13:05.003Z</time></trkpt><trkpt lat="38.066134130768255" lon="13.223799283859499"><ele>942.0</ele><time>2026-04-12T09:13:06.001Z</time></trkpt><trkpt lat="38.066081108073185" lon="13.223904642135903"><ele>942.0</ele><time>2026-04-12T09:13:07.001Z</time></trkpt><trkpt lat="38.06608240415698" lon="13.22403122467317"><ele>942.0</ele><time>2026-04-12T09:13:08.001Z</time></trkpt><trkpt lat="38.066073200125444" lon="13.224114681896465"><ele>942.0</ele><time>2026-04-12T09:13:09.001Z</time></trkpt><trkpt lat="38.06602789205154" lon="13.22404457190881"><ele>942.0</ele><time>2026-04-12T09:13:12.001Z</time></trkpt><trkpt lat="38.0660096196221" lon="13.223915041330645"><ele>942.0</ele><time>2026-04-12T09:13:14.001Z</time></trkpt><trkpt lat="38.06597791357369" lon="13.223830997834172"><ele>942.0</ele><time>2026-04-12T09:13:15Z</time></trkpt><trkpt lat="38.06592865369796" lon="13.223742706918625"><ele>942.0</ele><time>2026-04-12T09:13:16Z</time></trkpt><trkpt lat="38.06584968167157" lon="13.223621665686462"><ele>942.0</ele><time>2026-04-12T09:13:17Z</time></trkpt><trkpt lat="38.065784513461736" lon="13.223528878701655"><ele>942.0</ele><time>2026-04-12T09:13:18Z</time></trkpt><trkpt lat="38.065713483331734" lon="13.22342617867474"><ele>941.6666666666666</ele><time>2026-04-12T09:13:19Z</time></trkpt><trkpt lat="38.06564746339425" lon="13.223328523974944"><ele>941.3333333333333</ele><time>2026-04-12T09:13:20Z</time></trkpt><trkpt lat="38.0655814160868" lon="13.223246895661168"><ele>941.0</ele><time>2026-04-12T09:13:21Z</time></trkpt><trkpt lat="38.06553124469193" lon="13.223197303606812"><ele>940.6666666666666</ele><time>2026-04-12T09:13:22Z</time></trkpt><trkpt lat="38.06545181794718" lon="13.223186456599223"><ele>940.3333333333333</ele><time>2026-04-12T09:13:23Z</time></trkpt><trkpt lat="38.065382800869564" lon="13.223166563379184"><ele>940.0</ele><time>2026-04-12T09:13:24Z</time></trkpt><trkpt lat="38.06530175630694" lon="13.223135621351066"><ele>943.6</ele><time>2026-04-12T09:13:26Z</time></trkpt><trkpt lat="38.06531079807664" lon="13.223041578020942"><ele>947.2</ele><time>2026-04-12T09:13:28Z</time></trkpt><trkpt lat="38.065380205398235" lon="13.223079831534665"><ele>950.8</ele><time>2026-04-12T09:13:29Z</time></trkpt><trkpt lat="38.065513334326106" lon="13.22306924941469"><ele>954.4</ele><time>2026-04-12T09:13:31Z</time></trkpt><trkpt lat="38.06559815711056" lon="13.223061110946729"><ele>958.0</ele><time>2026-04-12T09:13:32Z</time></trkpt><trkpt lat="38.06570814657367" lon="13.223004492483398"><ele>960.2</ele><time>2026-04-12T09:13:33Z</time></trkpt><trkpt lat="38.06584222685941" lon="13.222973681420816"><ele>962.4</ele><time>2026-04-12T09:13:34Z</time></trkpt><trkpt lat="38.065956104028636" lon="13.222920547963874"><ele>964.6000000000001</ele><time>2026-04-12T09:13:35Z</time></trkpt><trkpt lat="38.066030969411955" lon="13.222867904409629"><ele>966.8000000000001</ele><time>2026-04-12T09:13:36.001Z</time></trkpt><trkpt lat="38.06609668363993" lon="13.222835856522298"><ele>969.0</ele><time>2026-04-12T09:13:38.001Z</time></trkpt><trkpt lat="38.066068093892994" lon="13.222732924753394"><ele>969.0</ele><time>2026-04-12T09:13:40.001Z</time></trkpt><trkpt lat="38.06594987834573" lon="13.22269201307563"><ele>969.0000000000001</ele><time>2026-04-12T09:13:42.001Z</time></trkpt><trkpt lat="38.06586643219531" lon="13.22267255412883"><ele>969.0000000000001</ele><time>2026-04-12T09:13:43.001Z</time></trkpt><trkpt lat="38.065769171335454" lon="13.222663318528117"><ele>969.0</ele><time>2026-04-12T09:13:44.001Z</time></trkpt><trkpt lat="38.065702525743234" lon="13.22265289467529"><ele>969.0</ele><time>2026-04-12T09:13:45.001Z</time></trkpt><trkpt lat="38.06560821929248" lon="13.222647507454367"><ele>969.0</ele><time>2026-04-12T09:13:47.001Z</time></trkpt><trkpt lat="38.065541245879416" lon="13.222643892368577"><ele>969.0</ele><time>2026-04-12T09:13:51.001Z</time></trkpt><trkpt lat="38.06559478342561" lon="13.2226916647657"><ele>969.0</ele><time>2026-04-12T09:13:57.001Z</time></trkpt><trkpt lat="38.06567756949439" lon="13.222645243707762"><ele>969.0</ele><time>2026-04-12T09:13:59.001Z</time></trkpt><trkpt lat="38.065753069773905" lon="13.222569256831214"><ele>969.0</ele><time>2026-04-12T09:14:01.001Z</time></trkpt><trkpt lat="38.065825712518794" lon="13.222569295260008"><ele>969.0</ele><time>2026-04-12T09:14:02.001Z</time></trkpt><trkpt lat="38.06589460251108" lon="13.222565595105506"><ele>969.0</ele><time>2026-04-12T09:14:03.001Z</time></trkpt><trkpt lat="38.06595709016657" lon="13.222535951242978"><ele>969.0</ele><time>2026-04-12T09:14:04.001Z</time></trkpt><trkpt lat="38.06602977871742" lon="13.222522611843548"><ele>969.0</ele><time>2026-04-12T09:14:05.001Z</time></trkpt><trkpt lat="38.06610230499045" lon="13.222536757451161"><ele>969.0</ele><time>2026-04-12T09:14:06.001Z</time></trkpt><trkpt lat="38.066221550658405" lon="13.222515752125066"><ele>969.0</ele><time>2026-04-12T09:14:08.001Z</time></trkpt><trkpt lat="38.066196076195986" lon="13.222430183583104"><ele>969.0</ele><time>2026-04-12T09:14:14.001Z</time></trkpt><trkpt lat="38.06612342701979" lon="13.222343057235602"><ele>970.5</ele><time>2026-04-12T09:14:16.001Z</time></trkpt><trkpt lat="38.066018743860724" lon="13.222245462289852"><ele>972.0</ele><time>2026-04-12T09:14:18.001Z</time></trkpt><trkpt lat="38.06596940700082" lon="13.222188795205453"><ele>973.5</ele><time>2026-04-12T09:14:19.001Z</time></trkpt><trkpt lat="38.065914123753615" lon="13.222127765044949"><ele>975.0</ele><time>2026-04-12T09:14:20.001Z</time></trkpt><trkpt lat="38.065854586116224" lon="13.222073815064315"><ele>976.5</ele><time>2026-04-12T09:14:21.001Z</time></trkpt><trkpt lat="38.065787254927145" lon="13.22201494866204"><ele>978.0</ele><time>2026-04-12T09:14:22.001Z</time></trkpt><trkpt lat="38.06569572453711" lon="13.221914635856928"><ele>978.0</ele><time>2026-04-12T09:14:24.002Z</time></trkpt><trkpt lat="38.06561289202331" lon="13.221829551421823"><ele>978.0</ele><time>2026-04-12T09:14:26.002Z</time></trkpt><trkpt lat="38.06551273930406" lon="13.221784306799082"><ele>978.0</ele><time>2026-04-12T09:14:28.002Z</time></trkpt><trkpt lat="38.06543675891592" lon="13.221736951111332"><ele>978.0</ele><time>2026-04-12T09:14:30.002Z</time></trkpt><trkpt lat="38.06551406742394" lon="13.221635870406887"><ele>978.0</ele><time>2026-04-12T09:14:33.002Z</time></trkpt><trkpt lat="38.065602776522134" lon="13.221593486988056"><ele>978.0</ele><time>2026-04-12T09:14:35.002Z</time></trkpt><trkpt lat="38.06572221628267" lon="13.221585733743684"><ele>978.0</ele><time>2026-04-12T09:14:37.002Z</time></trkpt><trkpt lat="38.065833763699615" lon="13.221633013474142"><ele>978.0</ele><time>2026-04-12T09:14:39.002Z</time></trkpt><trkpt lat="38.06595713465767" lon="13.221704199369828"><ele>978.0</ele><time>2026-04-12T09:14:41.002Z</time></trkpt><trkpt lat="38.06603538815841" lon="13.221741957884882"><ele>980.6666666666666</ele><time>2026-04-12T09:14:42.002Z</time></trkpt><trkpt lat="38.06610040463397" lon="13.221772872755114"><ele>983.3333333333333</ele><time>2026-04-12T09:14:43.002Z</time></trkpt><trkpt lat="38.06618946374195" lon="13.221808666229112"><ele>986.0</ele><time>2026-04-12T09:14:45.002Z</time></trkpt><trkpt lat="38.066252074489896" lon="13.221836174321654"><ele>988.6666666666666</ele><time>2026-04-12T09:14:47.002Z</time></trkpt><trkpt lat="38.066313982813035" lon="13.221856852058494"><ele>991.3333333333333</ele><time>2026-04-12T09:16:13.001Z</time></trkpt><trkpt lat="38.066299918599064" lon="13.22177141137538"><ele>994.0</ele><time>2026-04-12T09:16:21.001Z</time></trkpt><trkpt lat="38.066231407768406" lon="13.22169071728314"><ele>994.0</ele><time>2026-04-12T09:16:23.001Z</time></trkpt><trkpt lat="38.066141903484485" lon="13.221580172315802"><ele>994.0</ele><time>2026-04-12T09:16:25.001Z</time></trkpt><trkpt lat="38.06606154927716" lon="13.221474967981138"><ele>994.0</ele><time>2026-04-12T09:16:27.001Z</time></trkpt><trkpt lat="38.0659847462731" lon="13.221367821499735"><ele>994.0</ele><time>2026-04-12T09:16:29.001Z</time></trkpt><trkpt lat="38.06590708511363" lon="13.22126176517573"><ele>996.8000000000001</ele><time>2026-04-12T09:16:31.002Z</time></trkpt><trkpt lat="38.06582745678523" lon="13.221185569411718"><ele>999.6000000000001</ele><time>2026-04-12T09:16:33.002Z</time></trkpt><trkpt lat="38.065717149172464" lon="13.221109198385687"><ele>1002.4</ele><time>2026-04-12T09:16:35.002Z</time></trkpt><trkpt lat="38.065613759676395" lon="13.221078147842913"><ele>1005.2</ele><time>2026-04-12T09:16:37.002Z</time></trkpt><trkpt lat="38.06554166338738" lon="13.221061806174758"><ele>1008.0</ele><time>2026-04-12T09:16:38.002Z</time></trkpt><trkpt lat="38.06546832302457" lon="13.221046232805682"><ele>1008.0</ele><time>2026-04-12T09:16:39.002Z</time></trkpt><trkpt lat="38.06538203192138" lon="13.221017380863872"><ele>1008.0</ele><time>2026-04-12T09:16:41.002Z</time></trkpt><trkpt lat="38.06542641690156" lon="13.220948147282824"><ele>1008.0</ele><time>2026-04-12T09:16:51.002Z</time></trkpt><trkpt lat="38.06550869592329" lon="13.220927671198229"><ele>1008.0</ele><time>2026-04-12T09:16:53.002Z</time></trkpt><trkpt lat="38.06557815602292" lon="13.22091742609604"><ele>1008.0</ele><time>2026-04-12T09:16:54.002Z</time></trkpt><trkpt lat="38.065641176948716" lon="13.220901822684697"><ele>1008.0</ele><time>2026-04-12T09:16:55.002Z</time></trkpt><trkpt lat="38.06571483848503" lon="13.22090488416471"><ele>1011.5999999999999</ele><time>2026-04-12T09:16:56.002Z</time></trkpt><trkpt lat="38.065783539500785" lon="13.220905585461264"><ele>1015.1999999999999</ele><time>2026-04-12T09:16:57.002Z</time></trkpt><trkpt lat="38.06585039576373" lon="13.220905631867518"><ele>1018.8</ele><time>2026-04-12T09:16:58.002Z</time></trkpt><trkpt lat="38.065956325791596" lon="13.220920236358342"><ele>1022.4</ele><time>2026-04-12T09:17:00.002Z</time></trkpt><trkpt lat="38.06607699880126" lon="13.220951482616861"><ele>1026.0</ele><time>2026-04-12T09:17:02.002Z</time></trkpt><trkpt lat="38.06618920589685" lon="13.221020296590098"><ele>1026.0</ele><time>2026-04-12T09:17:04.002Z</time></trkpt><trkpt lat="38.066288550046025" lon="13.221109785352363"><ele>1026.0</ele><time>2026-04-12T09:17:06.002Z</time></trkpt><trkpt lat="38.066359314927745" lon="13.221156624427872"><ele>1026.0</ele><time>2026-04-12T09:17:08.002Z</time></trkpt><trkpt lat="38.06643390214973" lon="13.22116151956605"><ele>1026.0</ele><time>2026-04-12T09:17:10.002Z</time></trkpt><trkpt lat="38.066414976333604" lon="13.22105477415873"><ele>1026.0</ele><time>2026-04-12T09:17:15.002Z</time></trkpt><trkpt lat="38.06636511996378" lon="13.220961704499013"><ele>1026.0</ele><time>2026-04-12T09:17:17.002Z</time></trkpt><trkpt lat="38.066301262458026" lon="13.22085139721184"><ele>1026.0</ele><time>2026-04-12T09:17:19.001Z</time></trkpt><trkpt lat="38.06625479758697" lon="13.220788632663334"><ele>1026.0</ele><time>2026-04-12T09:17:20.001Z</time></trkpt><trkpt lat="38.06619373384059" lon="13.220703550046052"><ele>1026.0</ele><time>2026-04-12T09:17:22.001Z</time></trkpt><trkpt lat="38.066266974002346" lon="13.220694747786435"><ele>1026.0</ele><time>2026-04-12T09:17:30.001Z</time></trkpt><trkpt lat="38.0663793644922" lon="13.220719159140241"><ele>1026.0000000000002</ele><time>2026-04-12T09:17:32.001Z</time></trkpt><trkpt lat="38.06644735189074" lon="13.220727058624338"><ele>1026.0</ele><time>2026-04-12T09:17:33.001Z</time></trkpt><trkpt lat="38.06651107061639" lon="13.22073828608039"><ele>1026.0</ele><time>2026-04-12T09:17:34.001Z</time></trkpt><trkpt lat="38.06660271302191" lon="13.22074849523523"><ele>1026.0</ele><time>2026-04-12T09:17:36.001Z</time></trkpt><trkpt lat="38.0666070082488" lon="13.220664604430366"><ele>1026.0</ele><time>2026-04-12T09:18:01.001Z</time></trkpt><trkpt lat="38.0665447561778" lon="13.220636528909735"><ele>1026.0000000000002</ele><time>2026-04-12T09:18:04.001Z</time></trkpt><trkpt lat="38.066482074216154" lon="13.220585250720847"><ele>1026.0</ele><time>2026-04-12T09:18:06.001Z</time></trkpt><trkpt lat="38.06655447318576" lon="13.220543505042958"><ele>1034.5</ele><time>2026-04-12T09:18:11.001Z</time></trkpt><trkpt lat="38.06662817646392" lon="13.220527518600228"><ele>1043.0</ele><time>2026-04-12T09:18:13.001Z</time></trkpt><trkpt lat="38.066701816064935" lon="13.220494059564361"><ele>1051.5</ele><time>2026-04-12T09:18:16.001Z</time></trkpt><trkpt lat="38.06675888560551" lon="13.220433611572995"><ele>1060.0</ele><time>2026-04-12T09:18:19.001Z</time></trkpt><trkpt lat="38.06682500647607" lon="13.220384111932235"><ele>1068.5</ele><time>2026-04-12T09:18:21.001Z</time></trkpt><trkpt lat="38.06690194909333" lon="13.220349776041415"><ele>1077.0</ele><time>2026-04-12T09:18:23.001Z</time></trkpt><trkpt lat="38.06684403404951" lon="13.2202837375093"><ele>1077.0</ele><time>2026-04-12T09:18:31.001Z</time></trkpt><trkpt lat="38.066774577355496" lon="13.220272221224576"><ele>1077.0</ele><time>2026-04-12T09:18:33.001Z</time></trkpt><trkpt lat="38.066671863939256" lon="13.220246742137707"><ele>1077.0</ele><time>2026-04-12T09:18:41.002Z</time></trkpt><trkpt lat="38.06657718725121" lon="13.22020984257186"><ele>1077.0</ele><time>2026-04-12T09:18:43.002Z</time></trkpt><trkpt lat="38.06647939038791" lon="13.220136578835547"><ele>1077.0</ele><time>2026-04-12T09:18:45.002Z</time></trkpt><trkpt lat="38.06656651940946" lon="13.220114470095528"><ele>1077.0</ele><time>2026-04-12T09:19:22.002Z</time></trkpt><trkpt lat="38.066633706221744" lon="13.22008344364855"><ele>1077.0</ele><time>2026-04-12T09:19:24.001Z</time></trkpt><trkpt lat="38.066705115454035" lon="13.220060355000404"><ele>1077.0</ele><time>2026-04-12T09:19:26.001Z</time></trkpt><trkpt lat="38.06680077968071" lon="13.220014796279107"><ele>1077.0</ele><time>2026-04-12T09:19:28.001Z</time></trkpt><trkpt lat="38.066919770868616" lon="13.219981093677205"><ele>1077.0</ele><time>2026-04-12T09:19:30.001Z</time></trkpt><trkpt lat="38.06687478713145" lon="13.219918131107711"><ele>1077.0</ele><time>2026-04-12T09:19:53.001Z</time></trkpt><trkpt lat="38.06693015380217" lon="13.219858627657073"><ele>1083.8</ele><time>2026-04-12T09:20:11.001Z</time></trkpt><trkpt lat="38.06702393788059" lon="13.219796468645212"><ele>1090.6</ele><time>2026-04-12T09:20:14.001Z</time></trkpt><trkpt lat="38.067114208333564" lon="13.219745267224265"><ele>1097.3999999999999</ele><time>2026-04-12T09:20:16.001Z</time></trkpt><trkpt lat="38.06719152561468" lon="13.21970420194749"><ele>1104.2</ele><time>2026-04-12T09:20:18.001Z</time></trkpt><trkpt lat="38.067265814005225" lon="13.21966537487557"><ele>1111.0</ele><time>2026-04-12T09:20:20.001Z</time></trkpt><trkpt lat="38.06733703938948" lon="13.219600210255255"><ele>1111.0</ele><time>2026-04-12T09:20:22.001Z</time></trkpt><trkpt lat="38.067402029949605" lon="13.219575069400284"><ele>1111.0</ele><time>2026-04-12T09:20:24.001Z</time></trkpt><trkpt lat="38.0674753314257" lon="13.21952742610759"><ele>1111.0</ele><time>2026-04-12T09:20:26.001Z</time></trkpt><trkpt lat="38.06738128605534" lon="13.219494569108173"><ele>1111.0</ele><time>2026-04-12T09:21:33.001Z</time></trkpt><trkpt lat="38.067305450815624" lon="13.219498244986784"><ele>1111.0</ele><time>2026-04-12T09:21:35.001Z</time></trkpt><trkpt lat="38.067237607008494" lon="13.219495247293747"><ele>1111.0</ele><time>2026-04-12T09:21:38.001Z</time></trkpt><trkpt lat="38.06729077345215" lon="13.219446928130036"><ele>1111.0</ele><time>2026-04-12T09:21:50.001Z</time></trkpt><trkpt lat="38.067367262442545" lon="13.219419726730637"><ele>1111.0</ele><time>2026-04-12T09:22:08.001Z</time></trkpt><trkpt lat="38.06727604511963" lon="13.219363678683996"><ele>1111.0</ele><time>2026-04-12T09:22:16.001Z</time></trkpt><trkpt lat="38.0671869430002" lon="13.219394795244217"><ele>1111.0</ele><time>2026-04-12T09:22:18.001Z</time></trkpt><trkpt lat="38.067085639089214" lon="13.219424753990687"><ele>1111.0</ele><time>2026-04-12T09:22:20.001Z</time></trkpt><trkpt lat="38.067016095306" lon="13.219439064503565"><ele>1111.0</ele><time>2026-04-12T09:22:22.001Z</time></trkpt><trkpt lat="38.06692968875665" lon="13.219424556549438"><ele>1111.0</ele><time>2026-04-12T09:22:25.001Z</time></trkpt><trkpt lat="38.06696192478575" lon="13.219345539691536"><ele>1111.0</ele><time>2026-04-12T09:22:35.001Z</time></trkpt><trkpt lat="38.06692748304499" lon="13.219265824977521"><ele>1111.0</ele><time>2026-04-12T09:22:43.001Z</time></trkpt><trkpt lat="38.06685444721279" lon="13.219221431348833"><ele>1111.0</ele><time>2026-04-12T09:22:47.001Z</time></trkpt><trkpt lat="38.06679602785746" lon="13.219189957741323"><ele>1111.0</ele><time>2026-04-12T09:22:49.001Z</time></trkpt><trkpt lat="38.06673412970979" lon="13.219152750264437"><ele>1111.0</ele><time>2026-04-12T09:22:51.001Z</time></trkpt><trkpt lat="38.066707791866726" lon="13.219072644577935"><ele>1111.0</ele><time>2026-04-12T09:22:55.001Z</time></trkpt><trkpt lat="38.06663028240663" lon="13.219007057083832"><ele>1113.1666666666665</ele><time>2026-04-12T09:22:58.001Z</time></trkpt><trkpt lat="38.066558551677154" lon="13.218944291101247"><ele>1115.3333333333333</ele><time>2026-04-12T09:23:00.001Z</time></trkpt><trkpt lat="38.066484140096215" lon="13.218874718487948"><ele>1117.5</ele><time>2026-04-12T09:23:02.001Z</time></trkpt><trkpt lat="38.06640137440489" lon="13.218856682882585"><ele>1119.6666666666667</ele><time>2026-04-12T09:23:05.001Z</time></trkpt><trkpt lat="38.06633055749579" lon="13.218823893056198"><ele>1121.8333333333335</ele><time>2026-04-12T09:23:07.001Z</time></trkpt><trkpt lat="38.066247525848034" lon="13.218811561996544"><ele>1124.0</ele><time>2026-04-12T09:23:09.001Z</time></trkpt><trkpt lat="38.06627023643309" lon="13.218716854294073"><ele>1124.0</ele><time>2026-04-12T09:23:15.001Z</time></trkpt><trkpt lat="38.06632959703425" lon="13.21863247045924"><ele>1124.0</ele><time>2026-04-12T09:23:17.001Z</time></trkpt><trkpt lat="38.066410833324746" lon="13.218541543471932"><ele>1124.0</ele><time>2026-04-12T09:23:19.001Z</time></trkpt><trkpt lat="38.066495946980766" lon="13.218497602996019"><ele>1124.0</ele><time>2026-04-12T09:23:21.001Z</time></trkpt><trkpt lat="38.0665676828575" lon="13.218487066642876"><ele>1124.0</ele><time>2026-04-12T09:23:23.002Z</time></trkpt><trkpt lat="38.06659941068566" lon="13.21840304306549"><ele>1124.0</ele><time>2026-04-12T09:23:27.002Z</time></trkpt><trkpt lat="38.06651942509089" lon="13.218317663966397"><ele>1124.0000000000002</ele><time>2026-04-12T09:23:28.002Z</time></trkpt><trkpt lat="38.06655057276283" lon="13.218219090364537"><ele>1124.0</ele><time>2026-04-12T09:23:36.001Z</time></trkpt><trkpt lat="38.0664810904942" lon="13.21821653847688"><ele>1124.0</ele><time>2026-04-12T09:24:01Z</time></trkpt><trkpt lat="38.06642011817832" lon="13.218294773899169"><ele>1124.0</ele><time>2026-04-12T09:24:03Z</time></trkpt><trkpt lat="38.066363376574984" lon="13.218341085473385"><ele>1124.0</ele><time>2026-04-12T09:24:05Z</time></trkpt><trkpt lat="38.066314138456335" lon="13.218277677575909"><ele>1124.0000000000002</ele><time>2026-04-12T09:25:59Z</time></trkpt><trkpt lat="38.066272168091174" lon="13.21820345100652"><ele>1124.0</ele><time>2026-04-12T09:26:01Z</time></trkpt><trkpt lat="38.06627359229079" lon="13.218099590770146"><ele>1124.3333333333335</ele><time>2026-04-12T09:26:04Z</time></trkpt><trkpt lat="38.06634959568738" lon="13.21804902154361"><ele>1124.6666666666667</ele><time>2026-04-12T09:26:06Z</time></trkpt><trkpt lat="38.066309929675505" lon="13.217952689003633"><ele>1125.0</ele><time>2026-04-12T09:26:10Z</time></trkpt><trkpt lat="38.06629190426792" lon="13.21786466716277"><ele>1125.3333333333333</ele><time>2026-04-12T09:26:13Z</time></trkpt><trkpt lat="38.06625646791256" lon="13.217794213049123"><ele>1125.6666666666665</ele><time>2026-04-12T09:26:15Z</time></trkpt><trkpt lat="38.06622723808938" lon="13.217669863287995"><ele>1126.0</ele><time>2026-04-12T09:26:17Z</time></trkpt><trkpt lat="38.06619307166356" lon="13.217592271950453"><ele>1126.0</ele><time>2026-04-12T09:26:19Z</time></trkpt><trkpt lat="38.06616792461367" lon="13.2175124690829"><ele>1126.0</ele><time>2026-04-12T09:26:21Z</time></trkpt><trkpt lat="38.06604720501518" lon="13.217514161043352"><ele>1126.0</ele><time>2026-04-12T09:26:24Z</time></trkpt><trkpt lat="38.06595819301046" lon="13.217532262720836"><ele>1126.0</ele><time>2026-04-12T09:26:25Z</time></trkpt><trkpt lat="38.065862750981886" lon="13.217563692197478"><ele>1126.0</ele><time>2026-04-12T09:26:26Z</time></trkpt><trkpt lat="38.06577730377299" lon="13.217517522169091"><ele>1123.5</ele><time>2026-04-12T09:26:27Z</time></trkpt><trkpt lat="38.065702638530176" lon="13.217512588908523"><ele>1121.0</ele><time>2026-04-12T09:26:28Z</time></trkpt><trkpt lat="38.065615053292625" lon="13.217443088190599"><ele>1118.5</ele><time>2026-04-12T09:26:30Z</time></trkpt><trkpt lat="38.06555835961418" lon="13.217372044528359"><ele>1116.0</ele><time>2026-04-12T09:26:31Z</time></trkpt><trkpt lat="38.06549685249414" lon="13.217292866064678"><ele>1113.5</ele><time>2026-04-12T09:26:32Z</time></trkpt><trkpt lat="38.065439790624744" lon="13.217215260647052"><ele>1111.0</ele><time>2026-04-12T09:26:33Z</time></trkpt><trkpt lat="38.06539615837511" lon="13.217140622054485"><ele>1111.0</ele><time>2026-04-12T09:26:34Z</time></trkpt><trkpt lat="38.06537495851495" lon="13.217007667345888"><ele>1111.0</ele><time>2026-04-12T09:26:36Z</time></trkpt><trkpt lat="38.06538148951872" lon="13.216900091166766"><ele>1111.0</ele><time>2026-04-12T09:26:37Z</time></trkpt><trkpt lat="38.065372183658276" lon="13.216795175520609"><ele>1111.0</ele><time>2026-04-12T09:26:38Z</time></trkpt><trkpt lat="38.06534216856213" lon="13.216718146972243"><ele>1111.0</ele><time>2026-04-12T09:26:39Z</time></trkpt><trkpt lat="38.0652892722399" lon="13.21662417577465"><ele>1111.0</ele><time>2026-04-12T09:26:41Z</time></trkpt><trkpt lat="38.065186378633435" lon="13.216733845575064"><ele>1111.0</ele><time>2026-04-12T09:26:44Z</time></trkpt><trkpt lat="38.065189537750875" lon="13.216840494270693"><ele>1111.0</ele><time>2026-04-12T09:26:45Z</time></trkpt><trkpt lat="38.065178468177585" lon="13.216932821958435"><ele>1111.0</ele><time>2026-04-12T09:26:46Z</time></trkpt><trkpt lat="38.06515699801446" lon="13.217058235039365"><ele>1111.0</ele><time>2026-04-12T09:26:47Z</time></trkpt><trkpt lat="38.06513762695541" lon="13.217146808987891"><ele>1111.0</ele><time>2026-04-12T09:26:48Z</time></trkpt><trkpt lat="38.0651189598649" lon="13.217226482153114"><ele>1111.0</ele><time>2026-04-12T09:26:49Z</time></trkpt><trkpt lat="38.06506113894729" lon="13.217278182243717"><ele>1111.0</ele><time>2026-04-12T09:26:52Z</time></trkpt><trkpt lat="38.06495032353146" lon="13.217107646413606"><ele>1111.0</ele><time>2026-04-12T09:26:54Z</time></trkpt><trkpt lat="38.06489951744889" lon="13.216998926304788"><ele>1111.0</ele><time>2026-04-12T09:26:55Z</time></trkpt><trkpt lat="38.06484857749694" lon="13.216904984221392"><ele>1111.0</ele><time>2026-04-12T09:26:56.001Z</time></trkpt><trkpt lat="38.06478232177724" lon="13.216847841774921"><ele>1111.0</ele><time>2026-04-12T09:26:57.001Z</time></trkpt><trkpt lat="38.06467844969343" lon="13.216790775203744"><ele>1105.75</ele><time>2026-04-12T09:26:58.001Z</time></trkpt><trkpt lat="38.064569534778734" lon="13.216751602754341"><ele>1100.5</ele><time>2026-04-12T09:26:59.001Z</time></trkpt><trkpt lat="38.06446857480585" lon="13.216689013725068"><ele>1095.25</ele><time>2026-04-12T09:27:00.001Z</time></trkpt><trkpt lat="38.06435889310842" lon="13.216637889642596"><ele>1090.0</ele><time>2026-04-12T09:27:01.001Z</time></trkpt><trkpt lat="38.06425933228829" lon="13.216575699064265"><ele>1090.0</ele><time>2026-04-12T09:27:02.001Z</time></trkpt><trkpt lat="38.0641656436451" lon="13.216511742275356"><ele>1090.0</ele><time>2026-04-12T09:27:03.001Z</time></trkpt><trkpt lat="38.06406553584709" lon="13.216437155451231"><ele>1090.0</ele><time>2026-04-12T09:27:04.001Z</time></trkpt><trkpt lat="38.063974720164275" lon="13.216361161705047"><ele>1090.0</ele><time>2026-04-12T09:27:05.001Z</time></trkpt><trkpt lat="38.06388817617192" lon="13.216283999639932"><ele>1090.0</ele><time>2026-04-12T09:27:06.001Z</time></trkpt><trkpt lat="38.0637988702803" lon="13.216216741334378"><ele>1087.6</ele><time>2026-04-12T09:27:07.001Z</time></trkpt><trkpt lat="38.06370548024608" lon="13.216161322217397"><ele>1085.2</ele><time>2026-04-12T09:27:08.001Z</time></trkpt><trkpt lat="38.063636739987466" lon="13.216086226571102"><ele>1082.8</ele><time>2026-04-12T09:27:09.001Z</time></trkpt><trkpt lat="38.06356302887724" lon="13.216003651879728"><ele>1080.4</ele><time>2026-04-12T09:27:10.001Z</time></trkpt><trkpt lat="38.06347851664556" lon="13.215931288430792"><ele>1078.0</ele><time>2026-04-12T09:27:11.001Z</time></trkpt><trkpt lat="38.06341632516844" lon="13.215846646483769"><ele>1078.0</ele><time>2026-04-12T09:27:12.001Z</time></trkpt><trkpt lat="38.06334582603986" lon="13.215761145314497"><ele>1078.0</ele><time>2026-04-12T09:27:13.001Z</time></trkpt><trkpt lat="38.06325835562773" lon="13.215679257038909"><ele>1078.0</ele><time>2026-04-12T09:27:14.001Z</time></trkpt><trkpt lat="38.063163157125885" lon="13.21562172824531"><ele>1078.0</ele><time>2026-04-12T09:27:15.001Z</time></trkpt><trkpt lat="38.06308707892528" lon="13.215528190752455"><ele>1078.0</ele><time>2026-04-12T09:27:16.001Z</time></trkpt><trkpt lat="38.06300948050348" lon="13.215445989429378"><ele>1075.6</ele><time>2026-04-12T09:27:17.001Z</time></trkpt><trkpt lat="38.06293301326446" lon="13.215354777159575"><ele>1073.1999999999998</ele><time>2026-04-12T09:27:18.001Z</time></trkpt><trkpt lat="38.0628590247761" lon="13.215244700899852"><ele>1070.8</ele><time>2026-04-12T09:27:19.001Z</time></trkpt><trkpt lat="38.06278275430922" lon="13.215168662921137"><ele>1068.3999999999999</ele><time>2026-04-12T09:27:20.001Z</time></trkpt><trkpt lat="38.0627091039535" lon="13.215054906298555"><ele>1066.0</ele><time>2026-04-12T09:27:21.001Z</time></trkpt><trkpt lat="38.06262633243536" lon="13.214977605886391"><ele>1066.0</ele><time>2026-04-12T09:27:22.001Z</time></trkpt><trkpt lat="38.06254290426291" lon="13.21490586704806"><ele>1066.0</ele><time>2026-04-12T09:27:23.001Z</time></trkpt><trkpt lat="38.062449800395505" lon="13.214842327776253"><ele>1066.0</ele><time>2026-04-12T09:27:24.001Z</time></trkpt><trkpt lat="38.06237212290657" lon="13.214767729344622"><ele>1066.0</ele><time>2026-04-12T09:27:25.001Z</time></trkpt><trkpt lat="38.06228723099239" lon="13.21472207867114"><ele>1066.0</ele><time>2026-04-12T09:27:26.001Z</time></trkpt><trkpt lat="38.06218740856442" lon="13.214682472558891"><ele>1066.6</ele><time>2026-04-12T09:27:27.001Z</time></trkpt><trkpt lat="38.0621045605418" lon="13.214634085687125"><ele>1067.1999999999998</ele><time>2026-04-12T09:27:28.001Z</time></trkpt><trkpt lat="38.0620164113261" lon="13.214571639742987"><ele>1067.8000000000002</ele><time>2026-04-12T09:27:29.001Z</time></trkpt><trkpt lat="38.061931451707224" lon="13.214482685527482"><ele>1068.4</ele><time>2026-04-12T09:27:30.001Z</time></trkpt><trkpt lat="38.06184194069182" lon="13.214422857688632"><ele>1069.0</ele><time>2026-04-12T09:27:31.001Z</time></trkpt><trkpt lat="38.061749611127844" lon="13.21440121178366"><ele>1069.0</ele><time>2026-04-12T09:27:32.001Z</time></trkpt><trkpt lat="38.06165509865053" lon="13.214366957395503"><ele>1069.0</ele><time>2026-04-12T09:27:33.001Z</time></trkpt><trkpt lat="38.06156548803682" lon="13.214325981472347"><ele>1069.0</ele><time>2026-04-12T09:27:34.001Z</time></trkpt><trkpt lat="38.06146843532809" lon="13.214302978816761"><ele>1069.0</ele><time>2026-04-12T09:27:35.001Z</time></trkpt><trkpt lat="38.06138989784992" lon="13.214287395123382"><ele>1069.0</ele><time>2026-04-12T09:27:36.001Z</time></trkpt><trkpt lat="38.06129066773787" lon="13.214286954799746"><ele>1066.1666666666665</ele><time>2026-04-12T09:27:37.001Z</time></trkpt><trkpt lat="38.06121710433907" lon="13.214289658273199"><ele>1063.3333333333333</ele><time>2026-04-12T09:27:38.001Z</time></trkpt><trkpt lat="38.06113012620668" lon="13.214267840969661"><ele>1060.5</ele><time>2026-04-12T09:27:39.001Z</time></trkpt><trkpt lat="38.06102386519555" lon="13.214288029840311"><ele>1057.6666666666667</ele><time>2026-04-12T09:27:41.001Z</time></trkpt><trkpt lat="38.060962454271746" lon="13.214334019582347"><ele>1054.8333333333335</ele><time>2026-04-12T09:27:43.001Z</time></trkpt><trkpt lat="38.06093361287668" lon="13.214415619870646"><ele>1052.0</ele><time>2026-04-12T09:27:44.001Z</time></trkpt><trkpt lat="38.06087595644537" lon="13.214529924747131"><ele>1052.0</ele><time>2026-04-12T09:27:46.001Z</time></trkpt><trkpt lat="38.060877233951516" lon="13.214649909529342"><ele>1052.0</ele><time>2026-04-12T09:27:48Z</time></trkpt><trkpt lat="38.060953770166996" lon="13.214732068361254"><ele>1052.0</ele><time>2026-04-12T09:27:50Z</time></trkpt><trkpt lat="38.06102633788539" lon="13.214766096657318"><ele>1052.0</ele><time>2026-04-12T09:27:51Z</time></trkpt><trkpt lat="38.06111363508147" lon="13.214788356507174"><ele>1052.0</ele><time>2026-04-12T09:27:52Z</time></trkpt><trkpt lat="38.06121502509851" lon="13.214820861910603"><ele>1051.0</ele><time>2026-04-12T09:27:53Z</time></trkpt><trkpt lat="38.06132300852778" lon="13.21486483285803"><ele>1050.0</ele><time>2026-04-12T09:27:54Z</time></trkpt><trkpt lat="38.06141214410363" lon="13.214905331253142"><ele>1049.0</ele><time>2026-04-12T09:27:55Z</time></trkpt><trkpt lat="38.06149187545142" lon="13.214932216519939"><ele>1048.0</ele><time>2026-04-12T09:27:56Z</time></trkpt><trkpt lat="38.06155840479049" lon="13.214970369636008"><ele>1047.0</ele><time>2026-04-12T09:27:57Z</time></trkpt><trkpt lat="38.06161846380623" lon="13.215027872116682"><ele>1046.0</ele><time>2026-04-12T09:27:58Z</time></trkpt><trkpt lat="38.061683783625426" lon="13.21510546789438"><ele>1046.0</ele><time>2026-04-12T09:27:59Z</time></trkpt><trkpt lat="38.06174055545197" lon="13.215226690141673"><ele>1046.0</ele><time>2026-04-12T09:28:00Z</time></trkpt><trkpt lat="38.06180735471351" lon="13.21534401076697"><ele>1046.0</ele><time>2026-04-12T09:28:01Z</time></trkpt><trkpt lat="38.06188610881241" lon="13.215429728305688"><ele>1046.0</ele><time>2026-04-12T09:28:02Z</time></trkpt><trkpt lat="38.06197850312675" lon="13.215495852704946"><ele>1046.0</ele><time>2026-04-12T09:28:03Z</time></trkpt><trkpt lat="38.06206590232637" lon="13.215532304312825"><ele>1046.0</ele><time>2026-04-12T09:28:04Z</time></trkpt><trkpt lat="38.06215553866677" lon="13.21556962942361"><ele>1046.0</ele><time>2026-04-12T09:28:05Z</time></trkpt><trkpt lat="38.06219901044471" lon="13.215646330357295"><ele>1046.0</ele><time>2026-04-12T09:28:06Z</time></trkpt><trkpt lat="38.06223316117831" lon="13.215727808302502"><ele>1046.0</ele><time>2026-04-12T09:28:07Z</time></trkpt><trkpt lat="38.062264327049625" lon="13.215839507407825"><ele>1046.0</ele><time>2026-04-12T09:28:08Z</time></trkpt><trkpt lat="38.062293185619005" lon="13.215937936484682"><ele>1046.0</ele><time>2026-04-12T09:28:09Z</time></trkpt><trkpt lat="38.0623323114636" lon="13.216019824707933"><ele>1042.1666666666667</ele><time>2026-04-12T09:28:10Z</time></trkpt><trkpt lat="38.06232940991256" lon="13.216125982566288"><ele>1038.3333333333335</ele><time>2026-04-12T09:28:11Z</time></trkpt><trkpt lat="38.06229062013878" lon="13.216213352558581"><ele>1034.5</ele><time>2026-04-12T09:28:12Z</time></trkpt><trkpt lat="38.062264504148835" lon="13.216302901823482"><ele>1030.6666666666667</ele><time>2026-04-12T09:28:13Z</time></trkpt><trkpt lat="38.06226013821946" lon="13.216391264892"><ele>1026.8333333333333</ele><time>2026-04-12T09:28:14Z</time></trkpt><trkpt lat="38.062237043371276" lon="13.216499242895248"><ele>1023.0</ele><time>2026-04-12T09:28:15Z</time></trkpt><trkpt lat="38.06225871379915" lon="13.21658743321463"><ele>1021.0</ele><time>2026-04-12T09:28:16Z</time></trkpt><trkpt lat="38.06229490101377" lon="13.216695207153565"><ele>1019.0</ele><time>2026-04-12T09:28:17Z</time></trkpt><trkpt lat="38.062332282014744" lon="13.216780100154876"><ele>1017.0</ele><time>2026-04-12T09:28:18Z</time></trkpt><trkpt lat="38.06235730608007" lon="13.216866646006999"><ele>1015.0</ele><time>2026-04-12T09:28:20Z</time></trkpt><trkpt lat="38.06231800769437" lon="13.216950962152469"><ele>1013.0</ele><time>2026-04-12T09:28:23Z</time></trkpt><trkpt lat="38.062222934157944" lon="13.216887075541816"><ele>1011.0</ele><time>2026-04-12T09:28:25Z</time></trkpt><trkpt lat="38.06218081180616" lon="13.21678969319327"><ele>1011.0</ele><time>2026-04-12T09:28:26Z</time></trkpt><trkpt lat="38.06209678528422" lon="13.216705920415153"><ele>1010.9999999999999</ele><time>2026-04-12T09:28:27Z</time></trkpt><trkpt lat="38.06201372801556" lon="13.216609167115186"><ele>1010.9999999999999</ele><time>2026-04-12T09:28:28Z</time></trkpt><trkpt lat="38.061954506126824" lon="13.216508909195301"><ele>1011.0</ele><time>2026-04-12T09:28:29Z</time></trkpt><trkpt lat="38.06187623890628" lon="13.216400223521635"><ele>1011.0</ele><time>2026-04-12T09:28:30Z</time></trkpt><trkpt lat="38.06181189956556" lon="13.216295579804438"><ele>1010.1999999999999</ele><time>2026-04-12T09:28:31Z</time></trkpt><trkpt lat="38.061758661523555" lon="13.216200369209288"><ele>1009.3999999999999</ele><time>2026-04-12T09:28:32Z</time></trkpt><trkpt lat="38.06171632715564" lon="13.21612108776869"><ele>1008.6</ele><time>2026-04-12T09:28:33Z</time></trkpt><trkpt lat="38.06167895291894" lon="13.216044944060418"><ele>1007.8</ele><time>2026-04-12T09:28:34Z</time></trkpt><trkpt lat="38.06159056631181" lon="13.215961369087001"><ele>1007.0</ele><time>2026-04-12T09:28:36Z</time></trkpt><trkpt lat="38.0614810164744" lon="13.216014446862946"><ele>1007.0000000000001</ele><time>2026-04-12T09:28:38Z</time></trkpt><trkpt lat="38.061486588046286" lon="13.216158472255033"><ele>1007.0</ele><time>2026-04-12T09:28:40Z</time></trkpt><trkpt lat="38.06154350183272" lon="13.216222684797522"><ele>1007.0</ele><time>2026-04-12T09:28:41Z</time></trkpt><trkpt lat="38.061599503891586" lon="13.216295086055906"><ele>1007.0</ele><time>2026-04-12T09:28:42Z</time></trkpt><trkpt lat="38.06160696645585" lon="13.216396094702244"><ele>1007.0000000000001</ele><time>2026-04-12T09:28:43Z</time></trkpt><trkpt lat="38.061609488979116" lon="13.21650651546292"><ele>1007.0</ele><time>2026-04-12T09:28:44Z</time></trkpt><trkpt lat="38.06162565299327" lon="13.216650321226096"><ele>1007.8</ele><time>2026-04-12T09:28:45Z</time></trkpt><trkpt lat="38.061671904334865" lon="13.216782682856683"><ele>1008.6</ele><time>2026-04-12T09:28:46Z</time></trkpt><trkpt lat="38.06170731173336" lon="13.216915971910549"><ele>1009.3999999999999</ele><time>2026-04-12T09:28:47Z</time></trkpt><trkpt lat="38.06174849555349" lon="13.217028354360501"><ele>1010.1999999999999</ele><time>2026-04-12T09:28:48.001Z</time></trkpt><trkpt lat="38.061795341759144" lon="13.21713332811783"><ele>1011.0</ele><time>2026-04-12T09:28:49.001Z</time></trkpt><trkpt lat="38.06184393355579" lon="13.217208102580415"><ele>1011.0</ele><time>2026-04-12T09:28:50.001Z</time></trkpt><trkpt lat="38.06189512631286" lon="13.217275725242184"><ele>1011.0</ele><time>2026-04-12T09:28:51.001Z</time></trkpt><trkpt lat="38.061900416421075" lon="13.217369193817618"><ele>1011.0</ele><time>2026-04-12T09:28:53.001Z</time></trkpt><trkpt lat="38.06180020859538" lon="13.217376240185985"><ele>1011.0</ele><time>2026-04-12T09:28:56.001Z</time></trkpt><trkpt lat="38.06174599251885" lon="13.217317171837085"><ele>1011.0</ele><time>2026-04-12T09:28:57.001Z</time></trkpt><trkpt lat="38.06167812616187" lon="13.217242341492636"><ele>1011.0</ele><time>2026-04-12T09:28:58.001Z</time></trkpt><trkpt lat="38.061589418242434" lon="13.217135823800449"><ele>1007.8333333333334</ele><time>2026-04-12T09:29:00.001Z</time></trkpt><trkpt lat="38.061520420827314" lon="13.217128915364208"><ele>1004.6666666666667</ele><time>2026-04-12T09:29:02.001Z</time></trkpt><trkpt lat="38.06150022415096" lon="13.217244499864025"><ele>1001.5</ele><time>2026-04-12T09:29:04.001Z</time></trkpt><trkpt lat="38.06153818486386" lon="13.217333225067305"><ele>998.3333333333334</ele><time>2026-04-12T09:29:05.001Z</time></trkpt><trkpt lat="38.0615921056367" lon="13.217420768079137"><ele>995.1666666666667</ele><time>2026-04-12T09:29:06.001Z</time></trkpt><trkpt lat="38.06163911407282" lon="13.217526332117892"><ele>992.0</ele><time>2026-04-12T09:29:07.001Z</time></trkpt><trkpt lat="38.061681451511475" lon="13.21764160990318"><ele>991.8333333333334</ele><time>2026-04-12T09:29:08.001Z</time></trkpt><trkpt lat="38.06173730783374" lon="13.217750039254128"><ele>991.6666666666667</ele><time>2026-04-12T09:29:09.001Z</time></trkpt><trkpt lat="38.06179523316841" lon="13.217835164048575"><ele>991.5</ele><time>2026-04-12T09:29:10.001Z</time></trkpt><trkpt lat="38.06189927474013" lon="13.217878083608753"><ele>991.3333333333333</ele><time>2026-04-12T09:29:12.001Z</time></trkpt><trkpt lat="38.06195826909793" lon="13.217847535631313"><ele>991.1666666666666</ele><time>2026-04-12T09:29:13.001Z</time></trkpt><trkpt lat="38.06202710687607" lon="13.217794335119635"><ele>991.0</ele><time>2026-04-12T09:29:14.001Z</time></trkpt><trkpt lat="38.06210196302109" lon="13.217715702815667"><ele>990.9999999999999</ele><time>2026-04-12T09:29:15.001Z</time></trkpt><trkpt lat="38.06217903639672" lon="13.217669497581495"><ele>991.0</ele><time>2026-04-12T09:29:16.001Z</time></trkpt><trkpt lat="38.06225921419094" lon="13.217617435367487"><ele>991.0</ele><time>2026-04-12T09:29:17.001Z</time></trkpt><trkpt lat="38.06233167530435" lon="13.217565477831027"><ele>991.0</ele><time>2026-04-12T09:29:18.001Z</time></trkpt><trkpt lat="38.06241367560054" lon="13.21757523710064"><ele>990.9999999999999</ele><time>2026-04-12T09:29:19.001Z</time></trkpt><trkpt lat="38.062488876852335" lon="13.21755407410573"><ele>991.0</ele><time>2026-04-12T09:29:20.001Z</time></trkpt><trkpt lat="38.06258047557558" lon="13.217575025968475"><ele>992.5999999999999</ele><time>2026-04-12T09:29:21.001Z</time></trkpt><trkpt lat="38.062677345962676" lon="13.217626814020576"><ele>994.1999999999999</ele><time>2026-04-12T09:29:22.001Z</time></trkpt><trkpt lat="38.062767869429486" lon="13.217672372071444"><ele>995.8000000000001</ele><time>2026-04-12T09:29:23.001Z</time></trkpt><trkpt lat="38.06286323572929" lon="13.217719111653496"><ele>997.4000000000001</ele><time>2026-04-12T09:29:24.001Z</time></trkpt><trkpt lat="38.06295990393905" lon="13.217813562020932"><ele>999.0</ele><time>2026-04-12T09:29:25.001Z</time></trkpt><trkpt lat="38.063054963820036" lon="13.217876325560361"><ele>999.0</ele><time>2026-04-12T09:29:26.001Z</time></trkpt><trkpt lat="38.06313581732111" lon="13.21795995638297"><ele>999.0000000000001</ele><time>2026-04-12T09:29:27.001Z</time></trkpt><trkpt lat="38.06323047442021" lon="13.218019687811731"><ele>999.0000000000001</ele><time>2026-04-12T09:29:28.001Z</time></trkpt><trkpt lat="38.06331139212153" lon="13.218081139912533"><ele>999.0</ele><time>2026-04-12T09:29:29.001Z</time></trkpt><trkpt lat="38.06336100249955" lon="13.218177469714604"><ele>999.0</ele><time>2026-04-12T09:29:30.001Z</time></trkpt><trkpt lat="38.06340500019816" lon="13.218278024128779"><ele>996.0</ele><time>2026-04-12T09:29:31.001Z</time></trkpt><trkpt lat="38.0634483480582" lon="13.218410283570059"><ele>993.0000000000001</ele><time>2026-04-12T09:29:32.001Z</time></trkpt><trkpt lat="38.063481561344034" lon="13.218542711320103"><ele>990.0000000000001</ele><time>2026-04-12T09:29:33.001Z</time></trkpt><trkpt lat="38.063498477467995" lon="13.218678955979458"><ele>987.0</ele><time>2026-04-12T09:29:34.001Z</time></trkpt><trkpt lat="38.06350401013899" lon="13.218826110099908"><ele>984.0</ele><time>2026-04-12T09:29:35.001Z</time></trkpt><trkpt lat="38.06352541168549" lon="13.218967463766464"><ele>979.2</ele><time>2026-04-12T09:29:36.001Z</time></trkpt><trkpt lat="38.06353803257941" lon="13.219096079108567"><ele>974.4000000000001</ele><time>2026-04-12T09:29:37.001Z</time></trkpt><trkpt lat="38.06356263353999" lon="13.219196433861155"><ele>969.6</ele><time>2026-04-12T09:29:38.001Z</time></trkpt><trkpt lat="38.06361802342892" lon="13.219283102176403"><ele>964.8</ele><time>2026-04-12T09:29:39.001Z</time></trkpt><trkpt lat="38.06368841835954" lon="13.219346862214959"><ele>960.0</ele><time>2026-04-12T09:29:40.001Z</time></trkpt><trkpt lat="38.06378115250935" lon="13.219405278702313"><ele>960.0</ele><time>2026-04-12T09:29:41.001Z</time></trkpt><trkpt lat="38.063872252076735" lon="13.21946525684716"><ele>960.0</ele><time>2026-04-12T09:29:42.001Z</time></trkpt><trkpt lat="38.06394868802507" lon="13.2195400915947"><ele>960.0</ele><time>2026-04-12T09:29:43.001Z</time></trkpt><trkpt lat="38.06399032346816" lon="13.219629592042855"><ele>960.0</ele><time>2026-04-12T09:29:44.001Z</time></trkpt><trkpt lat="38.0640075653669" lon="13.21975892070987"><ele>960.0</ele><time>2026-04-12T09:29:45.001Z</time></trkpt><trkpt lat="38.06402361525856" lon="13.219873950893332"><ele>956.4</ele><time>2026-04-12T09:29:46.001Z</time></trkpt><trkpt lat="38.06402613552521" lon="13.220004893486358"><ele>952.8</ele><time>2026-04-12T09:29:47.001Z</time></trkpt><trkpt lat="38.06400199538369" lon="13.22010530548529"><ele>949.2</ele><time>2026-04-12T09:29:48.001Z</time></trkpt><trkpt lat="38.063953857501474" lon="13.220214120512603"><ele>945.6</ele><time>2026-04-12T09:29:49.001Z</time></trkpt><trkpt lat="38.06391650515259" lon="13.220323415990547"><ele>942.0</ele><time>2026-04-12T09:29:50.001Z</time></trkpt><trkpt lat="38.06388632273821" lon="13.220423967801084"><ele>942.0</ele><time>2026-04-12T09:29:51.001Z</time></trkpt><trkpt lat="38.063904864541854" lon="13.220529652903533"><ele>942.0</ele><time>2026-04-12T09:29:52.001Z</time></trkpt><trkpt lat="38.063931543041775" lon="13.220647638092455"><ele>942.0</ele><time>2026-04-12T09:29:53Z</time></trkpt><trkpt lat="38.063971955917786" lon="13.220783419247548"><ele>942.0</ele><time>2026-04-12T09:29:54Z</time></trkpt><trkpt lat="38.06401775004703" lon="13.22092206422358"><ele>942.0</ele><time>2026-04-12T09:29:55Z</time></trkpt><trkpt lat="38.0640726752025" lon="13.221053988651946"><ele>945.2</ele><time>2026-04-12T09:29:56Z</time></trkpt><trkpt lat="38.06413116245196" lon="13.221197673328101"><ele>948.4000000000001</ele><time>2026-04-12T09:29:57Z</time></trkpt><trkpt lat="38.06418116495466" lon="13.221335691349521"><ele>951.5999999999999</ele><time>2026-04-12T09:29:58Z</time></trkpt><trkpt lat="38.06423134579538" lon="13.221462202598321"><ele>954.8</ele><time>2026-04-12T09:29:59Z</time></trkpt><trkpt lat="38.06428080844193" lon="13.22155675085197"><ele>958.0</ele><time>2026-04-12T09:30:00Z</time></trkpt><trkpt lat="38.064348735850864" lon="13.221639454352365"><ele>958.0</ele><time>2026-04-12T09:30:01Z</time></trkpt><trkpt lat="38.064427193904905" lon="13.221714053942073"><ele>958.0</ele><time>2026-04-12T09:30:02Z</time></trkpt><trkpt lat="38.06452403924589" lon="13.221790825690652"><ele>958.0</ele><time>2026-04-12T09:30:03Z</time></trkpt><trkpt lat="38.06460740237078" lon="13.221891048086563"><ele>958.0</ele><time>2026-04-12T09:30:04Z</time></trkpt><trkpt lat="38.06467879209379" lon="13.222016896224895"><ele>958.0</ele><time>2026-04-12T09:30:05Z</time></trkpt><trkpt lat="38.06474135987408" lon="13.222149876860025"><ele>958.0</ele><time>2026-04-12T09:30:06Z</time></trkpt><trkpt lat="38.06479404467221" lon="13.22227670197077"><ele>958.0</ele><time>2026-04-12T09:30:07Z</time></trkpt><trkpt lat="38.064884837796896" lon="13.222345190130953"><ele>958.0</ele><time>2026-04-12T09:30:08Z</time></trkpt><trkpt lat="38.064954801218704" lon="13.222383832238085"><ele>958.0</ele><time>2026-04-12T09:30:09Z</time></trkpt><trkpt lat="38.06504204409944" lon="13.222401306459513"><ele>958.0</ele><time>2026-04-12T09:30:10Z</time></trkpt><trkpt lat="38.06514231777216" lon="13.222412483060317"><ele>958.0</ele><time>2026-04-12T09:30:11Z</time></trkpt><trkpt lat="38.065244278018476" lon="13.222454849136287"><ele>958.0</ele><time>2026-04-12T09:30:12Z</time></trkpt><trkpt lat="38.065317298813014" lon="13.222552011588933"><ele>958.0</ele><time>2026-04-12T09:30:13Z</time></trkpt><trkpt lat="38.065403069673465" lon="13.22261857344392"><ele>958.0</ele><time>2026-04-12T09:30:14Z</time></trkpt><trkpt lat="38.06546767932392" lon="13.22269213744037"><ele>958.0</ele><time>2026-04-12T09:30:15Z</time></trkpt><trkpt lat="38.0655430143658" lon="13.222689110773972"><ele>958.0</ele><time>2026-04-12T09:30:16Z</time></trkpt><trkpt lat="38.065612180596126" lon="13.222704164162696"><ele>958.0</ele><time>2026-04-12T09:30:18Z</time></trkpt><trkpt lat="38.06571168999017" lon="13.222687220965218"><ele>958.0</ele><time>2026-04-12T09:30:21Z</time></trkpt><trkpt lat="38.06578495761012" lon="13.222682895293561"><ele>958.0</ele><time>2026-04-12T09:30:23Z</time></trkpt><trkpt lat="38.06587815198439" lon="13.22273470353127"><ele>958.0</ele><time>2026-04-12T09:30:25Z</time></trkpt><trkpt lat="38.06599909961905" lon="13.222735415072922"><ele>958.0</ele><time>2026-04-12T09:30:27Z</time></trkpt><trkpt lat="38.0660660215766" lon="13.222771395353401"><ele>958.0</ele><time>2026-04-12T09:30:29Z</time></trkpt><trkpt lat="38.06599913153793" lon="13.222859309245203"><ele>958.0</ele><time>2026-04-12T09:30:36Z</time></trkpt><trkpt lat="38.06590185683807" lon="13.222893482464487"><ele>958.0</ele><time>2026-04-12T09:30:38Z</time></trkpt><trkpt lat="38.06581929655832" lon="13.22295600011485"><ele>958.0</ele><time>2026-04-12T09:30:40Z</time></trkpt><trkpt lat="38.06571610398254" lon="13.222975403356019"><ele>958.0</ele><time>2026-04-12T09:30:42Z</time></trkpt><trkpt lat="38.0656340134755" lon="13.222998311287606"><ele>958.0</ele><time>2026-04-12T09:30:44Z</time></trkpt><trkpt lat="38.0655200555617" lon="13.22302259334144"><ele>958.0</ele><time>2026-04-12T09:30:46Z</time></trkpt><trkpt lat="38.06540180033625" lon="13.223039083535356"><ele>958.0</ele><time>2026-04-12T09:30:48Z</time></trkpt><trkpt lat="38.06533039172914" lon="13.22304123273704"><ele>958.0</ele><time>2026-04-12T09:30:50Z</time></trkpt><trkpt lat="38.06527283307998" lon="13.22311893003279"><ele>954.4</ele><time>2026-04-12T09:30:52Z</time></trkpt><trkpt lat="38.065356653497744" lon="13.223202808896133"><ele>950.8</ele><time>2026-04-12T09:30:55.001Z</time></trkpt><trkpt lat="38.065447882936276" lon="13.223224038344174"><ele>947.2</ele><time>2026-04-12T09:30:57.001Z</time></trkpt><trkpt lat="38.065551674933666" lon="13.223282983497882"><ele>943.6</ele><time>2026-04-12T09:30:59.001Z</time></trkpt><trkpt lat="38.06564649133664" lon="13.223392782371384"><ele>940.0</ele><time>2026-04-12T09:31:01.001Z</time></trkpt><trkpt lat="38.065690389622226" lon="13.223456843154787"><ele>939.9999999999999</ele><time>2026-04-12T09:31:02.001Z</time></trkpt><trkpt lat="38.06574414338841" lon="13.22355041997832"><ele>940.0</ele><time>2026-04-12T09:31:03.001Z</time></trkpt><trkpt lat="38.06579315020182" lon="13.223610210683212"><ele>940.0</ele><time>2026-04-12T09:31:04.001Z</time></trkpt><trkpt lat="38.06585201543348" lon="13.223690568518498"><ele>940.0</ele><time>2026-04-12T09:31:05.001Z</time></trkpt><trkpt lat="38.06589832818572" lon="13.223762049760294"><ele>939.9999999999999</ele><time>2026-04-12T09:31:06.001Z</time></trkpt><trkpt lat="38.065953264539274" lon="13.223860805874205"><ele>940.0</ele><time>2026-04-12T09:31:08.001Z</time></trkpt><trkpt lat="38.065976423768284" lon="13.223994500594465"><ele>940.3333333333333</ele><time>2026-04-12T09:31:10.001Z</time></trkpt><trkpt lat="38.066001305891284" lon="13.22407844290616"><ele>940.6666666666666</ele><time>2026-04-12T09:31:12.001Z</time></trkpt><trkpt lat="38.06605387602736" lon="13.224150946331221"><ele>941.0</ele><time>2026-04-12T09:31:14.001Z</time></trkpt><trkpt lat="38.066104273041724" lon="13.224097263825056"><ele>941.3333333333333</ele><time>2026-04-12T09:31:45.001Z</time></trkpt><trkpt lat="38.066138543577445" lon="13.223981804711862"><ele>941.6666666666666</ele><time>2026-04-12T09:31:47.001Z</time></trkpt><trkpt lat="38.0661594779795" lon="13.223884980945803"><ele>942.0</ele><time>2026-04-12T09:31:48.001Z</time></trkpt><trkpt lat="38.06621426090558" lon="13.223770304700308"><ele>942.0</ele><time>2026-04-12T09:31:50.001Z</time></trkpt><trkpt lat="38.06626729709682" lon="13.223724375819538"><ele>942.0</ele><time>2026-04-12T09:31:52.001Z</time></trkpt><trkpt lat="38.06634142239292" lon="13.223768948054463"><ele>942.0</ele><time>2026-04-12T09:31:54.001Z</time></trkpt><trkpt lat="38.06637622282367" lon="13.22387637425609"><ele>942.0</ele><time>2026-04-12T09:31:56.001Z</time></trkpt><trkpt lat="38.06636923246918" lon="13.223989449989388"><ele>942.0</ele><time>2026-04-12T09:31:58.001Z</time></trkpt><trkpt lat="38.06635224110679" lon="13.224110099283813"><ele>942.0</ele><time>2026-04-12T09:32:00Z</time></trkpt><trkpt lat="38.06641789009321" lon="13.224133909592627"><ele>941.0</ele><time>2026-04-12T09:32:02Z</time></trkpt><trkpt lat="38.06652085814331" lon="13.224074789406753"><ele>940.0</ele><time>2026-04-12T09:32:04Z</time></trkpt><trkpt lat="38.06659751092802" lon="13.224000041405885"><ele>939.0</ele><time>2026-04-12T09:32:06Z</time></trkpt><trkpt lat="38.0666928758278" lon="13.223954417488052"><ele>938.0</ele><time>2026-04-12T09:32:08Z</time></trkpt><trkpt lat="38.06675703750356" lon="13.223940034845837"><ele>937.0</ele><time>2026-04-12T09:32:09Z</time></trkpt><trkpt lat="38.06682907959825" lon="13.223925181388234"><ele>936.9999999999999</ele><time>2026-04-12T09:32:10Z</time></trkpt><trkpt lat="38.066913133381" lon="13.223909102887994"><ele>937.0</ele><time>2026-04-12T09:32:11Z</time></trkpt><trkpt lat="38.06699859352853" lon="13.22388845807865"><ele>937.0</ele><time>2026-04-12T09:32:12Z</time></trkpt><trkpt lat="38.06709338467463" lon="13.223853626624567"><ele>937.0</ele><time>2026-04-12T09:32:13Z</time></trkpt><trkpt lat="38.06717860839319" lon="13.223811000411683"><ele>936.9999999999999</ele><time>2026-04-12T09:32:14Z</time></trkpt><trkpt lat="38.06724986180476" lon="13.223764399965797"><ele>937.0</ele><time>2026-04-12T09:32:15Z</time></trkpt><trkpt lat="38.06732311780763" lon="13.22368047365162"><ele>937.0</ele><time>2026-04-12T09:32:16Z</time></trkpt><trkpt lat="38.067388694464015" lon="13.223637275062936"><ele>937.0</ele><time>2026-04-12T09:32:17Z</time></trkpt><trkpt lat="38.0675038278065" lon="13.223597930045864"><ele>937.0</ele><time>2026-04-12T09:32:19Z</time></trkpt><trkpt lat="38.06756984692666" lon="13.223606508942215"><ele>937.0</ele><time>2026-04-12T09:32:20Z</time></trkpt><trkpt lat="38.06768591809431" lon="13.223609098752345"><ele>937.0</ele><time>2026-04-12T09:32:22Z</time></trkpt><trkpt lat="38.067820271439636" lon="13.223657695432562"><ele>932.6</ele><time>2026-04-12T09:32:24Z</time></trkpt><trkpt lat="38.06794464393924" lon="13.223664787039262"><ele>928.2</ele><time>2026-04-12T09:32:26Z</time></trkpt><trkpt lat="38.068004480395004" lon="13.223730508172684"><ele>923.8</ele><time>2026-04-12T09:32:27Z</time></trkpt><trkpt lat="38.06806285681522" lon="13.223784167173244"><ele>919.4</ele><time>2026-04-12T09:32:28Z</time></trkpt><trkpt lat="38.068176305748665" lon="13.223808578609772"><ele>915.0</ele><time>2026-04-12T09:32:30Z</time></trkpt><trkpt lat="38.06826139775972" lon="13.223765796672147"><ele>911.8333333333334</ele><time>2026-04-12T09:32:31Z</time></trkpt><trkpt lat="38.068342847189086" lon="13.223741901875444"><ele>908.6666666666667</ele><time>2026-04-12T09:32:32Z</time></trkpt><trkpt lat="38.06842235697242" lon="13.223753245812814"><ele>905.5</ele><time>2026-04-12T09:32:33Z</time></trkpt><trkpt lat="38.06850320491451" lon="13.223763068476535"><ele>902.3333333333334</ele><time>2026-04-12T09:32:34Z</time></trkpt><trkpt lat="38.06859033472157" lon="13.223758742449222"><ele>899.1666666666667</ele><time>2026-04-12T09:32:35Z</time></trkpt><trkpt lat="38.06869870257988" lon="13.22377370573522"><ele>896.0</ele><time>2026-04-12T09:32:37Z</time></trkpt><trkpt lat="38.06875637060073" lon="13.223704483580898"><ele>896.0000000000001</ele><time>2026-04-12T09:32:38Z</time></trkpt><trkpt lat="38.068831249484994" lon="13.223660812798148"><ele>896.0</ele><time>2026-04-12T09:32:39Z</time></trkpt><trkpt lat="38.06891327609022" lon="13.223590220762652"><ele>896.0</ele><time>2026-04-12T09:32:40Z</time></trkpt><trkpt lat="38.06898286360765" lon="13.22353033428809"><ele>896.0</ele><time>2026-04-12T09:32:41Z</time></trkpt><trkpt lat="38.06905234012464" lon="13.223493727411713"><ele>896.0000000000001</ele><time>2026-04-12T09:32:42Z</time></trkpt><trkpt lat="38.069132446045124" lon="13.223464466265233"><ele>896.0</ele><time>2026-04-12T09:32:43Z</time></trkpt><trkpt lat="38.069217589012645" lon="13.223434093402245"><ele>893.8333333333334</ele><time>2026-04-12T09:32:44Z</time></trkpt><trkpt lat="38.06929612314926" lon="13.223402805313656"><ele>891.6666666666667</ele><time>2026-04-12T09:32:45Z</time></trkpt><trkpt lat="38.069386116841976" lon="13.22336849011181"><ele>889.5</ele><time>2026-04-12T09:32:46Z</time></trkpt><trkpt lat="38.06947611921362" lon="13.223326889216667"><ele>887.3333333333333</ele><time>2026-04-12T09:32:47Z</time></trkpt><trkpt lat="38.06954611083777" lon="13.223344789206333"><ele>885.1666666666666</ele><time>2026-04-12T09:32:48Z</time></trkpt><trkpt lat="38.069631986240886" lon="13.223355278669743"><ele>883.0</ele><time>2026-04-12T09:32:49Z</time></trkpt><trkpt lat="38.069698928073336" lon="13.223422508758167"><ele>883.0</ele><time>2026-04-12T09:32:50Z</time></trkpt><trkpt lat="38.0697486235728" lon="13.223484580413304"><ele>883.0</ele><time>2026-04-12T09:32:51Z</time></trkpt><trkpt lat="38.06981976054008" lon="13.223629762795277"><ele>883.0</ele><time>2026-04-12T09:32:52Z</time></trkpt><trkpt lat="38.06985748497273" lon="13.223750911601075"><ele>883.0</ele><time>2026-04-12T09:32:53Z</time></trkpt><trkpt lat="38.06986062494708" lon="13.22389484743509"><ele>883.0</ele><time>2026-04-12T09:32:54Z</time></trkpt><trkpt lat="38.06984810700727" lon="13.224056820290402"><ele>879.25</ele><time>2026-04-12T09:32:55Z</time></trkpt><trkpt lat="38.06984048582178" lon="13.224227584529855"><ele>875.5</ele><time>2026-04-12T09:32:56.001Z</time></trkpt><trkpt lat="38.069826191729895" lon="13.224419248236133"><ele>871.75</ele><time>2026-04-12T09:32:57.001Z</time></trkpt><trkpt lat="38.06981230515112" lon="13.224574300547303"><ele>868.0</ele><time>2026-04-12T09:32:58.001Z</time></trkpt><trkpt lat="38.06980238801564" lon="13.224711567830575"><ele>870.0</ele><time>2026-04-12T09:32:59.001Z</time></trkpt><trkpt lat="38.06980939001907" lon="13.224836244946568"><ele>872.0</ele><time>2026-04-12T09:33:00.001Z</time></trkpt><trkpt lat="38.06984438784428" lon="13.22496019387635"><ele>874.0</ele><time>2026-04-12T09:33:01.001Z</time></trkpt><trkpt lat="38.06990019544707" lon="13.225087640938732"><ele>876.0</ele><time>2026-04-12T09:33:02.001Z</time></trkpt><trkpt lat="38.06995254888662" lon="13.22522729387423"><ele>878.0</ele><time>2026-04-12T09:33:03.001Z</time></trkpt><trkpt lat="38.07000063898141" lon="13.225361912488372"><ele>878.0</ele><time>2026-04-12T09:33:04.001Z</time></trkpt><trkpt lat="38.07002237143884" lon="13.225484710350063"><ele>878.0</ele><time>2026-04-12T09:33:05.001Z</time></trkpt><trkpt lat="38.07012525012583" lon="13.225602354746888"><ele>878.0</ele><time>2026-04-12T09:33:07.001Z</time></trkpt><trkpt lat="38.07020400509574" lon="13.225626226985458"><ele>878.0</ele><time>2026-04-12T09:33:08.001Z</time></trkpt><trkpt lat="38.07030689089706" lon="13.225618994713733"><ele>878.0</ele><time>2026-04-12T09:33:09.001Z</time></trkpt><trkpt lat="38.07039788623397" lon="13.22560467896614"><ele>878.0000000000001</ele><time>2026-04-12T09:33:10.001Z</time></trkpt><trkpt lat="38.070497762449094" lon="13.225592591205972"><ele>878.0</ele><time>2026-04-12T09:33:11.001Z</time></trkpt><trkpt lat="38.0705819616261" lon="13.225564331577196"><ele>878.0</ele><time>2026-04-12T09:33:12.001Z</time></trkpt><trkpt lat="38.070658950268964" lon="13.225525952988583"><ele>878.0</ele><time>2026-04-12T09:33:13.001Z</time></trkpt><trkpt lat="38.070714047547725" lon="13.225469127913405"><ele>878.0000000000001</ele><time>2026-04-12T09:33:14.001Z</time></trkpt><trkpt lat="38.07078224769444" lon="13.225418185767348"><ele>878.0</ele><time>2026-04-12T09:33:15.001Z</time></trkpt><trkpt lat="38.0708434536708" lon="13.225346783300653"><ele>879.2</ele><time>2026-04-12T09:33:16.001Z</time></trkpt><trkpt lat="38.070921264394" lon="13.225283450881985"><ele>880.4</ele><time>2026-04-12T09:33:17.001Z</time></trkpt><trkpt lat="38.070989218108366" lon="13.225223048162704"><ele>881.6000000000001</ele><time>2026-04-12T09:33:18.001Z</time></trkpt><trkpt lat="38.071059427178064" lon="13.22515412789898"><ele>882.8000000000001</ele><time>2026-04-12T09:33:19.001Z</time></trkpt><trkpt lat="38.07114911223874" lon="13.22508131244595"><ele>884.0</ele><time>2026-04-12T09:33:20.001Z</time></trkpt><trkpt lat="38.07122920912353" lon="13.225033395137274"><ele>884.0000000000001</ele><time>2026-04-12T09:33:21.001Z</time></trkpt><trkpt lat="38.07131545694432" lon="13.224983932143285"><ele>884.0</ele><time>2026-04-12T09:33:22.001Z</time></trkpt><trkpt lat="38.07140906953629" lon="13.224937486666828"><ele>884.0</ele><time>2026-04-12T09:33:23.001Z</time></trkpt><trkpt lat="38.07146659841044" lon="13.224881234403652"><ele>884.0</ele><time>2026-04-12T09:33:24.001Z</time></trkpt><trkpt lat="38.071530815512816" lon="13.224793853453308"><ele>884.0000000000001</ele><time>2026-04-12T09:33:25.001Z</time></trkpt><trkpt lat="38.07157702699194" lon="13.224704406223777"><ele>884.0</ele><time>2026-04-12T09:33:26.001Z</time></trkpt><trkpt lat="38.071599328775264" lon="13.224601584789305"><ele>881.3333333333334</ele><time>2026-04-12T09:33:27.001Z</time></trkpt><trkpt lat="38.071642038002615" lon="13.224494684950683"><ele>878.6666666666667</ele><time>2026-04-12T09:33:28.001Z</time></trkpt><trkpt lat="38.07169506274836" lon="13.224398462610473"><ele>876.0</ele><time>2026-04-12T09:33:29.001Z</time></trkpt><trkpt lat="38.07174620570772" lon="13.224322726357064"><ele>873.3333333333333</ele><time>2026-04-12T09:33:30.001Z</time></trkpt><trkpt lat="38.07180012200129" lon="13.224239241226366"><ele>870.6666666666666</ele><time>2026-04-12T09:33:31.001Z</time></trkpt><trkpt lat="38.07185025718571" lon="13.224143947688654"><ele>868.0</ele><time>2026-04-12T09:33:32.001Z</time></trkpt><trkpt lat="38.07188838774722" lon="13.224060325689276"><ele>869.8333333333333</ele><time>2026-04-12T09:33:33.001Z</time></trkpt><trkpt lat="38.07193279117985" lon="13.223964981378366"><ele>871.6666666666666</ele><time>2026-04-12T09:33:34.001Z</time></trkpt><trkpt lat="38.07198276979786" lon="13.223854045351585"><ele>873.5</ele><time>2026-04-12T09:33:35.001Z</time></trkpt><trkpt lat="38.07202334064997" lon="13.223762588266169"><ele>875.3333333333333</ele><time>2026-04-12T09:33:36.001Z</time></trkpt><trkpt lat="38.07206218427366" lon="13.223692135615432"><ele>877.1666666666666</ele><time>2026-04-12T09:33:37.001Z</time></trkpt><trkpt lat="38.072113391605" lon="13.223627905761447"><ele>879.0</ele><time>2026-04-12T09:33:38.001Z</time></trkpt><trkpt lat="38.07217150363673" lon="13.223589842077123"><ele>879.0</ele><time>2026-04-12T09:33:39.001Z</time></trkpt><trkpt lat="38.07225529887104" lon="13.223552973617618"><ele>879.0</ele><time>2026-04-12T09:33:40.001Z</time></trkpt><trkpt lat="38.07233573833156" lon="13.223516989442883"><ele>879.0</ele><time>2026-04-12T09:33:41.001Z</time></trkpt><trkpt lat="38.07239213353817" lon="13.223476233217525"><ele>879.0</ele><time>2026-04-12T09:33:42.001Z</time></trkpt><trkpt lat="38.072436105980124" lon="13.22341026274519"><ele>879.0</ele><time>2026-04-12T09:33:43.001Z</time></trkpt><trkpt lat="38.0724830825973" lon="13.223344085515578"><ele>879.0</ele><time>2026-04-12T09:33:44.001Z</time></trkpt><trkpt lat="38.07255613921665" lon="13.22326334950831"><ele>879.0</ele><time>2026-04-12T09:33:46.001Z</time></trkpt><trkpt lat="38.07247767490822" lon="13.223345158594965"><ele>879.0</ele><time>2026-04-12T09:35:12Z</time></trkpt><trkpt lat="38.072434879700644" lon="13.22340438751402"><ele>879.0</ele><time>2026-04-12T09:35:13Z</time></trkpt><trkpt lat="38.07238934077637" lon="13.223464289916956"><ele>879.0</ele><time>2026-04-12T09:35:14Z</time></trkpt><trkpt lat="38.07233819664463" lon="13.223518710880798"><ele>879.0</ele><time>2026-04-12T09:35:15Z</time></trkpt><trkpt lat="38.07228200000836" lon="13.223557278525783"><ele>879.0</ele><time>2026-04-12T09:35:16Z</time></trkpt><trkpt lat="38.07220416379047" lon="13.223600717130111"><ele>879.0</ele><time>2026-04-12T09:35:17Z</time></trkpt><trkpt lat="38.072128838177704" lon="13.223641673806727"><ele>879.0</ele><time>2026-04-12T09:35:18Z</time></trkpt><trkpt lat="38.072047617458445" lon="13.223703323198345"><ele>879.0000000000001</ele><time>2026-04-12T09:35:19Z</time></trkpt><trkpt lat="38.0720113463792" lon="13.22378890777411"><ele>879.0000000000001</ele><time>2026-04-12T09:35:20Z</time></trkpt><trkpt lat="38.07196953116976" lon="13.223897298843914"><ele>879.0</ele><time>2026-04-12T09:35:21Z</time></trkpt><trkpt lat="38.071930978761934" lon="13.223998660158955"><ele>879.0</ele><time>2026-04-12T09:35:22Z</time></trkpt><trkpt lat="38.071876722504506" lon="13.224112074596286"><ele>876.8000000000001</ele><time>2026-04-12T09:35:23.001Z</time></trkpt><trkpt lat="38.07181857598349" lon="13.224210801863155"><ele>874.6000000000001</ele><time>2026-04-12T09:35:24.001Z</time></trkpt><trkpt lat="38.071755458221034" lon="13.224311944197972"><ele>872.4</ele><time>2026-04-12T09:35:25.001Z</time></trkpt><trkpt lat="38.0716986626251" lon="13.22441670251213"><ele>870.2</ele><time>2026-04-12T09:35:26.001Z</time></trkpt><trkpt lat="38.07163494316821" lon="13.224515839094481"><ele>868.0</ele><time>2026-04-12T09:35:27.001Z</time></trkpt><trkpt lat="38.07158497588106" lon="13.224588626761435"><ele>870.6666666666666</ele><time>2026-04-12T09:35:28.001Z</time></trkpt><trkpt lat="38.071529472026334" lon="13.224714495064957"><ele>873.3333333333333</ele><time>2026-04-12T09:35:29.001Z</time></trkpt><trkpt lat="38.071503448916694" lon="13.224816991095125"><ele>876.0</ele><time>2026-04-12T09:35:30.001Z</time></trkpt><trkpt lat="38.07146314431152" lon="13.22488208739569"><ele>878.6666666666667</ele><time>2026-04-12T09:35:31.001Z</time></trkpt><trkpt lat="38.07140245270699" lon="13.224938340663291"><ele>881.3333333333334</ele><time>2026-04-12T09:35:32.001Z</time></trkpt><trkpt lat="38.071315753146955" lon="13.225001261087707"><ele>884.0</ele><time>2026-04-12T09:35:33.001Z</time></trkpt><trkpt lat="38.07121135921906" lon="13.22505187638091"><ele>884.0</ele><time>2026-04-12T09:35:34.001Z</time></trkpt><trkpt lat="38.071119085995164" lon="13.225115666726843"><ele>884.0000000000001</ele><time>2026-04-12T09:35:35.001Z</time></trkpt><trkpt lat="38.07102916267994" lon="13.225189290705101"><ele>884.0000000000001</ele><time>2026-04-12T09:35:36.001Z</time></trkpt><trkpt lat="38.07094793456843" lon="13.225250448339933"><ele>884.0</ele><time>2026-04-12T09:35:37.001Z</time></trkpt><trkpt lat="38.070871947589886" lon="13.225313202881045"><ele>884.0</ele><time>2026-04-12T09:35:38.001Z</time></trkpt><trkpt lat="38.070807190860215" lon="13.225393155429918"><ele>883.0000000000001</ele><time>2026-04-12T09:35:39.001Z</time></trkpt><trkpt lat="38.070730659561214" lon="13.225469152313"><ele>882.0</ele><time>2026-04-12T09:35:40.001Z</time></trkpt><trkpt lat="38.07066365043409" lon="13.22551516187472"><ele>881.0</ele><time>2026-04-12T09:35:41.001Z</time></trkpt><trkpt lat="38.07059538111216" lon="13.225543064117286"><ele>880.0</ele><time>2026-04-12T09:35:42.001Z</time></trkpt><trkpt lat="38.07051328136324" lon="13.225567342199238"><ele>879.0000000000001</ele><time>2026-04-12T09:35:43.001Z</time></trkpt><trkpt lat="38.07044873365432" lon="13.225592801627045"><ele>878.0</ele><time>2026-04-12T09:35:44.001Z</time></trkpt><trkpt lat="38.07034456221694" lon="13.225598468674852"><ele>878.0</ele><time>2026-04-12T09:35:45.001Z</time></trkpt><trkpt lat="38.07027200300507" lon="13.225600947435025"><ele>878.0</ele><time>2026-04-12T09:35:46.001Z</time></trkpt><trkpt lat="38.07018196543496" lon="13.225591999785275"><ele>878.0</ele><time>2026-04-12T09:35:47.001Z</time></trkpt><trkpt lat="38.07011018245251" lon="13.22558112687491"><ele>878.0</ele><time>2026-04-12T09:35:48.001Z</time></trkpt><trkpt lat="38.070018655129324" lon="13.22547229256466"><ele>878.0</ele><time>2026-04-12T09:35:50.001Z</time></trkpt><trkpt lat="38.0699812474661" lon="13.22536373502061"><ele>878.0</ele><time>2026-04-12T09:35:51.001Z</time></trkpt><trkpt lat="38.06995969398597" lon="13.225241773166157"><ele>878.0</ele><time>2026-04-12T09:35:52.001Z</time></trkpt><trkpt lat="38.0699285023617" lon="13.225106393163747"><ele>878.0</ele><time>2026-04-12T09:35:53.001Z</time></trkpt><trkpt lat="38.06987885259977" lon="13.22496884224324"><ele>878.0</ele><time>2026-04-12T09:35:54.001Z</time></trkpt><trkpt lat="38.069837455751866" lon="13.224860411238987"><ele>878.0</ele><time>2026-04-12T09:35:55.001Z</time></trkpt><trkpt lat="38.06981162411349" lon="13.224735969365865"><ele>875.5</ele><time>2026-04-12T09:35:56.001Z</time></trkpt><trkpt lat="38.06980179190292" lon="13.224598711654277"><ele>873.0</ele><time>2026-04-12T09:35:57.001Z</time></trkpt><trkpt lat="38.06981555616793" lon="13.224461343479476"><ele>870.5</ele><time>2026-04-12T09:35:58.001Z</time></trkpt><trkpt lat="38.069846797418684" lon="13.224304093856626"><ele>868.0</ele><time>2026-04-12T09:35:59.001Z</time></trkpt><trkpt lat="38.069850963146216" lon="13.224104065871185"><ele>871.0</ele><time>2026-04-12T09:36:00.001Z</time></trkpt><trkpt lat="38.06986210222049" lon="13.223955039830752"><ele>874.0</ele><time>2026-04-12T09:36:01.001Z</time></trkpt><trkpt lat="38.069869555428845" lon="13.223817722403185"><ele>877.0</ele><time>2026-04-12T09:36:02.001Z</time></trkpt><trkpt lat="38.06986022977675" lon="13.223682360515358"><ele>880.0</ele><time>2026-04-12T09:36:03.001Z</time></trkpt><trkpt lat="38.06982358344406" lon="13.223577075127977"><ele>883.0</ele><time>2026-04-12T09:36:04.001Z</time></trkpt><trkpt lat="38.06975440158581" lon="13.22348390579709"><ele>883.0</ele><time>2026-04-12T09:36:05.001Z</time></trkpt><trkpt lat="38.06967287956415" lon="13.22340017168814"><ele>883.0</ele><time>2026-04-12T09:36:06.001Z</time></trkpt><trkpt lat="38.069594687261294" lon="13.223339251890755"><ele>883.0</ele><time>2026-04-12T09:36:07.001Z</time></trkpt><trkpt lat="38.06951079385819" lon="13.223316170052543"><ele>883.0</ele><time>2026-04-12T09:36:08.001Z</time></trkpt><trkpt lat="38.06942548039252" lon="13.223325240000216"><ele>883.0</ele><time>2026-04-12T09:36:09.001Z</time></trkpt><trkpt lat="38.069321480012725" lon="13.223364932972569"><ele>883.0</ele><time>2026-04-12T09:36:10.001Z</time></trkpt><trkpt lat="38.069225021749105" lon="13.223408152427123"><ele>883.0</ele><time>2026-04-12T09:36:11Z</time></trkpt><trkpt lat="38.06912929469953" lon="13.223436511761934"><ele>883.0</ele><time>2026-04-12T09:36:12Z</time></trkpt><trkpt lat="38.06901721880391" lon="13.223461377289599"><ele>883.0</ele><time>2026-04-12T09:36:13Z</time></trkpt><trkpt lat="38.068906562331414" lon="13.223522538822937"><ele>883.0</ele><time>2026-04-12T09:36:14Z</time></trkpt><trkpt lat="38.068812768542536" lon="13.22360959818283"><ele>885.5999999999999</ele><time>2026-04-12T09:36:15Z</time></trkpt><trkpt lat="38.068743382479575" lon="13.22369880775705"><ele>888.1999999999999</ele><time>2026-04-12T09:36:16Z</time></trkpt><trkpt lat="38.06867370955391" lon="13.223741162195871"><ele>890.8</ele><time>2026-04-12T09:36:17Z</time></trkpt><trkpt lat="38.06856449671563" lon="13.223725188762538"><ele>893.4</ele><time>2026-04-12T09:36:19Z</time></trkpt><trkpt lat="38.0684667223362" lon="13.223725054847655"><ele>896.0</ele><time>2026-04-12T09:36:20Z</time></trkpt><trkpt lat="38.06837462117391" lon="13.223697930656442"><ele>899.8</ele><time>2026-04-12T09:36:21Z</time></trkpt><trkpt lat="38.06826926867453" lon="13.223703702680005"><ele>903.5999999999999</ele><time>2026-04-12T09:36:22Z</time></trkpt><trkpt lat="38.06817077480403" lon="13.223752940587225"><ele>907.4</ele><time>2026-04-12T09:36:23Z</time></trkpt><trkpt lat="38.06806798723319" lon="13.22378336190176"><ele>911.2</ele><time>2026-04-12T09:36:24Z</time></trkpt><trkpt lat="38.06801024703857" lon="13.223675840134332"><ele>915.0</ele><time>2026-04-12T09:36:26Z</time></trkpt><trkpt lat="38.06790625238961" lon="13.223600639101628"><ele>915.0</ele><time>2026-04-12T09:36:28Z</time></trkpt><trkpt lat="38.06783774561336" lon="13.223618686947036"><ele>915.0</ele><time>2026-04-12T09:36:29Z</time></trkpt><trkpt lat="38.06776839680924" lon="13.223604581138881"><ele>915.0</ele><time>2026-04-12T09:36:30Z</time></trkpt><trkpt lat="38.06770603997856" lon="13.223588485475695"><ele>915.0</ele><time>2026-04-12T09:36:31Z</time></trkpt><trkpt lat="38.06761859433565" lon="13.223572065722863"><ele>915.0</ele><time>2026-04-12T09:36:32Z</time></trkpt><trkpt lat="38.067527446299856" lon="13.223579114294031"><ele>915.0</ele><time>2026-04-12T09:36:33Z</time></trkpt><trkpt lat="38.06745766685242" lon="13.223575801801932"><ele>918.6666666666666</ele><time>2026-04-12T09:36:34Z</time></trkpt><trkpt lat="38.06737437234905" lon="13.223598500068075"><ele>922.3333333333333</ele><time>2026-04-12T09:36:35Z</time></trkpt><trkpt lat="38.06731177033952" lon="13.223648667324532"><ele>926.0</ele><time>2026-04-12T09:36:36Z</time></trkpt><trkpt lat="38.06724514004584" lon="13.223719836049053"><ele>929.6666666666666</ele><time>2026-04-12T09:36:37Z</time></trkpt><trkpt lat="38.0671629509098" lon="13.223788160931136"><ele>933.3333333333333</ele><time>2026-04-12T09:36:38Z</time></trkpt><trkpt lat="38.06707108292393" lon="13.223832180630206"><ele>937.0</ele><time>2026-04-12T09:36:39Z</time></trkpt><trkpt lat="38.06697109216073" lon="13.223850423234076"><ele>937.0</ele><time>2026-04-12T09:36:40Z</time></trkpt><trkpt lat="38.06686188943029" lon="13.2238668456454"><ele>937.0</ele><time>2026-04-12T09:36:41Z</time></trkpt><trkpt lat="38.06675217138049" lon="13.223896881351205"><ele>937.0</ele><time>2026-04-12T09:36:42Z</time></trkpt><trkpt lat="38.06665462006808" lon="13.223931748258838"><ele>937.0</ele><time>2026-04-12T09:36:43Z</time></trkpt><trkpt lat="38.06658330486052" lon="13.22395463644082"><ele>937.0</ele><time>2026-04-12T09:36:44Z</time></trkpt><trkpt lat="38.066521701268016" lon="13.223986047283896"><ele>937.8333333333333</ele><time>2026-04-12T09:36:45Z</time></trkpt><trkpt lat="38.06648362971389" lon="13.224051634092634"><ele>938.6666666666666</ele><time>2026-04-12T09:36:46Z</time></trkpt><trkpt lat="38.066422002276795" lon="13.2241404192264"><ele>939.5</ele><time>2026-04-12T09:36:48Z</time></trkpt><trkpt lat="38.06636576876665" lon="13.224038677557473"><ele>940.3333333333333</ele><time>2026-04-12T09:36:50Z</time></trkpt><trkpt lat="38.06639644020943" lon="13.223946690587336"><ele>941.1666666666666</ele><time>2026-04-12T09:36:51Z</time></trkpt><trkpt lat="38.06637411673814" lon="13.223847184324447"><ele>942.0</ele><time>2026-04-12T09:36:52Z</time></trkpt><trkpt lat="38.06632396467127" lon="13.223708983110043"><ele>942.0</ele><time>2026-04-12T09:36:54Z</time></trkpt><trkpt lat="38.066237000439415" lon="13.223692892483538"><ele>942.0</ele><time>2026-04-12T09:36:55Z</time></trkpt><trkpt lat="38.066142940690916" lon="13.223758919061126"><ele>942.0</ele><time>2026-04-12T09:36:56Z</time></trkpt><trkpt lat="38.06612396748092" lon="13.22387120401791"><ele>942.0</ele><time>2026-04-12T09:36:57Z</time></trkpt><trkpt lat="38.06609122245659" lon="13.22401622031917"><ele>942.0</ele><time>2026-04-12T09:36:59Z</time></trkpt><trkpt lat="38.06606506906637" lon="13.224092754907431"><ele>942.0</ele><time>2026-04-12T09:37:00Z</time></trkpt><trkpt lat="38.06601441237041" lon="13.224037196255914"><ele>942.0</ele><time>2026-04-12T09:37:03Z</time></trkpt><trkpt lat="38.06601523936034" lon="13.223943595752603"><ele>942.0</ele><time>2026-04-12T09:37:05Z</time></trkpt><trkpt lat="38.06593879234156" lon="13.223787008906532"><ele>942.0</ele><time>2026-04-12T09:37:07Z</time></trkpt><trkpt lat="38.06589472622068" lon="13.223716202077123"><ele>942.0</ele><time>2026-04-12T09:37:08Z</time></trkpt><trkpt lat="38.06582705432868" lon="13.223616427733916"><ele>941.6666666666666</ele><time>2026-04-12T09:37:09Z</time></trkpt><trkpt lat="38.065755775145945" lon="13.223487895982021"><ele>941.3333333333333</ele><time>2026-04-12T09:37:10Z</time></trkpt><trkpt lat="38.0656932022228" lon="13.223396583212246"><ele>941.0</ele><time>2026-04-12T09:37:11Z</time></trkpt><trkpt lat="38.06564507585286" lon="13.223325340626301"><ele>940.6666666666666</ele><time>2026-04-12T09:37:12Z</time></trkpt><trkpt lat="38.06559947130734" lon="13.223264535633483"><ele>940.3333333333333</ele><time>2026-04-12T09:37:14Z</time></trkpt><trkpt lat="38.06554472856977" lon="13.22321104665556"><ele>940.0</ele><time>2026-04-12T09:37:17Z</time></trkpt><trkpt lat="38.06547635316405" lon="13.223189913786907"><ele>940.0</ele><time>2026-04-12T09:37:18Z</time></trkpt><trkpt lat="38.06540603373169" lon="13.22317004296448"><ele>940.0</ele><time>2026-04-12T09:37:19Z</time></trkpt><trkpt lat="38.06530926777591" lon="13.223130239250946"><ele>940.0</ele><time>2026-04-12T09:37:21Z</time></trkpt><trkpt lat="38.065400052978" lon="13.223081587431645"><ele>940.0</ele><time>2026-04-12T09:37:25Z</time></trkpt><trkpt lat="38.06553073449435" lon="13.22307715403829"><ele>940.0</ele><time>2026-04-12T09:37:27Z</time></trkpt><trkpt lat="38.06562696890273" lon="13.223062895718794"><ele>943.6</ele><time>2026-04-12T09:37:28Z</time></trkpt><trkpt lat="38.06573060102519" lon="13.223020519364571"><ele>947.2</ele><time>2026-04-12T09:37:29Z</time></trkpt><trkpt lat="38.06583725526446" lon="13.222975794599792"><ele>950.8</ele><time>2026-04-12T09:37:30Z</time></trkpt><trkpt lat="38.06591537659037" lon="13.222941252580291"><ele>954.4</ele><time>2026-04-12T09:37:31Z</time></trkpt><trkpt lat="38.06598693042777" lon="13.222887443105625"><ele>958.0</ele><time>2026-04-12T09:37:32Z</time></trkpt><trkpt lat="38.06605151959934" lon="13.222892806202927"><ele>958.0</ele><time>2026-04-12T09:37:33Z</time></trkpt><trkpt lat="38.066099297735946" lon="13.22280352242747"><ele>958.0</ele><time>2026-04-12T09:37:36Z</time></trkpt><trkpt lat="38.06603553296374" lon="13.222683671061295"><ele>958.0</ele><time>2026-04-12T09:37:38Z</time></trkpt><trkpt lat="38.065934938544714" lon="13.222708343564362"><ele>958.0</ele><time>2026-04-12T09:37:39.001Z</time></trkpt><trkpt lat="38.06586466506578" lon="13.222675742072337"><ele>958.0</ele><time>2026-04-12T09:37:40.001Z</time></trkpt><trkpt lat="38.06576129976834" lon="13.222656163585928"><ele>957.9999999999999</ele><time>2026-04-12T09:37:41.001Z</time></trkpt><trkpt lat="38.0656524661639" lon="13.22264661448225"><ele>958.0</ele><time>2026-04-12T09:37:42.001Z</time></trkpt><trkpt lat="38.0655682024482" lon="13.222666397061786"><ele>958.0</ele><time>2026-04-12T09:37:43.001Z</time></trkpt><trkpt lat="38.06550425763447" lon="13.222668439922984"><ele>958.0</ele><time>2026-04-12T09:39:38.001Z</time></trkpt><trkpt lat="38.06557810477111" lon="13.222700136597826"><ele>957.9999999999999</ele><time>2026-04-12T09:39:43.001Z</time></trkpt><trkpt lat="38.065656484282776" lon="13.222682848569328"><ele>958.0</ele><time>2026-04-12T09:39:44.001Z</time></trkpt><trkpt lat="38.06576039057095" lon="13.222676866639835"><ele>960.2</ele><time>2026-04-12T09:39:45.001Z</time></trkpt><trkpt lat="38.065860629088306" lon="13.222717604472102"><ele>962.4</ele><time>2026-04-12T09:39:46.001Z</time></trkpt><trkpt lat="38.065961244287394" lon="13.22272104307048"><ele>964.6000000000001</ele><time>2026-04-12T09:39:47.001Z</time></trkpt><trkpt lat="38.066038326050894" lon="13.222747810112617"><ele>966.8000000000001</ele><time>2026-04-12T09:39:48.001Z</time></trkpt><trkpt lat="38.066097675441746" lon="13.222809740756622"><ele>969.0</ele><time>2026-04-12T09:39:51.001Z</time></trkpt><trkpt lat="38.06600293865643" lon="13.222865407338439"><ele>969.0</ele><time>2026-04-12T09:39:53.001Z</time></trkpt><trkpt lat="38.06585220325465" lon="13.22292528736109"><ele>969.0000000000001</ele><time>2026-04-12T09:39:55.001Z</time></trkpt><trkpt lat="38.06576080113426" lon="13.222957672614843"><ele>969.0000000000001</ele><time>2026-04-12T09:39:56.001Z</time></trkpt><trkpt lat="38.06566863099529" lon="13.222991129704713"><ele>969.0</ele><time>2026-04-12T09:39:57.001Z</time></trkpt><trkpt lat="38.06559794326979" lon="13.223007880237846"><ele>969.0</ele><time>2026-04-12T09:39:58.001Z</time></trkpt><trkpt lat="38.0655193332955" lon="13.22302271736019"><ele>966.8000000000001</ele><time>2026-04-12T09:39:59.001Z</time></trkpt><trkpt lat="38.06543977777666" lon="13.223032789625048"><ele>964.6000000000001</ele><time>2026-04-12T09:40:00.001Z</time></trkpt><trkpt lat="38.065375026538035" lon="13.22304352057811"><ele>962.4</ele><time>2026-04-12T09:40:01.001Z</time></trkpt><trkpt lat="38.06527880024328" lon="13.223062333152004"><ele>960.2</ele><time>2026-04-12T09:40:03.001Z</time></trkpt><trkpt lat="38.0653685751051" lon="13.223217471452504"><ele>958.0</ele><time>2026-04-12T09:40:06.001Z</time></trkpt><trkpt lat="38.065438588435825" lon="13.223228989006973"><ele>954.8</ele><time>2026-04-12T09:40:07.001Z</time></trkpt><trkpt lat="38.065515010105045" lon="13.223252028103031"><ele>951.5999999999999</ele><time>2026-04-12T09:40:08.001Z</time></trkpt><trkpt lat="38.06562636628" lon="13.223373797968172"><ele>948.4000000000001</ele><time>2026-04-12T09:40:10.001Z</time></trkpt><trkpt lat="38.06568940068088" lon="13.223467021883721"><ele>945.2</ele><time>2026-04-12T09:40:11.001Z</time></trkpt><trkpt lat="38.06575220680586" lon="13.223546607428457"><ele>942.0</ele><time>2026-04-12T09:40:12.001Z</time></trkpt><trkpt lat="38.06581774281469" lon="13.223627508945079"><ele>942.0</ele><time>2026-04-12T09:40:13.001Z</time></trkpt><trkpt lat="38.06588685493221" lon="13.223716447391286"><ele>942.0</ele><time>2026-04-12T09:40:14.001Z</time></trkpt><trkpt lat="38.06594762223256" lon="13.223816413394934"><ele>942.0</ele><time>2026-04-12T09:40:15.001Z</time></trkpt><trkpt lat="38.065977693962125" lon="13.223893433696018"><ele>942.0</ele><time>2026-04-12T09:40:16.001Z</time></trkpt><trkpt lat="38.06600094814184" lon="13.223969731831803"><ele>942.0</ele><time>2026-04-12T09:40:17.001Z</time></trkpt><trkpt lat="38.066009564348086" lon="13.224067614717127"><ele>942.0</ele><time>2026-04-12T09:40:19.001Z</time></trkpt><trkpt lat="38.065912386236" lon="13.224145562596433"><ele>940.1666666666666</ele><time>2026-04-12T09:40:22.001Z</time></trkpt><trkpt lat="38.06584081926392" lon="13.224151390500015"><ele>938.3333333333333</ele><time>2026-04-12T09:40:23Z</time></trkpt><trkpt lat="38.0657789666668" lon="13.224136224660402"><ele>936.5</ele><time>2026-04-12T09:40:24Z</time></trkpt><trkpt lat="38.06566243629607" lon="13.224102390950113"><ele>934.6666666666666</ele><time>2026-04-12T09:40:26Z</time></trkpt><trkpt lat="38.065600449618024" lon="13.224086167532395"><ele>932.8333333333333</ele><time>2026-04-12T09:40:27Z</time></trkpt><trkpt lat="38.06553979884802" lon="13.224061108690472"><ele>931.0</ele><time>2026-04-12T09:40:28Z</time></trkpt><trkpt lat="38.06546920113716" lon="13.224089505785587"><ele>929.5999999999999</ele><time>2026-04-12T09:40:30Z</time></trkpt><trkpt lat="38.06538309040437" lon="13.224115950716211"><ele>928.1999999999999</ele><time>2026-04-12T09:40:32Z</time></trkpt><trkpt lat="38.0653198793566" lon="13.224232512015503"><ele>926.8000000000001</ele><time>2026-04-12T09:40:35Z</time></trkpt><trkpt lat="38.065294870521264" lon="13.224306945332973"><ele>925.4000000000001</ele><time>2026-04-12T09:40:36Z</time></trkpt><trkpt lat="38.06525797243028" lon="13.224440178174895"><ele>924.0</ele><time>2026-04-12T09:40:38Z</time></trkpt><trkpt lat="38.0651680332888" lon="13.22447379521245"><ele>924.0</ele><time>2026-04-12T09:40:40Z</time></trkpt><trkpt lat="38.065114077722704" lon="13.22436617181734"><ele>924.0000000000001</ele><time>2026-04-12T09:40:42Z</time></trkpt><trkpt lat="38.06507147006548" lon="13.22425814598688"><ele>924.0000000000001</ele><time>2026-04-12T09:40:43Z</time></trkpt><trkpt lat="38.06501594774463" lon="13.224147054116228"><ele>924.0</ele><time>2026-04-12T09:40:44Z</time></trkpt><trkpt lat="38.06494647828674" lon="13.224072808715473"><ele>924.0</ele><time>2026-04-12T09:40:45Z</time></trkpt><trkpt lat="38.06485987179325" lon="13.224036611077914"><ele>923.4000000000001</ele><time>2026-04-12T09:40:46Z</time></trkpt><trkpt lat="38.064779350386104" lon="13.22401374016807"><ele>922.8000000000001</ele><time>2026-04-12T09:40:47Z</time></trkpt><trkpt lat="38.06471418439143" lon="13.22401241803573"><ele>922.1999999999999</ele><time>2026-04-12T09:40:48Z</time></trkpt><trkpt lat="38.0646305902668" lon="13.224004366884332"><ele>921.5999999999999</ele><time>2026-04-12T09:40:49Z</time></trkpt><trkpt lat="38.06449231851107" lon="13.223910571507139"><ele>921.0</ele><time>2026-04-12T09:40:51Z</time></trkpt><trkpt lat="38.0643828070344" lon="13.22379127922407"><ele>921.0</ele><time>2026-04-12T09:40:52Z</time></trkpt><trkpt lat="38.064264210895054" lon="13.223678897149568"><ele>921.0</ele><time>2026-04-12T09:40:53Z</time></trkpt><trkpt lat="38.06418776618272" lon="13.2235292058562"><ele>921.0</ele><time>2026-04-12T09:40:54Z</time></trkpt><trkpt lat="38.0641126981755" lon="13.223401321825696"><ele>921.0</ele><time>2026-04-12T09:40:55Z</time></trkpt><trkpt lat="38.064041245718784" lon="13.223309341616966"><ele>920.0</ele><time>2026-04-12T09:40:56Z</time></trkpt><trkpt lat="38.06392574628069" lon="13.223252324628865"><ele>918.9999999999999</ele><time>2026-04-12T09:40:57Z</time></trkpt><trkpt lat="38.06384953555433" lon="13.223159760945167"><ele>917.9999999999999</ele><time>2026-04-12T09:40:58Z</time></trkpt><trkpt lat="38.063781227093045" lon="13.223086253256882"><ele>917.0</ele><time>2026-04-12T09:40:59Z</time></trkpt><trkpt lat="38.063719691949544" lon="13.223018268333353"><ele>916.0</ele><time>2026-04-12T09:41:00Z</time></trkpt><trkpt lat="38.063633980956915" lon="13.222938570490845"><ele>916.0</ele><time>2026-04-12T09:41:01Z</time></trkpt><trkpt lat="38.0635540111812" lon="13.222881048682037"><ele>915.9999999999999</ele><time>2026-04-12T09:41:02Z</time></trkpt><trkpt lat="38.06348121198714" lon="13.222799072872142"><ele>915.9999999999999</ele><time>2026-04-12T09:41:03Z</time></trkpt><trkpt lat="38.06341430284777" lon="13.222677054709715"><ele>916.0</ele><time>2026-04-12T09:41:05Z</time></trkpt><trkpt lat="38.06335940708697" lon="13.222546153653214"><ele>916.0</ele><time>2026-04-12T09:41:07Z</time></trkpt><trkpt lat="38.063292935922924" lon="13.222452467802011"><ele>911.1666666666666</ele><time>2026-04-12T09:41:09Z</time></trkpt><trkpt lat="38.06323141455866" lon="13.222422493958755"><ele>906.3333333333333</ele><time>2026-04-12T09:41:11Z</time></trkpt><trkpt lat="38.063160398519244" lon="13.222441321455644"><ele>901.5</ele><time>2026-04-12T09:41:13Z</time></trkpt><trkpt lat="38.063166651938694" lon="13.222613038424761"><ele>896.6666666666667</ele><time>2026-04-12T09:41:14Z</time></trkpt><trkpt lat="38.06317957573537" lon="13.222702827956514"><ele>891.8333333333334</ele><time>2026-04-12T09:41:15Z</time></trkpt><trkpt lat="38.06320998907347" lon="13.22281243286304"><ele>887.0</ele><time>2026-04-12T09:41:16Z</time></trkpt><trkpt lat="38.063240865066085" lon="13.222954527527643"><ele>891.5</ele><time>2026-04-12T09:41:17Z</time></trkpt><trkpt lat="38.063282069842444" lon="13.223090415200362"><ele>896.0</ele><time>2026-04-12T09:41:18Z</time></trkpt><trkpt lat="38.06331176051036" lon="13.22324940141046"><ele>900.5</ele><time>2026-04-12T09:41:19Z</time></trkpt><trkpt lat="38.06333991828108" lon="13.223420367353892"><ele>905.0</ele><time>2026-04-12T09:41:20Z</time></trkpt><trkpt lat="38.0633657010809" lon="13.223570666587044"><ele>905.0</ele><time>2026-04-12T09:41:21Z</time></trkpt><trkpt lat="38.06337526940508" lon="13.223709975626164"><ele>905.0</ele><time>2026-04-12T09:41:22Z</time></trkpt><trkpt lat="38.06338175957394" lon="13.223824432886865"><ele>905.0</ele><time>2026-04-12T09:41:23Z</time></trkpt><trkpt lat="38.06337212431477" lon="13.223960021408585"><ele>905.0</ele><time>2026-04-12T09:41:24Z</time></trkpt><trkpt lat="38.063374520947725" lon="13.224050351588948"><ele>905.0</ele><time>2026-04-12T09:41:25Z</time></trkpt><trkpt lat="38.063373195661384" lon="13.224153864737584"><ele>904.6666666666667</ele><time>2026-04-12T09:41:26Z</time></trkpt><trkpt lat="38.063311808114086" lon="13.224223608463033"><ele>904.3333333333334</ele><time>2026-04-12T09:41:29Z</time></trkpt><trkpt lat="38.06323825910336" lon="13.224169205223998"><ele>904.0</ele><time>2026-04-12T09:41:31Z</time></trkpt><trkpt lat="38.06316889012688" lon="13.224182023629503"><ele>903.6666666666667</ele><time>2026-04-12T09:41:33Z</time></trkpt><trkpt lat="38.0631813515589" lon="13.224297420051961"><ele>903.3333333333334</ele><time>2026-04-12T09:41:35Z</time></trkpt><trkpt lat="38.063237153289926" lon="13.224358060911777"><ele>903.0</ele><time>2026-04-12T09:41:36Z</time></trkpt><trkpt lat="38.06328458829117" lon="13.224429330904202"><ele>903.0</ele><time>2026-04-12T09:41:37Z</time></trkpt><trkpt lat="38.06334161446494" lon="13.224509403404383"><ele>903.0</ele><time>2026-04-12T09:41:38Z</time></trkpt><trkpt lat="38.063385387535476" lon="13.22457177927893"><ele>903.0</ele><time>2026-04-12T09:41:39Z</time></trkpt><trkpt lat="38.063428921986514" lon="13.224658776477275"><ele>903.0</ele><time>2026-04-12T09:41:41Z</time></trkpt><trkpt lat="38.06334751757984" lon="13.224682324449022"><ele>903.0</ele><time>2026-04-12T09:41:43Z</time></trkpt><trkpt lat="38.063222899250825" lon="13.224618072966281"><ele>900.2</ele><time>2026-04-12T09:41:45.001Z</time></trkpt><trkpt lat="38.06312468281714" lon="13.224589471153685"><ele>897.4</ele><time>2026-04-12T09:41:46.001Z</time></trkpt><trkpt lat="38.063018006447805" lon="13.224549485158866"><ele>894.6000000000001</ele><time>2026-04-12T09:41:47.001Z</time></trkpt><trkpt lat="38.06290549579168" lon="13.224490420237078"><ele>891.8000000000001</ele><time>2026-04-12T09:41:48.001Z</time></trkpt><trkpt lat="38.06282949420383" lon="13.22443261141402"><ele>889.0</ele><time>2026-04-12T09:41:49.001Z</time></trkpt><trkpt lat="38.062781117100414" lon="13.224377815398247"><ele>889.0</ele><time>2026-04-12T09:41:50.001Z</time></trkpt><trkpt lat="38.06271692599237" lon="13.224336818092494"><ele>889.0000000000001</ele><time>2026-04-12T09:41:52.001Z</time></trkpt><trkpt lat="38.06263689538046" lon="13.224429530979933"><ele>889.0000000000001</ele><time>2026-04-12T09:41:54.001Z</time></trkpt><trkpt lat="38.06267804257077" lon="13.224520579431646"><ele>889.0</ele><time>2026-04-12T09:41:55.001Z</time></trkpt><trkpt lat="38.062796585600545" lon="13.22464173424142"><ele>889.0</ele><time>2026-04-12T09:41:57.001Z</time></trkpt><trkpt lat="38.062853738759635" lon="13.224763783408577"><ele>885.0</ele><time>2026-04-12T09:41:58.001Z</time></trkpt><trkpt lat="38.06294174517848" lon="13.224876000914652"><ele>881.0</ele><time>2026-04-12T09:41:59.001Z</time></trkpt><trkpt lat="38.063045162483704" lon="13.22496312597182"><ele>877.0</ele><time>2026-04-12T09:42:00.001Z</time></trkpt><trkpt lat="38.063154900360615" lon="13.225065609276355"><ele>873.0</ele><time>2026-04-12T09:42:01.001Z</time></trkpt><trkpt lat="38.06326942155138" lon="13.225171382425804"><ele>875.5999999999999</ele><time>2026-04-12T09:42:02.001Z</time></trkpt><trkpt lat="38.063347101410685" lon="13.225292511919701"><ele>878.1999999999999</ele><time>2026-04-12T09:42:03.001Z</time></trkpt><trkpt lat="38.06344999238637" lon="13.225392660926168"><ele>880.8</ele><time>2026-04-12T09:42:04.001Z</time></trkpt><trkpt lat="38.063512563965006" lon="13.225496401135668"><ele>883.4</ele><time>2026-04-12T09:42:05.001Z</time></trkpt><trkpt lat="38.06356543202423" lon="13.225552113620978"><ele>886.0</ele><time>2026-04-12T09:42:06.001Z</time></trkpt><trkpt lat="38.063621718550976" lon="13.225594590969173"><ele>885.9999999999999</ele><time>2026-04-12T09:42:07.001Z</time></trkpt><trkpt lat="38.063634248856076" lon="13.225676601268734"><ele>886.0</ele><time>2026-04-12T09:42:10.001Z</time></trkpt><trkpt lat="38.06354096729697" lon="13.22567542831009"><ele>886.0</ele><time>2026-04-12T09:42:12.001Z</time></trkpt><trkpt lat="38.06348339838104" lon="13.22561082896006"><ele>886.0</ele><time>2026-04-12T09:42:13.001Z</time></trkpt><trkpt lat="38.06339021026571" lon="13.2255688766183"><ele>885.9999999999999</ele><time>2026-04-12T09:42:14.001Z</time></trkpt><trkpt lat="38.06330378567702" lon="13.225501252081681"><ele>886.0</ele><time>2026-04-12T09:42:15.001Z</time></trkpt><trkpt lat="38.063194620286836" lon="13.225451767098917"><ele>882.75</ele><time>2026-04-12T09:42:16.001Z</time></trkpt><trkpt lat="38.063087583051434" lon="13.225419034771269"><ele>879.5</ele><time>2026-04-12T09:42:17.001Z</time></trkpt><trkpt lat="38.06297561896255" lon="13.225403415257846"><ele>876.25</ele><time>2026-04-12T09:42:18.001Z</time></trkpt><trkpt lat="38.062865733202386" lon="13.22535504849271"><ele>873.0</ele><time>2026-04-12T09:42:19.001Z</time></trkpt><trkpt lat="38.06275856845237" lon="13.225310012850791"><ele>873.0</ele><time>2026-04-12T09:42:20.001Z</time></trkpt><trkpt lat="38.06262923445493" lon="13.225270813642666"><ele>873.0</ele><time>2026-04-12T09:42:21.001Z</time></trkpt><trkpt lat="38.062510863024706" lon="13.225232011312878"><ele>873.0</ele><time>2026-04-12T09:42:22.001Z</time></trkpt><trkpt lat="38.0624076643117" lon="13.225185316485181"><ele>873.0</ele><time>2026-04-12T09:42:23.001Z</time></trkpt><trkpt lat="38.06232438984521" lon="13.225149554167542"><ele>871.25</ele><time>2026-04-12T09:42:24.001Z</time></trkpt><trkpt lat="38.06224357250793" lon="13.22508118449297"><ele>869.5</ele><time>2026-04-12T09:42:25.001Z</time></trkpt><trkpt lat="38.06216201214446" lon="13.224986252661651"><ele>867.75</ele><time>2026-04-12T09:42:26.001Z</time></trkpt><trkpt lat="38.06203934670411" lon="13.224886549721266"><ele>866.0</ele><time>2026-04-12T09:42:27.001Z</time></trkpt><trkpt lat="38.061909270131885" lon="13.224797894376362"><ele>866.0000000000001</ele><time>2026-04-12T09:42:28.001Z</time></trkpt><trkpt lat="38.06182843636788" lon="13.22470590129825"><ele>866.0</ele><time>2026-04-12T09:42:29Z</time></trkpt><trkpt lat="38.06176655459607" lon="13.224651865880265"><ele>866.0</ele><time>2026-04-12T09:42:30Z</time></trkpt><trkpt lat="38.061700250809366" lon="13.224584193881364"><ele>866.0</ele><time>2026-04-12T09:42:31Z</time></trkpt><trkpt lat="38.061658504903754" lon="13.224507722216385"><ele>866.0000000000001</ele><time>2026-04-12T09:42:32Z</time></trkpt><trkpt lat="38.061611230118814" lon="13.22440888222123"><ele>866.0</ele><time>2026-04-12T09:42:33Z</time></trkpt><trkpt lat="38.061551823702196" lon="13.224264182550984"><ele>860.8</ele><time>2026-04-12T09:42:34Z</time></trkpt><trkpt lat="38.06149549450058" lon="13.224098232566599"><ele>855.5999999999999</ele><time>2026-04-12T09:42:35Z</time></trkpt><trkpt lat="38.06145275049808" lon="13.223980091766142"><ele>850.4</ele><time>2026-04-12T09:42:36Z</time></trkpt><trkpt lat="38.06142907519367" lon="13.223893442076339"><ele>845.2</ele><time>2026-04-12T09:42:37Z</time></trkpt><trkpt lat="38.061415497216295" lon="13.22378459900597"><ele>840.0</ele><time>2026-04-12T09:42:38Z</time></trkpt><trkpt lat="38.06142886477697" lon="13.223653857862615"><ele>837.2</ele><time>2026-04-12T09:42:40Z</time></trkpt><trkpt lat="38.06140562992585" lon="13.223542685156888"><ele>834.4</ele><time>2026-04-12T09:42:42Z</time></trkpt><trkpt lat="38.06134242257646" lon="13.223521546839383"><ele>831.5999999999999</ele><time>2026-04-12T09:42:43Z</time></trkpt><trkpt lat="38.06127747189926" lon="13.22361476012256"><ele>828.8</ele><time>2026-04-12T09:42:44Z</time></trkpt><trkpt lat="38.06122780989015" lon="13.223710116330302"><ele>826.0</ele><time>2026-04-12T09:42:45Z</time></trkpt><trkpt lat="38.06119487512148" lon="13.223839093331572"><ele>826.0</ele><time>2026-04-12T09:42:46Z</time></trkpt><trkpt lat="38.06116132272826" lon="13.22397494566039"><ele>826.0</ele><time>2026-04-12T09:42:47Z</time></trkpt><trkpt lat="38.06116531820117" lon="13.224109901796092"><ele>826.0</ele><time>2026-04-12T09:42:48Z</time></trkpt><trkpt lat="38.06118061402261" lon="13.22428977891518"><ele>826.0</ele><time>2026-04-12T09:42:49Z</time></trkpt><trkpt lat="38.06121453849095" lon="13.224443095465933"><ele>828.25</ele><time>2026-04-12T09:42:50Z</time></trkpt><trkpt lat="38.061262539311606" lon="13.224558645540602"><ele>830.5</ele><time>2026-04-12T09:42:51Z</time></trkpt><trkpt lat="38.06130671811335" lon="13.224682040509268"><ele>832.75</ele><time>2026-04-12T09:42:52Z</time></trkpt><trkpt lat="38.06135959381089" lon="13.2248210248889"><ele>835.0</ele><time>2026-04-12T09:42:53Z</time></trkpt><trkpt lat="38.061426929898396" lon="13.22498553537856"><ele>835.0</ele><time>2026-04-12T09:42:54Z</time></trkpt><trkpt lat="38.06148755669652" lon="13.225128822206818"><ele>835.0</ele><time>2026-04-12T09:42:55Z</time></trkpt><trkpt lat="38.061560868994235" lon="13.225253212935515"><ele>835.0</ele><time>2026-04-12T09:42:56Z</time></trkpt><trkpt lat="38.06161351318719" lon="13.225366470202902"><ele>835.0</ele><time>2026-04-12T09:42:57Z</time></trkpt><trkpt lat="38.061673187116355" lon="13.225435298534787"><ele>835.0</ele><time>2026-04-12T09:42:58Z</time></trkpt><trkpt lat="38.061733282898864" lon="13.225494716408335"><ele>834.9999999999999</ele><time>2026-04-12T09:42:59Z</time></trkpt><trkpt lat="38.061787269419725" lon="13.22556642387881"><ele>835.0</ele><time>2026-04-12T09:43:01Z</time></trkpt><trkpt lat="38.06173190701779" lon="13.225632497217166"><ele>835.0</ele><time>2026-04-12T09:43:03Z</time></trkpt><trkpt lat="38.061658088856035" lon="13.225609510952705"><ele>835.0</ele><time>2026-04-12T09:43:04Z</time></trkpt><trkpt lat="38.06159728616831" lon="13.225536242130682"><ele>834.9999999999999</ele><time>2026-04-12T09:43:05Z</time></trkpt><trkpt lat="38.061513464116636" lon="13.225495162897914"><ele>835.0</ele><time>2026-04-12T09:43:06Z</time></trkpt><trkpt lat="38.061422798829085" lon="13.225417406064551"><ele>835.0</ele><time>2026-04-12T09:43:07Z</time></trkpt><trkpt lat="38.06131316733341" lon="13.225276695650908"><ele>835.0</ele><time>2026-04-12T09:43:08Z</time></trkpt><trkpt lat="38.06119118942863" lon="13.22517183222395"><ele>835.0</ele><time>2026-04-12T09:43:09Z</time></trkpt><trkpt lat="38.06105555942793" lon="13.225058588231262"><ele>835.0</ele><time>2026-04-12T09:43:10Z</time></trkpt><trkpt lat="38.06091297695334" lon="13.224964759286397"><ele>835.0</ele><time>2026-04-12T09:43:11Z</time></trkpt><trkpt lat="38.06078710867809" lon="13.224889643705737"><ele>835.0</ele><time>2026-04-12T09:43:12Z</time></trkpt><trkpt lat="38.06069250295515" lon="13.224825949309558"><ele>835.0</ele><time>2026-04-12T09:43:13Z</time></trkpt><trkpt lat="38.0606029552787" lon="13.224774448958765"><ele>831.6</ele><time>2026-04-12T09:43:14Z</time></trkpt><trkpt lat="38.06053117884712" lon="13.224732137013037"><ele>828.2</ele><time>2026-04-12T09:43:15Z</time></trkpt><trkpt lat="38.06047031033527" lon="13.224690767984235"><ele>824.8</ele><time>2026-04-12T09:43:17Z</time></trkpt><trkpt lat="38.06039115486172" lon="13.224774087304"><ele>821.4</ele><time>2026-04-12T09:43:19Z</time></trkpt><trkpt lat="38.060484671637084" lon="13.224917284216728"><ele>818.0</ele><time>2026-04-12T09:43:21Z</time></trkpt><trkpt lat="38.06054370251821" lon="13.224996665527545"><ele>818.0</ele><time>2026-04-12T09:43:22Z</time></trkpt><trkpt lat="38.06063033956076" lon="13.225121474575172"><ele>818.0</ele><time>2026-04-12T09:43:23Z</time></trkpt><trkpt lat="38.06074799225232" lon="13.225262464356609"><ele>818.0</ele><time>2026-04-12T09:43:24Z</time></trkpt><trkpt lat="38.06085226854284" lon="13.225412905601939"><ele>818.0</ele><time>2026-04-12T09:43:25Z</time></trkpt><trkpt lat="38.06097446208729" lon="13.22555480014706"><ele>818.0</ele><time>2026-04-12T09:43:26Z</time></trkpt><trkpt lat="38.06108353375827" lon="13.225711945582894"><ele>818.0</ele><time>2026-04-12T09:43:27Z</time></trkpt><trkpt lat="38.06119675682415" lon="13.225847476982596"><ele>818.0</ele><time>2026-04-12T09:43:28Z</time></trkpt><trkpt lat="38.061314565976495" lon="13.225961296669736"><ele>818.0</ele><time>2026-04-12T09:43:29Z</time></trkpt><trkpt lat="38.061445396711136" lon="13.22606445915534"><ele>818.0</ele><time>2026-04-12T09:43:30Z</time></trkpt><trkpt lat="38.06156409586027" lon="13.226198949246983"><ele>821.4</ele><time>2026-04-12T09:43:31Z</time></trkpt><trkpt lat="38.06165259914234" lon="13.226268289458389"><ele>824.8</ele><time>2026-04-12T09:43:32Z</time></trkpt><trkpt lat="38.061744812064184" lon="13.226291063861895"><ele>828.2</ele><time>2026-04-12T09:43:33Z</time></trkpt><trkpt lat="38.06184104031978" lon="13.226341553228885"><ele>831.6</ele><time>2026-04-12T09:43:34Z</time></trkpt><trkpt lat="38.06196705044419" lon="13.226345038038751"><ele>835.0</ele><time>2026-04-12T09:43:35Z</time></trkpt><trkpt lat="38.062070929256485" lon="13.22638353305837"><ele>835.0</ele><time>2026-04-12T09:43:36Z</time></trkpt><trkpt lat="38.06215461199719" lon="13.226475485948566"><ele>835.0</ele><time>2026-04-12T09:43:37Z</time></trkpt><trkpt lat="38.06226592464315" lon="13.226572627115956"><ele>835.0</ele><time>2026-04-12T09:43:38Z</time></trkpt><trkpt lat="38.0623624084854" lon="13.226683913343074"><ele>835.0</ele><time>2026-04-12T09:43:39.001Z</time></trkpt><trkpt lat="38.06245347857787" lon="13.22676269039097"><ele>833.2</ele><time>2026-04-12T09:43:40.001Z</time></trkpt><trkpt lat="38.062529908640144" lon="13.226849131322505"><ele>831.4</ele><time>2026-04-12T09:43:41.001Z</time></trkpt><trkpt lat="38.06257435775357" lon="13.226929148855753"><ele>829.5999999999999</ele><time>2026-04-12T09:43:42.001Z</time></trkpt><trkpt lat="38.062600235935754" lon="13.227030351435328"><ele>827.8</ele><time>2026-04-12T09:43:43.001Z</time></trkpt><trkpt lat="38.06263966641033" lon="13.227134153334577"><ele>826.0</ele><time>2026-04-12T09:43:44.001Z</time></trkpt><trkpt lat="38.06269805205733" lon="13.227264345503537"><ele>822.1999999999999</ele><time>2026-04-12T09:43:45.001Z</time></trkpt><trkpt lat="38.062769193837006" lon="13.227347321038316"><ele>818.4</ele><time>2026-04-12T09:43:46.001Z</time></trkpt><trkpt lat="38.062851837930296" lon="13.227400086788538"><ele>814.6</ele><time>2026-04-12T09:43:47.001Z</time></trkpt><trkpt lat="38.06295421893597" lon="13.22742876851191"><ele>810.8</ele><time>2026-04-12T09:43:48.001Z</time></trkpt><trkpt lat="38.06305393142294" lon="13.227429747508191"><ele>807.0</ele><time>2026-04-12T09:43:49.001Z</time></trkpt><trkpt lat="38.0631446420303" lon="13.227424651819023"><ele>807.0</ele><time>2026-04-12T09:43:50.001Z</time></trkpt><trkpt lat="38.06322681500465" lon="13.227370092150522"><ele>807.0</ele><time>2026-04-12T09:43:51.001Z</time></trkpt><trkpt lat="38.06328744548213" lon="13.227319061141628"><ele>807.0</ele><time>2026-04-12T09:43:52.001Z</time></trkpt><trkpt lat="38.06335138998307" lon="13.227301020679368"><ele>807.0</ele><time>2026-04-12T09:43:54.001Z</time></trkpt><trkpt lat="38.063349235093796" lon="13.227409549820695"><ele>807.0</ele><time>2026-04-12T09:43:55.001Z</time></trkpt><trkpt lat="38.06327349928495" lon="13.227465143915202"><ele>807.0</ele><time>2026-04-12T09:43:56.001Z</time></trkpt><trkpt lat="38.063191169534626" lon="13.227518353038908"><ele>807.0</ele><time>2026-04-12T09:43:57.001Z</time></trkpt><trkpt lat="38.06308533204483" lon="13.227560226947185"><ele>807.0</ele><time>2026-04-12T09:43:58.001Z</time></trkpt><trkpt lat="38.06299004927681" lon="13.227605732756196"><ele>807.0</ele><time>2026-04-12T09:43:59.001Z</time></trkpt><trkpt lat="38.06292347348707" lon="13.227639757080423"><ele>807.0</ele><time>2026-04-12T09:44:00.001Z</time></trkpt><trkpt lat="38.06283720488751" lon="13.227628547962867"><ele>807.0</ele><time>2026-04-12T09:44:01.001Z</time></trkpt><trkpt lat="38.0627307188151" lon="13.227645415141332"><ele>807.0</ele><time>2026-04-12T09:44:02.001Z</time></trkpt><trkpt lat="38.062625642253316" lon="13.227625673811957"><ele>807.0</ele><time>2026-04-12T09:44:03.001Z</time></trkpt><trkpt lat="38.062523959861444" lon="13.227568124285934"><ele>807.0</ele><time>2026-04-12T09:44:04.001Z</time></trkpt><trkpt lat="38.06241172823529" lon="13.227546290314274"><ele>807.0</ele><time>2026-04-12T09:44:05.001Z</time></trkpt><trkpt lat="38.06232076844686" lon="13.22752859478842"><ele>807.0</ele><time>2026-04-12T09:44:06.001Z</time></trkpt><trkpt lat="38.062243990316375" lon="13.227504250030236"><ele>803.4000000000001</ele><time>2026-04-12T09:44:07.001Z</time></trkpt><trkpt lat="38.062182591276766" lon="13.227486116599641"><ele>799.8000000000001</ele><time>2026-04-12T09:44:08.001Z</time></trkpt><trkpt lat="38.0621407495692" lon="13.22772865665513"><ele>796.2</ele><time>2026-04-12T09:44:12.001Z</time></trkpt><trkpt lat="38.0621880530598" lon="13.227796862126203"><ele>792.6</ele><time>2026-04-12T09:44:13.001Z</time></trkpt><trkpt lat="38.06226577929305" lon="13.227829925954637"><ele>789.0</ele><time>2026-04-12T09:44:14.001Z</time></trkpt><trkpt lat="38.06237349979258" lon="13.22784786048686"><ele>793.5</ele><time>2026-04-12T09:44:15.001Z</time></trkpt><trkpt lat="38.06248942083564" lon="13.2278952377619"><ele>798.0</ele><time>2026-04-12T09:44:16.001Z</time></trkpt><trkpt lat="38.06261176358337" lon="13.227957764223873"><ele>802.5</ele><time>2026-04-12T09:44:17.001Z</time></trkpt><trkpt lat="38.06275406118922" lon="13.228011264516663"><ele>807.0</ele><time>2026-04-12T09:44:18.001Z</time></trkpt><trkpt lat="38.06285202570577" lon="13.228036589774195"><ele>807.0</ele><time>2026-04-12T09:44:19.001Z</time></trkpt><trkpt lat="38.06294405641077" lon="13.228026828270144"><ele>807.0</ele><time>2026-04-12T09:44:20.001Z</time></trkpt><trkpt lat="38.063041104912266" lon="13.227996968597697"><ele>807.0</ele><time>2026-04-12T09:44:21.001Z</time></trkpt><trkpt lat="38.06312562859666" lon="13.227961660735316"><ele>807.0</ele><time>2026-04-12T09:44:22.001Z</time></trkpt><trkpt lat="38.06320906581885" lon="13.227979514237488"><ele>807.0</ele><time>2026-04-12T09:44:23.001Z</time></trkpt><trkpt lat="38.063303237018786" lon="13.228044362138892"><ele>808.5</ele><time>2026-04-12T09:44:24.001Z</time></trkpt><trkpt lat="38.06335326845712" lon="13.22813598180565"><ele>810.0</ele><time>2026-04-12T09:44:25.001Z</time></trkpt><trkpt lat="38.06342922581042" lon="13.228182178005408"><ele>811.5</ele><time>2026-04-12T09:44:26.001Z</time></trkpt><trkpt lat="38.063557340098775" lon="13.228203181192645"><ele>813.0</ele><time>2026-04-12T09:44:27.001Z</time></trkpt><trkpt lat="38.063707329994486" lon="13.228216151098412"><ele>805.6666666666667</ele><time>2026-04-12T09:44:28.001Z</time></trkpt><trkpt lat="38.06387442454392" lon="13.2282177313669"><ele>798.3333333333334</ele><time>2026-04-12T09:44:29.001Z</time></trkpt><trkpt lat="38.06404635534262" lon="13.228277747050416"><ele>791.0</ele><time>2026-04-12T09:44:30.001Z</time></trkpt><trkpt lat="38.064235630118716" lon="13.228343893758582"><ele>791.0</ele><time>2026-04-12T09:44:31.001Z</time></trkpt><trkpt lat="38.06438838737795" lon="13.22843400056664"><ele>791.0</ele><time>2026-04-12T09:44:32.001Z</time></trkpt><trkpt lat="38.06454636538589" lon="13.228492509450934"><ele>791.0</ele><time>2026-04-12T09:44:33.001Z</time></trkpt><trkpt lat="38.064681046934616" lon="13.228537561046426"><ele>791.0</ele><time>2026-04-12T09:44:34.001Z</time></trkpt><trkpt lat="38.06480474190047" lon="13.228572459114114"><ele>791.0</ele><time>2026-04-12T09:44:35Z</time></trkpt><trkpt lat="38.0649338571825" lon="13.228606514756992"><ele>791.0</ele><time>2026-04-12T09:44:36Z</time></trkpt><trkpt lat="38.065068363815925" lon="13.228636703600763"><ele>791.0</ele><time>2026-04-12T09:44:37Z</time></trkpt><trkpt lat="38.065194102135514" lon="13.228663838381484"><ele>793.75</ele><time>2026-04-12T09:44:38Z</time></trkpt><trkpt lat="38.06531511618538" lon="13.228670166055148"><ele>796.5</ele><time>2026-04-12T09:44:39Z</time></trkpt><trkpt lat="38.06543087964011" lon="13.22867211329822"><ele>799.25</ele><time>2026-04-12T09:44:40Z</time></trkpt><trkpt lat="38.06554803740681" lon="13.228653937974975"><ele>802.0</ele><time>2026-04-12T09:44:41Z</time></trkpt><trkpt lat="38.06567165923715" lon="13.228635874786248"><ele>804.0</ele><time>2026-04-12T09:44:42Z</time></trkpt><trkpt lat="38.065784731883184" lon="13.22863393368887"><ele>806.0</ele><time>2026-04-12T09:44:43Z</time></trkpt><trkpt lat="38.065949098089725" lon="13.228675767197066"><ele>808.0</ele><time>2026-04-12T09:44:44Z</time></trkpt><trkpt lat="38.06609437488193" lon="13.228722198890573"><ele>810.0</ele><time>2026-04-12T09:44:45Z</time></trkpt><trkpt lat="38.0662555303544" lon="13.2287512349487"><ele>810.0</ele><time>2026-04-12T09:44:46Z</time></trkpt><trkpt lat="38.066397526495585" lon="13.228779271781772"><ele>810.0</ele><time>2026-04-12T09:44:47Z</time></trkpt><trkpt lat="38.06648947010369" lon="13.22880169465158"><ele>810.0</ele><time>2026-04-12T09:44:48Z</time></trkpt><trkpt lat="38.0665643312195" lon="13.228859827483964"><ele>810.0</ele><time>2026-04-12T09:44:50Z</time></trkpt><trkpt lat="38.066557380315274" lon="13.228963000397815"><ele>810.0</ele><time>2026-04-12T09:44:52Z</time></trkpt><trkpt lat="38.066506719458296" lon="13.229017259997041"><ele>804.5</ele><time>2026-04-12T09:44:53Z</time></trkpt><trkpt lat="38.06641273841149" lon="13.229074436515031"><ele>799.0</ele><time>2026-04-12T09:44:54Z</time></trkpt><trkpt lat="38.06631095177275" lon="13.22914574472184"><ele>793.5</ele><time>2026-04-12T09:44:55Z</time></trkpt><trkpt lat="38.066202542837345" lon="13.229205318813465"><ele>788.0</ele><time>2026-04-12T09:44:56Z</time></trkpt><trkpt lat="38.066085464807244" lon="13.229248982749931"><ele>788.0</ele><time>2026-04-12T09:44:57Z</time></trkpt><trkpt lat="38.0659685040875" lon="13.229272066960476"><ele>788.0</ele><time>2026-04-12T09:44:58Z</time></trkpt><trkpt lat="38.06581950660989" lon="13.22927624001298"><ele>788.0</ele><time>2026-04-12T09:44:59Z</time></trkpt><trkpt lat="38.0656725148551" lon="13.22929254300814"><ele>788.0</ele><time>2026-04-12T09:45:00Z</time></trkpt><trkpt lat="38.065542221228206" lon="13.229303073947376"><ele>785.5</ele><time>2026-04-12T09:45:01Z</time></trkpt><trkpt lat="38.06542112122347" lon="13.229308992659895"><ele>783.0</ele><time>2026-04-12T09:45:02Z</time></trkpt><trkpt lat="38.065292984274365" lon="13.229314852269841"><ele>780.5</ele><time>2026-04-12T09:45:03Z</time></trkpt><trkpt lat="38.06516995346864" lon="13.229276267590052"><ele>778.0</ele><time>2026-04-12T09:45:04Z</time></trkpt><trkpt lat="38.065051532039206" lon="13.229240026673486"><ele>776.0</ele><time>2026-04-12T09:45:05Z</time></trkpt><trkpt lat="38.0649418245494" lon="13.229184062883148"><ele>774.0</ele><time>2026-04-12T09:45:06Z</time></trkpt><trkpt lat="38.06482216167519" lon="13.229177040502409"><ele>772.0</ele><time>2026-04-12T09:45:07Z</time></trkpt><trkpt lat="38.06469191295314" lon="13.22915894577606"><ele>770.0</ele><time>2026-04-12T09:45:08Z</time></trkpt><trkpt lat="38.06458693935412" lon="13.229169790767335"><ele>770.0</ele><time>2026-04-12T09:45:09Z</time></trkpt><trkpt lat="38.06448650649913" lon="13.229181454230044"><ele>770.0</ele><time>2026-04-12T09:45:10Z</time></trkpt><trkpt lat="38.06438379858729" lon="13.229211674699236"><ele>770.0</ele><time>2026-04-12T09:45:11Z</time></trkpt><trkpt lat="38.064267176851274" lon="13.229247090356699"><ele>770.0</ele><time>2026-04-12T09:45:12Z</time></trkpt><trkpt lat="38.064167517717685" lon="13.229314048940655"><ele>770.0</ele><time>2026-04-12T09:45:13Z</time></trkpt><trkpt lat="38.06406976312552" lon="13.229369703495227"><ele>769.2</ele><time>2026-04-12T09:45:14Z</time></trkpt><trkpt lat="38.063969520446605" lon="13.229412536469178"><ele>768.4</ele><time>2026-04-12T09:45:15Z</time></trkpt><trkpt lat="38.06387166082594" lon="13.229471903476387"><ele>767.5999999999999</ele><time>2026-04-12T09:45:16Z</time></trkpt><trkpt lat="38.063767439093596" lon="13.229533736039132"><ele>766.8</ele><time>2026-04-12T09:45:17Z</time></trkpt><trkpt lat="38.0636823240596" lon="13.22959293392353"><ele>766.0</ele><time>2026-04-12T09:45:18Z</time></trkpt><trkpt lat="38.063614207010836" lon="13.229625942689875"><ele>766.0</ele><time>2026-04-12T09:45:19Z</time></trkpt><trkpt lat="38.06349523177363" lon="13.229665028948267"><ele>766.0</ele><time>2026-04-12T09:45:20Z</time></trkpt><trkpt lat="38.0633887415434" lon="13.229711305710454"><ele>766.0</ele><time>2026-04-12T09:45:21Z</time></trkpt><trkpt lat="38.063289693932866" lon="13.229738499466878"><ele>766.0</ele><time>2026-04-12T09:45:22Z</time></trkpt><trkpt lat="38.063179531381074" lon="13.229785020843394"><ele>762.5999999999999</ele><time>2026-04-12T09:45:23Z</time></trkpt><trkpt lat="38.06307217887476" lon="13.229827538629612"><ele>759.2</ele><time>2026-04-12T09:45:24Z</time></trkpt><trkpt lat="38.06297388808169" lon="13.229870444883554"><ele>755.8</ele><time>2026-04-12T09:45:25Z</time></trkpt><trkpt lat="38.062890527620624" lon="13.22988027578871"><ele>752.4000000000001</ele><time>2026-04-12T09:45:26Z</time></trkpt><trkpt lat="38.06281575437752" lon="13.229895604025085"><ele>749.0</ele><time>2026-04-12T09:45:27Z</time></trkpt><trkpt lat="38.06271894804638" lon="13.229892020903668"><ele>749.0</ele><time>2026-04-12T09:45:28Z</time></trkpt><trkpt lat="38.06265697184641" lon="13.229871403863072"><ele>749.0</ele><time>2026-04-12T09:45:29Z</time></trkpt><trkpt lat="38.06256151518916" lon="13.229834306652538"><ele>749.0</ele><time>2026-04-12T09:45:30Z</time></trkpt><trkpt lat="38.062474034676455" lon="13.229802209796699"><ele>749.0</ele><time>2026-04-12T09:45:31.001Z</time></trkpt><trkpt lat="38.06235454096661" lon="13.229751549649007"><ele>749.0</ele><time>2026-04-12T09:45:32.001Z</time></trkpt><trkpt lat="38.062203199672474" lon="13.229678537616074"><ele>747.25</ele><time>2026-04-12T09:45:33.001Z</time></trkpt><trkpt lat="38.0620679128165" lon="13.229603155866117"><ele>745.5</ele><time>2026-04-12T09:45:34.001Z</time></trkpt><trkpt lat="38.06194072537349" lon="13.22952188161844"><ele>743.75</ele><time>2026-04-12T09:45:35.001Z</time></trkpt><trkpt lat="38.061819406341954" lon="13.22944683399886"><ele>742.0</ele><time>2026-04-12T09:45:36.001Z</time></trkpt><trkpt lat="38.06170427605505" lon="13.22940577763645"><ele>738.5</ele><time>2026-04-12T09:45:37.001Z</time></trkpt><trkpt lat="38.06158669466827" lon="13.229330875660175"><ele>735.0</ele><time>2026-04-12T09:45:38.001Z</time></trkpt><trkpt lat="38.0614797548555" lon="13.229261128304822"><ele>731.5</ele><time>2026-04-12T09:45:39.001Z</time></trkpt><trkpt lat="38.06139887110548" lon="13.229162068743006"><ele>728.0</ele><time>2026-04-12T09:45:40.001Z</time></trkpt><trkpt lat="38.06131304293396" lon="13.229094631387389"><ele>728.0</ele><time>2026-04-12T09:45:41.001Z</time></trkpt><trkpt lat="38.06121663542341" lon="13.229064731669041"><ele>728.0</ele><time>2026-04-12T09:45:42.001Z</time></trkpt><trkpt lat="38.06110203664654" lon="13.229094866378697"><ele>728.0</ele><time>2026-04-12T09:45:43.001Z</time></trkpt><trkpt lat="38.06098080876777" lon="13.229122066438253"><ele>728.0</ele><time>2026-04-12T09:45:44.001Z</time></trkpt><trkpt lat="38.06087122663872" lon="13.22913923869987"><ele>728.0</ele><time>2026-04-12T09:45:45.001Z</time></trkpt><trkpt lat="38.060786910459996" lon="13.229145983320649"><ele>728.0</ele><time>2026-04-12T09:45:46.001Z</time></trkpt><trkpt lat="38.06072476831466" lon="13.229117121215051"><ele>728.0</ele><time>2026-04-12T09:45:47.001Z</time></trkpt><trkpt lat="38.06063508410168" lon="13.229045698657723"><ele>728.0</ele><time>2026-04-12T09:45:49.001Z</time></trkpt><trkpt lat="38.06057827270224" lon="13.228990667999753"><ele>728.0</ele><time>2026-04-12T09:45:50.001Z</time></trkpt><trkpt lat="38.060530287971375" lon="13.228934820164351"><ele>728.0</ele><time>2026-04-12T09:45:51.001Z</time></trkpt><trkpt lat="38.060455400930074" lon="13.228849016925787"><ele>729.4</ele><time>2026-04-12T09:45:52.001Z</time></trkpt><trkpt lat="38.06039889337949" lon="13.228767267008978"><ele>730.8</ele><time>2026-04-12T09:45:53.001Z</time></trkpt><trkpt lat="38.06035051101436" lon="13.228693750811384"><ele>732.2</ele><time>2026-04-12T09:45:54.001Z</time></trkpt><trkpt lat="38.060278685128274" lon="13.228657103108535"><ele>733.6</ele><time>2026-04-12T09:45:55.001Z</time></trkpt><trkpt lat="38.06018158923816" lon="13.228654022143093"><ele>735.0</ele><time>2026-04-12T09:45:56.001Z</time></trkpt><trkpt lat="38.060051084289945" lon="13.228694789324237"><ele>733.5</ele><time>2026-04-12T09:45:57.001Z</time></trkpt><trkpt lat="38.059924340775225" lon="13.22875081586479"><ele>732.0</ele><time>2026-04-12T09:45:58.001Z</time></trkpt><trkpt lat="38.0597732258565" lon="13.228821742146739"><ele>730.5</ele><time>2026-04-12T09:45:59.001Z</time></trkpt><trkpt lat="38.05963426384294" lon="13.228900542063442"><ele>729.0</ele><time>2026-04-12T09:46:00.001Z</time></trkpt><trkpt lat="38.059499572255234" lon="13.22892656100467"><ele>729.0</ele><time>2026-04-12T09:46:01.001Z</time></trkpt><trkpt lat="38.05936439523389" lon="13.228972936924468"><ele>729.0</ele><time>2026-04-12T09:46:02.001Z</time></trkpt><trkpt lat="38.05926584735217" lon="13.229032441476589"><ele>729.0</ele><time>2026-04-12T09:46:03.001Z</time></trkpt><trkpt lat="38.05916941552745" lon="13.229076346614749"><ele>729.0</ele><time>2026-04-12T09:46:04.001Z</time></trkpt><trkpt lat="38.05907835460855" lon="13.229063692774629"><ele>729.0</ele><time>2026-04-12T09:46:05.001Z</time></trkpt><trkpt lat="38.0590014164487" lon="13.22902489410958"><ele>723.8000000000001</ele><time>2026-04-12T09:46:06.001Z</time></trkpt><trkpt lat="38.0589473397558" lon="13.228941089258965"><ele>718.6</ele><time>2026-04-12T09:46:07.001Z</time></trkpt><trkpt lat="38.05889232750721" lon="13.228834110529496"><ele>713.4</ele><time>2026-04-12T09:46:08.001Z</time></trkpt><trkpt lat="38.05881419143516" lon="13.228764539539542"><ele>708.2</ele><time>2026-04-12T09:46:09.001Z</time></trkpt><trkpt lat="38.058735602383074" lon="13.228708991979216"><ele>703.0</ele><time>2026-04-12T09:46:10.001Z</time></trkpt><trkpt lat="38.058654907918196" lon="13.228661448083878"><ele>703.0</ele><time>2026-04-12T09:46:11.001Z</time></trkpt><trkpt lat="38.05853446192476" lon="13.228612876200414"><ele>703.0</ele><time>2026-04-12T09:46:12.001Z</time></trkpt><trkpt lat="38.05838655984887" lon="13.228540131514077"><ele>703.0</ele><time>2026-04-12T09:46:13.001Z</time></trkpt><trkpt lat="38.058290302357875" lon="13.228469549278891"><ele>703.0</ele><time>2026-04-12T09:46:14.001Z</time></trkpt><trkpt lat="38.05818778837586" lon="13.228402655230408"><ele>704.5</ele><time>2026-04-12T09:46:15.001Z</time></trkpt><trkpt lat="38.058093346765446" lon="13.228331530229944"><ele>706.0</ele><time>2026-04-12T09:46:16.001Z</time></trkpt><trkpt lat="38.05799029410314" lon="13.228251366767529"><ele>707.5</ele><time>2026-04-12T09:46:17.001Z</time></trkpt><trkpt lat="38.05787240462016" lon="13.228185117675027"><ele>709.0</ele><time>2026-04-12T09:46:18.001Z</time></trkpt><trkpt lat="38.05777710614406" lon="13.228111024510603"><ele>709.0</ele><time>2026-04-12T09:46:19.001Z</time></trkpt><trkpt lat="38.05766664261322" lon="13.22803817301232"><ele>709.0</ele><time>2026-04-12T09:46:20.001Z</time></trkpt><trkpt lat="38.05756026425531" lon="13.228003826564652"><ele>709.0</ele><time>2026-04-12T09:46:21.001Z</time></trkpt><trkpt lat="38.05745646954991" lon="13.228004855331834"><ele>709.0</ele><time>2026-04-12T09:46:22.001Z</time></trkpt><trkpt lat="38.05732377224608" lon="13.22800576681064"><ele>699.8000000000001</ele><time>2026-04-12T09:46:23.001Z</time></trkpt><trkpt lat="38.05722489035402" lon="13.227970195082891"><ele>690.6</ele><time>2026-04-12T09:46:24.001Z</time></trkpt><trkpt lat="38.05714717820746" lon="13.227972075678474"><ele>681.4</ele><time>2026-04-12T09:46:25.001Z</time></trkpt><trkpt lat="38.05707970960935" lon="13.22794445853944"><ele>672.2</ele><time>2026-04-12T09:46:26.001Z</time></trkpt><trkpt lat="38.056988541163754" lon="13.227875657772385"><ele>663.0</ele><time>2026-04-12T09:46:27.001Z</time></trkpt><trkpt lat="38.05691787124516" lon="13.227782276405103"><ele>663.0</ele><time>2026-04-12T09:46:28.001Z</time></trkpt><trkpt lat="38.05684636582475" lon="13.227721635572534"><ele>663.0</ele><time>2026-04-12T09:46:29.001Z</time></trkpt><trkpt lat="38.05680234185141" lon="13.227641108137004"><ele>663.0</ele><time>2026-04-12T09:46:30.001Z</time></trkpt><trkpt lat="38.056739966978654" lon="13.227577353394913"><ele>663.0</ele><time>2026-04-12T09:46:31.001Z</time></trkpt><trkpt lat="38.05667720152061" lon="13.227486724955488"><ele>663.0</ele><time>2026-04-12T09:46:32.001Z</time></trkpt><trkpt lat="38.05660340078348" lon="13.227423183767378"><ele>663.0</ele><time>2026-04-12T09:46:33.001Z</time></trkpt><trkpt lat="38.05650868400121" lon="13.227391598614581"><ele>664.5</ele><time>2026-04-12T09:46:34.001Z</time></trkpt><trkpt lat="38.056404700805516" lon="13.227355883220758"><ele>666.0</ele><time>2026-04-12T09:46:35.001Z</time></trkpt><trkpt lat="38.05629537758876" lon="13.227281498895552"><ele>667.5</ele><time>2026-04-12T09:46:36.001Z</time></trkpt><trkpt lat="38.05618175689926" lon="13.227206559334002"><ele>669.0</ele><time>2026-04-12T09:46:37.001Z</time></trkpt><trkpt lat="38.05606592430871" lon="13.22715964535057"><ele>669.0</ele><time>2026-04-12T09:46:38.001Z</time></trkpt><trkpt lat="38.05595379070941" lon="13.227137018660908"><ele>669.0</ele><time>2026-04-12T09:46:39.001Z</time></trkpt><trkpt lat="38.05586058512965" lon="13.22711947119419"><ele>669.0</ele><time>2026-04-12T09:46:40.001Z</time></trkpt><trkpt lat="38.05576027585127" lon="13.2270848841185"><ele>669.0</ele><time>2026-04-12T09:46:41Z</time></trkpt><trkpt lat="38.05567034807232" lon="13.227024593663632"><ele>669.0</ele><time>2026-04-12T09:46:42Z</time></trkpt><trkpt lat="38.05556502785275" lon="13.226939446855562"><ele>659.25</ele><time>2026-04-12T09:46:43Z</time></trkpt><trkpt lat="38.05546245897361" lon="13.226849778769417"><ele>649.5</ele><time>2026-04-12T09:46:44Z</time></trkpt><trkpt lat="38.05537434730781" lon="13.226763545625142"><ele>639.75</ele><time>2026-04-12T09:46:45Z</time></trkpt><trkpt lat="38.05528700242223" lon="13.226667828280585"><ele>630.0</ele><time>2026-04-12T09:46:46Z</time></trkpt><trkpt lat="38.05520487187436" lon="13.226559607939848"><ele>634.6</ele><time>2026-04-12T09:46:47Z</time></trkpt><trkpt lat="38.05511824492106" lon="13.226446794695768"><ele>639.2</ele><time>2026-04-12T09:46:48Z</time></trkpt><trkpt lat="38.055019724450716" lon="13.226371434980635"><ele>643.8</ele><time>2026-04-12T09:46:49Z</time></trkpt><trkpt lat="38.05495143754784" lon="13.22632007558897"><ele>648.4</ele><time>2026-04-12T09:46:50Z</time></trkpt><trkpt lat="38.054874134220356" lon="13.226218582696438"><ele>653.0</ele><time>2026-04-12T09:46:52Z</time></trkpt><trkpt lat="38.05483489008976" lon="13.226142347870509"><ele>646.4</ele><time>2026-04-12T09:46:53Z</time></trkpt><trkpt lat="38.05479085127474" lon="13.226056646093747"><ele>639.8</ele><time>2026-04-12T09:46:54Z</time></trkpt><trkpt lat="38.05475594964201" lon="13.225963344272046"><ele>633.2</ele><time>2026-04-12T09:46:55Z</time></trkpt><trkpt lat="38.05469844067917" lon="13.225816531278255"><ele>626.6</ele><time>2026-04-12T09:46:56Z</time></trkpt><trkpt lat="38.05463524907502" lon="13.225696264368706"><ele>620.0</ele><time>2026-04-12T09:46:57Z</time></trkpt><trkpt lat="38.05459096510072" lon="13.225557599141062"><ele>620.0</ele><time>2026-04-12T09:46:58Z</time></trkpt><trkpt lat="38.05453846119541" lon="13.225430000032738"><ele>620.0</ele><time>2026-04-12T09:46:59Z</time></trkpt><trkpt lat="38.05449352874721" lon="13.225313048883137"><ele>620.0</ele><time>2026-04-12T09:47:00Z</time></trkpt><trkpt lat="38.05443436279067" lon="13.225197814382675"><ele>620.0</ele><time>2026-04-12T09:47:01Z</time></trkpt><trkpt lat="38.054412388758095" lon="13.225076326168626"><ele>620.0</ele><time>2026-04-12T09:47:02Z</time></trkpt><trkpt lat="38.05437442150037" lon="13.224948071668951"><ele>620.0</ele><time>2026-04-12T09:47:03Z</time></trkpt><trkpt lat="38.05434171870416" lon="13.224823544425119"><ele>620.0</ele><time>2026-04-12T09:47:04Z</time></trkpt><trkpt lat="38.05431511828635" lon="13.224697500064202"><ele>620.0</ele><time>2026-04-12T09:47:05Z</time></trkpt><trkpt lat="38.054292742471524" lon="13.224580397252193"><ele>620.0</ele><time>2026-04-12T09:47:06Z</time></trkpt><trkpt lat="38.054276712286885" lon="13.22448960542009"><ele>620.0</ele><time>2026-04-12T09:47:07Z</time></trkpt><trkpt lat="38.054250012910266" lon="13.224397495780456"><ele>621.6</ele><time>2026-04-12T09:47:08Z</time></trkpt><trkpt lat="38.054262339345" lon="13.224310094655989"><ele>623.2</ele><time>2026-04-12T09:47:09Z</time></trkpt><trkpt lat="38.054249079684396" lon="13.224155789658331"><ele>624.8</ele><time>2026-04-12T09:47:11Z</time></trkpt><trkpt lat="38.054214237322704" lon="13.223998966366725"><ele>626.4</ele><time>2026-04-12T09:47:13Z</time></trkpt><trkpt lat="38.05413647928756" lon="13.223878299594714"><ele>628.0</ele><time>2026-04-12T09:47:15Z</time></trkpt><trkpt lat="38.054040263008645" lon="13.223928832470245"><ele>629.0</ele><time>2026-04-12T09:47:16Z</time></trkpt><trkpt lat="38.053960555908404" lon="13.223936183076592"><ele>630.0</ele><time>2026-04-12T09:47:17Z</time></trkpt><trkpt lat="38.053827980257694" lon="13.223933103315069"><ele>631.0</ele><time>2026-04-12T09:47:19Z</time></trkpt><trkpt lat="38.053727586643916" lon="13.22391941201428"><ele>632.0</ele><time>2026-04-12T09:47:21Z</time></trkpt><trkpt lat="38.05362537245872" lon="13.223883926747591"><ele>633.0</ele><time>2026-04-12T09:47:23Z</time></trkpt><trkpt lat="38.053563806094736" lon="13.223906231389721"><ele>625.75</ele><time>2026-04-12T09:47:25Z</time></trkpt><trkpt lat="38.053599592540216" lon="13.22407520037536"><ele>618.5</ele><time>2026-04-12T09:47:26Z</time></trkpt><trkpt lat="38.0536646508381" lon="13.224188417868456"><ele>611.25</ele><time>2026-04-12T09:47:27Z</time></trkpt><trkpt lat="38.05373947718057" lon="13.224308067654619"><ele>604.0</ele><time>2026-04-12T09:47:28Z</time></trkpt><trkpt lat="38.05380766843367" lon="13.224424859191814"><ele>604.0</ele><time>2026-04-12T09:47:29Z</time></trkpt><trkpt lat="38.05385070670034" lon="13.224557015471593"><ele>604.0</ele><time>2026-04-12T09:47:30.001Z</time></trkpt><trkpt lat="38.053870345927706" lon="13.224703886620434"><ele>604.0</ele><time>2026-04-12T09:47:31.001Z</time></trkpt><trkpt lat="38.05388243297737" lon="13.2248702179684"><ele>604.0</ele><time>2026-04-12T09:47:32.001Z</time></trkpt><trkpt lat="38.053892022587114" lon="13.22503945823948"><ele>602.25</ele><time>2026-04-12T09:47:33.001Z</time></trkpt><trkpt lat="38.05390543867582" lon="13.225189816046596"><ele>600.5</ele><time>2026-04-12T09:47:34.001Z</time></trkpt><trkpt lat="38.05392520688915" lon="13.22534522754788"><ele>598.75</ele><time>2026-04-12T09:47:35.001Z</time></trkpt><trkpt lat="38.05394392254712" lon="13.225498071826268"><ele>597.0</ele><time>2026-04-12T09:47:36.001Z</time></trkpt><trkpt lat="38.05395954205912" lon="13.225655885068328"><ele>594.8000000000001</ele><time>2026-04-12T09:47:37.001Z</time></trkpt><trkpt lat="38.05397432167405" lon="13.225817395511395"><ele>592.6</ele><time>2026-04-12T09:47:38.001Z</time></trkpt><trkpt lat="38.053984836813015" lon="13.225926019850403"><ele>590.4000000000001</ele><time>2026-04-12T09:47:39.001Z</time></trkpt><trkpt lat="38.05399146185164" lon="13.22601442840481"><ele>588.2</ele><time>2026-04-12T09:47:40.001Z</time></trkpt><trkpt lat="38.05400642308129" lon="13.226124822036107"><ele>586.0</ele><time>2026-04-12T09:47:41.001Z</time></trkpt><trkpt lat="38.05400110631273" lon="13.226239753683693"><ele>586.0</ele><time>2026-04-12T09:47:42.001Z</time></trkpt><trkpt lat="38.05396647373363" lon="13.226381784478006"><ele>586.0</ele><time>2026-04-12T09:47:43.001Z</time></trkpt><trkpt lat="38.05392734815816" lon="13.226537941378249"><ele>586.0</ele><time>2026-04-12T09:47:44.001Z</time></trkpt><trkpt lat="38.053882942776674" lon="13.226676028377042"><ele>586.0</ele><time>2026-04-12T09:47:45.001Z</time></trkpt><trkpt lat="38.05383461941523" lon="13.22680372690889"><ele>583.4</ele><time>2026-04-12T09:47:46.001Z</time></trkpt><trkpt lat="38.0537875776308" lon="13.226924692713101"><ele>580.8</ele><time>2026-04-12T09:47:47.001Z</time></trkpt><trkpt lat="38.0537557276714" lon="13.227047339371964"><ele>578.1999999999999</ele><time>2026-04-12T09:47:48.001Z</time></trkpt><trkpt lat="38.05372646850338" lon="13.22717142694893"><ele>575.6</ele><time>2026-04-12T09:47:49.001Z</time></trkpt><trkpt lat="38.053681274638954" lon="13.227305916726902"><ele>573.0</ele><time>2026-04-12T09:47:50.001Z</time></trkpt><trkpt lat="38.05361382160251" lon="13.227426900901357"><ele>573.0</ele><time>2026-04-12T09:47:51.001Z</time></trkpt><trkpt lat="38.05353700212004" lon="13.227523708175427"><ele>573.0</ele><time>2026-04-12T09:47:52.001Z</time></trkpt><trkpt lat="38.05344783517121" lon="13.227600098238003"><ele>573.0</ele><time>2026-04-12T09:47:53.001Z</time></trkpt><trkpt lat="38.053371615870304" lon="13.227684306398062"><ele>573.0</ele><time>2026-04-12T09:47:54.001Z</time></trkpt><trkpt lat="38.05329044657052" lon="13.22778421204623"><ele>573.0</ele><time>2026-04-12T09:47:55.001Z</time></trkpt><trkpt lat="38.05322073489579" lon="13.227902697196013"><ele>573.0</ele><time>2026-04-12T09:47:56.001Z</time></trkpt><trkpt lat="38.05314988746602" lon="13.228037552474058"><ele>573.0</ele><time>2026-04-12T09:47:57.001Z</time></trkpt><trkpt lat="38.053083935656225" lon="13.228150304546968"><ele>573.0</ele><time>2026-04-12T09:47:58.001Z</time></trkpt><trkpt lat="38.053016482079684" lon="13.228262849843409"><ele>573.0</ele><time>2026-04-12T09:47:59.001Z</time></trkpt><trkpt lat="38.052972470230486" lon="13.22838631116817"><ele>568.0</ele><time>2026-04-12T09:48:00.001Z</time></trkpt><trkpt lat="38.05292228313506" lon="13.228518032391568"><ele>563.0</ele><time>2026-04-12T09:48:01.001Z</time></trkpt><trkpt lat="38.05285900484634" lon="13.22864965948341"><ele>558.0</ele><time>2026-04-12T09:48:02.001Z</time></trkpt><trkpt lat="38.05279556704738" lon="13.228794079995389"><ele>553.0</ele><time>2026-04-12T09:48:03.001Z</time></trkpt><trkpt lat="38.052742375969466" lon="13.228929160131267"><ele>551.5</ele><time>2026-04-12T09:48:04.001Z</time></trkpt><trkpt lat="38.05267883643449" lon="13.229058506477307"><ele>550.0</ele><time>2026-04-12T09:48:05.001Z</time></trkpt><trkpt lat="38.05261274179772" lon="13.229186874325487"><ele>548.5</ele><time>2026-04-12T09:48:06.001Z</time></trkpt><trkpt lat="38.05255170296782" lon="13.22931632890172"><ele>547.0</ele><time>2026-04-12T09:48:07.001Z</time></trkpt><trkpt lat="38.05250444135466" lon="13.229449870608079"><ele>547.0</ele><time>2026-04-12T09:48:08.001Z</time></trkpt><trkpt lat="38.05245641100247" lon="13.229575239138008"><ele>547.0</ele><time>2026-04-12T09:48:09.001Z</time></trkpt><trkpt lat="38.052409392366606" lon="13.22970798704687"><ele>547.0</ele><time>2026-04-12T09:48:10.001Z</time></trkpt><trkpt lat="38.052366164413925" lon="13.229844517816334"><ele>547.0</ele><time>2026-04-12T09:48:11.001Z</time></trkpt><trkpt lat="38.05232045531937" lon="13.229980877550863"><ele>545.0</ele><time>2026-04-12T09:48:12.001Z</time></trkpt><trkpt lat="38.05227314949048" lon="13.23011286560727"><ele>543.0</ele><time>2026-04-12T09:48:13.001Z</time></trkpt><trkpt lat="38.05222628867581" lon="13.230245554783355"><ele>541.0</ele><time>2026-04-12T09:48:14.001Z</time></trkpt><trkpt lat="38.05218531747549" lon="13.230379819154388"><ele>539.0</ele><time>2026-04-12T09:48:15.001Z</time></trkpt><trkpt lat="38.052141914255685" lon="13.23051844607229"><ele>537.5</ele><time>2026-04-12T09:48:16.001Z</time></trkpt><trkpt lat="38.05208835300039" lon="13.230642452710097"><ele>536.0</ele><time>2026-04-12T09:48:17.001Z</time></trkpt><trkpt lat="38.05202538333675" lon="13.230764761509255"><ele>534.5</ele><time>2026-04-12T09:48:18.001Z</time></trkpt><trkpt lat="38.05196105669461" lon="13.230885902780393"><ele>533.0</ele><time>2026-04-12T09:48:19.001Z</time></trkpt><trkpt lat="38.051895958010675" lon="13.231001107604936"><ele>533.0</ele><time>2026-04-12T09:48:20.001Z</time></trkpt><trkpt lat="38.051827888309475" lon="13.231114778064956"><ele>533.0</ele><time>2026-04-12T09:48:21.001Z</time></trkpt><trkpt lat="38.05176248495427" lon="13.231214597300253"><ele>533.0</ele><time>2026-04-12T09:48:22.001Z</time></trkpt><trkpt lat="38.05169305027802" lon="13.231321691485896"><ele>533.0</ele><time>2026-04-12T09:48:23.001Z</time></trkpt><trkpt lat="38.05162800560395" lon="13.231435067511507"><ele>533.0</ele><time>2026-04-12T09:48:24.001Z</time></trkpt><trkpt lat="38.05156879227264" lon="13.23155697557765"><ele>531.8</ele><time>2026-04-12T09:48:25.001Z</time></trkpt><trkpt lat="38.05151663566082" lon="13.231689463692005"><ele>530.5999999999999</ele><time>2026-04-12T09:48:26.001Z</time></trkpt><trkpt lat="38.051470006275835" lon="13.23181545938823"><ele>529.4000000000001</ele><time>2026-04-12T09:48:27.001Z</time></trkpt><trkpt lat="38.05141469455553" lon="13.231938617154148"><ele>528.2</ele><time>2026-04-12T09:48:28.001Z</time></trkpt><trkpt lat="38.05135557117649" lon="13.232050161195495"><ele>527.0</ele><time>2026-04-12T09:48:29.001Z</time></trkpt><trkpt lat="38.051293191399886" lon="13.232143489418982"><ele>527.0</ele><time>2026-04-12T09:48:30.001Z</time></trkpt><trkpt lat="38.051227474940795" lon="13.232218292930119"><ele>527.0</ele><time>2026-04-12T09:48:31.001Z</time></trkpt><trkpt lat="38.05114747215485" lon="13.232259732642047"><ele>527.0</ele><time>2026-04-12T09:48:32.001Z</time></trkpt><trkpt lat="38.05104288888699" lon="13.232251168688652"><ele>527.0</ele><time>2026-04-12T09:48:33.001Z</time></trkpt><trkpt lat="38.050930477813615" lon="13.232282397939418"><ele>527.0</ele><time>2026-04-12T09:48:34.001Z</time></trkpt><trkpt lat="38.05083179519336" lon="13.232337925622963"><ele>523.5</ele><time>2026-04-12T09:48:35.001Z</time></trkpt><trkpt lat="38.050734742693464" lon="13.232385855835973"><ele>520.0</ele><time>2026-04-12T09:48:36.001Z</time></trkpt><trkpt lat="38.050654582131216" lon="13.232432875895382"><ele>516.5</ele><time>2026-04-12T09:48:37.001Z</time></trkpt><trkpt lat="38.05058070814468" lon="13.232481081108949"><ele>513.0</ele><time>2026-04-12T09:48:38.001Z</time></trkpt><trkpt lat="38.05050358429562" lon="13.232537987174943"><ele>509.49999999999994</ele><time>2026-04-12T09:48:39.001Z</time></trkpt><trkpt lat="38.05043930564618" lon="13.232573456329135"><ele>506.0</ele><time>2026-04-12T09:48:40.001Z</time></trkpt><trkpt lat="38.05037908087456" lon="13.232630067757574"><ele>505.99999999999994</ele><time>2026-04-12T09:48:41.001Z</time></trkpt><trkpt lat="38.05031465604309" lon="13.232667629345118"><ele>506.0</ele><time>2026-04-12T09:48:42.001Z</time></trkpt><trkpt lat="38.05024321551722" lon="13.232698675556655"><ele>506.0</ele><time>2026-04-12T09:48:43.001Z</time></trkpt><trkpt lat="38.05015304398358" lon="13.232696714215844"><ele>506.0</ele><time>2026-04-12T09:48:44.001Z</time></trkpt><trkpt lat="38.05006558408044" lon="13.23273187413014"><ele>505.99999999999994</ele><time>2026-04-12T09:48:45.001Z</time></trkpt><trkpt lat="38.0499647558834" lon="13.2327503671887"><ele>506.0</ele><time>2026-04-12T09:48:46.001Z</time></trkpt><trkpt lat="38.04987946639767" lon="13.232799341577921"><ele>505.3333333333333</ele><time>2026-04-12T09:48:47Z</time></trkpt><trkpt lat="38.04980410710124" lon="13.232852679924488"><ele>504.66666666666663</ele><time>2026-04-12T09:48:48Z</time></trkpt><trkpt lat="38.04972540262301" lon="13.23290224813824"><ele>504.0</ele><time>2026-04-12T09:48:49Z</time></trkpt><trkpt lat="38.049648093946516" lon="13.232932072000516"><ele>503.33333333333337</ele><time>2026-04-12T09:48:50Z</time></trkpt><trkpt lat="38.04958549445788" lon="13.232944311752679"><ele>502.6666666666667</ele><time>2026-04-12T09:48:51Z</time></trkpt><trkpt lat="38.04954603906201" lon="13.233008982672976"><ele>502.0</ele><time>2026-04-12T09:48:52Z</time></trkpt><trkpt lat="38.04948006432267" lon="13.233141354455284"><ele>500.6666666666667</ele><time>2026-04-12T09:48:54Z</time></trkpt><trkpt lat="38.049423699817524" lon="13.233229685955537"><ele>499.33333333333337</ele><time>2026-04-12T09:48:56Z</time></trkpt><trkpt lat="38.049397831879034" lon="13.233321282066914"><ele>498.0</ele><time>2026-04-12T09:48:58Z</time></trkpt><trkpt lat="38.04935663324651" lon="13.233416811447443"><ele>496.66666666666663</ele><time>2026-04-12T09:49:00Z</time></trkpt><trkpt lat="38.04931555724595" lon="13.233555042855834"><ele>495.3333333333333</ele><time>2026-04-12T09:49:02Z</time></trkpt><trkpt lat="38.04925919276469" lon="13.233619812997114"><ele>494.0</ele><time>2026-04-12T09:49:04Z</time></trkpt><trkpt lat="38.04918041949459" lon="13.233659858326936"><ele>494.0</ele><time>2026-04-12T09:49:07Z</time></trkpt><trkpt lat="38.04912315643898" lon="13.23360758373509"><ele>494.0</ele><time>2026-04-12T09:52:58.001Z</time></trkpt><trkpt lat="38.0491434726488" lon="13.233519740705413"><ele>494.0</ele><time>2026-04-12T09:53:01Z</time></trkpt><trkpt lat="38.04905512113755" lon="13.233517018192696"><ele>494.0</ele><time>2026-04-12T09:53:17Z</time></trkpt><trkpt lat="38.0490302152149" lon="13.233595793930764"><ele>494.0</ele><time>2026-04-12T09:53:28Z</time></trkpt><trkpt lat="38.04908410322621" lon="13.233640812664232"><ele>494.0</ele><time>2026-04-12T09:53:35Z</time></trkpt><trkpt lat="38.04912793468844" lon="13.233578750090603"><ele>494.0</ele><time>2026-04-12T09:54:15Z</time></trkpt><trkpt lat="38.049148424399895" lon="13.233497256966745"><ele>494.0</ele><time>2026-04-12T09:54:21.001Z</time></trkpt><trkpt lat="38.049089951266225" lon="13.233466931845198"><ele>494.0</ele><time>2026-04-12T09:54:30.001Z</time></trkpt><trkpt lat="38.049131209737574" lon="13.233395793336319"><ele>494.0</ele><time>2026-04-12T09:54:56.001Z</time></trkpt><trkpt lat="38.04907440006563" lon="13.233324991564801"><ele>494.0</ele><time>2026-04-12T09:55:29Z</time></trkpt><trkpt lat="38.04901621464374" lon="13.233362291300237"><ele>494.0</ele><time>2026-04-12T09:55:35Z</time></trkpt><trkpt lat="38.048950421491966" lon="13.23337675789406"><ele>494.0</ele><time>2026-04-12T09:55:52Z</time></trkpt><trkpt lat="38.04902310952378" lon="13.233376052242923"><ele>494.0</ele><time>2026-04-12T09:58:18Z</time></trkpt><trkpt lat="38.049105423870785" lon="13.233380267336688"><ele>473.0</ele><time>2026-04-12T09:58:20Z</time></trkpt><trkpt lat="38.04903231039006" lon="13.233469975987122"><ele>473.0</ele><time>2026-04-12T09:58:31.001Z</time></trkpt><trkpt lat="38.04909336131899" lon="13.23351669225071"><ele>473.0</ele><time>2026-04-12T09:58:36.001Z</time></trkpt><trkpt lat="38.0490849027009" lon="13.23365837743433"><ele>473.0</ele><time>2026-04-12T09:59:26Z</time></trkpt><trkpt lat="38.049114426354066" lon="13.23357823659186"><ele>473.0</ele><time>2026-04-12T10:03:27.001Z</time></trkpt><trkpt lat="38.049114890217375" lon="13.233488091250688"><ele>473.0</ele><time>2026-04-12T10:03:31.999Z</time></trkpt></trkseg></trk></gpx>